<?xml version="1.0" encoding="UTF-8" standalone="no" ?>
<gpx xmlns="http://www.topografix.com/GPX/1/1" xmlns:xsi="http://www.w3.org/2001/XMLSchema-instance" xsi:schemaLocation="http://www.topografix.com/GPX/1/1 http://www.topografix.com/GPX/1/1/gpx.xsd" version="1.1" creator="VisuGPX - https://www.visugpx.com">
  <metadata>
    <name>Sortie 50kms</name>
  </metadata>
  <trk>
    <name><![CDATA[2019-05-06-13-06-43-course on AllTrails]]></name>
    <trkseg>
      <trkpt lat="50.94172" lon="2.53318">
        <ele>17</ele>
        <time>2019-05-06T06:58:55Z</time>
      </trkpt>
      <trkpt lat="50.94181" lon="2.5331">
        <ele>2</ele>
        <time>2019-05-06T06:58:56Z</time>
      </trkpt>
      <trkpt lat="50.94175" lon="2.53312">
        <ele>2</ele>
        <time>2019-05-06T06:58:57Z</time>
      </trkpt>
      <trkpt lat="50.94177" lon="2.53308">
        <ele>2</ele>
        <time>2019-05-06T06:58:58Z</time>
      </trkpt>
      <trkpt lat="50.94175" lon="2.53305">
        <ele>2</ele>
        <time>2019-05-06T06:58:59Z</time>
      </trkpt>
      <trkpt lat="50.94175" lon="2.53305">
        <ele>17</ele>
        <time>2019-05-06T06:59:00Z</time>
      </trkpt>
      <trkpt lat="50.94174" lon="2.53298">
        <ele>17</ele>
        <time>2019-05-06T06:59:01Z</time>
      </trkpt>
      <trkpt lat="50.94179" lon="2.53298">
        <ele>17</ele>
        <time>2019-05-06T06:59:02Z</time>
      </trkpt>
      <trkpt lat="50.94175" lon="2.53303">
        <ele>18</ele>
        <time>2019-05-06T06:59:03Z</time>
      </trkpt>
      <trkpt lat="50.94185" lon="2.53304">
        <ele>18</ele>
        <time>2019-05-06T06:59:04Z</time>
      </trkpt>
      <trkpt lat="50.94186" lon="2.53304">
        <ele>17</ele>
        <time>2019-05-06T06:59:05Z</time>
      </trkpt>
      <trkpt lat="50.94189" lon="2.5331">
        <ele>17</ele>
        <time>2019-05-06T06:59:06Z</time>
      </trkpt>
      <trkpt lat="50.9419" lon="2.53311">
        <ele>17</ele>
        <time>2019-05-06T06:59:07Z</time>
      </trkpt>
      <trkpt lat="50.94193" lon="2.53317">
        <ele>17</ele>
        <time>2019-05-06T06:59:08Z</time>
      </trkpt>
      <trkpt lat="50.9419" lon="2.53316">
        <ele>17</ele>
        <time>2019-05-06T06:59:09Z</time>
      </trkpt>
      <trkpt lat="50.94193" lon="2.53319">
        <ele>17</ele>
        <time>2019-05-06T06:59:10Z</time>
      </trkpt>
      <trkpt lat="50.94195" lon="2.53321">
        <ele>17</ele>
        <time>2019-05-06T06:59:11Z</time>
      </trkpt>
      <trkpt lat="50.94197" lon="2.53324">
        <ele>17</ele>
        <time>2019-05-06T06:59:12Z</time>
      </trkpt>
      <trkpt lat="50.94198" lon="2.53327">
        <ele>17</ele>
        <time>2019-05-06T06:59:13Z</time>
      </trkpt>
      <trkpt lat="50.94214" lon="2.53353">
        <ele>17</ele>
        <time>2019-05-06T06:59:22Z</time>
      </trkpt>
      <trkpt lat="50.94229" lon="2.53377">
        <ele>17</ele>
        <time>2019-05-06T06:59:32Z</time>
      </trkpt>
      <trkpt lat="50.94233" lon="2.5339">
        <ele>17</ele>
        <time>2019-05-06T06:59:37Z</time>
      </trkpt>
      <trkpt lat="50.94232" lon="2.53393">
        <ele>17</ele>
        <time>2019-05-06T06:59:38Z</time>
      </trkpt>
      <trkpt lat="50.94217" lon="2.53421">
        <ele>17</ele>
        <time>2019-05-06T06:59:50Z</time>
      </trkpt>
      <trkpt lat="50.94211" lon="2.5344">
        <ele>16</ele>
        <time>2019-05-06T06:59:57Z</time>
      </trkpt>
      <trkpt lat="50.94211" lon="2.53443">
        <ele>17</ele>
        <time>2019-05-06T06:59:58Z</time>
      </trkpt>
      <trkpt lat="50.94211" lon="2.53446">
        <ele>17</ele>
        <time>2019-05-06T06:59:59Z</time>
      </trkpt>
      <trkpt lat="50.94212" lon="2.5345">
        <ele>17</ele>
        <time>2019-05-06T07:00:00Z</time>
      </trkpt>
      <trkpt lat="50.94213" lon="2.53452">
        <ele>17</ele>
        <time>2019-05-06T07:00:01Z</time>
      </trkpt>
      <trkpt lat="50.94219" lon="2.53477">
        <ele>17</ele>
        <time>2019-05-06T07:00:11Z</time>
      </trkpt>
      <trkpt lat="50.9422" lon="2.53504">
        <ele>17</ele>
        <time>2019-05-06T07:00:21Z</time>
      </trkpt>
      <trkpt lat="50.9422" lon="2.53506">
        <ele>17</ele>
        <time>2019-05-06T07:00:22Z</time>
      </trkpt>
      <trkpt lat="50.94219" lon="2.53509">
        <ele>17</ele>
        <time>2019-05-06T07:00:23Z</time>
      </trkpt>
      <trkpt lat="50.94218" lon="2.53511">
        <ele>17</ele>
        <time>2019-05-06T07:00:24Z</time>
      </trkpt>
      <trkpt lat="50.94217" lon="2.53513">
        <ele>17</ele>
        <time>2019-05-06T07:00:25Z</time>
      </trkpt>
      <trkpt lat="50.94216" lon="2.53515">
        <ele>17</ele>
        <time>2019-05-06T07:00:26Z</time>
      </trkpt>
      <trkpt lat="50.94214" lon="2.53517">
        <ele>17</ele>
        <time>2019-05-06T07:00:27Z</time>
      </trkpt>
      <trkpt lat="50.94211" lon="2.5352">
        <ele>17</ele>
        <time>2019-05-06T07:00:28Z</time>
      </trkpt>
      <trkpt lat="50.94209" lon="2.53521">
        <ele>17</ele>
        <time>2019-05-06T07:00:29Z</time>
      </trkpt>
      <trkpt lat="50.94207" lon="2.53523">
        <ele>17</ele>
        <time>2019-05-06T07:00:30Z</time>
      </trkpt>
      <trkpt lat="50.94205" lon="2.53524">
        <ele>17</ele>
        <time>2019-05-06T07:00:31Z</time>
      </trkpt>
      <trkpt lat="50.94203" lon="2.53525">
        <ele>17</ele>
        <time>2019-05-06T07:00:32Z</time>
      </trkpt>
      <trkpt lat="50.94201" lon="2.53527">
        <ele>17</ele>
        <time>2019-05-06T07:00:33Z</time>
      </trkpt>
      <trkpt lat="50.9418" lon="2.53545">
        <ele>17</ele>
        <time>2019-05-06T07:00:44Z</time>
      </trkpt>
      <trkpt lat="50.9416" lon="2.53558">
        <ele>18</ele>
        <time>2019-05-06T07:00:55Z</time>
      </trkpt>
      <trkpt lat="50.94138" lon="2.53571">
        <ele>18</ele>
        <time>2019-05-06T07:01:06Z</time>
      </trkpt>
      <trkpt lat="50.94131" lon="2.53577">
        <ele>18</ele>
        <time>2019-05-06T07:01:10Z</time>
      </trkpt>
      <trkpt lat="50.94129" lon="2.53579">
        <ele>18</ele>
        <time>2019-05-06T07:01:11Z</time>
      </trkpt>
      <trkpt lat="50.94115" lon="2.53601">
        <ele>17</ele>
        <time>2019-05-06T07:01:22Z</time>
      </trkpt>
      <trkpt lat="50.94114" lon="2.53604">
        <ele>17</ele>
        <time>2019-05-06T07:01:23Z</time>
      </trkpt>
      <trkpt lat="50.94113" lon="2.53607">
        <ele>17</ele>
        <time>2019-05-06T07:01:24Z</time>
      </trkpt>
      <trkpt lat="50.94111" lon="2.5361">
        <ele>17</ele>
        <time>2019-05-06T07:01:25Z</time>
      </trkpt>
      <trkpt lat="50.94109" lon="2.53612">
        <ele>17</ele>
        <time>2019-05-06T07:01:26Z</time>
      </trkpt>
      <trkpt lat="50.94096" lon="2.53637">
        <ele>17</ele>
        <time>2019-05-06T07:01:37Z</time>
      </trkpt>
      <trkpt lat="50.94096" lon="2.53641">
        <ele>17</ele>
        <time>2019-05-06T07:01:38Z</time>
      </trkpt>
      <trkpt lat="50.94096" lon="2.53645">
        <ele>17</ele>
        <time>2019-05-06T07:01:39Z</time>
      </trkpt>
      <trkpt lat="50.94089" lon="2.53678">
        <ele>17</ele>
        <time>2019-05-06T07:01:50Z</time>
      </trkpt>
      <trkpt lat="50.94077" lon="2.53705">
        <ele>17</ele>
        <time>2019-05-06T07:02:01Z</time>
      </trkpt>
      <trkpt lat="50.94072" lon="2.53713">
        <ele>17</ele>
        <time>2019-05-06T07:02:04Z</time>
      </trkpt>
      <trkpt lat="50.94071" lon="2.53716">
        <ele>17</ele>
        <time>2019-05-06T07:02:05Z</time>
      </trkpt>
      <trkpt lat="50.94067" lon="2.53749">
        <ele>16</ele>
        <time>2019-05-06T07:02:15Z</time>
      </trkpt>
      <trkpt lat="50.94064" lon="2.53752">
        <ele>16</ele>
        <time>2019-05-06T07:02:17Z</time>
      </trkpt>
      <trkpt lat="50.94063" lon="2.53754">
        <ele>16</ele>
        <time>2019-05-06T07:02:18Z</time>
      </trkpt>
      <trkpt lat="50.94051" lon="2.53777">
        <ele>16</ele>
        <time>2019-05-06T07:02:29Z</time>
      </trkpt>
      <trkpt lat="50.94048" lon="2.53783">
        <ele>16</ele>
        <time>2019-05-06T07:02:32Z</time>
      </trkpt>
      <trkpt lat="50.94047" lon="2.53785">
        <ele>16</ele>
        <time>2019-05-06T07:02:33Z</time>
      </trkpt>
      <trkpt lat="50.94036" lon="2.53807">
        <ele>16</ele>
        <time>2019-05-06T07:02:43Z</time>
      </trkpt>
      <trkpt lat="50.94029" lon="2.53838">
        <ele>16</ele>
        <time>2019-05-06T07:02:54Z</time>
      </trkpt>
      <trkpt lat="50.94021" lon="2.53868">
        <ele>16</ele>
        <time>2019-05-06T07:03:04Z</time>
      </trkpt>
      <trkpt lat="50.94017" lon="2.53877">
        <ele>16</ele>
        <time>2019-05-06T07:03:07Z</time>
      </trkpt>
      <trkpt lat="50.94015" lon="2.53879">
        <ele>16</ele>
        <time>2019-05-06T07:03:08Z</time>
      </trkpt>
      <trkpt lat="50.94013" lon="2.53881">
        <ele>16</ele>
        <time>2019-05-06T07:03:09Z</time>
      </trkpt>
      <trkpt lat="50.94012" lon="2.53883">
        <ele>16</ele>
        <time>2019-05-06T07:03:10Z</time>
      </trkpt>
      <trkpt lat="50.94012" lon="2.53884">
        <ele>16</ele>
        <time>2019-05-06T07:03:11Z</time>
      </trkpt>
      <trkpt lat="50.94011" lon="2.53887">
        <ele>16</ele>
        <time>2019-05-06T07:03:12Z</time>
      </trkpt>
      <trkpt lat="50.94003" lon="2.53897">
        <ele>16</ele>
        <time>2019-05-06T07:03:17Z</time>
      </trkpt>
      <trkpt lat="50.93987" lon="2.53915">
        <ele>16</ele>
        <time>2019-05-06T07:03:27Z</time>
      </trkpt>
      <trkpt lat="50.93987" lon="2.5392">
        <ele>16</ele>
        <time>2019-05-06T07:03:28Z</time>
      </trkpt>
      <trkpt lat="50.93986" lon="2.53924">
        <ele>15</ele>
        <time>2019-05-06T07:03:29Z</time>
      </trkpt>
      <trkpt lat="50.93986" lon="2.53928">
        <ele>15</ele>
        <time>2019-05-06T07:03:30Z</time>
      </trkpt>
      <trkpt lat="50.93992" lon="2.53948">
        <ele>14</ele>
        <time>2019-05-06T07:03:38Z</time>
      </trkpt>
      <trkpt lat="50.93993" lon="2.5395">
        <ele>14</ele>
        <time>2019-05-06T07:03:39Z</time>
      </trkpt>
      <trkpt lat="50.94005" lon="2.53973">
        <ele>14</ele>
        <time>2019-05-06T07:03:48Z</time>
      </trkpt>
      <trkpt lat="50.94016" lon="2.53994">
        <ele>13</ele>
        <time>2019-05-06T07:03:58Z</time>
      </trkpt>
      <trkpt lat="50.9403" lon="2.5401">
        <ele>13</ele>
        <time>2019-05-06T07:04:07Z</time>
      </trkpt>
      <trkpt lat="50.94042" lon="2.54025">
        <ele>13</ele>
        <time>2019-05-06T07:04:16Z</time>
      </trkpt>
      <trkpt lat="50.94051" lon="2.54046">
        <ele>13</ele>
        <time>2019-05-06T07:04:24Z</time>
      </trkpt>
      <trkpt lat="50.94051" lon="2.54049">
        <ele>13</ele>
        <time>2019-05-06T07:04:25Z</time>
      </trkpt>
      <trkpt lat="50.94052" lon="2.54049">
        <ele>13</ele>
        <time>2019-05-06T07:04:26Z</time>
      </trkpt>
      <trkpt lat="50.94053" lon="2.54052">
        <ele>13</ele>
        <time>2019-05-06T07:04:27Z</time>
      </trkpt>
      <trkpt lat="50.94055" lon="2.54053">
        <ele>13</ele>
        <time>2019-05-06T07:04:28Z</time>
      </trkpt>
      <trkpt lat="50.94056" lon="2.54055">
        <ele>13</ele>
        <time>2019-05-06T07:04:29Z</time>
      </trkpt>
      <trkpt lat="50.94058" lon="2.54057">
        <ele>13</ele>
        <time>2019-05-06T07:04:30Z</time>
      </trkpt>
      <trkpt lat="50.94059" lon="2.54058">
        <ele>13</ele>
        <time>2019-05-06T07:04:31Z</time>
      </trkpt>
      <trkpt lat="50.9406" lon="2.54061">
        <ele>13</ele>
        <time>2019-05-06T07:04:32Z</time>
      </trkpt>
      <trkpt lat="50.94061" lon="2.54066">
        <ele>13</ele>
        <time>2019-05-06T07:04:34Z</time>
      </trkpt>
      <trkpt lat="50.94061" lon="2.5407">
        <ele>13</ele>
        <time>2019-05-06T07:04:35Z</time>
      </trkpt>
      <trkpt lat="50.94061" lon="2.54072">
        <ele>13</ele>
        <time>2019-05-06T07:04:36Z</time>
      </trkpt>
      <trkpt lat="50.94062" lon="2.54075">
        <ele>13</ele>
        <time>2019-05-06T07:04:37Z</time>
      </trkpt>
      <trkpt lat="50.94062" lon="2.54078">
        <ele>13</ele>
        <time>2019-05-06T07:04:38Z</time>
      </trkpt>
      <trkpt lat="50.94061" lon="2.54103">
        <ele>13</ele>
        <time>2019-05-06T07:04:47Z</time>
      </trkpt>
      <trkpt lat="50.94061" lon="2.54106">
        <ele>13</ele>
        <time>2019-05-06T07:04:48Z</time>
      </trkpt>
      <trkpt lat="50.94061" lon="2.54109">
        <ele>13</ele>
        <time>2019-05-06T07:04:49Z</time>
      </trkpt>
      <trkpt lat="50.94061" lon="2.54114">
        <ele>13</ele>
        <time>2019-05-06T07:04:50Z</time>
      </trkpt>
      <trkpt lat="50.94061" lon="2.54118">
        <ele>13</ele>
        <time>2019-05-06T07:04:51Z</time>
      </trkpt>
      <trkpt lat="50.94063" lon="2.54124">
        <ele>13</ele>
        <time>2019-05-06T07:04:54Z</time>
      </trkpt>
      <trkpt lat="50.94063" lon="2.54126">
        <ele>13</ele>
        <time>2019-05-06T07:04:55Z</time>
      </trkpt>
      <trkpt lat="50.94063" lon="2.54128">
        <ele>13</ele>
        <time>2019-05-06T07:04:56Z</time>
      </trkpt>
      <trkpt lat="50.94064" lon="2.54131">
        <ele>13</ele>
        <time>2019-05-06T07:04:57Z</time>
      </trkpt>
      <trkpt lat="50.94065" lon="2.54133">
        <ele>13</ele>
        <time>2019-05-06T07:04:58Z</time>
      </trkpt>
      <trkpt lat="50.94075" lon="2.54168">
        <ele>13</ele>
        <time>2019-05-06T07:05:09Z</time>
      </trkpt>
      <trkpt lat="50.94094" lon="2.5419">
        <ele>13</ele>
        <time>2019-05-06T07:05:19Z</time>
      </trkpt>
      <trkpt lat="50.94104" lon="2.54213">
        <ele>12</ele>
        <time>2019-05-06T07:05:28Z</time>
      </trkpt>
      <trkpt lat="50.94117" lon="2.54234">
        <ele>12</ele>
        <time>2019-05-06T07:05:37Z</time>
      </trkpt>
      <trkpt lat="50.94129" lon="2.54253">
        <ele>13</ele>
        <time>2019-05-06T07:05:46Z</time>
      </trkpt>
      <trkpt lat="50.94142" lon="2.54272">
        <ele>12</ele>
        <time>2019-05-06T07:05:56Z</time>
      </trkpt>
      <trkpt lat="50.94157" lon="2.54289">
        <ele>11</ele>
        <time>2019-05-06T07:06:05Z</time>
      </trkpt>
      <trkpt lat="50.94173" lon="2.54307">
        <ele>12</ele>
        <time>2019-05-06T07:06:14Z</time>
      </trkpt>
      <trkpt lat="50.94188" lon="2.54328">
        <ele>12</ele>
        <time>2019-05-06T07:06:23Z</time>
      </trkpt>
      <trkpt lat="50.94203" lon="2.54346">
        <ele>12</ele>
        <time>2019-05-06T07:06:32Z</time>
      </trkpt>
      <trkpt lat="50.94217" lon="2.54368">
        <ele>12</ele>
        <time>2019-05-06T07:06:42Z</time>
      </trkpt>
      <trkpt lat="50.9423" lon="2.54388">
        <ele>12</ele>
        <time>2019-05-06T07:06:51Z</time>
      </trkpt>
      <trkpt lat="50.94245" lon="2.54406">
        <ele>12</ele>
        <time>2019-05-06T07:07:00Z</time>
      </trkpt>
      <trkpt lat="50.94257" lon="2.54425">
        <ele>12</ele>
        <time>2019-05-06T07:07:09Z</time>
      </trkpt>
      <trkpt lat="50.94273" lon="2.5444">
        <ele>12</ele>
        <time>2019-05-06T07:07:19Z</time>
      </trkpt>
      <trkpt lat="50.94288" lon="2.54458">
        <ele>13</ele>
        <time>2019-05-06T07:07:28Z</time>
      </trkpt>
      <trkpt lat="50.94295" lon="2.54477">
        <ele>13</ele>
        <time>2019-05-06T07:07:37Z</time>
      </trkpt>
      <trkpt lat="50.94311" lon="2.54493">
        <ele>13</ele>
        <time>2019-05-06T07:07:46Z</time>
      </trkpt>
      <trkpt lat="50.94324" lon="2.54515">
        <ele>13</ele>
        <time>2019-05-06T07:07:55Z</time>
      </trkpt>
      <trkpt lat="50.94325" lon="2.54521">
        <ele>13</ele>
        <time>2019-05-06T07:07:57Z</time>
      </trkpt>
      <trkpt lat="50.94325" lon="2.54524">
        <ele>13</ele>
        <time>2019-05-06T07:07:58Z</time>
      </trkpt>
      <trkpt lat="50.94324" lon="2.54527">
        <ele>13</ele>
        <time>2019-05-06T07:07:59Z</time>
      </trkpt>
      <trkpt lat="50.94321" lon="2.5453">
        <ele>13</ele>
        <time>2019-05-06T07:08:00Z</time>
      </trkpt>
      <trkpt lat="50.94319" lon="2.54533">
        <ele>13</ele>
        <time>2019-05-06T07:08:01Z</time>
      </trkpt>
      <trkpt lat="50.94315" lon="2.54536">
        <ele>13</ele>
        <time>2019-05-06T07:08:02Z</time>
      </trkpt>
      <trkpt lat="50.94312" lon="2.54539">
        <ele>12</ele>
        <time>2019-05-06T07:08:03Z</time>
      </trkpt>
      <trkpt lat="50.94292" lon="2.54556">
        <ele>12</ele>
        <time>2019-05-06T07:08:12Z</time>
      </trkpt>
      <trkpt lat="50.94276" lon="2.54576">
        <ele>11</ele>
        <time>2019-05-06T07:08:22Z</time>
      </trkpt>
      <trkpt lat="50.94268" lon="2.54597">
        <ele>11</ele>
        <time>2019-05-06T07:08:31Z</time>
      </trkpt>
      <trkpt lat="50.9426" lon="2.54624">
        <ele>10</ele>
        <time>2019-05-06T07:08:40Z</time>
      </trkpt>
      <trkpt lat="50.94251" lon="2.54654">
        <ele>10</ele>
        <time>2019-05-06T07:08:50Z</time>
      </trkpt>
      <trkpt lat="50.94237" lon="2.54681">
        <ele>10</ele>
        <time>2019-05-06T07:08:59Z</time>
      </trkpt>
      <trkpt lat="50.94221" lon="2.547">
        <ele>10</ele>
        <time>2019-05-06T07:09:08Z</time>
      </trkpt>
      <trkpt lat="50.94206" lon="2.54709">
        <ele>10</ele>
        <time>2019-05-06T07:09:17Z</time>
      </trkpt>
      <trkpt lat="50.94191" lon="2.5472">
        <ele>10</ele>
        <time>2019-05-06T07:09:26Z</time>
      </trkpt>
      <trkpt lat="50.94178" lon="2.54732">
        <ele>10</ele>
        <time>2019-05-06T07:09:35Z</time>
      </trkpt>
      <trkpt lat="50.94163" lon="2.54749">
        <ele>10</ele>
        <time>2019-05-06T07:09:45Z</time>
      </trkpt>
      <trkpt lat="50.94146" lon="2.54766">
        <ele>10</ele>
        <time>2019-05-06T07:09:54Z</time>
      </trkpt>
      <trkpt lat="50.94131" lon="2.54782">
        <ele>10</ele>
        <time>2019-05-06T07:10:03Z</time>
      </trkpt>
      <trkpt lat="50.94113" lon="2.54796">
        <ele>10</ele>
        <time>2019-05-06T07:10:12Z</time>
      </trkpt>
      <trkpt lat="50.94095" lon="2.54807">
        <ele>11</ele>
        <time>2019-05-06T07:10:21Z</time>
      </trkpt>
      <trkpt lat="50.94072" lon="2.54818">
        <ele>11</ele>
        <time>2019-05-06T07:10:30Z</time>
      </trkpt>
      <trkpt lat="50.94055" lon="2.5483">
        <ele>11</ele>
        <time>2019-05-06T07:10:39Z</time>
      </trkpt>
      <trkpt lat="50.94037" lon="2.54843">
        <ele>11</ele>
        <time>2019-05-06T07:10:48Z</time>
      </trkpt>
      <trkpt lat="50.9402" lon="2.54853">
        <ele>11</ele>
        <time>2019-05-06T07:10:57Z</time>
      </trkpt>
      <trkpt lat="50.94003" lon="2.54864">
        <ele>11</ele>
        <time>2019-05-06T07:11:06Z</time>
      </trkpt>
      <trkpt lat="50.93985" lon="2.54875">
        <ele>11</ele>
        <time>2019-05-06T07:11:15Z</time>
      </trkpt>
      <trkpt lat="50.93968" lon="2.54885">
        <ele>11</ele>
        <time>2019-05-06T07:11:24Z</time>
      </trkpt>
      <trkpt lat="50.93952" lon="2.54897">
        <ele>11</ele>
        <time>2019-05-06T07:11:33Z</time>
      </trkpt>
      <trkpt lat="50.93934" lon="2.54907">
        <ele>12</ele>
        <time>2019-05-06T07:11:42Z</time>
      </trkpt>
      <trkpt lat="50.93918" lon="2.54915">
        <ele>12</ele>
        <time>2019-05-06T07:11:51Z</time>
      </trkpt>
      <trkpt lat="50.93901" lon="2.54924">
        <ele>12</ele>
        <time>2019-05-06T07:12:00Z</time>
      </trkpt>
      <trkpt lat="50.93885" lon="2.54935">
        <ele>12</ele>
        <time>2019-05-06T07:12:08Z</time>
      </trkpt>
      <trkpt lat="50.9387" lon="2.54943">
        <ele>12</ele>
        <time>2019-05-06T07:12:17Z</time>
      </trkpt>
      <trkpt lat="50.93854" lon="2.54952">
        <ele>12</ele>
        <time>2019-05-06T07:12:26Z</time>
      </trkpt>
      <trkpt lat="50.93851" lon="2.54954">
        <ele>12</ele>
        <time>2019-05-06T07:12:28Z</time>
      </trkpt>
      <trkpt lat="50.93849" lon="2.54955">
        <ele>12</ele>
        <time>2019-05-06T07:12:29Z</time>
      </trkpt>
      <trkpt lat="50.93847" lon="2.54956">
        <ele>12</ele>
        <time>2019-05-06T07:12:30Z</time>
      </trkpt>
      <trkpt lat="50.9383" lon="2.54968">
        <ele>12</ele>
        <time>2019-05-06T07:12:39Z</time>
      </trkpt>
      <trkpt lat="50.93831" lon="2.54992">
        <ele>12</ele>
        <time>2019-05-06T07:12:49Z</time>
      </trkpt>
      <trkpt lat="50.93846" lon="2.55015">
        <ele>13</ele>
        <time>2019-05-06T07:12:59Z</time>
      </trkpt>
      <trkpt lat="50.93854" lon="2.55031">
        <ele>12</ele>
        <time>2019-05-06T07:13:05Z</time>
      </trkpt>
      <trkpt lat="50.93855" lon="2.55033">
        <ele>12</ele>
        <time>2019-05-06T07:13:06Z</time>
      </trkpt>
      <trkpt lat="50.93867" lon="2.55058">
        <ele>12</ele>
        <time>2019-05-06T07:13:15Z</time>
      </trkpt>
      <trkpt lat="50.93883" lon="2.55081">
        <ele>12</ele>
        <time>2019-05-06T07:13:25Z</time>
      </trkpt>
      <trkpt lat="50.93895" lon="2.55106">
        <ele>12</ele>
        <time>2019-05-06T07:13:34Z</time>
      </trkpt>
      <trkpt lat="50.93908" lon="2.55129">
        <ele>12</ele>
        <time>2019-05-06T07:13:44Z</time>
      </trkpt>
      <trkpt lat="50.93922" lon="2.55155">
        <ele>12</ele>
        <time>2019-05-06T07:13:54Z</time>
      </trkpt>
      <trkpt lat="50.93932" lon="2.55184">
        <ele>12</ele>
        <time>2019-05-06T07:14:04Z</time>
      </trkpt>
      <trkpt lat="50.93944" lon="2.55209">
        <ele>12</ele>
        <time>2019-05-06T07:14:13Z</time>
      </trkpt>
      <trkpt lat="50.93957" lon="2.55233">
        <ele>13</ele>
        <time>2019-05-06T07:14:23Z</time>
      </trkpt>
      <trkpt lat="50.93964" lon="2.55262">
        <ele>13</ele>
        <time>2019-05-06T07:14:33Z</time>
      </trkpt>
      <trkpt lat="50.93973" lon="2.55291">
        <ele>13</ele>
        <time>2019-05-06T07:14:43Z</time>
      </trkpt>
      <trkpt lat="50.93983" lon="2.5532">
        <ele>12</ele>
        <time>2019-05-06T07:14:54Z</time>
      </trkpt>
      <trkpt lat="50.93989" lon="2.55353">
        <ele>12</ele>
        <time>2019-05-06T07:15:05Z</time>
      </trkpt>
      <trkpt lat="50.93994" lon="2.55388">
        <ele>12</ele>
        <time>2019-05-06T07:15:16Z</time>
      </trkpt>
      <trkpt lat="50.93998" lon="2.55418">
        <ele>12</ele>
        <time>2019-05-06T07:15:27Z</time>
      </trkpt>
      <trkpt lat="50.94" lon="2.5545">
        <ele>12</ele>
        <time>2019-05-06T07:15:38Z</time>
      </trkpt>
      <trkpt lat="50.93998" lon="2.55486">
        <ele>11</ele>
        <time>2019-05-06T07:15:50Z</time>
      </trkpt>
      <trkpt lat="50.93992" lon="2.55525">
        <ele>11</ele>
        <time>2019-05-06T07:16:01Z</time>
      </trkpt>
      <trkpt lat="50.9399" lon="2.55557">
        <ele>11</ele>
        <time>2019-05-06T07:16:11Z</time>
      </trkpt>
      <trkpt lat="50.9399" lon="2.55559">
        <ele>11</ele>
        <time>2019-05-06T07:16:12Z</time>
      </trkpt>
      <trkpt lat="50.93991" lon="2.55593">
        <ele>11</ele>
        <time>2019-05-06T07:16:23Z</time>
      </trkpt>
      <trkpt lat="50.93996" lon="2.55627">
        <ele>11</ele>
        <time>2019-05-06T07:16:34Z</time>
      </trkpt>
      <trkpt lat="50.94004" lon="2.55656">
        <ele>11</ele>
        <time>2019-05-06T07:16:44Z</time>
      </trkpt>
      <trkpt lat="50.94014" lon="2.55682">
        <ele>10</ele>
        <time>2019-05-06T07:16:53Z</time>
      </trkpt>
      <trkpt lat="50.94024" lon="2.55707">
        <ele>10</ele>
        <time>2019-05-06T07:17:02Z</time>
      </trkpt>
      <trkpt lat="50.94038" lon="2.55732">
        <ele>10</ele>
        <time>2019-05-06T07:17:13Z</time>
      </trkpt>
      <trkpt lat="50.94053" lon="2.55755">
        <ele>10</ele>
        <time>2019-05-06T07:17:23Z</time>
      </trkpt>
      <trkpt lat="50.94068" lon="2.55777">
        <ele>10</ele>
        <time>2019-05-06T07:17:32Z</time>
      </trkpt>
      <trkpt lat="50.94082" lon="2.55803">
        <ele>10</ele>
        <time>2019-05-06T07:17:42Z</time>
      </trkpt>
      <trkpt lat="50.94095" lon="2.5583">
        <ele>11</ele>
        <time>2019-05-06T07:17:52Z</time>
      </trkpt>
      <trkpt lat="50.94107" lon="2.55856">
        <ele>11</ele>
        <time>2019-05-06T07:18:02Z</time>
      </trkpt>
      <trkpt lat="50.94115" lon="2.55872">
        <ele>11</ele>
        <time>2019-05-06T07:18:08Z</time>
      </trkpt>
      <trkpt lat="50.94116" lon="2.55874">
        <ele>11</ele>
        <time>2019-05-06T07:18:09Z</time>
      </trkpt>
      <trkpt lat="50.94117" lon="2.55876">
        <ele>11</ele>
        <time>2019-05-06T07:18:10Z</time>
      </trkpt>
      <trkpt lat="50.94119" lon="2.55879">
        <ele>11</ele>
        <time>2019-05-06T07:18:11Z</time>
      </trkpt>
      <trkpt lat="50.94119" lon="2.55881">
        <ele>11</ele>
        <time>2019-05-06T07:18:12Z</time>
      </trkpt>
      <trkpt lat="50.9412" lon="2.55884">
        <ele>11</ele>
        <time>2019-05-06T07:18:13Z</time>
      </trkpt>
      <trkpt lat="50.94121" lon="2.55887">
        <ele>11</ele>
        <time>2019-05-06T07:18:14Z</time>
      </trkpt>
      <trkpt lat="50.94122" lon="2.5589">
        <ele>11</ele>
        <time>2019-05-06T07:18:15Z</time>
      </trkpt>
      <trkpt lat="50.94123" lon="2.55892">
        <ele>11</ele>
        <time>2019-05-06T07:18:16Z</time>
      </trkpt>
      <trkpt lat="50.94135" lon="2.55916">
        <ele>11</ele>
        <time>2019-05-06T07:18:26Z</time>
      </trkpt>
      <trkpt lat="50.94144" lon="2.55944">
        <ele>12</ele>
        <time>2019-05-06T07:18:36Z</time>
      </trkpt>
      <trkpt lat="50.94148" lon="2.55976">
        <ele>12</ele>
        <time>2019-05-06T07:18:47Z</time>
      </trkpt>
      <trkpt lat="50.94152" lon="2.56008">
        <ele>12</ele>
        <time>2019-05-06T07:18:57Z</time>
      </trkpt>
      <trkpt lat="50.94158" lon="2.56038">
        <ele>12</ele>
        <time>2019-05-06T07:19:07Z</time>
      </trkpt>
      <trkpt lat="50.94168" lon="2.56065">
        <ele>12</ele>
        <time>2019-05-06T07:19:17Z</time>
      </trkpt>
      <trkpt lat="50.94177" lon="2.56093">
        <ele>12</ele>
        <time>2019-05-06T07:19:27Z</time>
      </trkpt>
      <trkpt lat="50.94187" lon="2.56119">
        <ele>12</ele>
        <time>2019-05-06T07:19:37Z</time>
      </trkpt>
      <trkpt lat="50.94196" lon="2.56148">
        <ele>12</ele>
        <time>2019-05-06T07:19:48Z</time>
      </trkpt>
      <trkpt lat="50.942" lon="2.56161">
        <ele>13</ele>
        <time>2019-05-06T07:19:53Z</time>
      </trkpt>
      <trkpt lat="50.94201" lon="2.56164">
        <ele>13</ele>
        <time>2019-05-06T07:19:54Z</time>
      </trkpt>
      <trkpt lat="50.94202" lon="2.56166">
        <ele>13</ele>
        <time>2019-05-06T07:19:55Z</time>
      </trkpt>
      <trkpt lat="50.94203" lon="2.56169">
        <ele>13</ele>
        <time>2019-05-06T07:19:56Z</time>
      </trkpt>
      <trkpt lat="50.94204" lon="2.56172">
        <ele>13</ele>
        <time>2019-05-06T07:19:57Z</time>
      </trkpt>
      <trkpt lat="50.94205" lon="2.56176">
        <ele>13</ele>
        <time>2019-05-06T07:19:58Z</time>
      </trkpt>
      <trkpt lat="50.94206" lon="2.56179">
        <ele>13</ele>
        <time>2019-05-06T07:19:59Z</time>
      </trkpt>
      <trkpt lat="50.94213" lon="2.56208">
        <ele>13</ele>
        <time>2019-05-06T07:20:09Z</time>
      </trkpt>
      <trkpt lat="50.9422" lon="2.56235">
        <ele>13</ele>
        <time>2019-05-06T07:20:19Z</time>
      </trkpt>
      <trkpt lat="50.94222" lon="2.56244">
        <ele>14</ele>
        <time>2019-05-06T07:20:22Z</time>
      </trkpt>
      <trkpt lat="50.94223" lon="2.56246">
        <ele>14</ele>
        <time>2019-05-06T07:20:23Z</time>
      </trkpt>
      <trkpt lat="50.94228" lon="2.56272">
        <ele>14</ele>
        <time>2019-05-06T07:20:33Z</time>
      </trkpt>
      <trkpt lat="50.94235" lon="2.56303">
        <ele>14</ele>
        <time>2019-05-06T07:20:43Z</time>
      </trkpt>
      <trkpt lat="50.9424" lon="2.56333">
        <ele>14</ele>
        <time>2019-05-06T07:20:53Z</time>
      </trkpt>
      <trkpt lat="50.94248" lon="2.5636">
        <ele>14</ele>
        <time>2019-05-06T07:21:02Z</time>
      </trkpt>
      <trkpt lat="50.94257" lon="2.56385">
        <ele>14</ele>
        <time>2019-05-06T07:21:12Z</time>
      </trkpt>
      <trkpt lat="50.94265" lon="2.56413">
        <ele>13</ele>
        <time>2019-05-06T07:21:22Z</time>
      </trkpt>
      <trkpt lat="50.94272" lon="2.56443">
        <ele>14</ele>
        <time>2019-05-06T07:21:33Z</time>
      </trkpt>
      <trkpt lat="50.94278" lon="2.56476">
        <ele>14</ele>
        <time>2019-05-06T07:21:43Z</time>
      </trkpt>
      <trkpt lat="50.9428" lon="2.56487">
        <ele>14</ele>
        <time>2019-05-06T07:21:47Z</time>
      </trkpt>
      <trkpt lat="50.9428" lon="2.5649">
        <ele>14</ele>
        <time>2019-05-06T07:21:48Z</time>
      </trkpt>
      <trkpt lat="50.94287" lon="2.56521">
        <ele>14</ele>
        <time>2019-05-06T07:21:58Z</time>
      </trkpt>
      <trkpt lat="50.94293" lon="2.56552">
        <ele>14</ele>
        <time>2019-05-06T07:22:09Z</time>
      </trkpt>
      <trkpt lat="50.94297" lon="2.56583">
        <ele>14</ele>
        <time>2019-05-06T07:22:19Z</time>
      </trkpt>
      <trkpt lat="50.94298" lon="2.56591">
        <ele>14</ele>
        <time>2019-05-06T07:22:22Z</time>
      </trkpt>
      <trkpt lat="50.94298" lon="2.56593">
        <ele>14</ele>
        <time>2019-05-06T07:22:23Z</time>
      </trkpt>
      <trkpt lat="50.94299" lon="2.56595">
        <ele>14</ele>
        <time>2019-05-06T07:22:24Z</time>
      </trkpt>
      <trkpt lat="50.94298" lon="2.56599">
        <ele>14</ele>
        <time>2019-05-06T07:22:25Z</time>
      </trkpt>
      <trkpt lat="50.94298" lon="2.56603">
        <ele>13</ele>
        <time>2019-05-06T07:22:26Z</time>
      </trkpt>
      <trkpt lat="50.94298" lon="2.56607">
        <ele>13</ele>
        <time>2019-05-06T07:22:27Z</time>
      </trkpt>
      <trkpt lat="50.94298" lon="2.5661">
        <ele>13</ele>
        <time>2019-05-06T07:22:28Z</time>
      </trkpt>
      <trkpt lat="50.94299" lon="2.56613">
        <ele>14</ele>
        <time>2019-05-06T07:22:29Z</time>
      </trkpt>
      <trkpt lat="50.94299" lon="2.56615">
        <ele>14</ele>
        <time>2019-05-06T07:22:30Z</time>
      </trkpt>
      <trkpt lat="50.94299" lon="2.56618">
        <ele>14</ele>
        <time>2019-05-06T07:22:31Z</time>
      </trkpt>
      <trkpt lat="50.94299" lon="2.56621">
        <ele>14</ele>
        <time>2019-05-06T07:22:32Z</time>
      </trkpt>
      <trkpt lat="50.94297" lon="2.56638">
        <ele>13</ele>
        <time>2019-05-06T07:22:37Z</time>
      </trkpt>
      <trkpt lat="50.94297" lon="2.56641">
        <ele>13</ele>
        <time>2019-05-06T07:22:38Z</time>
      </trkpt>
      <trkpt lat="50.94296" lon="2.56645">
        <ele>13</ele>
        <time>2019-05-06T07:22:39Z</time>
      </trkpt>
      <trkpt lat="50.94296" lon="2.56649">
        <ele>13</ele>
        <time>2019-05-06T07:22:40Z</time>
      </trkpt>
      <trkpt lat="50.94296" lon="2.56652">
        <ele>13</ele>
        <time>2019-05-06T07:22:41Z</time>
      </trkpt>
      <trkpt lat="50.94295" lon="2.56655">
        <ele>13</ele>
        <time>2019-05-06T07:22:42Z</time>
      </trkpt>
      <trkpt lat="50.94293" lon="2.56688">
        <ele>12</ele>
        <time>2019-05-06T07:22:52Z</time>
      </trkpt>
      <trkpt lat="50.94293" lon="2.56703">
        <ele>13</ele>
        <time>2019-05-06T07:22:57Z</time>
      </trkpt>
      <trkpt lat="50.94292" lon="2.56706">
        <ele>13</ele>
        <time>2019-05-06T07:22:58Z</time>
      </trkpt>
      <trkpt lat="50.94292" lon="2.56709">
        <ele>13</ele>
        <time>2019-05-06T07:22:59Z</time>
      </trkpt>
      <trkpt lat="50.94288" lon="2.56741">
        <ele>13</ele>
        <time>2019-05-06T07:23:09Z</time>
      </trkpt>
      <trkpt lat="50.94294" lon="2.56771">
        <ele>13</ele>
        <time>2019-05-06T07:23:20Z</time>
      </trkpt>
      <trkpt lat="50.94296" lon="2.56779">
        <ele>13</ele>
        <time>2019-05-06T07:23:23Z</time>
      </trkpt>
      <trkpt lat="50.94298" lon="2.56781">
        <ele>13</ele>
        <time>2019-05-06T07:23:24Z</time>
      </trkpt>
      <trkpt lat="50.943" lon="2.56784">
        <ele>13</ele>
        <time>2019-05-06T07:23:25Z</time>
      </trkpt>
      <trkpt lat="50.94301" lon="2.56786">
        <ele>13</ele>
        <time>2019-05-06T07:23:26Z</time>
      </trkpt>
      <trkpt lat="50.94302" lon="2.56789">
        <ele>13</ele>
        <time>2019-05-06T07:23:27Z</time>
      </trkpt>
      <trkpt lat="50.94315" lon="2.56814">
        <ele>13</ele>
        <time>2019-05-06T07:23:37Z</time>
      </trkpt>
      <trkpt lat="50.94328" lon="2.56836">
        <ele>14</ele>
        <time>2019-05-06T07:23:46Z</time>
      </trkpt>
      <trkpt lat="50.94338" lon="2.56856">
        <ele>14</ele>
        <time>2019-05-06T07:23:54Z</time>
      </trkpt>
      <trkpt lat="50.94348" lon="2.56885">
        <ele>14</ele>
        <time>2019-05-06T07:24:04Z</time>
      </trkpt>
      <trkpt lat="50.94357" lon="2.56912">
        <ele>14</ele>
        <time>2019-05-06T07:24:13Z</time>
      </trkpt>
      <trkpt lat="50.94363" lon="2.56938">
        <ele>14</ele>
        <time>2019-05-06T07:24:23Z</time>
      </trkpt>
      <trkpt lat="50.94371" lon="2.56965">
        <ele>13</ele>
        <time>2019-05-06T07:24:32Z</time>
      </trkpt>
      <trkpt lat="50.94379" lon="2.56991">
        <ele>13</ele>
        <time>2019-05-06T07:24:42Z</time>
      </trkpt>
      <trkpt lat="50.94386" lon="2.57017">
        <ele>13</ele>
        <time>2019-05-06T07:24:51Z</time>
      </trkpt>
      <trkpt lat="50.94393" lon="2.57043">
        <ele>13</ele>
        <time>2019-05-06T07:25:01Z</time>
      </trkpt>
      <trkpt lat="50.94402" lon="2.57069">
        <ele>13</ele>
        <time>2019-05-06T07:25:11Z</time>
      </trkpt>
      <trkpt lat="50.94411" lon="2.57095">
        <ele>13</ele>
        <time>2019-05-06T07:25:20Z</time>
      </trkpt>
      <trkpt lat="50.9442" lon="2.57124">
        <ele>13</ele>
        <time>2019-05-06T07:25:30Z</time>
      </trkpt>
      <trkpt lat="50.94431" lon="2.5715">
        <ele>13</ele>
        <time>2019-05-06T07:25:39Z</time>
      </trkpt>
      <trkpt lat="50.94444" lon="2.57168">
        <ele>13</ele>
        <time>2019-05-06T07:25:48Z</time>
      </trkpt>
      <trkpt lat="50.94456" lon="2.57188">
        <ele>14</ele>
        <time>2019-05-06T07:25:57Z</time>
      </trkpt>
      <trkpt lat="50.94466" lon="2.57211">
        <ele>14</ele>
        <time>2019-05-06T07:26:06Z</time>
      </trkpt>
      <trkpt lat="50.94475" lon="2.57235">
        <ele>14</ele>
        <time>2019-05-06T07:26:15Z</time>
      </trkpt>
      <trkpt lat="50.94486" lon="2.57257">
        <ele>14</ele>
        <time>2019-05-06T07:26:24Z</time>
      </trkpt>
      <trkpt lat="50.94495" lon="2.5728">
        <ele>14</ele>
        <time>2019-05-06T07:26:33Z</time>
      </trkpt>
      <trkpt lat="50.94504" lon="2.57307">
        <ele>14</ele>
        <time>2019-05-06T07:26:43Z</time>
      </trkpt>
      <trkpt lat="50.94505" lon="2.57319">
        <ele>14</ele>
        <time>2019-05-06T07:26:47Z</time>
      </trkpt>
      <trkpt lat="50.94505" lon="2.57322">
        <ele>14</ele>
        <time>2019-05-06T07:26:48Z</time>
      </trkpt>
      <trkpt lat="50.945" lon="2.57356">
        <ele>14</ele>
        <time>2019-05-06T07:26:57Z</time>
      </trkpt>
      <trkpt lat="50.94498" lon="2.57387">
        <ele>14</ele>
        <time>2019-05-06T07:27:08Z</time>
      </trkpt>
      <trkpt lat="50.94507" lon="2.57413">
        <ele>14</ele>
        <time>2019-05-06T07:27:18Z</time>
      </trkpt>
      <trkpt lat="50.94514" lon="2.5743">
        <ele>14</ele>
        <time>2019-05-06T07:27:24Z</time>
      </trkpt>
      <trkpt lat="50.94527" lon="2.57453">
        <ele>13</ele>
        <time>2019-05-06T07:27:33Z</time>
      </trkpt>
      <trkpt lat="50.94539" lon="2.57478">
        <ele>14</ele>
        <time>2019-05-06T07:27:43Z</time>
      </trkpt>
      <trkpt lat="50.9455" lon="2.57498">
        <ele>14</ele>
        <time>2019-05-06T07:27:52Z</time>
      </trkpt>
      <trkpt lat="50.94558" lon="2.57524">
        <ele>14</ele>
        <time>2019-05-06T07:28:02Z</time>
      </trkpt>
      <trkpt lat="50.94564" lon="2.5755">
        <ele>14</ele>
        <time>2019-05-06T07:28:12Z</time>
      </trkpt>
      <trkpt lat="50.94572" lon="2.5758">
        <ele>14</ele>
        <time>2019-05-06T07:28:23Z</time>
      </trkpt>
      <trkpt lat="50.94574" lon="2.5759">
        <ele>14</ele>
        <time>2019-05-06T07:28:26Z</time>
      </trkpt>
      <trkpt lat="50.94576" lon="2.57592">
        <ele>14</ele>
        <time>2019-05-06T07:28:27Z</time>
      </trkpt>
      <trkpt lat="50.94577" lon="2.57595">
        <ele>14</ele>
        <time>2019-05-06T07:28:28Z</time>
      </trkpt>
      <trkpt lat="50.94587" lon="2.57626">
        <ele>15</ele>
        <time>2019-05-06T07:28:38Z</time>
      </trkpt>
      <trkpt lat="50.94599" lon="2.57652">
        <ele>15</ele>
        <time>2019-05-06T07:28:48Z</time>
      </trkpt>
      <trkpt lat="50.94608" lon="2.57678">
        <ele>15</ele>
        <time>2019-05-06T07:28:57Z</time>
      </trkpt>
      <trkpt lat="50.94618" lon="2.57702">
        <ele>15</ele>
        <time>2019-05-06T07:29:06Z</time>
      </trkpt>
      <trkpt lat="50.9463" lon="2.57725">
        <ele>16</ele>
        <time>2019-05-06T07:29:15Z</time>
      </trkpt>
      <trkpt lat="50.94643" lon="2.57746">
        <ele>16</ele>
        <time>2019-05-06T07:29:24Z</time>
      </trkpt>
      <trkpt lat="50.94654" lon="2.57765">
        <ele>16</ele>
        <time>2019-05-06T07:29:33Z</time>
      </trkpt>
      <trkpt lat="50.94668" lon="2.57782">
        <ele>16</ele>
        <time>2019-05-06T07:29:42Z</time>
      </trkpt>
      <trkpt lat="50.94681" lon="2.57799">
        <ele>16</ele>
        <time>2019-05-06T07:29:51Z</time>
      </trkpt>
      <trkpt lat="50.94694" lon="2.57816">
        <ele>16</ele>
        <time>2019-05-06T07:30:00Z</time>
      </trkpt>
      <trkpt lat="50.94709" lon="2.57834">
        <ele>16</ele>
        <time>2019-05-06T07:30:09Z</time>
      </trkpt>
      <trkpt lat="50.94722" lon="2.57852">
        <ele>16</ele>
        <time>2019-05-06T07:30:18Z</time>
      </trkpt>
      <trkpt lat="50.94736" lon="2.57872">
        <ele>16</ele>
        <time>2019-05-06T07:30:27Z</time>
      </trkpt>
      <trkpt lat="50.94749" lon="2.57888">
        <ele>16</ele>
        <time>2019-05-06T07:30:37Z</time>
      </trkpt>
      <trkpt lat="50.94761" lon="2.57898">
        <ele>16</ele>
        <time>2019-05-06T07:30:46Z</time>
      </trkpt>
      <trkpt lat="50.94774" lon="2.57917">
        <ele>16</ele>
        <time>2019-05-06T07:30:56Z</time>
      </trkpt>
      <trkpt lat="50.94785" lon="2.57936">
        <ele>17</ele>
        <time>2019-05-06T07:31:05Z</time>
      </trkpt>
      <trkpt lat="50.94791" lon="2.57966">
        <ele>17</ele>
        <time>2019-05-06T07:31:15Z</time>
      </trkpt>
      <trkpt lat="50.94788" lon="2.57994">
        <ele>17</ele>
        <time>2019-05-06T07:31:24Z</time>
      </trkpt>
      <trkpt lat="50.94787" lon="2.57997">
        <ele>17</ele>
        <time>2019-05-06T07:31:25Z</time>
      </trkpt>
      <trkpt lat="50.94776" lon="2.58024">
        <ele>17</ele>
        <time>2019-05-06T07:31:34Z</time>
      </trkpt>
      <trkpt lat="50.94764" lon="2.58051">
        <ele>17</ele>
        <time>2019-05-06T07:31:43Z</time>
      </trkpt>
      <trkpt lat="50.94753" lon="2.58074">
        <ele>17</ele>
        <time>2019-05-06T07:31:52Z</time>
      </trkpt>
      <trkpt lat="50.9474" lon="2.58101">
        <ele>17</ele>
        <time>2019-05-06T07:32:02Z</time>
      </trkpt>
      <trkpt lat="50.94726" lon="2.58125">
        <ele>17</ele>
        <time>2019-05-06T07:32:11Z</time>
      </trkpt>
      <trkpt lat="50.94714" lon="2.58146">
        <ele>17</ele>
        <time>2019-05-06T07:32:20Z</time>
      </trkpt>
      <trkpt lat="50.94704" lon="2.5817">
        <ele>17</ele>
        <time>2019-05-06T07:32:29Z</time>
      </trkpt>
      <trkpt lat="50.94704" lon="2.58177">
        <ele>17</ele>
        <time>2019-05-06T07:32:32Z</time>
      </trkpt>
      <trkpt lat="50.94705" lon="2.58179">
        <ele>17</ele>
        <time>2019-05-06T07:32:33Z</time>
      </trkpt>
      <trkpt lat="50.94717" lon="2.582">
        <ele>17</ele>
        <time>2019-05-06T07:32:43Z</time>
      </trkpt>
      <trkpt lat="50.94734" lon="2.58212">
        <ele>17</ele>
        <time>2019-05-06T07:32:53Z</time>
      </trkpt>
      <trkpt lat="50.94751" lon="2.58227">
        <ele>17</ele>
        <time>2019-05-06T07:33:03Z</time>
      </trkpt>
      <trkpt lat="50.94769" lon="2.58241">
        <ele>16</ele>
        <time>2019-05-06T07:33:13Z</time>
      </trkpt>
      <trkpt lat="50.94788" lon="2.58254">
        <ele>16</ele>
        <time>2019-05-06T07:33:23Z</time>
      </trkpt>
      <trkpt lat="50.94804" lon="2.58267">
        <ele>16</ele>
        <time>2019-05-06T07:33:33Z</time>
      </trkpt>
      <trkpt lat="50.9482" lon="2.58278">
        <ele>15</ele>
        <time>2019-05-06T07:33:43Z</time>
      </trkpt>
      <trkpt lat="50.94837" lon="2.5829">
        <ele>15</ele>
        <time>2019-05-06T07:33:54Z</time>
      </trkpt>
      <trkpt lat="50.94857" lon="2.58306">
        <ele>15</ele>
        <time>2019-05-06T07:34:05Z</time>
      </trkpt>
      <trkpt lat="50.94874" lon="2.58321">
        <ele>14</ele>
        <time>2019-05-06T07:34:15Z</time>
      </trkpt>
      <trkpt lat="50.94893" lon="2.58337">
        <ele>14</ele>
        <time>2019-05-06T07:34:26Z</time>
      </trkpt>
      <trkpt lat="50.94912" lon="2.58355">
        <ele>14</ele>
        <time>2019-05-06T07:34:36Z</time>
      </trkpt>
      <trkpt lat="50.94929" lon="2.58379">
        <ele>14</ele>
        <time>2019-05-06T07:34:45Z</time>
      </trkpt>
      <trkpt lat="50.94942" lon="2.58406">
        <ele>14</ele>
        <time>2019-05-06T07:34:55Z</time>
      </trkpt>
      <trkpt lat="50.94955" lon="2.5843">
        <ele>14</ele>
        <time>2019-05-06T07:35:05Z</time>
      </trkpt>
      <trkpt lat="50.94967" lon="2.58455">
        <ele>14</ele>
        <time>2019-05-06T07:35:15Z</time>
      </trkpt>
      <trkpt lat="50.9498" lon="2.58479">
        <ele>14</ele>
        <time>2019-05-06T07:35:25Z</time>
      </trkpt>
      <trkpt lat="50.94993" lon="2.58503">
        <ele>14</ele>
        <time>2019-05-06T07:35:34Z</time>
      </trkpt>
      <trkpt lat="50.95004" lon="2.58525">
        <ele>14</ele>
        <time>2019-05-06T07:35:43Z</time>
      </trkpt>
      <trkpt lat="50.95015" lon="2.58551">
        <ele>13</ele>
        <time>2019-05-06T07:35:53Z</time>
      </trkpt>
      <trkpt lat="50.95027" lon="2.58572">
        <ele>13</ele>
        <time>2019-05-06T07:36:03Z</time>
      </trkpt>
      <trkpt lat="50.9504" lon="2.5859">
        <ele>13</ele>
        <time>2019-05-06T07:36:13Z</time>
      </trkpt>
      <trkpt lat="50.95055" lon="2.58611">
        <ele>13</ele>
        <time>2019-05-06T07:36:23Z</time>
      </trkpt>
      <trkpt lat="50.9507" lon="2.5863">
        <ele>13</ele>
        <time>2019-05-06T07:36:33Z</time>
      </trkpt>
      <trkpt lat="50.95087" lon="2.58652">
        <ele>13</ele>
        <time>2019-05-06T07:36:43Z</time>
      </trkpt>
      <trkpt lat="50.95103" lon="2.58672">
        <ele>12</ele>
        <time>2019-05-06T07:36:53Z</time>
      </trkpt>
      <trkpt lat="50.95117" lon="2.5869">
        <ele>12</ele>
        <time>2019-05-06T07:37:02Z</time>
      </trkpt>
      <trkpt lat="50.95133" lon="2.58711">
        <ele>12</ele>
        <time>2019-05-06T07:37:11Z</time>
      </trkpt>
      <trkpt lat="50.95151" lon="2.58733">
        <ele>12</ele>
        <time>2019-05-06T07:37:22Z</time>
      </trkpt>
      <trkpt lat="50.95164" lon="2.5875">
        <ele>12</ele>
        <time>2019-05-06T07:37:31Z</time>
      </trkpt>
      <trkpt lat="50.95177" lon="2.58768">
        <ele>12</ele>
        <time>2019-05-06T07:37:40Z</time>
      </trkpt>
      <trkpt lat="50.95191" lon="2.58789">
        <ele>12</ele>
        <time>2019-05-06T07:37:50Z</time>
      </trkpt>
      <trkpt lat="50.95204" lon="2.58808">
        <ele>11</ele>
        <time>2019-05-06T07:37:59Z</time>
      </trkpt>
      <trkpt lat="50.95217" lon="2.58827">
        <ele>11</ele>
        <time>2019-05-06T07:38:08Z</time>
      </trkpt>
      <trkpt lat="50.95227" lon="2.58856">
        <ele>11</ele>
        <time>2019-05-06T07:38:18Z</time>
      </trkpt>
      <trkpt lat="50.95236" lon="2.58888">
        <ele>11</ele>
        <time>2019-05-06T07:38:29Z</time>
      </trkpt>
      <trkpt lat="50.95243" lon="2.58918">
        <ele>11</ele>
        <time>2019-05-06T07:38:40Z</time>
      </trkpt>
      <trkpt lat="50.9525" lon="2.5895">
        <ele>12</ele>
        <time>2019-05-06T07:38:51Z</time>
      </trkpt>
      <trkpt lat="50.9525" lon="2.58953">
        <ele>12</ele>
        <time>2019-05-06T07:38:52Z</time>
      </trkpt>
      <trkpt lat="50.95252" lon="2.58956">
        <ele>12</ele>
        <time>2019-05-06T07:38:53Z</time>
      </trkpt>
      <trkpt lat="50.95252" lon="2.58959">
        <ele>12</ele>
        <time>2019-05-06T07:38:54Z</time>
      </trkpt>
      <trkpt lat="50.95259" lon="2.58992">
        <ele>12</ele>
        <time>2019-05-06T07:39:05Z</time>
      </trkpt>
      <trkpt lat="50.95267" lon="2.59025">
        <ele>12</ele>
        <time>2019-05-06T07:39:16Z</time>
      </trkpt>
      <trkpt lat="50.95272" lon="2.59058">
        <ele>13</ele>
        <time>2019-05-06T07:39:28Z</time>
      </trkpt>
      <trkpt lat="50.95272" lon="2.59062">
        <ele>13</ele>
        <time>2019-05-06T07:39:29Z</time>
      </trkpt>
      <trkpt lat="50.95272" lon="2.59065">
        <ele>13</ele>
        <time>2019-05-06T07:39:30Z</time>
      </trkpt>
      <trkpt lat="50.9528" lon="2.59098">
        <ele>13</ele>
        <time>2019-05-06T07:39:41Z</time>
      </trkpt>
      <trkpt lat="50.9528" lon="2.59132">
        <ele>13</ele>
        <time>2019-05-06T07:39:51Z</time>
      </trkpt>
      <trkpt lat="50.95279" lon="2.59135">
        <ele>13</ele>
        <time>2019-05-06T07:39:52Z</time>
      </trkpt>
      <trkpt lat="50.95278" lon="2.59138">
        <ele>13</ele>
        <time>2019-05-06T07:39:53Z</time>
      </trkpt>
      <trkpt lat="50.95268" lon="2.59163">
        <ele>13</ele>
        <time>2019-05-06T07:40:02Z</time>
      </trkpt>
      <trkpt lat="50.95251" lon="2.59172">
        <ele>12</ele>
        <time>2019-05-06T07:40:12Z</time>
      </trkpt>
      <trkpt lat="50.95231" lon="2.5918">
        <ele>12</ele>
        <time>2019-05-06T07:40:22Z</time>
      </trkpt>
      <trkpt lat="50.95213" lon="2.59189">
        <ele>12</ele>
        <time>2019-05-06T07:40:32Z</time>
      </trkpt>
      <trkpt lat="50.95194" lon="2.59201">
        <ele>12</ele>
        <time>2019-05-06T07:40:41Z</time>
      </trkpt>
      <trkpt lat="50.95174" lon="2.59209">
        <ele>12</ele>
        <time>2019-05-06T07:40:51Z</time>
      </trkpt>
      <trkpt lat="50.95154" lon="2.59218">
        <ele>12</ele>
        <time>2019-05-06T07:41:01Z</time>
      </trkpt>
      <trkpt lat="50.95136" lon="2.59228">
        <ele>12</ele>
        <time>2019-05-06T07:41:11Z</time>
      </trkpt>
      <trkpt lat="50.95115" lon="2.5924">
        <ele>12</ele>
        <time>2019-05-06T07:41:22Z</time>
      </trkpt>
      <trkpt lat="50.95074" lon="2.59242">
        <ele>12</ele>
        <time>2019-05-06T07:41:32Z</time>
      </trkpt>
      <trkpt lat="50.95055" lon="2.59254">
        <ele>13</ele>
        <time>2019-05-06T07:41:42Z</time>
      </trkpt>
      <trkpt lat="50.95037" lon="2.59267">
        <ele>12</ele>
        <time>2019-05-06T07:41:52Z</time>
      </trkpt>
      <trkpt lat="50.95021" lon="2.59282">
        <ele>12</ele>
        <time>2019-05-06T07:42:02Z</time>
      </trkpt>
      <trkpt lat="50.95003" lon="2.59295">
        <ele>12</ele>
        <time>2019-05-06T07:42:12Z</time>
      </trkpt>
      <trkpt lat="50.94987" lon="2.59304">
        <ele>12</ele>
        <time>2019-05-06T07:42:22Z</time>
      </trkpt>
      <trkpt lat="50.94968" lon="2.59315">
        <ele>12</ele>
        <time>2019-05-06T07:42:32Z</time>
      </trkpt>
      <trkpt lat="50.94948" lon="2.59326">
        <ele>13</ele>
        <time>2019-05-06T07:42:43Z</time>
      </trkpt>
      <trkpt lat="50.94929" lon="2.59333">
        <ele>13</ele>
        <time>2019-05-06T07:42:53Z</time>
      </trkpt>
      <trkpt lat="50.94908" lon="2.59343">
        <ele>13</ele>
        <time>2019-05-06T07:43:05Z</time>
      </trkpt>
      <trkpt lat="50.94887" lon="2.59351">
        <ele>13</ele>
        <time>2019-05-06T07:43:16Z</time>
      </trkpt>
      <trkpt lat="50.94867" lon="2.5936">
        <ele>13</ele>
        <time>2019-05-06T07:43:26Z</time>
      </trkpt>
      <trkpt lat="50.94848" lon="2.59373">
        <ele>13</ele>
        <time>2019-05-06T07:43:37Z</time>
      </trkpt>
      <trkpt lat="50.94828" lon="2.59386">
        <ele>13</ele>
        <time>2019-05-06T07:43:48Z</time>
      </trkpt>
      <trkpt lat="50.94809" lon="2.594">
        <ele>13</ele>
        <time>2019-05-06T07:43:57Z</time>
      </trkpt>
      <trkpt lat="50.9479" lon="2.59417">
        <ele>13</ele>
        <time>2019-05-06T07:44:07Z</time>
      </trkpt>
      <trkpt lat="50.94775" lon="2.59437">
        <ele>13</ele>
        <time>2019-05-06T07:44:17Z</time>
      </trkpt>
      <trkpt lat="50.94761" lon="2.59458">
        <ele>13</ele>
        <time>2019-05-06T07:44:26Z</time>
      </trkpt>
      <trkpt lat="50.94748" lon="2.59481">
        <ele>13</ele>
        <time>2019-05-06T07:44:36Z</time>
      </trkpt>
      <trkpt lat="50.94729" lon="2.59491">
        <ele>13</ele>
        <time>2019-05-06T07:44:46Z</time>
      </trkpt>
      <trkpt lat="50.94712" lon="2.59494">
        <ele>14</ele>
        <time>2019-05-06T07:44:56Z</time>
      </trkpt>
      <trkpt lat="50.94693" lon="2.59481">
        <ele>14</ele>
        <time>2019-05-06T07:45:07Z</time>
      </trkpt>
      <trkpt lat="50.94675" lon="2.59473">
        <ele>14</ele>
        <time>2019-05-06T07:45:18Z</time>
      </trkpt>
      <trkpt lat="50.94659" lon="2.59463">
        <ele>14</ele>
        <time>2019-05-06T07:45:29Z</time>
      </trkpt>
      <trkpt lat="50.94642" lon="2.59454">
        <ele>14</ele>
        <time>2019-05-06T07:45:39Z</time>
      </trkpt>
      <trkpt lat="50.94623" lon="2.59442">
        <ele>14</ele>
        <time>2019-05-06T07:45:50Z</time>
      </trkpt>
      <trkpt lat="50.94604" lon="2.5943">
        <ele>15</ele>
        <time>2019-05-06T07:46:01Z</time>
      </trkpt>
      <trkpt lat="50.94584" lon="2.59417">
        <ele>16</ele>
        <time>2019-05-06T07:46:12Z</time>
      </trkpt>
      <trkpt lat="50.94563" lon="2.59411">
        <ele>15</ele>
        <time>2019-05-06T07:46:24Z</time>
      </trkpt>
      <trkpt lat="50.94547" lon="2.59407">
        <ele>15</ele>
        <time>2019-05-06T07:46:32Z</time>
      </trkpt>
      <trkpt lat="50.94525" lon="2.59409">
        <ele>16</ele>
        <time>2019-05-06T07:46:43Z</time>
      </trkpt>
      <trkpt lat="50.94523" lon="2.5941">
        <ele>16</ele>
        <time>2019-05-06T07:46:44Z</time>
      </trkpt>
      <trkpt lat="50.94522" lon="2.5941">
        <ele>16</ele>
        <time>2019-05-06T07:46:45Z</time>
      </trkpt>
      <trkpt lat="50.9452" lon="2.5941">
        <ele>15</ele>
        <time>2019-05-06T07:46:46Z</time>
      </trkpt>
      <trkpt lat="50.94498" lon="2.59404">
        <ele>15</ele>
        <time>2019-05-06T07:46:56Z</time>
      </trkpt>
      <trkpt lat="50.94478" lon="2.59394">
        <ele>15</ele>
        <time>2019-05-06T07:47:06Z</time>
      </trkpt>
      <trkpt lat="50.94459" lon="2.59382">
        <ele>14</ele>
        <time>2019-05-06T07:47:16Z</time>
      </trkpt>
      <trkpt lat="50.94439" lon="2.5937">
        <ele>14</ele>
        <time>2019-05-06T07:47:26Z</time>
      </trkpt>
      <trkpt lat="50.94419" lon="2.59358">
        <ele>14</ele>
        <time>2019-05-06T07:47:36Z</time>
      </trkpt>
      <trkpt lat="50.944" lon="2.59346">
        <ele>14</ele>
        <time>2019-05-06T07:47:46Z</time>
      </trkpt>
      <trkpt lat="50.94382" lon="2.59339">
        <ele>13</ele>
        <time>2019-05-06T07:47:56Z</time>
      </trkpt>
      <trkpt lat="50.94363" lon="2.59334">
        <ele>13</ele>
        <time>2019-05-06T07:48:06Z</time>
      </trkpt>
      <trkpt lat="50.94343" lon="2.59327">
        <ele>13</ele>
        <time>2019-05-06T07:48:16Z</time>
      </trkpt>
      <trkpt lat="50.94324" lon="2.59318">
        <ele>13</ele>
        <time>2019-05-06T07:48:26Z</time>
      </trkpt>
      <trkpt lat="50.94304" lon="2.59306">
        <ele>12</ele>
        <time>2019-05-06T07:48:37Z</time>
      </trkpt>
      <trkpt lat="50.94287" lon="2.5929">
        <ele>12</ele>
        <time>2019-05-06T07:48:47Z</time>
      </trkpt>
      <trkpt lat="50.94267" lon="2.59273">
        <ele>12</ele>
        <time>2019-05-06T07:48:58Z</time>
      </trkpt>
      <trkpt lat="50.94237" lon="2.59254">
        <ele>12</ele>
        <time>2019-05-06T07:49:09Z</time>
      </trkpt>
      <trkpt lat="50.94218" lon="2.59248">
        <ele>12</ele>
        <time>2019-05-06T07:49:19Z</time>
      </trkpt>
      <trkpt lat="50.94216" lon="2.59248">
        <ele>12</ele>
        <time>2019-05-06T07:49:20Z</time>
      </trkpt>
      <trkpt lat="50.94214" lon="2.59248">
        <ele>12</ele>
        <time>2019-05-06T07:49:21Z</time>
      </trkpt>
      <trkpt lat="50.94212" lon="2.59247">
        <ele>12</ele>
        <time>2019-05-06T07:49:22Z</time>
      </trkpt>
      <trkpt lat="50.94211" lon="2.59247">
        <ele>11</ele>
        <time>2019-05-06T07:49:23Z</time>
      </trkpt>
      <trkpt lat="50.94209" lon="2.59246">
        <ele>11</ele>
        <time>2019-05-06T07:49:24Z</time>
      </trkpt>
      <trkpt lat="50.94207" lon="2.59247">
        <ele>11</ele>
        <time>2019-05-06T07:49:25Z</time>
      </trkpt>
      <trkpt lat="50.94186" lon="2.59255">
        <ele>11</ele>
        <time>2019-05-06T07:49:36Z</time>
      </trkpt>
      <trkpt lat="50.94162" lon="2.59263">
        <ele>11</ele>
        <time>2019-05-06T07:49:47Z</time>
      </trkpt>
      <trkpt lat="50.94141" lon="2.59272">
        <ele>11</ele>
        <time>2019-05-06T07:49:58Z</time>
      </trkpt>
      <trkpt lat="50.94118" lon="2.59283">
        <ele>11</ele>
        <time>2019-05-06T07:50:09Z</time>
      </trkpt>
      <trkpt lat="50.94096" lon="2.59298">
        <ele>10</ele>
        <time>2019-05-06T07:50:19Z</time>
      </trkpt>
      <trkpt lat="50.94093" lon="2.59301">
        <ele>10</ele>
        <time>2019-05-06T07:50:21Z</time>
      </trkpt>
      <trkpt lat="50.94091" lon="2.59302">
        <ele>10</ele>
        <time>2019-05-06T07:50:22Z</time>
      </trkpt>
      <trkpt lat="50.94073" lon="2.59318">
        <ele>10</ele>
        <time>2019-05-06T07:50:32Z</time>
      </trkpt>
      <trkpt lat="50.94054" lon="2.59326">
        <ele>10</ele>
        <time>2019-05-06T07:50:41Z</time>
      </trkpt>
      <trkpt lat="50.94033" lon="2.5932">
        <ele>10</ele>
        <time>2019-05-06T07:50:51Z</time>
      </trkpt>
      <trkpt lat="50.94012" lon="2.59312">
        <ele>9</ele>
        <time>2019-05-06T07:51:01Z</time>
      </trkpt>
      <trkpt lat="50.93993" lon="2.59299">
        <ele>9</ele>
        <time>2019-05-06T07:51:11Z</time>
      </trkpt>
      <trkpt lat="50.93973" lon="2.59292">
        <ele>9</ele>
        <time>2019-05-06T07:51:21Z</time>
      </trkpt>
      <trkpt lat="50.93953" lon="2.59292">
        <ele>9</ele>
        <time>2019-05-06T07:51:32Z</time>
      </trkpt>
      <trkpt lat="50.93933" lon="2.593">
        <ele>8</ele>
        <time>2019-05-06T07:51:42Z</time>
      </trkpt>
      <trkpt lat="50.93916" lon="2.59303">
        <ele>8</ele>
        <time>2019-05-06T07:51:50Z</time>
      </trkpt>
      <trkpt lat="50.93915" lon="2.59303">
        <ele>8</ele>
        <time>2019-05-06T07:51:51Z</time>
      </trkpt>
      <trkpt lat="50.93913" lon="2.59304">
        <ele>8</ele>
        <time>2019-05-06T07:51:52Z</time>
      </trkpt>
      <trkpt lat="50.9391" lon="2.59303">
        <ele>8</ele>
        <time>2019-05-06T07:51:53Z</time>
      </trkpt>
      <trkpt lat="50.93908" lon="2.59303">
        <ele>8</ele>
        <time>2019-05-06T07:51:54Z</time>
      </trkpt>
      <trkpt lat="50.93885" lon="2.59303">
        <ele>8</ele>
        <time>2019-05-06T07:52:05Z</time>
      </trkpt>
      <trkpt lat="50.93879" lon="2.59303">
        <ele>8</ele>
        <time>2019-05-06T07:52:09Z</time>
      </trkpt>
      <trkpt lat="50.93877" lon="2.59303">
        <ele>8</ele>
        <time>2019-05-06T07:52:10Z</time>
      </trkpt>
      <trkpt lat="50.93875" lon="2.59303">
        <ele>8</ele>
        <time>2019-05-06T07:52:11Z</time>
      </trkpt>
      <trkpt lat="50.93852" lon="2.59304">
        <ele>8</ele>
        <time>2019-05-06T07:52:22Z</time>
      </trkpt>
      <trkpt lat="50.93844" lon="2.59303">
        <ele>8</ele>
        <time>2019-05-06T07:52:26Z</time>
      </trkpt>
      <trkpt lat="50.93842" lon="2.59303">
        <ele>8</ele>
        <time>2019-05-06T07:52:27Z</time>
      </trkpt>
      <trkpt lat="50.9384" lon="2.59304">
        <ele>8</ele>
        <time>2019-05-06T07:52:28Z</time>
      </trkpt>
      <trkpt lat="50.93819" lon="2.59305">
        <ele>8</ele>
        <time>2019-05-06T07:52:38Z</time>
      </trkpt>
      <trkpt lat="50.93796" lon="2.59309">
        <ele>8</ele>
        <time>2019-05-06T07:52:48Z</time>
      </trkpt>
      <trkpt lat="50.93776" lon="2.59306">
        <ele>8</ele>
        <time>2019-05-06T07:52:58Z</time>
      </trkpt>
      <trkpt lat="50.93756" lon="2.59301">
        <ele>8</ele>
        <time>2019-05-06T07:53:09Z</time>
      </trkpt>
      <trkpt lat="50.93735" lon="2.59297">
        <ele>8</ele>
        <time>2019-05-06T07:53:19Z</time>
      </trkpt>
      <trkpt lat="50.93715" lon="2.59301">
        <ele>8</ele>
        <time>2019-05-06T07:53:29Z</time>
      </trkpt>
      <trkpt lat="50.93696" lon="2.5931">
        <ele>8</ele>
        <time>2019-05-06T07:53:40Z</time>
      </trkpt>
      <trkpt lat="50.93676" lon="2.59324">
        <ele>8</ele>
        <time>2019-05-06T07:53:51Z</time>
      </trkpt>
      <trkpt lat="50.93656" lon="2.59332">
        <ele>9</ele>
        <time>2019-05-06T07:54:01Z</time>
      </trkpt>
      <trkpt lat="50.93634" lon="2.59345">
        <ele>9</ele>
        <time>2019-05-06T07:54:13Z</time>
      </trkpt>
      <trkpt lat="50.93615" lon="2.59361">
        <ele>9</ele>
        <time>2019-05-06T07:54:23Z</time>
      </trkpt>
      <trkpt lat="50.93595" lon="2.59379">
        <ele>9</ele>
        <time>2019-05-06T07:54:33Z</time>
      </trkpt>
      <trkpt lat="50.93591" lon="2.59383">
        <ele>9</ele>
        <time>2019-05-06T07:54:36Z</time>
      </trkpt>
      <trkpt lat="50.93588" lon="2.59384">
        <ele>9</ele>
        <time>2019-05-06T07:54:37Z</time>
      </trkpt>
      <trkpt lat="50.93569" lon="2.59397">
        <ele>9</ele>
        <time>2019-05-06T07:54:47Z</time>
      </trkpt>
      <trkpt lat="50.9355" lon="2.59405">
        <ele>9</ele>
        <time>2019-05-06T07:54:58Z</time>
      </trkpt>
      <trkpt lat="50.93529" lon="2.59409">
        <ele>9</ele>
        <time>2019-05-06T07:55:08Z</time>
      </trkpt>
      <trkpt lat="50.93509" lon="2.59412">
        <ele>10</ele>
        <time>2019-05-06T07:55:19Z</time>
      </trkpt>
      <trkpt lat="50.93489" lon="2.59412">
        <ele>10</ele>
        <time>2019-05-06T07:55:29Z</time>
      </trkpt>
      <trkpt lat="50.93468" lon="2.59413">
        <ele>10</ele>
        <time>2019-05-06T07:55:39Z</time>
      </trkpt>
      <trkpt lat="50.93464" lon="2.59414">
        <ele>10</ele>
        <time>2019-05-06T07:55:41Z</time>
      </trkpt>
      <trkpt lat="50.93462" lon="2.59414">
        <ele>10</ele>
        <time>2019-05-06T07:55:42Z</time>
      </trkpt>
      <trkpt lat="50.93458" lon="2.59414">
        <ele>10</ele>
        <time>2019-05-06T07:55:44Z</time>
      </trkpt>
      <trkpt lat="50.93456" lon="2.59414">
        <ele>11</ele>
        <time>2019-05-06T07:55:45Z</time>
      </trkpt>
      <trkpt lat="50.93433" lon="2.59412">
        <ele>10</ele>
        <time>2019-05-06T07:55:56Z</time>
      </trkpt>
      <trkpt lat="50.93409" lon="2.59412">
        <ele>10</ele>
        <time>2019-05-06T07:56:07Z</time>
      </trkpt>
      <trkpt lat="50.93386" lon="2.59419">
        <ele>10</ele>
        <time>2019-05-06T07:56:19Z</time>
      </trkpt>
      <trkpt lat="50.93365" lon="2.59419">
        <ele>10</ele>
        <time>2019-05-06T07:56:30Z</time>
      </trkpt>
      <trkpt lat="50.93345" lon="2.59421">
        <ele>10</ele>
        <time>2019-05-06T07:56:40Z</time>
      </trkpt>
      <trkpt lat="50.93324" lon="2.59422">
        <ele>11</ele>
        <time>2019-05-06T07:56:51Z</time>
      </trkpt>
      <trkpt lat="50.93301" lon="2.5942">
        <ele>11</ele>
        <time>2019-05-06T07:57:02Z</time>
      </trkpt>
      <trkpt lat="50.93278" lon="2.59418">
        <ele>11</ele>
        <time>2019-05-06T07:57:12Z</time>
      </trkpt>
      <trkpt lat="50.93257" lon="2.59414">
        <ele>11</ele>
        <time>2019-05-06T07:57:22Z</time>
      </trkpt>
      <trkpt lat="50.93236" lon="2.59415">
        <ele>11</ele>
        <time>2019-05-06T07:57:33Z</time>
      </trkpt>
      <trkpt lat="50.93215" lon="2.59419">
        <ele>11</ele>
        <time>2019-05-06T07:57:43Z</time>
      </trkpt>
      <trkpt lat="50.93194" lon="2.59424">
        <ele>11</ele>
        <time>2019-05-06T07:57:53Z</time>
      </trkpt>
      <trkpt lat="50.93173" lon="2.59429">
        <ele>11</ele>
        <time>2019-05-06T07:58:04Z</time>
      </trkpt>
      <trkpt lat="50.93151" lon="2.59432">
        <ele>11</ele>
        <time>2019-05-06T07:58:15Z</time>
      </trkpt>
      <trkpt lat="50.9313" lon="2.59445">
        <ele>11</ele>
        <time>2019-05-06T07:58:26Z</time>
      </trkpt>
      <trkpt lat="50.93111" lon="2.59459">
        <ele>11</ele>
        <time>2019-05-06T07:58:37Z</time>
      </trkpt>
      <trkpt lat="50.93096" lon="2.5948">
        <ele>11</ele>
        <time>2019-05-06T07:58:47Z</time>
      </trkpt>
      <trkpt lat="50.93079" lon="2.59494">
        <ele>10</ele>
        <time>2019-05-06T07:58:56Z</time>
      </trkpt>
      <trkpt lat="50.93068" lon="2.59498">
        <ele>11</ele>
        <time>2019-05-06T07:59:02Z</time>
      </trkpt>
      <trkpt lat="50.93066" lon="2.59498">
        <ele>10</ele>
        <time>2019-05-06T07:59:03Z</time>
      </trkpt>
      <trkpt lat="50.93063" lon="2.59498">
        <ele>10</ele>
        <time>2019-05-06T07:59:04Z</time>
      </trkpt>
      <trkpt lat="50.93061" lon="2.59498">
        <ele>10</ele>
        <time>2019-05-06T07:59:05Z</time>
      </trkpt>
      <trkpt lat="50.93059" lon="2.59498">
        <ele>10</ele>
        <time>2019-05-06T07:59:06Z</time>
      </trkpt>
      <trkpt lat="50.93057" lon="2.59497">
        <ele>10</ele>
        <time>2019-05-06T07:59:07Z</time>
      </trkpt>
      <trkpt lat="50.93055" lon="2.59497">
        <ele>10</ele>
        <time>2019-05-06T07:59:08Z</time>
      </trkpt>
      <trkpt lat="50.93045" lon="2.59496">
        <ele>10</ele>
        <time>2019-05-06T07:59:13Z</time>
      </trkpt>
      <trkpt lat="50.93043" lon="2.59497">
        <ele>10</ele>
        <time>2019-05-06T07:59:14Z</time>
      </trkpt>
      <trkpt lat="50.9303" lon="2.59499">
        <ele>11</ele>
        <time>2019-05-06T07:59:20Z</time>
      </trkpt>
      <trkpt lat="50.93005" lon="2.59503">
        <ele>10</ele>
        <time>2019-05-06T07:59:32Z</time>
      </trkpt>
      <trkpt lat="50.92986" lon="2.59503">
        <ele>10</ele>
        <time>2019-05-06T07:59:41Z</time>
      </trkpt>
      <trkpt lat="50.92964" lon="2.59507">
        <ele>10</ele>
        <time>2019-05-06T07:59:51Z</time>
      </trkpt>
      <trkpt lat="50.92942" lon="2.59513">
        <ele>10</ele>
        <time>2019-05-06T08:00:02Z</time>
      </trkpt>
      <trkpt lat="50.92922" lon="2.59522">
        <ele>10</ele>
        <time>2019-05-06T08:00:13Z</time>
      </trkpt>
      <trkpt lat="50.92902" lon="2.59537">
        <ele>10</ele>
        <time>2019-05-06T08:00:24Z</time>
      </trkpt>
      <trkpt lat="50.92882" lon="2.59553">
        <ele>11</ele>
        <time>2019-05-06T08:00:35Z</time>
      </trkpt>
      <trkpt lat="50.92865" lon="2.59572">
        <ele>11</ele>
        <time>2019-05-06T08:00:45Z</time>
      </trkpt>
      <trkpt lat="50.92846" lon="2.59589">
        <ele>11</ele>
        <time>2019-05-06T08:00:55Z</time>
      </trkpt>
      <trkpt lat="50.9283" lon="2.59609">
        <ele>11</ele>
        <time>2019-05-06T08:01:05Z</time>
      </trkpt>
      <trkpt lat="50.92816" lon="2.59628">
        <ele>12</ele>
        <time>2019-05-06T08:01:14Z</time>
      </trkpt>
      <trkpt lat="50.92799" lon="2.59648">
        <ele>12</ele>
        <time>2019-05-06T08:01:24Z</time>
      </trkpt>
      <trkpt lat="50.92781" lon="2.59665">
        <ele>12</ele>
        <time>2019-05-06T08:01:34Z</time>
      </trkpt>
      <trkpt lat="50.92766" lon="2.59682">
        <ele>12</ele>
        <time>2019-05-06T08:01:44Z</time>
      </trkpt>
      <trkpt lat="50.92747" lon="2.59694">
        <ele>12</ele>
        <time>2019-05-06T08:01:54Z</time>
      </trkpt>
      <trkpt lat="50.92724" lon="2.59696">
        <ele>12</ele>
        <time>2019-05-06T08:02:05Z</time>
      </trkpt>
      <trkpt lat="50.92715" lon="2.59695">
        <ele>12</ele>
        <time>2019-05-06T08:02:09Z</time>
      </trkpt>
      <trkpt lat="50.92714" lon="2.59694">
        <ele>12</ele>
        <time>2019-05-06T08:02:10Z</time>
      </trkpt>
      <trkpt lat="50.92712" lon="2.59694">
        <ele>12</ele>
        <time>2019-05-06T08:02:11Z</time>
      </trkpt>
      <trkpt lat="50.9271" lon="2.59693">
        <ele>12</ele>
        <time>2019-05-06T08:02:12Z</time>
      </trkpt>
      <trkpt lat="50.92708" lon="2.59691">
        <ele>12</ele>
        <time>2019-05-06T08:02:13Z</time>
      </trkpt>
      <trkpt lat="50.92706" lon="2.59691">
        <ele>12</ele>
        <time>2019-05-06T08:02:14Z</time>
      </trkpt>
      <trkpt lat="50.92703" lon="2.59691">
        <ele>12</ele>
        <time>2019-05-06T08:02:15Z</time>
      </trkpt>
      <trkpt lat="50.92701" lon="2.5969">
        <ele>12</ele>
        <time>2019-05-06T08:02:16Z</time>
      </trkpt>
      <trkpt lat="50.92698" lon="2.59691">
        <ele>12</ele>
        <time>2019-05-06T08:02:18Z</time>
      </trkpt>
      <trkpt lat="50.92696" lon="2.5969">
        <ele>12</ele>
        <time>2019-05-06T08:02:19Z</time>
      </trkpt>
      <trkpt lat="50.92694" lon="2.5969">
        <ele>12</ele>
        <time>2019-05-06T08:02:20Z</time>
      </trkpt>
      <trkpt lat="50.92677" lon="2.59688">
        <ele>12</ele>
        <time>2019-05-06T08:02:30Z</time>
      </trkpt>
      <trkpt lat="50.92675" lon="2.59688">
        <ele>12</ele>
        <time>2019-05-06T08:02:31Z</time>
      </trkpt>
      <trkpt lat="50.92673" lon="2.59688">
        <ele>12</ele>
        <time>2019-05-06T08:02:32Z</time>
      </trkpt>
      <trkpt lat="50.92671" lon="2.59689">
        <ele>12</ele>
        <time>2019-05-06T08:02:33Z</time>
      </trkpt>
      <trkpt lat="50.9267" lon="2.59689">
        <ele>12</ele>
        <time>2019-05-06T08:02:34Z</time>
      </trkpt>
      <trkpt lat="50.92668" lon="2.59691">
        <ele>12</ele>
        <time>2019-05-06T08:02:35Z</time>
      </trkpt>
      <trkpt lat="50.92666" lon="2.59693">
        <ele>12</ele>
        <time>2019-05-06T08:02:36Z</time>
      </trkpt>
      <trkpt lat="50.92664" lon="2.59694">
        <ele>12</ele>
        <time>2019-05-06T08:02:37Z</time>
      </trkpt>
      <trkpt lat="50.92644" lon="2.59709">
        <ele>12</ele>
        <time>2019-05-06T08:02:48Z</time>
      </trkpt>
      <trkpt lat="50.92626" lon="2.59727">
        <ele>12</ele>
        <time>2019-05-06T08:02:57Z</time>
      </trkpt>
      <trkpt lat="50.92608" lon="2.59744">
        <ele>12</ele>
        <time>2019-05-06T08:03:06Z</time>
      </trkpt>
      <trkpt lat="50.9259" lon="2.59758">
        <ele>13</ele>
        <time>2019-05-06T08:03:16Z</time>
      </trkpt>
      <trkpt lat="50.92571" lon="2.59765">
        <ele>13</ele>
        <time>2019-05-06T08:03:26Z</time>
      </trkpt>
      <trkpt lat="50.92551" lon="2.59775">
        <ele>13</ele>
        <time>2019-05-06T08:03:37Z</time>
      </trkpt>
      <trkpt lat="50.92531" lon="2.59789">
        <ele>13</ele>
        <time>2019-05-06T08:03:49Z</time>
      </trkpt>
      <trkpt lat="50.92513" lon="2.59806">
        <ele>13</ele>
        <time>2019-05-06T08:03:59Z</time>
      </trkpt>
      <trkpt lat="50.92495" lon="2.59826">
        <ele>14</ele>
        <time>2019-05-06T08:04:09Z</time>
      </trkpt>
      <trkpt lat="50.92488" lon="2.59834">
        <ele>14</ele>
        <time>2019-05-06T08:04:13Z</time>
      </trkpt>
      <trkpt lat="50.92488" lon="2.59836">
        <ele>14</ele>
        <time>2019-05-06T08:04:14Z</time>
      </trkpt>
      <trkpt lat="50.92488" lon="2.59839">
        <ele>14</ele>
        <time>2019-05-06T08:04:15Z</time>
      </trkpt>
      <trkpt lat="50.92488" lon="2.59842">
        <ele>14</ele>
        <time>2019-05-06T08:04:16Z</time>
      </trkpt>
      <trkpt lat="50.92488" lon="2.59846">
        <ele>15</ele>
        <time>2019-05-06T08:04:17Z</time>
      </trkpt>
      <trkpt lat="50.92488" lon="2.59849">
        <ele>15</ele>
        <time>2019-05-06T08:04:18Z</time>
      </trkpt>
      <trkpt lat="50.92489" lon="2.59853">
        <ele>15</ele>
        <time>2019-05-06T08:04:19Z</time>
      </trkpt>
      <trkpt lat="50.92488" lon="2.59855">
        <ele>15</ele>
        <time>2019-05-06T08:04:20Z</time>
      </trkpt>
      <trkpt lat="50.92489" lon="2.59858">
        <ele>15</ele>
        <time>2019-05-06T08:04:21Z</time>
      </trkpt>
      <trkpt lat="50.9249" lon="2.59861">
        <ele>15</ele>
        <time>2019-05-06T08:04:22Z</time>
      </trkpt>
      <trkpt lat="50.92491" lon="2.59864">
        <ele>15</ele>
        <time>2019-05-06T08:04:23Z</time>
      </trkpt>
      <trkpt lat="50.92496" lon="2.59896">
        <ele>15</ele>
        <time>2019-05-06T08:04:33Z</time>
      </trkpt>
      <trkpt lat="50.92502" lon="2.59917">
        <ele>15</ele>
        <time>2019-05-06T08:04:41Z</time>
      </trkpt>
      <trkpt lat="50.92503" lon="2.59919">
        <ele>15</ele>
        <time>2019-05-06T08:04:42Z</time>
      </trkpt>
      <trkpt lat="50.92504" lon="2.59921">
        <ele>15</ele>
        <time>2019-05-06T08:04:43Z</time>
      </trkpt>
      <trkpt lat="50.92505" lon="2.59924">
        <ele>15</ele>
        <time>2019-05-06T08:04:44Z</time>
      </trkpt>
      <trkpt lat="50.92505" lon="2.59928">
        <ele>14</ele>
        <time>2019-05-06T08:04:45Z</time>
      </trkpt>
      <trkpt lat="50.92505" lon="2.59931">
        <ele>14</ele>
        <time>2019-05-06T08:04:46Z</time>
      </trkpt>
      <trkpt lat="50.92506" lon="2.59936">
        <ele>15</ele>
        <time>2019-05-06T08:04:48Z</time>
      </trkpt>
      <trkpt lat="50.92506" lon="2.59938">
        <ele>15</ele>
        <time>2019-05-06T08:04:49Z</time>
      </trkpt>
      <trkpt lat="50.92506" lon="2.5994">
        <ele>15</ele>
        <time>2019-05-06T08:04:50Z</time>
      </trkpt>
      <trkpt lat="50.9251" lon="2.59974">
        <ele>15</ele>
        <time>2019-05-06T08:05:00Z</time>
      </trkpt>
      <trkpt lat="50.92513" lon="2.60007">
        <ele>14</ele>
        <time>2019-05-06T08:05:11Z</time>
      </trkpt>
      <trkpt lat="50.92513" lon="2.60011">
        <ele>14</ele>
        <time>2019-05-06T08:05:12Z</time>
      </trkpt>
      <trkpt lat="50.92513" lon="2.60014">
        <ele>14</ele>
        <time>2019-05-06T08:05:13Z</time>
      </trkpt>
      <trkpt lat="50.92517" lon="2.60047">
        <ele>13</ele>
        <time>2019-05-06T08:05:24Z</time>
      </trkpt>
      <trkpt lat="50.92518" lon="2.60086">
        <ele>14</ele>
        <time>2019-05-06T08:05:36Z</time>
      </trkpt>
      <trkpt lat="50.92527" lon="2.60117">
        <ele>14</ele>
        <time>2019-05-06T08:05:46Z</time>
      </trkpt>
      <trkpt lat="50.92527" lon="2.6015">
        <ele>14</ele>
        <time>2019-05-06T08:05:56Z</time>
      </trkpt>
      <trkpt lat="50.92525" lon="2.60183">
        <ele>14</ele>
        <time>2019-05-06T08:06:06Z</time>
      </trkpt>
      <trkpt lat="50.9252" lon="2.60215">
        <ele>14</ele>
        <time>2019-05-06T08:06:16Z</time>
      </trkpt>
      <trkpt lat="50.92517" lon="2.60248">
        <ele>14</ele>
        <time>2019-05-06T08:06:27Z</time>
      </trkpt>
      <trkpt lat="50.92516" lon="2.60283">
        <ele>14</ele>
        <time>2019-05-06T08:06:38Z</time>
      </trkpt>
      <trkpt lat="50.92516" lon="2.60295">
        <ele>14</ele>
        <time>2019-05-06T08:06:42Z</time>
      </trkpt>
      <trkpt lat="50.92516" lon="2.60298">
        <ele>14</ele>
        <time>2019-05-06T08:06:43Z</time>
      </trkpt>
      <trkpt lat="50.92516" lon="2.60301">
        <ele>14</ele>
        <time>2019-05-06T08:06:44Z</time>
      </trkpt>
      <trkpt lat="50.92516" lon="2.60304">
        <ele>14</ele>
        <time>2019-05-06T08:06:45Z</time>
      </trkpt>
      <trkpt lat="50.92515" lon="2.60306">
        <ele>14</ele>
        <time>2019-05-06T08:06:46Z</time>
      </trkpt>
      <trkpt lat="50.92515" lon="2.60309">
        <ele>14</ele>
        <time>2019-05-06T08:06:47Z</time>
      </trkpt>
      <trkpt lat="50.92514" lon="2.60346">
        <ele>14</ele>
        <time>2019-05-06T08:07:00Z</time>
      </trkpt>
      <trkpt lat="50.92513" lon="2.60387">
        <ele>14</ele>
        <time>2019-05-06T08:07:12Z</time>
      </trkpt>
      <trkpt lat="50.92512" lon="2.60404">
        <ele>14</ele>
        <time>2019-05-06T08:07:17Z</time>
      </trkpt>
      <trkpt lat="50.92512" lon="2.60407">
        <ele>14</ele>
        <time>2019-05-06T08:07:18Z</time>
      </trkpt>
      <trkpt lat="50.92513" lon="2.60444">
        <ele>13</ele>
        <time>2019-05-06T08:07:30Z</time>
      </trkpt>
      <trkpt lat="50.92514" lon="2.60483">
        <ele>13</ele>
        <time>2019-05-06T08:07:41Z</time>
      </trkpt>
      <trkpt lat="50.92512" lon="2.60495">
        <ele>13</ele>
        <time>2019-05-06T08:07:45Z</time>
      </trkpt>
      <trkpt lat="50.92513" lon="2.60498">
        <ele>13</ele>
        <time>2019-05-06T08:07:46Z</time>
      </trkpt>
      <trkpt lat="50.92512" lon="2.60535">
        <ele>13</ele>
        <time>2019-05-06T08:07:57Z</time>
      </trkpt>
      <trkpt lat="50.92511" lon="2.60571">
        <ele>13</ele>
        <time>2019-05-06T08:08:08Z</time>
      </trkpt>
      <trkpt lat="50.92511" lon="2.60606">
        <ele>13</ele>
        <time>2019-05-06T08:08:20Z</time>
      </trkpt>
      <trkpt lat="50.92511" lon="2.60641">
        <ele>13</ele>
        <time>2019-05-06T08:08:30Z</time>
      </trkpt>
      <trkpt lat="50.92512" lon="2.6068">
        <ele>13</ele>
        <time>2019-05-06T08:08:42Z</time>
      </trkpt>
      <trkpt lat="50.92511" lon="2.60716">
        <ele>14</ele>
        <time>2019-05-06T08:08:54Z</time>
      </trkpt>
      <trkpt lat="50.92508" lon="2.60754">
        <ele>14</ele>
        <time>2019-05-06T08:09:06Z</time>
      </trkpt>
      <trkpt lat="50.92506" lon="2.60773">
        <ele>14</ele>
        <time>2019-05-06T08:09:12Z</time>
      </trkpt>
      <trkpt lat="50.92505" lon="2.60777">
        <ele>14</ele>
        <time>2019-05-06T08:09:13Z</time>
      </trkpt>
      <trkpt lat="50.92504" lon="2.6078">
        <ele>14</ele>
        <time>2019-05-06T08:09:14Z</time>
      </trkpt>
      <trkpt lat="50.92504" lon="2.60784">
        <ele>14</ele>
        <time>2019-05-06T08:09:15Z</time>
      </trkpt>
      <trkpt lat="50.92505" lon="2.60787">
        <ele>14</ele>
        <time>2019-05-06T08:09:16Z</time>
      </trkpt>
      <trkpt lat="50.92505" lon="2.6079">
        <ele>14</ele>
        <time>2019-05-06T08:09:17Z</time>
      </trkpt>
      <trkpt lat="50.92502" lon="2.60828">
        <ele>13</ele>
        <time>2019-05-06T08:09:28Z</time>
      </trkpt>
      <trkpt lat="50.92501" lon="2.60845">
        <ele>13</ele>
        <time>2019-05-06T08:09:33Z</time>
      </trkpt>
      <trkpt lat="50.92502" lon="2.60848">
        <ele>13</ele>
        <time>2019-05-06T08:09:34Z</time>
      </trkpt>
      <trkpt lat="50.92501" lon="2.60851">
        <ele>13</ele>
        <time>2019-05-06T08:09:35Z</time>
      </trkpt>
      <trkpt lat="50.92501" lon="2.60855">
        <ele>13</ele>
        <time>2019-05-06T08:09:36Z</time>
      </trkpt>
      <trkpt lat="50.925" lon="2.60859">
        <ele>13</ele>
        <time>2019-05-06T08:09:37Z</time>
      </trkpt>
      <trkpt lat="50.92494" lon="2.60889">
        <ele>13</ele>
        <time>2019-05-06T08:09:46Z</time>
      </trkpt>
      <trkpt lat="50.92484" lon="2.60919">
        <ele>12</ele>
        <time>2019-05-06T08:09:56Z</time>
      </trkpt>
      <trkpt lat="50.92478" lon="2.60949">
        <ele>12</ele>
        <time>2019-05-06T08:10:05Z</time>
      </trkpt>
      <trkpt lat="50.92471" lon="2.60979">
        <ele>12</ele>
        <time>2019-05-06T08:10:14Z</time>
      </trkpt>
      <trkpt lat="50.92463" lon="2.61007">
        <ele>10</ele>
        <time>2019-05-06T08:10:24Z</time>
      </trkpt>
      <trkpt lat="50.92456" lon="2.61035">
        <ele>11</ele>
        <time>2019-05-06T08:10:34Z</time>
      </trkpt>
      <trkpt lat="50.92445" lon="2.61065">
        <ele>10</ele>
        <time>2019-05-06T08:10:43Z</time>
      </trkpt>
      <trkpt lat="50.92438" lon="2.61095">
        <ele>10</ele>
        <time>2019-05-06T08:10:53Z</time>
      </trkpt>
      <trkpt lat="50.92428" lon="2.61125">
        <ele>9</ele>
        <time>2019-05-06T08:11:03Z</time>
      </trkpt>
      <trkpt lat="50.92419" lon="2.61154">
        <ele>8</ele>
        <time>2019-05-06T08:11:13Z</time>
      </trkpt>
      <trkpt lat="50.92414" lon="2.61169">
        <ele>8</ele>
        <time>2019-05-06T08:11:18Z</time>
      </trkpt>
      <trkpt lat="50.92402" lon="2.61199">
        <ele>8</ele>
        <time>2019-05-06T08:11:28Z</time>
      </trkpt>
      <trkpt lat="50.92394" lon="2.61226">
        <ele>7</ele>
        <time>2019-05-06T08:11:38Z</time>
      </trkpt>
      <trkpt lat="50.92386" lon="2.61257">
        <ele>7</ele>
        <time>2019-05-06T08:11:48Z</time>
      </trkpt>
      <trkpt lat="50.9238" lon="2.61284">
        <ele>7</ele>
        <time>2019-05-06T08:11:58Z</time>
      </trkpt>
      <trkpt lat="50.92373" lon="2.61312">
        <ele>6</ele>
        <time>2019-05-06T08:12:08Z</time>
      </trkpt>
      <trkpt lat="50.92364" lon="2.61331">
        <ele>6</ele>
        <time>2019-05-06T08:12:15Z</time>
      </trkpt>
      <trkpt lat="50.92363" lon="2.61334">
        <ele>5</ele>
        <time>2019-05-06T08:12:16Z</time>
      </trkpt>
      <trkpt lat="50.92357" lon="2.61357">
        <ele>6</ele>
        <time>2019-05-06T08:12:24Z</time>
      </trkpt>
      <trkpt lat="50.92353" lon="2.61367">
        <ele>6</ele>
        <time>2019-05-06T08:12:27Z</time>
      </trkpt>
      <trkpt lat="50.92344" lon="2.61399">
        <ele>5</ele>
        <time>2019-05-06T08:12:37Z</time>
      </trkpt>
      <trkpt lat="50.92335" lon="2.61428">
        <ele>5</ele>
        <time>2019-05-06T08:12:46Z</time>
      </trkpt>
      <trkpt lat="50.92326" lon="2.61455">
        <ele>4</ele>
        <time>2019-05-06T08:12:55Z</time>
      </trkpt>
      <trkpt lat="50.92318" lon="2.61482">
        <ele>4</ele>
        <time>2019-05-06T08:13:04Z</time>
      </trkpt>
      <trkpt lat="50.92309" lon="2.61509">
        <ele>3</ele>
        <time>2019-05-06T08:13:13Z</time>
      </trkpt>
      <trkpt lat="50.92301" lon="2.61534">
        <ele>3</ele>
        <time>2019-05-06T08:13:22Z</time>
      </trkpt>
      <trkpt lat="50.92291" lon="2.61561">
        <ele>3</ele>
        <time>2019-05-06T08:13:32Z</time>
      </trkpt>
      <trkpt lat="50.92282" lon="2.61589">
        <ele>2</ele>
        <time>2019-05-06T08:13:42Z</time>
      </trkpt>
      <trkpt lat="50.9228" lon="2.6162">
        <ele>2</ele>
        <time>2019-05-06T08:13:52Z</time>
      </trkpt>
      <trkpt lat="50.9228" lon="2.61654">
        <ele>3</ele>
        <time>2019-05-06T08:14:03Z</time>
      </trkpt>
      <trkpt lat="50.92287" lon="2.61686">
        <ele>3</ele>
        <time>2019-05-06T08:14:16Z</time>
      </trkpt>
      <trkpt lat="50.92295" lon="2.61721">
        <ele>2</ele>
        <time>2019-05-06T08:14:27Z</time>
      </trkpt>
      <trkpt lat="50.92299" lon="2.61734">
        <ele>2</ele>
        <time>2019-05-06T08:14:31Z</time>
      </trkpt>
      <trkpt lat="50.92301" lon="2.61737">
        <ele>2</ele>
        <time>2019-05-06T08:14:32Z</time>
      </trkpt>
      <trkpt lat="50.92302" lon="2.61741">
        <ele>2</ele>
        <time>2019-05-06T08:14:33Z</time>
      </trkpt>
      <trkpt lat="50.92303" lon="2.61744">
        <ele>2</ele>
        <time>2019-05-06T08:14:34Z</time>
      </trkpt>
      <trkpt lat="50.92304" lon="2.61747">
        <ele>2</ele>
        <time>2019-05-06T08:14:35Z</time>
      </trkpt>
      <trkpt lat="50.92312" lon="2.61785">
        <ele>3</ele>
        <time>2019-05-06T08:14:47Z</time>
      </trkpt>
      <trkpt lat="50.92313" lon="2.61788">
        <ele>2</ele>
        <time>2019-05-06T08:14:48Z</time>
      </trkpt>
      <trkpt lat="50.92314" lon="2.61791">
        <ele>2</ele>
        <time>2019-05-06T08:14:49Z</time>
      </trkpt>
      <trkpt lat="50.92315" lon="2.61794">
        <ele>2</ele>
        <time>2019-05-06T08:14:50Z</time>
      </trkpt>
      <trkpt lat="50.92321" lon="2.61827">
        <ele>3</ele>
        <time>2019-05-06T08:14:59Z</time>
      </trkpt>
      <trkpt lat="50.92323" lon="2.6183">
        <ele>3</ele>
        <time>2019-05-06T08:15:00Z</time>
      </trkpt>
      <trkpt lat="50.92323" lon="2.61833">
        <ele>3</ele>
        <time>2019-05-06T08:15:01Z</time>
      </trkpt>
      <trkpt lat="50.92323" lon="2.61836">
        <ele>3</ele>
        <time>2019-05-06T08:15:02Z</time>
      </trkpt>
      <trkpt lat="50.92322" lon="2.61838">
        <ele>3</ele>
        <time>2019-05-06T08:15:03Z</time>
      </trkpt>
      <trkpt lat="50.92321" lon="2.6184">
        <ele>3</ele>
        <time>2019-05-06T08:15:04Z</time>
      </trkpt>
      <trkpt lat="50.9232" lon="2.61842">
        <ele>3</ele>
        <time>2019-05-06T08:15:05Z</time>
      </trkpt>
      <trkpt lat="50.92319" lon="2.61844">
        <ele>3</ele>
        <time>2019-05-06T08:15:06Z</time>
      </trkpt>
      <trkpt lat="50.92304" lon="2.61861">
        <ele>3</ele>
        <time>2019-05-06T08:15:16Z</time>
      </trkpt>
      <trkpt lat="50.92302" lon="2.61864">
        <ele>3</ele>
        <time>2019-05-06T08:15:18Z</time>
      </trkpt>
      <trkpt lat="50.92301" lon="2.61866">
        <ele>3</ele>
        <time>2019-05-06T08:15:19Z</time>
      </trkpt>
      <trkpt lat="50.923" lon="2.61868">
        <ele>3</ele>
        <time>2019-05-06T08:15:20Z</time>
      </trkpt>
      <trkpt lat="50.92288" lon="2.61893">
        <ele>3</ele>
        <time>2019-05-06T08:15:36Z</time>
      </trkpt>
      <trkpt lat="50.92287" lon="2.61895">
        <ele>4</ele>
        <time>2019-05-06T08:15:37Z</time>
      </trkpt>
      <trkpt lat="50.92285" lon="2.61897">
        <ele>4</ele>
        <time>2019-05-06T08:15:38Z</time>
      </trkpt>
      <trkpt lat="50.92284" lon="2.61899">
        <ele>4</ele>
        <time>2019-05-06T08:15:39Z</time>
      </trkpt>
      <trkpt lat="50.92281" lon="2.61901">
        <ele>3</ele>
        <time>2019-05-06T08:15:40Z</time>
      </trkpt>
      <trkpt lat="50.92278" lon="2.61903">
        <ele>4</ele>
        <time>2019-05-06T08:15:41Z</time>
      </trkpt>
      <trkpt lat="50.92276" lon="2.61905">
        <ele>4</ele>
        <time>2019-05-06T08:15:42Z</time>
      </trkpt>
      <trkpt lat="50.92274" lon="2.61906">
        <ele>4</ele>
        <time>2019-05-06T08:15:43Z</time>
      </trkpt>
      <trkpt lat="50.92272" lon="2.61908">
        <ele>4</ele>
        <time>2019-05-06T08:15:44Z</time>
      </trkpt>
      <trkpt lat="50.9227" lon="2.6191">
        <ele>3</ele>
        <time>2019-05-06T08:15:45Z</time>
      </trkpt>
      <trkpt lat="50.92268" lon="2.61912">
        <ele>3</ele>
        <time>2019-05-06T08:15:46Z</time>
      </trkpt>
      <trkpt lat="50.92266" lon="2.61914">
        <ele>3</ele>
        <time>2019-05-06T08:15:47Z</time>
      </trkpt>
      <trkpt lat="50.92264" lon="2.61916">
        <ele>3</ele>
        <time>2019-05-06T08:15:48Z</time>
      </trkpt>
      <trkpt lat="50.92262" lon="2.61918">
        <ele>4</ele>
        <time>2019-05-06T08:15:49Z</time>
      </trkpt>
      <trkpt lat="50.9226" lon="2.6192">
        <ele>3</ele>
        <time>2019-05-06T08:15:50Z</time>
      </trkpt>
      <trkpt lat="50.92259" lon="2.61922">
        <ele>3</ele>
        <time>2019-05-06T08:15:51Z</time>
      </trkpt>
      <trkpt lat="50.92231" lon="2.61947">
        <ele>3</ele>
        <time>2019-05-06T08:16:06Z</time>
      </trkpt>
      <trkpt lat="50.92226" lon="2.61953">
        <ele>4</ele>
        <time>2019-05-06T08:16:09Z</time>
      </trkpt>
      <trkpt lat="50.92225" lon="2.61955">
        <ele>3</ele>
        <time>2019-05-06T08:16:10Z</time>
      </trkpt>
      <trkpt lat="50.92224" lon="2.61956">
        <ele>3</ele>
        <time>2019-05-06T08:16:11Z</time>
      </trkpt>
      <trkpt lat="50.92223" lon="2.61958">
        <ele>3</ele>
        <time>2019-05-06T08:16:12Z</time>
      </trkpt>
      <trkpt lat="50.92222" lon="2.6196">
        <ele>3</ele>
        <time>2019-05-06T08:16:13Z</time>
      </trkpt>
      <trkpt lat="50.9222" lon="2.61961">
        <ele>3</ele>
        <time>2019-05-06T08:16:14Z</time>
      </trkpt>
      <trkpt lat="50.92219" lon="2.61964">
        <ele>3</ele>
        <time>2019-05-06T08:16:15Z</time>
      </trkpt>
      <trkpt lat="50.92218" lon="2.61966">
        <ele>3</ele>
        <time>2019-05-06T08:16:16Z</time>
      </trkpt>
      <trkpt lat="50.92216" lon="2.61967">
        <ele>3</ele>
        <time>2019-05-06T08:16:17Z</time>
      </trkpt>
      <trkpt lat="50.922" lon="2.61995">
        <ele>3</ele>
        <time>2019-05-06T08:16:30Z</time>
      </trkpt>
      <trkpt lat="50.92178" lon="2.62026">
        <ele>2</ele>
        <time>2019-05-06T08:16:43Z</time>
      </trkpt>
      <trkpt lat="50.92154" lon="2.62052">
        <ele>2</ele>
        <time>2019-05-06T08:16:54Z</time>
      </trkpt>
      <trkpt lat="50.92144" lon="2.62065">
        <ele>2</ele>
        <time>2019-05-06T08:17:00Z</time>
      </trkpt>
      <trkpt lat="50.92143" lon="2.62068">
        <ele>1</ele>
        <time>2019-05-06T08:17:01Z</time>
      </trkpt>
      <trkpt lat="50.92128" lon="2.62097">
        <ele>1</ele>
        <time>2019-05-06T08:17:10Z</time>
      </trkpt>
      <trkpt lat="50.92114" lon="2.62121">
        <ele>1</ele>
        <time>2019-05-06T08:17:20Z</time>
      </trkpt>
      <trkpt lat="50.92111" lon="2.62129">
        <ele>1</ele>
        <time>2019-05-06T08:17:23Z</time>
      </trkpt>
      <trkpt lat="50.9211" lon="2.62132">
        <ele>1</ele>
        <time>2019-05-06T08:17:24Z</time>
      </trkpt>
      <trkpt lat="50.92108" lon="2.62135">
        <ele>1</ele>
        <time>2019-05-06T08:17:25Z</time>
      </trkpt>
      <trkpt lat="50.92095" lon="2.62161">
        <ele>1</ele>
        <time>2019-05-06T08:17:35Z</time>
      </trkpt>
      <trkpt lat="50.92084" lon="2.62181">
        <ele>1</ele>
        <time>2019-05-06T08:17:44Z</time>
      </trkpt>
      <trkpt lat="50.92082" lon="2.62183">
        <ele>1</ele>
        <time>2019-05-06T08:17:45Z</time>
      </trkpt>
      <trkpt lat="50.92082" lon="2.62185">
        <ele>1</ele>
        <time>2019-05-06T08:17:46Z</time>
      </trkpt>
      <trkpt lat="50.92081" lon="2.62187">
        <ele>1</ele>
        <time>2019-05-06T08:17:47Z</time>
      </trkpt>
      <trkpt lat="50.9208" lon="2.62189">
        <ele>1</ele>
        <time>2019-05-06T08:17:48Z</time>
      </trkpt>
      <trkpt lat="50.92079" lon="2.62191">
        <ele>1</ele>
        <time>2019-05-06T08:17:49Z</time>
      </trkpt>
      <trkpt lat="50.92078" lon="2.62193">
        <ele>1</ele>
        <time>2019-05-06T08:17:50Z</time>
      </trkpt>
      <trkpt lat="50.92077" lon="2.62196">
        <ele>2</ele>
        <time>2019-05-06T08:17:51Z</time>
      </trkpt>
      <trkpt lat="50.92076" lon="2.62198">
        <ele>1</ele>
        <time>2019-05-06T08:17:52Z</time>
      </trkpt>
      <trkpt lat="50.92068" lon="2.62209">
        <ele>1</ele>
        <time>2019-05-06T08:17:59Z</time>
      </trkpt>
      <trkpt lat="50.92066" lon="2.62211">
        <ele>1</ele>
        <time>2019-05-06T08:18:00Z</time>
      </trkpt>
      <trkpt lat="50.9206" lon="2.62221">
        <ele>2</ele>
        <time>2019-05-06T08:18:06Z</time>
      </trkpt>
      <trkpt lat="50.92059" lon="2.62224">
        <ele>2</ele>
        <time>2019-05-06T08:18:07Z</time>
      </trkpt>
      <trkpt lat="50.92058" lon="2.62226">
        <ele>2</ele>
        <time>2019-05-06T08:18:08Z</time>
      </trkpt>
      <trkpt lat="50.92055" lon="2.62233">
        <ele>2</ele>
        <time>2019-05-06T08:18:11Z</time>
      </trkpt>
      <trkpt lat="50.92053" lon="2.62236">
        <ele>2</ele>
        <time>2019-05-06T08:18:12Z</time>
      </trkpt>
      <trkpt lat="50.92052" lon="2.62239">
        <ele>2</ele>
        <time>2019-05-06T08:18:13Z</time>
      </trkpt>
      <trkpt lat="50.9205" lon="2.62241">
        <ele>2</ele>
        <time>2019-05-06T08:18:14Z</time>
      </trkpt>
      <trkpt lat="50.92049" lon="2.62244">
        <ele>2</ele>
        <time>2019-05-06T08:18:15Z</time>
      </trkpt>
      <trkpt lat="50.92037" lon="2.6226">
        <ele>2</ele>
        <time>2019-05-06T08:18:21Z</time>
      </trkpt>
      <trkpt lat="50.92035" lon="2.62263">
        <ele>2</ele>
        <time>2019-05-06T08:18:22Z</time>
      </trkpt>
      <trkpt lat="50.92034" lon="2.62265">
        <ele>3</ele>
        <time>2019-05-06T08:18:23Z</time>
      </trkpt>
      <trkpt lat="50.92033" lon="2.62268">
        <ele>3</ele>
        <time>2019-05-06T08:18:24Z</time>
      </trkpt>
      <trkpt lat="50.92031" lon="2.62271">
        <ele>3</ele>
        <time>2019-05-06T08:18:25Z</time>
      </trkpt>
      <trkpt lat="50.92016" lon="2.62299">
        <ele>3</ele>
        <time>2019-05-06T08:18:35Z</time>
      </trkpt>
      <trkpt lat="50.92005" lon="2.62326">
        <ele>3</ele>
        <time>2019-05-06T08:18:46Z</time>
      </trkpt>
      <trkpt lat="50.91991" lon="2.62351">
        <ele>3</ele>
        <time>2019-05-06T08:18:58Z</time>
      </trkpt>
      <trkpt lat="50.91979" lon="2.62374">
        <ele>3</ele>
        <time>2019-05-06T08:19:08Z</time>
      </trkpt>
      <trkpt lat="50.91958" lon="2.62392">
        <ele>4</ele>
        <time>2019-05-06T08:19:20Z</time>
      </trkpt>
      <trkpt lat="50.91956" lon="2.62394">
        <ele>4</ele>
        <time>2019-05-06T08:19:21Z</time>
      </trkpt>
      <trkpt lat="50.91955" lon="2.62395">
        <ele>4</ele>
        <time>2019-05-06T08:19:22Z</time>
      </trkpt>
      <trkpt lat="50.91953" lon="2.62396">
        <ele>4</ele>
        <time>2019-05-06T08:19:23Z</time>
      </trkpt>
      <trkpt lat="50.91952" lon="2.62397">
        <ele>4</ele>
        <time>2019-05-06T08:19:24Z</time>
      </trkpt>
      <trkpt lat="50.9195" lon="2.62398">
        <ele>4</ele>
        <time>2019-05-06T08:19:25Z</time>
      </trkpt>
      <trkpt lat="50.91948" lon="2.62399">
        <ele>3</ele>
        <time>2019-05-06T08:19:26Z</time>
      </trkpt>
      <trkpt lat="50.91947" lon="2.62401">
        <ele>4</ele>
        <time>2019-05-06T08:19:27Z</time>
      </trkpt>
      <trkpt lat="50.91928" lon="2.62429">
        <ele>3</ele>
        <time>2019-05-06T08:19:37Z</time>
      </trkpt>
      <trkpt lat="50.91911" lon="2.6246">
        <ele>3</ele>
        <time>2019-05-06T08:19:48Z</time>
      </trkpt>
      <trkpt lat="50.91896" lon="2.62469">
        <ele>3</ele>
        <time>2019-05-06T08:19:54Z</time>
      </trkpt>
      <trkpt lat="50.91894" lon="2.6247">
        <ele>2</ele>
        <time>2019-05-06T08:19:55Z</time>
      </trkpt>
      <trkpt lat="50.91892" lon="2.62471">
        <ele>2</ele>
        <time>2019-05-06T08:19:56Z</time>
      </trkpt>
      <trkpt lat="50.91867" lon="2.62473">
        <ele>3</ele>
        <time>2019-05-06T08:20:06Z</time>
      </trkpt>
      <trkpt lat="50.91844" lon="2.62482">
        <ele>3</ele>
        <time>2019-05-06T08:20:17Z</time>
      </trkpt>
      <trkpt lat="50.91823" lon="2.62487">
        <ele>2</ele>
        <time>2019-05-06T08:20:29Z</time>
      </trkpt>
      <trkpt lat="50.91815" lon="2.62488">
        <ele>2</ele>
        <time>2019-05-06T08:20:33Z</time>
      </trkpt>
      <trkpt lat="50.91815" lon="2.62489">
        <ele>2</ele>
        <time>2019-05-06T08:20:34Z</time>
      </trkpt>
      <trkpt lat="50.91814" lon="2.6249">
        <ele>2</ele>
        <time>2019-05-06T08:20:35Z</time>
      </trkpt>
      <trkpt lat="50.91812" lon="2.62491">
        <ele>2</ele>
        <time>2019-05-06T08:20:36Z</time>
      </trkpt>
      <trkpt lat="50.91812" lon="2.62492">
        <ele>2</ele>
        <time>2019-05-06T08:20:37Z</time>
      </trkpt>
      <trkpt lat="50.91795" lon="2.62501">
        <ele>2</ele>
        <time>2019-05-06T08:20:47Z</time>
      </trkpt>
      <trkpt lat="50.91775" lon="2.62508">
        <ele>2</ele>
        <time>2019-05-06T08:20:57Z</time>
      </trkpt>
      <trkpt lat="50.91764" lon="2.62512">
        <ele>2</ele>
        <time>2019-05-06T08:21:02Z</time>
      </trkpt>
      <trkpt lat="50.91763" lon="2.62514">
        <ele>2</ele>
        <time>2019-05-06T08:21:03Z</time>
      </trkpt>
      <trkpt lat="50.91762" lon="2.62515">
        <ele>2</ele>
        <time>2019-05-06T08:21:04Z</time>
      </trkpt>
      <trkpt lat="50.9176" lon="2.62516">
        <ele>2</ele>
        <time>2019-05-06T08:21:05Z</time>
      </trkpt>
      <trkpt lat="50.91758" lon="2.62518">
        <ele>2</ele>
        <time>2019-05-06T08:21:06Z</time>
      </trkpt>
      <trkpt lat="50.91756" lon="2.62519">
        <ele>2</ele>
        <time>2019-05-06T08:21:07Z</time>
      </trkpt>
      <trkpt lat="50.91754" lon="2.62521">
        <ele>2</ele>
        <time>2019-05-06T08:21:08Z</time>
      </trkpt>
      <trkpt lat="50.91728" lon="2.62531">
        <ele>2</ele>
        <time>2019-05-06T08:21:18Z</time>
      </trkpt>
      <trkpt lat="50.91706" lon="2.62536">
        <ele>2</ele>
        <time>2019-05-06T08:21:28Z</time>
      </trkpt>
      <trkpt lat="50.91686" lon="2.62541">
        <ele>2</ele>
        <time>2019-05-06T08:21:38Z</time>
      </trkpt>
      <trkpt lat="50.91667" lon="2.62552">
        <ele>2</ele>
        <time>2019-05-06T08:21:48Z</time>
      </trkpt>
      <trkpt lat="50.91644" lon="2.6256">
        <ele>2</ele>
        <time>2019-05-06T08:21:58Z</time>
      </trkpt>
      <trkpt lat="50.91622" lon="2.62564">
        <ele>2</ele>
        <time>2019-05-06T08:22:08Z</time>
      </trkpt>
      <trkpt lat="50.91604" lon="2.62572">
        <ele>2</ele>
        <time>2019-05-06T08:22:18Z</time>
      </trkpt>
      <trkpt lat="50.91583" lon="2.62579">
        <ele>2</ele>
        <time>2019-05-06T08:22:26Z</time>
      </trkpt>
      <trkpt lat="50.91565" lon="2.62585">
        <ele>2</ele>
        <time>2019-05-06T08:22:35Z</time>
      </trkpt>
      <trkpt lat="50.91559" lon="2.62588">
        <ele>2</ele>
        <time>2019-05-06T08:22:38Z</time>
      </trkpt>
      <trkpt lat="50.91558" lon="2.62589">
        <ele>2</ele>
        <time>2019-05-06T08:22:39Z</time>
      </trkpt>
      <trkpt lat="50.91556" lon="2.6259">
        <ele>2</ele>
        <time>2019-05-06T08:22:40Z</time>
      </trkpt>
      <trkpt lat="50.91554" lon="2.62591">
        <ele>2</ele>
        <time>2019-05-06T08:22:41Z</time>
      </trkpt>
      <trkpt lat="50.91552" lon="2.62592">
        <ele>2</ele>
        <time>2019-05-06T08:22:42Z</time>
      </trkpt>
      <trkpt lat="50.9155" lon="2.62592">
        <ele>2</ele>
        <time>2019-05-06T08:22:43Z</time>
      </trkpt>
      <trkpt lat="50.91543" lon="2.62595">
        <ele>2</ele>
        <time>2019-05-06T08:22:47Z</time>
      </trkpt>
      <trkpt lat="50.91523" lon="2.626">
        <ele>2</ele>
        <time>2019-05-06T08:22:58Z</time>
      </trkpt>
      <trkpt lat="50.91503" lon="2.62608">
        <ele>2</ele>
        <time>2019-05-06T08:23:08Z</time>
      </trkpt>
      <trkpt lat="50.91484" lon="2.62617">
        <ele>2</ele>
        <time>2019-05-06T08:23:18Z</time>
      </trkpt>
      <trkpt lat="50.91478" lon="2.62619">
        <ele>2</ele>
        <time>2019-05-06T08:23:21Z</time>
      </trkpt>
      <trkpt lat="50.91458" lon="2.62626">
        <ele>2</ele>
        <time>2019-05-06T08:23:31Z</time>
      </trkpt>
      <trkpt lat="50.91435" lon="2.62637">
        <ele>2</ele>
        <time>2019-05-06T08:23:42Z</time>
      </trkpt>
      <trkpt lat="50.91416" lon="2.62645">
        <ele>2</ele>
        <time>2019-05-06T08:23:51Z</time>
      </trkpt>
      <trkpt lat="50.91397" lon="2.62653">
        <ele>2</ele>
        <time>2019-05-06T08:24:00Z</time>
      </trkpt>
      <trkpt lat="50.9138" lon="2.62657">
        <ele>3</ele>
        <time>2019-05-06T08:24:09Z</time>
      </trkpt>
      <trkpt lat="50.91362" lon="2.62662">
        <ele>3</ele>
        <time>2019-05-06T08:24:18Z</time>
      </trkpt>
      <trkpt lat="50.91344" lon="2.62665">
        <ele>3</ele>
        <time>2019-05-06T08:24:26Z</time>
      </trkpt>
      <trkpt lat="50.91325" lon="2.62669">
        <ele>3</ele>
        <time>2019-05-06T08:24:35Z</time>
      </trkpt>
      <trkpt lat="50.91321" lon="2.6267">
        <ele>3</ele>
        <time>2019-05-06T08:24:38Z</time>
      </trkpt>
      <trkpt lat="50.91302" lon="2.62666">
        <ele>3</ele>
        <time>2019-05-06T08:24:48Z</time>
      </trkpt>
      <trkpt lat="50.91283" lon="2.6265">
        <ele>3</ele>
        <time>2019-05-06T08:25:00Z</time>
      </trkpt>
      <trkpt lat="50.91264" lon="2.62632">
        <ele>4</ele>
        <time>2019-05-06T08:25:11Z</time>
      </trkpt>
      <trkpt lat="50.91247" lon="2.62611">
        <ele>4</ele>
        <time>2019-05-06T08:25:23Z</time>
      </trkpt>
      <trkpt lat="50.91244" lon="2.62607">
        <ele>4</ele>
        <time>2019-05-06T08:25:26Z</time>
      </trkpt>
      <trkpt lat="50.91242" lon="2.62605">
        <ele>4</ele>
        <time>2019-05-06T08:25:27Z</time>
      </trkpt>
      <trkpt lat="50.91239" lon="2.62602">
        <ele>4</ele>
        <time>2019-05-06T08:25:28Z</time>
      </trkpt>
      <trkpt lat="50.91237" lon="2.626">
        <ele>4</ele>
        <time>2019-05-06T08:25:29Z</time>
      </trkpt>
      <trkpt lat="50.91236" lon="2.62599">
        <ele>4</ele>
        <time>2019-05-06T08:25:30Z</time>
      </trkpt>
      <trkpt lat="50.91234" lon="2.62597">
        <ele>4</ele>
        <time>2019-05-06T08:25:31Z</time>
      </trkpt>
      <trkpt lat="50.91233" lon="2.62595">
        <ele>4</ele>
        <time>2019-05-06T08:25:32Z</time>
      </trkpt>
      <trkpt lat="50.9123" lon="2.62593">
        <ele>4</ele>
        <time>2019-05-06T08:25:33Z</time>
      </trkpt>
      <trkpt lat="50.91228" lon="2.62592">
        <ele>4</ele>
        <time>2019-05-06T08:25:34Z</time>
      </trkpt>
      <trkpt lat="50.91226" lon="2.62591">
        <ele>4</ele>
        <time>2019-05-06T08:25:35Z</time>
      </trkpt>
      <trkpt lat="50.91225" lon="2.6259">
        <ele>4</ele>
        <time>2019-05-06T08:25:36Z</time>
      </trkpt>
      <trkpt lat="50.91223" lon="2.62589">
        <ele>4</ele>
        <time>2019-05-06T08:25:37Z</time>
      </trkpt>
      <trkpt lat="50.91221" lon="2.62586">
        <ele>4</ele>
        <time>2019-05-06T08:25:38Z</time>
      </trkpt>
      <trkpt lat="50.91219" lon="2.62584">
        <ele>4</ele>
        <time>2019-05-06T08:25:39Z</time>
      </trkpt>
      <trkpt lat="50.91217" lon="2.62581">
        <ele>4</ele>
        <time>2019-05-06T08:25:40Z</time>
      </trkpt>
      <trkpt lat="50.91199" lon="2.62556">
        <ele>4</ele>
        <time>2019-05-06T08:25:52Z</time>
      </trkpt>
      <trkpt lat="50.91181" lon="2.62532">
        <ele>4</ele>
        <time>2019-05-06T08:26:04Z</time>
      </trkpt>
      <trkpt lat="50.91172" lon="2.62521">
        <ele>5</ele>
        <time>2019-05-06T08:26:10Z</time>
      </trkpt>
      <trkpt lat="50.9117" lon="2.6252">
        <ele>4</ele>
        <time>2019-05-06T08:26:11Z</time>
      </trkpt>
      <trkpt lat="50.91169" lon="2.62518">
        <ele>4</ele>
        <time>2019-05-06T08:26:12Z</time>
      </trkpt>
      <trkpt lat="50.91167" lon="2.62517">
        <ele>4</ele>
        <time>2019-05-06T08:26:13Z</time>
      </trkpt>
      <trkpt lat="50.91165" lon="2.62516">
        <ele>4</ele>
        <time>2019-05-06T08:26:14Z</time>
      </trkpt>
      <trkpt lat="50.91164" lon="2.62515">
        <ele>4</ele>
        <time>2019-05-06T08:26:15Z</time>
      </trkpt>
      <trkpt lat="50.91164" lon="2.62514">
        <ele>4</ele>
        <time>2019-05-06T08:26:16Z</time>
      </trkpt>
      <trkpt lat="50.91162" lon="2.62512">
        <ele>5</ele>
        <time>2019-05-06T08:26:17Z</time>
      </trkpt>
      <trkpt lat="50.91149" lon="2.62495">
        <ele>5</ele>
        <time>2019-05-06T08:26:26Z</time>
      </trkpt>
      <trkpt lat="50.91148" lon="2.62493">
        <ele>5</ele>
        <time>2019-05-06T08:26:27Z</time>
      </trkpt>
      <trkpt lat="50.91147" lon="2.62492">
        <ele>5</ele>
        <time>2019-05-06T08:26:28Z</time>
      </trkpt>
      <trkpt lat="50.91145" lon="2.6249">
        <ele>5</ele>
        <time>2019-05-06T08:26:29Z</time>
      </trkpt>
      <trkpt lat="50.91144" lon="2.62487">
        <ele>5</ele>
        <time>2019-05-06T08:26:30Z</time>
      </trkpt>
      <trkpt lat="50.91142" lon="2.62485">
        <ele>5</ele>
        <time>2019-05-06T08:26:31Z</time>
      </trkpt>
      <trkpt lat="50.91114" lon="2.6246">
        <ele>5</ele>
        <time>2019-05-06T08:26:45Z</time>
      </trkpt>
      <trkpt lat="50.91113" lon="2.62458">
        <ele>5</ele>
        <time>2019-05-06T08:26:46Z</time>
      </trkpt>
      <trkpt lat="50.91111" lon="2.62456">
        <ele>5</ele>
        <time>2019-05-06T08:26:47Z</time>
      </trkpt>
      <trkpt lat="50.91102" lon="2.62448">
        <ele>5</ele>
        <time>2019-05-06T08:26:52Z</time>
      </trkpt>
      <trkpt lat="50.91084" lon="2.62421">
        <ele>5</ele>
        <time>2019-05-06T08:27:02Z</time>
      </trkpt>
      <trkpt lat="50.91066" lon="2.62396">
        <ele>5</ele>
        <time>2019-05-06T08:27:13Z</time>
      </trkpt>
      <trkpt lat="50.91058" lon="2.62383">
        <ele>5</ele>
        <time>2019-05-06T08:27:19Z</time>
      </trkpt>
      <trkpt lat="50.91057" lon="2.62382">
        <ele>5</ele>
        <time>2019-05-06T08:27:20Z</time>
      </trkpt>
      <trkpt lat="50.91056" lon="2.62379">
        <ele>5</ele>
        <time>2019-05-06T08:27:22Z</time>
      </trkpt>
      <trkpt lat="50.91055" lon="2.62377">
        <ele>5</ele>
        <time>2019-05-06T08:27:23Z</time>
      </trkpt>
      <trkpt lat="50.91053" lon="2.62373">
        <ele>5</ele>
        <time>2019-05-06T08:27:25Z</time>
      </trkpt>
      <trkpt lat="50.91052" lon="2.62371">
        <ele>5</ele>
        <time>2019-05-06T08:27:26Z</time>
      </trkpt>
      <trkpt lat="50.91051" lon="2.6237">
        <ele>5</ele>
        <time>2019-05-06T08:27:27Z</time>
      </trkpt>
      <trkpt lat="50.9105" lon="2.62368">
        <ele>5</ele>
        <time>2019-05-06T08:27:28Z</time>
      </trkpt>
      <trkpt lat="50.91048" lon="2.62366">
        <ele>5</ele>
        <time>2019-05-06T08:27:29Z</time>
      </trkpt>
      <trkpt lat="50.91046" lon="2.62364">
        <ele>5</ele>
        <time>2019-05-06T08:27:30Z</time>
      </trkpt>
      <trkpt lat="50.91045" lon="2.62362">
        <ele>5</ele>
        <time>2019-05-06T08:27:31Z</time>
      </trkpt>
      <trkpt lat="50.91044" lon="2.62361">
        <ele>5</ele>
        <time>2019-05-06T08:27:32Z</time>
      </trkpt>
      <trkpt lat="50.91043" lon="2.62359">
        <ele>5</ele>
        <time>2019-05-06T08:27:33Z</time>
      </trkpt>
      <trkpt lat="50.91037" lon="2.62347">
        <ele>5</ele>
        <time>2019-05-06T08:27:42Z</time>
      </trkpt>
      <trkpt lat="50.91036" lon="2.62346">
        <ele>5</ele>
        <time>2019-05-06T08:27:43Z</time>
      </trkpt>
      <trkpt lat="50.91034" lon="2.62345">
        <ele>5</ele>
        <time>2019-05-06T08:27:44Z</time>
      </trkpt>
      <trkpt lat="50.91033" lon="2.62344">
        <ele>5</ele>
        <time>2019-05-06T08:27:45Z</time>
      </trkpt>
      <trkpt lat="50.91022" lon="2.62336">
        <ele>5</ele>
        <time>2019-05-06T08:27:54Z</time>
      </trkpt>
      <trkpt lat="50.91016" lon="2.62327">
        <ele>5</ele>
        <time>2019-05-06T08:28:00Z</time>
      </trkpt>
      <trkpt lat="50.91013" lon="2.62325">
        <ele>5</ele>
        <time>2019-05-06T08:28:01Z</time>
      </trkpt>
      <trkpt lat="50.91012" lon="2.62323">
        <ele>5</ele>
        <time>2019-05-06T08:28:02Z</time>
      </trkpt>
      <trkpt lat="50.9101" lon="2.6232">
        <ele>5</ele>
        <time>2019-05-06T08:28:03Z</time>
      </trkpt>
      <trkpt lat="50.90994" lon="2.62309">
        <ele>6</ele>
        <time>2019-05-06T08:28:10Z</time>
      </trkpt>
      <trkpt lat="50.90988" lon="2.62306">
        <ele>6</ele>
        <time>2019-05-06T08:28:11Z</time>
      </trkpt>
      <trkpt lat="50.90982" lon="2.62302">
        <ele>5</ele>
        <time>2019-05-06T08:28:12Z</time>
      </trkpt>
      <trkpt lat="50.90977" lon="2.62297">
        <ele>5</ele>
        <time>2019-05-06T08:28:13Z</time>
      </trkpt>
      <trkpt lat="50.90973" lon="2.62295">
        <ele>5</ele>
        <time>2019-05-06T08:28:14Z</time>
      </trkpt>
      <trkpt lat="50.9097" lon="2.62291">
        <ele>6</ele>
        <time>2019-05-06T08:28:15Z</time>
      </trkpt>
      <trkpt lat="50.90966" lon="2.62288">
        <ele>6</ele>
        <time>2019-05-06T08:28:16Z</time>
      </trkpt>
      <trkpt lat="50.90944" lon="2.6226">
        <ele>6</ele>
        <time>2019-05-06T08:28:26Z</time>
      </trkpt>
      <trkpt lat="50.90941" lon="2.62251">
        <ele>6</ele>
        <time>2019-05-06T08:28:31Z</time>
      </trkpt>
      <trkpt lat="50.9094" lon="2.62249">
        <ele>6</ele>
        <time>2019-05-06T08:28:32Z</time>
      </trkpt>
      <trkpt lat="50.90937" lon="2.62247">
        <ele>6</ele>
        <time>2019-05-06T08:28:33Z</time>
      </trkpt>
      <trkpt lat="50.90935" lon="2.62245">
        <ele>6</ele>
        <time>2019-05-06T08:28:34Z</time>
      </trkpt>
      <trkpt lat="50.90933" lon="2.62242">
        <ele>6</ele>
        <time>2019-05-06T08:28:35Z</time>
      </trkpt>
      <trkpt lat="50.90931" lon="2.6224">
        <ele>6</ele>
        <time>2019-05-06T08:28:36Z</time>
      </trkpt>
      <trkpt lat="50.90928" lon="2.62237">
        <ele>6</ele>
        <time>2019-05-06T08:28:37Z</time>
      </trkpt>
      <trkpt lat="50.90924" lon="2.62232">
        <ele>6</ele>
        <time>2019-05-06T08:28:40Z</time>
      </trkpt>
      <trkpt lat="50.90923" lon="2.6223">
        <ele>6</ele>
        <time>2019-05-06T08:28:41Z</time>
      </trkpt>
      <trkpt lat="50.90921" lon="2.62227">
        <ele>6</ele>
        <time>2019-05-06T08:28:42Z</time>
      </trkpt>
      <trkpt lat="50.90918" lon="2.62225">
        <ele>6</ele>
        <time>2019-05-06T08:28:43Z</time>
      </trkpt>
      <trkpt lat="50.90916" lon="2.62223">
        <ele>6</ele>
        <time>2019-05-06T08:28:44Z</time>
      </trkpt>
      <trkpt lat="50.90896" lon="2.62201">
        <ele>6</ele>
        <time>2019-05-06T08:28:55Z</time>
      </trkpt>
      <trkpt lat="50.9088" lon="2.62177">
        <ele>6</ele>
        <time>2019-05-06T08:29:07Z</time>
      </trkpt>
      <trkpt lat="50.90877" lon="2.62169">
        <ele>6</ele>
        <time>2019-05-06T08:29:12Z</time>
      </trkpt>
      <trkpt lat="50.90878" lon="2.62168">
        <ele>6</ele>
        <time>2019-05-06T08:29:13Z</time>
      </trkpt>
      <trkpt lat="50.90878" lon="2.62165">
        <ele>6</ele>
        <time>2019-05-06T08:29:16Z</time>
      </trkpt>
      <trkpt lat="50.90877" lon="2.62164">
        <ele>6</ele>
        <time>2019-05-06T08:29:17Z</time>
      </trkpt>
      <trkpt lat="50.90876" lon="2.62162">
        <ele>6</ele>
        <time>2019-05-06T08:29:18Z</time>
      </trkpt>
      <trkpt lat="50.90875" lon="2.6216">
        <ele>6</ele>
        <time>2019-05-06T08:29:19Z</time>
      </trkpt>
      <trkpt lat="50.90874" lon="2.62157">
        <ele>6</ele>
        <time>2019-05-06T08:29:20Z</time>
      </trkpt>
      <trkpt lat="50.90872" lon="2.62155">
        <ele>6</ele>
        <time>2019-05-06T08:29:21Z</time>
      </trkpt>
      <trkpt lat="50.90871" lon="2.62152">
        <ele>6</ele>
        <time>2019-05-06T08:29:22Z</time>
      </trkpt>
      <trkpt lat="50.90869" lon="2.62149">
        <ele>6</ele>
        <time>2019-05-06T08:29:23Z</time>
      </trkpt>
      <trkpt lat="50.90865" lon="2.62146">
        <ele>6</ele>
        <time>2019-05-06T08:29:24Z</time>
      </trkpt>
      <trkpt lat="50.90861" lon="2.62144">
        <ele>6</ele>
        <time>2019-05-06T08:29:25Z</time>
      </trkpt>
      <trkpt lat="50.90858" lon="2.62142">
        <ele>6</ele>
        <time>2019-05-06T08:29:26Z</time>
      </trkpt>
      <trkpt lat="50.90833" lon="2.62119">
        <ele>6</ele>
        <time>2019-05-06T08:29:37Z</time>
      </trkpt>
      <trkpt lat="50.90826" lon="2.62112">
        <ele>6</ele>
        <time>2019-05-06T08:29:40Z</time>
      </trkpt>
      <trkpt lat="50.90825" lon="2.62109">
        <ele>6</ele>
        <time>2019-05-06T08:29:41Z</time>
      </trkpt>
      <trkpt lat="50.90823" lon="2.62107">
        <ele>6</ele>
        <time>2019-05-06T08:29:42Z</time>
      </trkpt>
      <trkpt lat="50.90821" lon="2.62106">
        <ele>6</ele>
        <time>2019-05-06T08:29:43Z</time>
      </trkpt>
      <trkpt lat="50.90819" lon="2.62104">
        <ele>6</ele>
        <time>2019-05-06T08:29:44Z</time>
      </trkpt>
      <trkpt lat="50.90815" lon="2.62101">
        <ele>6</ele>
        <time>2019-05-06T08:29:46Z</time>
      </trkpt>
      <trkpt lat="50.90815" lon="2.62099">
        <ele>6</ele>
        <time>2019-05-06T08:29:47Z</time>
      </trkpt>
      <trkpt lat="50.90814" lon="2.62097">
        <ele>6</ele>
        <time>2019-05-06T08:29:48Z</time>
      </trkpt>
      <trkpt lat="50.90814" lon="2.62094">
        <ele>6</ele>
        <time>2019-05-06T08:29:49Z</time>
      </trkpt>
      <trkpt lat="50.90814" lon="2.62091">
        <ele>6</ele>
        <time>2019-05-06T08:29:50Z</time>
      </trkpt>
      <trkpt lat="50.90815" lon="2.62089">
        <ele>6</ele>
        <time>2019-05-06T08:29:51Z</time>
      </trkpt>
      <trkpt lat="50.90814" lon="2.62087">
        <ele>6</ele>
        <time>2019-05-06T08:29:52Z</time>
      </trkpt>
      <trkpt lat="50.90811" lon="2.62086">
        <ele>6</ele>
        <time>2019-05-06T08:29:53Z</time>
      </trkpt>
      <trkpt lat="50.90808" lon="2.62085">
        <ele>7</ele>
        <time>2019-05-06T08:29:54Z</time>
      </trkpt>
      <trkpt lat="50.90806" lon="2.62084">
        <ele>7</ele>
        <time>2019-05-06T08:29:55Z</time>
      </trkpt>
      <trkpt lat="50.90801" lon="2.62081">
        <ele>6</ele>
        <time>2019-05-06T08:29:59Z</time>
      </trkpt>
      <trkpt lat="50.908" lon="2.6208">
        <ele>6</ele>
        <time>2019-05-06T08:30:00Z</time>
      </trkpt>
      <trkpt lat="50.90799" lon="2.62079">
        <ele>6</ele>
        <time>2019-05-06T08:30:01Z</time>
      </trkpt>
      <trkpt lat="50.90798" lon="2.62078">
        <ele>6</ele>
        <time>2019-05-06T08:30:02Z</time>
      </trkpt>
      <trkpt lat="50.90797" lon="2.62076">
        <ele>6</ele>
        <time>2019-05-06T08:30:03Z</time>
      </trkpt>
      <trkpt lat="50.90776" lon="2.62054">
        <ele>6</ele>
        <time>2019-05-06T08:30:12Z</time>
      </trkpt>
      <trkpt lat="50.90774" lon="2.62052">
        <ele>6</ele>
        <time>2019-05-06T08:30:13Z</time>
      </trkpt>
      <trkpt lat="50.90759" lon="2.62037">
        <ele>6</ele>
        <time>2019-05-06T08:30:20Z</time>
      </trkpt>
      <trkpt lat="50.90737" lon="2.62017">
        <ele>6</ele>
        <time>2019-05-06T08:30:32Z</time>
      </trkpt>
      <trkpt lat="50.90734" lon="2.62014">
        <ele>6</ele>
        <time>2019-05-06T08:30:34Z</time>
      </trkpt>
      <trkpt lat="50.90733" lon="2.62014">
        <ele>6</ele>
        <time>2019-05-06T08:30:35Z</time>
      </trkpt>
      <trkpt lat="50.90731" lon="2.62012">
        <ele>6</ele>
        <time>2019-05-06T08:30:36Z</time>
      </trkpt>
      <trkpt lat="50.90729" lon="2.6201">
        <ele>6</ele>
        <time>2019-05-06T08:30:37Z</time>
      </trkpt>
      <trkpt lat="50.90727" lon="2.62008">
        <ele>6</ele>
        <time>2019-05-06T08:30:38Z</time>
      </trkpt>
      <trkpt lat="50.90725" lon="2.62007">
        <ele>6</ele>
        <time>2019-05-06T08:30:39Z</time>
      </trkpt>
      <trkpt lat="50.90723" lon="2.62005">
        <ele>6</ele>
        <time>2019-05-06T08:30:40Z</time>
      </trkpt>
      <trkpt lat="50.90721" lon="2.62004">
        <ele>6</ele>
        <time>2019-05-06T08:30:41Z</time>
      </trkpt>
      <trkpt lat="50.9072" lon="2.62003">
        <ele>6</ele>
        <time>2019-05-06T08:30:42Z</time>
      </trkpt>
      <trkpt lat="50.90701" lon="2.61991">
        <ele>6</ele>
        <time>2019-05-06T08:30:53Z</time>
      </trkpt>
      <trkpt lat="50.90681" lon="2.61969">
        <ele>6</ele>
        <time>2019-05-06T08:31:03Z</time>
      </trkpt>
      <trkpt lat="50.90672" lon="2.6196">
        <ele>6</ele>
        <time>2019-05-06T08:31:08Z</time>
      </trkpt>
      <trkpt lat="50.90671" lon="2.61958">
        <ele>6</ele>
        <time>2019-05-06T08:31:09Z</time>
      </trkpt>
      <trkpt lat="50.90669" lon="2.61956">
        <ele>6</ele>
        <time>2019-05-06T08:31:10Z</time>
      </trkpt>
      <trkpt lat="50.90668" lon="2.61955">
        <ele>5</ele>
        <time>2019-05-06T08:31:11Z</time>
      </trkpt>
      <trkpt lat="50.90667" lon="2.61955">
        <ele>5</ele>
        <time>2019-05-06T08:31:12Z</time>
      </trkpt>
      <trkpt lat="50.90658" lon="2.61952">
        <ele>5</ele>
        <time>2019-05-06T08:31:17Z</time>
      </trkpt>
      <trkpt lat="50.90642" lon="2.61939">
        <ele>5</ele>
        <time>2019-05-06T08:31:25Z</time>
      </trkpt>
      <trkpt lat="50.9064" lon="2.61939">
        <ele>5</ele>
        <time>2019-05-06T08:31:26Z</time>
      </trkpt>
      <trkpt lat="50.90638" lon="2.61938">
        <ele>5</ele>
        <time>2019-05-06T08:31:27Z</time>
      </trkpt>
      <trkpt lat="50.90636" lon="2.61936">
        <ele>5</ele>
        <time>2019-05-06T08:31:28Z</time>
      </trkpt>
      <trkpt lat="50.90634" lon="2.61935">
        <ele>5</ele>
        <time>2019-05-06T08:31:29Z</time>
      </trkpt>
      <trkpt lat="50.90632" lon="2.61933">
        <ele>5</ele>
        <time>2019-05-06T08:31:30Z</time>
      </trkpt>
      <trkpt lat="50.9063" lon="2.61932">
        <ele>5</ele>
        <time>2019-05-06T08:31:31Z</time>
      </trkpt>
      <trkpt lat="50.90628" lon="2.6193">
        <ele>5</ele>
        <time>2019-05-06T08:31:32Z</time>
      </trkpt>
      <trkpt lat="50.90626" lon="2.61927">
        <ele>5</ele>
        <time>2019-05-06T08:31:33Z</time>
      </trkpt>
      <trkpt lat="50.90624" lon="2.61924">
        <ele>6</ele>
        <time>2019-05-06T08:31:34Z</time>
      </trkpt>
      <trkpt lat="50.90622" lon="2.61921">
        <ele>6</ele>
        <time>2019-05-06T08:31:35Z</time>
      </trkpt>
      <trkpt lat="50.9062" lon="2.61918">
        <ele>6</ele>
        <time>2019-05-06T08:31:36Z</time>
      </trkpt>
      <trkpt lat="50.90618" lon="2.61916">
        <ele>6</ele>
        <time>2019-05-06T08:31:37Z</time>
      </trkpt>
      <trkpt lat="50.90613" lon="2.61913">
        <ele>6</ele>
        <time>2019-05-06T08:31:40Z</time>
      </trkpt>
      <trkpt lat="50.90611" lon="2.61911">
        <ele>5</ele>
        <time>2019-05-06T08:31:41Z</time>
      </trkpt>
      <trkpt lat="50.90609" lon="2.6191">
        <ele>5</ele>
        <time>2019-05-06T08:31:42Z</time>
      </trkpt>
      <trkpt lat="50.90608" lon="2.61909">
        <ele>5</ele>
        <time>2019-05-06T08:31:43Z</time>
      </trkpt>
      <trkpt lat="50.90606" lon="2.61908">
        <ele>5</ele>
        <time>2019-05-06T08:31:44Z</time>
      </trkpt>
      <trkpt lat="50.90605" lon="2.61905">
        <ele>5</ele>
        <time>2019-05-06T08:31:45Z</time>
      </trkpt>
      <trkpt lat="50.90603" lon="2.61902">
        <ele>5</ele>
        <time>2019-05-06T08:31:46Z</time>
      </trkpt>
      <trkpt lat="50.90602" lon="2.619">
        <ele>5</ele>
        <time>2019-05-06T08:31:47Z</time>
      </trkpt>
      <trkpt lat="50.90594" lon="2.61869">
        <ele>5</ele>
        <time>2019-05-06T08:31:57Z</time>
      </trkpt>
      <trkpt lat="50.90591" lon="2.61838">
        <ele>5</ele>
        <time>2019-05-06T08:32:07Z</time>
      </trkpt>
      <trkpt lat="50.90597" lon="2.61805">
        <ele>5</ele>
        <time>2019-05-06T08:32:15Z</time>
      </trkpt>
      <trkpt lat="50.90595" lon="2.61775">
        <ele>5</ele>
        <time>2019-05-06T08:32:23Z</time>
      </trkpt>
      <trkpt lat="50.90578" lon="2.61756">
        <ele>6</ele>
        <time>2019-05-06T08:32:33Z</time>
      </trkpt>
      <trkpt lat="50.90575" lon="2.61752">
        <ele>6</ele>
        <time>2019-05-06T08:32:36Z</time>
      </trkpt>
      <trkpt lat="50.90573" lon="2.6175">
        <ele>6</ele>
        <time>2019-05-06T08:32:37Z</time>
      </trkpt>
      <trkpt lat="50.90572" lon="2.61747">
        <ele>6</ele>
        <time>2019-05-06T08:32:38Z</time>
      </trkpt>
      <trkpt lat="50.90562" lon="2.61718">
        <ele>6</ele>
        <time>2019-05-06T08:32:48Z</time>
      </trkpt>
      <trkpt lat="50.90554" lon="2.61688">
        <ele>6</ele>
        <time>2019-05-06T08:32:58Z</time>
      </trkpt>
      <trkpt lat="50.90553" lon="2.61687">
        <ele>6</ele>
        <time>2019-05-06T08:32:59Z</time>
      </trkpt>
      <trkpt lat="50.90551" lon="2.61685">
        <ele>6</ele>
        <time>2019-05-06T08:33:00Z</time>
      </trkpt>
      <trkpt lat="50.90548" lon="2.61684">
        <ele>6</ele>
        <time>2019-05-06T08:33:01Z</time>
      </trkpt>
      <trkpt lat="50.90547" lon="2.61682">
        <ele>6</ele>
        <time>2019-05-06T08:33:02Z</time>
      </trkpt>
      <trkpt lat="50.90545" lon="2.61681">
        <ele>6</ele>
        <time>2019-05-06T08:33:03Z</time>
      </trkpt>
      <trkpt lat="50.90543" lon="2.61682">
        <ele>6</ele>
        <time>2019-05-06T08:33:04Z</time>
      </trkpt>
      <trkpt lat="50.90542" lon="2.61684">
        <ele>6</ele>
        <time>2019-05-06T08:33:05Z</time>
      </trkpt>
      <trkpt lat="50.9054" lon="2.61686">
        <ele>6</ele>
        <time>2019-05-06T08:33:06Z</time>
      </trkpt>
      <trkpt lat="50.90538" lon="2.61686">
        <ele>6</ele>
        <time>2019-05-06T08:33:07Z</time>
      </trkpt>
      <trkpt lat="50.90536" lon="2.61687">
        <ele>6</ele>
        <time>2019-05-06T08:33:08Z</time>
      </trkpt>
      <trkpt lat="50.90534" lon="2.61687">
        <ele>6</ele>
        <time>2019-05-06T08:33:09Z</time>
      </trkpt>
      <trkpt lat="50.90532" lon="2.61687">
        <ele>6</ele>
        <time>2019-05-06T08:33:10Z</time>
      </trkpt>
      <trkpt lat="50.9053" lon="2.61688">
        <ele>6</ele>
        <time>2019-05-06T08:33:11Z</time>
      </trkpt>
      <trkpt lat="50.90528" lon="2.6169">
        <ele>6</ele>
        <time>2019-05-06T08:33:12Z</time>
      </trkpt>
      <trkpt lat="50.90526" lon="2.61691">
        <ele>6</ele>
        <time>2019-05-06T08:33:13Z</time>
      </trkpt>
      <trkpt lat="50.90525" lon="2.61692">
        <ele>6</ele>
        <time>2019-05-06T08:33:14Z</time>
      </trkpt>
      <trkpt lat="50.90523" lon="2.61693">
        <ele>6</ele>
        <time>2019-05-06T08:33:15Z</time>
      </trkpt>
      <trkpt lat="50.90522" lon="2.61695">
        <ele>6</ele>
        <time>2019-05-06T08:33:16Z</time>
      </trkpt>
      <trkpt lat="50.905" lon="2.61707">
        <ele>6</ele>
        <time>2019-05-06T08:33:28Z</time>
      </trkpt>
      <trkpt lat="50.90483" lon="2.61729">
        <ele>6</ele>
        <time>2019-05-06T08:33:37Z</time>
      </trkpt>
      <trkpt lat="50.90469" lon="2.61738">
        <ele>7</ele>
        <time>2019-05-06T08:33:47Z</time>
      </trkpt>
      <trkpt lat="50.90467" lon="2.61738">
        <ele>7</ele>
        <time>2019-05-06T08:33:48Z</time>
      </trkpt>
      <trkpt lat="50.90445" lon="2.61747">
        <ele>7</ele>
        <time>2019-05-06T08:33:58Z</time>
      </trkpt>
      <trkpt lat="50.90424" lon="2.61762">
        <ele>7</ele>
        <time>2019-05-06T08:34:09Z</time>
      </trkpt>
      <trkpt lat="50.90401" lon="2.61772">
        <ele>7</ele>
        <time>2019-05-06T08:34:20Z</time>
      </trkpt>
      <trkpt lat="50.90379" lon="2.61795">
        <ele>7</ele>
        <time>2019-05-06T08:34:31Z</time>
      </trkpt>
      <trkpt lat="50.90359" lon="2.6181">
        <ele>8</ele>
        <time>2019-05-06T08:34:41Z</time>
      </trkpt>
      <trkpt lat="50.9034" lon="2.61822">
        <ele>8</ele>
        <time>2019-05-06T08:34:50Z</time>
      </trkpt>
      <trkpt lat="50.90326" lon="2.61828">
        <ele>8</ele>
        <time>2019-05-06T08:34:59Z</time>
      </trkpt>
      <trkpt lat="50.90324" lon="2.61829">
        <ele>8</ele>
        <time>2019-05-06T08:35:00Z</time>
      </trkpt>
      <trkpt lat="50.90322" lon="2.61829">
        <ele>8</ele>
        <time>2019-05-06T08:35:01Z</time>
      </trkpt>
      <trkpt lat="50.90321" lon="2.61831">
        <ele>8</ele>
        <time>2019-05-06T08:35:02Z</time>
      </trkpt>
      <trkpt lat="50.9032" lon="2.61832">
        <ele>8</ele>
        <time>2019-05-06T08:35:03Z</time>
      </trkpt>
      <trkpt lat="50.90309" lon="2.61837">
        <ele>8</ele>
        <time>2019-05-06T08:35:09Z</time>
      </trkpt>
      <trkpt lat="50.90308" lon="2.61838">
        <ele>8</ele>
        <time>2019-05-06T08:35:10Z</time>
      </trkpt>
      <trkpt lat="50.90306" lon="2.61839">
        <ele>8</ele>
        <time>2019-05-06T08:35:11Z</time>
      </trkpt>
      <trkpt lat="50.90304" lon="2.6184">
        <ele>8</ele>
        <time>2019-05-06T08:35:12Z</time>
      </trkpt>
      <trkpt lat="50.90302" lon="2.61843">
        <ele>8</ele>
        <time>2019-05-06T08:35:13Z</time>
      </trkpt>
      <trkpt lat="50.90301" lon="2.61846">
        <ele>8</ele>
        <time>2019-05-06T08:35:14Z</time>
      </trkpt>
      <trkpt lat="50.90299" lon="2.61849">
        <ele>8</ele>
        <time>2019-05-06T08:35:15Z</time>
      </trkpt>
      <trkpt lat="50.90297" lon="2.61849">
        <ele>8</ele>
        <time>2019-05-06T08:35:16Z</time>
      </trkpt>
      <trkpt lat="50.90295" lon="2.6185">
        <ele>8</ele>
        <time>2019-05-06T08:35:17Z</time>
      </trkpt>
      <trkpt lat="50.90293" lon="2.61851">
        <ele>8</ele>
        <time>2019-05-06T08:35:18Z</time>
      </trkpt>
      <trkpt lat="50.90291" lon="2.61853">
        <ele>8</ele>
        <time>2019-05-06T08:35:19Z</time>
      </trkpt>
      <trkpt lat="50.9029" lon="2.61855">
        <ele>8</ele>
        <time>2019-05-06T08:35:20Z</time>
      </trkpt>
      <trkpt lat="50.90273" lon="2.6187">
        <ele>8</ele>
        <time>2019-05-06T08:35:30Z</time>
      </trkpt>
      <trkpt lat="50.90271" lon="2.61872">
        <ele>8</ele>
        <time>2019-05-06T08:35:31Z</time>
      </trkpt>
      <trkpt lat="50.90269" lon="2.61873">
        <ele>8</ele>
        <time>2019-05-06T08:35:32Z</time>
      </trkpt>
      <trkpt lat="50.90266" lon="2.61876">
        <ele>8</ele>
        <time>2019-05-06T08:35:33Z</time>
      </trkpt>
      <trkpt lat="50.90263" lon="2.61878">
        <ele>8</ele>
        <time>2019-05-06T08:35:34Z</time>
      </trkpt>
      <trkpt lat="50.90252" lon="2.61886">
        <ele>8</ele>
        <time>2019-05-06T08:35:39Z</time>
      </trkpt>
      <trkpt lat="50.9025" lon="2.61887">
        <ele>8</ele>
        <time>2019-05-06T08:35:40Z</time>
      </trkpt>
      <trkpt lat="50.90249" lon="2.61888">
        <ele>8</ele>
        <time>2019-05-06T08:35:41Z</time>
      </trkpt>
      <trkpt lat="50.90248" lon="2.61889">
        <ele>8</ele>
        <time>2019-05-06T08:35:42Z</time>
      </trkpt>
      <trkpt lat="50.90246" lon="2.6189">
        <ele>8</ele>
        <time>2019-05-06T08:35:43Z</time>
      </trkpt>
      <trkpt lat="50.90227" lon="2.61904">
        <ele>9</ele>
        <time>2019-05-06T08:35:53Z</time>
      </trkpt>
      <trkpt lat="50.90207" lon="2.61919">
        <ele>8</ele>
        <time>2019-05-06T08:36:03Z</time>
      </trkpt>
      <trkpt lat="50.90189" lon="2.6193">
        <ele>8</ele>
        <time>2019-05-06T08:36:13Z</time>
      </trkpt>
      <trkpt lat="50.9017" lon="2.61944">
        <ele>8</ele>
        <time>2019-05-06T08:36:23Z</time>
      </trkpt>
      <trkpt lat="50.9015" lon="2.61956">
        <ele>8</ele>
        <time>2019-05-06T08:36:33Z</time>
      </trkpt>
      <trkpt lat="50.9013" lon="2.61967">
        <ele>8</ele>
        <time>2019-05-06T08:36:44Z</time>
      </trkpt>
      <trkpt lat="50.90111" lon="2.61979">
        <ele>8</ele>
        <time>2019-05-06T08:36:55Z</time>
      </trkpt>
      <trkpt lat="50.90088" lon="2.61995">
        <ele>8</ele>
        <time>2019-05-06T08:37:06Z</time>
      </trkpt>
      <trkpt lat="50.90086" lon="2.61997">
        <ele>8</ele>
        <time>2019-05-06T08:37:07Z</time>
      </trkpt>
      <trkpt lat="50.90081" lon="2.62003">
        <ele>7</ele>
        <time>2019-05-06T08:37:10Z</time>
      </trkpt>
      <trkpt lat="50.90062" lon="2.62015">
        <ele>8</ele>
        <time>2019-05-06T08:37:19Z</time>
      </trkpt>
      <trkpt lat="50.90043" lon="2.62026">
        <ele>7</ele>
        <time>2019-05-06T08:37:28Z</time>
      </trkpt>
      <trkpt lat="50.90026" lon="2.62037">
        <ele>8</ele>
        <time>2019-05-06T08:37:37Z</time>
      </trkpt>
      <trkpt lat="50.90008" lon="2.62048">
        <ele>8</ele>
        <time>2019-05-06T08:37:46Z</time>
      </trkpt>
      <trkpt lat="50.89992" lon="2.62062">
        <ele>8</ele>
        <time>2019-05-06T08:37:55Z</time>
      </trkpt>
      <trkpt lat="50.89976" lon="2.62076">
        <ele>8</ele>
        <time>2019-05-06T08:38:04Z</time>
      </trkpt>
      <trkpt lat="50.89971" lon="2.6208">
        <ele>8</ele>
        <time>2019-05-06T08:38:07Z</time>
      </trkpt>
      <trkpt lat="50.89969" lon="2.62081">
        <ele>8</ele>
        <time>2019-05-06T08:38:08Z</time>
      </trkpt>
      <trkpt lat="50.8995" lon="2.62091">
        <ele>8</ele>
        <time>2019-05-06T08:38:17Z</time>
      </trkpt>
      <trkpt lat="50.89934" lon="2.62105">
        <ele>7</ele>
        <time>2019-05-06T08:38:26Z</time>
      </trkpt>
      <trkpt lat="50.89917" lon="2.62117">
        <ele>8</ele>
        <time>2019-05-06T08:38:35Z</time>
      </trkpt>
      <trkpt lat="50.89898" lon="2.62128">
        <ele>8</ele>
        <time>2019-05-06T08:38:45Z</time>
      </trkpt>
      <trkpt lat="50.8988" lon="2.6214">
        <ele>8</ele>
        <time>2019-05-06T08:38:54Z</time>
      </trkpt>
      <trkpt lat="50.89863" lon="2.62151">
        <ele>8</ele>
        <time>2019-05-06T08:39:03Z</time>
      </trkpt>
      <trkpt lat="50.89846" lon="2.62161">
        <ele>8</ele>
        <time>2019-05-06T08:39:12Z</time>
      </trkpt>
      <trkpt lat="50.89829" lon="2.62175">
        <ele>8</ele>
        <time>2019-05-06T08:39:22Z</time>
      </trkpt>
      <trkpt lat="50.89813" lon="2.62191">
        <ele>9</ele>
        <time>2019-05-06T08:39:31Z</time>
      </trkpt>
      <trkpt lat="50.89796" lon="2.62205">
        <ele>9</ele>
        <time>2019-05-06T08:39:40Z</time>
      </trkpt>
      <trkpt lat="50.89777" lon="2.62215">
        <ele>9</ele>
        <time>2019-05-06T08:39:49Z</time>
      </trkpt>
      <trkpt lat="50.89762" lon="2.62223">
        <ele>9</ele>
        <time>2019-05-06T08:39:58Z</time>
      </trkpt>
      <trkpt lat="50.89745" lon="2.62236">
        <ele>9</ele>
        <time>2019-05-06T08:40:07Z</time>
      </trkpt>
      <trkpt lat="50.89726" lon="2.62248">
        <ele>9</ele>
        <time>2019-05-06T08:40:16Z</time>
      </trkpt>
      <trkpt lat="50.89708" lon="2.62262">
        <ele>9</ele>
        <time>2019-05-06T08:40:25Z</time>
      </trkpt>
      <trkpt lat="50.8969" lon="2.62274">
        <ele>9</ele>
        <time>2019-05-06T08:40:34Z</time>
      </trkpt>
      <trkpt lat="50.89671" lon="2.62286">
        <ele>9</ele>
        <time>2019-05-06T08:40:43Z</time>
      </trkpt>
      <trkpt lat="50.89653" lon="2.62289">
        <ele>9</ele>
        <time>2019-05-06T08:40:52Z</time>
      </trkpt>
      <trkpt lat="50.89639" lon="2.62286">
        <ele>9</ele>
        <time>2019-05-06T08:40:59Z</time>
      </trkpt>
      <trkpt lat="50.8962" lon="2.6229">
        <ele>9</ele>
        <time>2019-05-06T08:41:09Z</time>
      </trkpt>
      <trkpt lat="50.89599" lon="2.62289">
        <ele>9</ele>
        <time>2019-05-06T08:41:19Z</time>
      </trkpt>
      <trkpt lat="50.89597" lon="2.62289">
        <ele>9</ele>
        <time>2019-05-06T08:41:20Z</time>
      </trkpt>
      <trkpt lat="50.89595" lon="2.62289">
        <ele>9</ele>
        <time>2019-05-06T08:41:21Z</time>
      </trkpt>
      <trkpt lat="50.89594" lon="2.62288">
        <ele>9</ele>
        <time>2019-05-06T08:41:22Z</time>
      </trkpt>
      <trkpt lat="50.89592" lon="2.62289">
        <ele>9</ele>
        <time>2019-05-06T08:41:23Z</time>
      </trkpt>
      <trkpt lat="50.8959" lon="2.62288">
        <ele>9</ele>
        <time>2019-05-06T08:41:24Z</time>
      </trkpt>
      <trkpt lat="50.89588" lon="2.62288">
        <ele>9</ele>
        <time>2019-05-06T08:41:25Z</time>
      </trkpt>
      <trkpt lat="50.89586" lon="2.62288">
        <ele>9</ele>
        <time>2019-05-06T08:41:26Z</time>
      </trkpt>
      <trkpt lat="50.89584" lon="2.62288">
        <ele>8</ele>
        <time>2019-05-06T08:41:27Z</time>
      </trkpt>
      <trkpt lat="50.89581" lon="2.62287">
        <ele>8</ele>
        <time>2019-05-06T08:41:28Z</time>
      </trkpt>
      <trkpt lat="50.89574" lon="2.62287">
        <ele>9</ele>
        <time>2019-05-06T08:41:31Z</time>
      </trkpt>
      <trkpt lat="50.89555" lon="2.6229">
        <ele>9</ele>
        <time>2019-05-06T08:41:41Z</time>
      </trkpt>
      <trkpt lat="50.89532" lon="2.6229">
        <ele>9</ele>
        <time>2019-05-06T08:41:51Z</time>
      </trkpt>
      <trkpt lat="50.89512" lon="2.62292">
        <ele>9</ele>
        <time>2019-05-06T08:42:01Z</time>
      </trkpt>
      <trkpt lat="50.89491" lon="2.62291">
        <ele>9</ele>
        <time>2019-05-06T08:42:12Z</time>
      </trkpt>
      <trkpt lat="50.8947" lon="2.6229">
        <ele>10</ele>
        <time>2019-05-06T08:42:22Z</time>
      </trkpt>
      <trkpt lat="50.89448" lon="2.62289">
        <ele>9</ele>
        <time>2019-05-06T08:42:33Z</time>
      </trkpt>
      <trkpt lat="50.89427" lon="2.62287">
        <ele>10</ele>
        <time>2019-05-06T08:42:43Z</time>
      </trkpt>
      <trkpt lat="50.89405" lon="2.62286">
        <ele>10</ele>
        <time>2019-05-06T08:42:53Z</time>
      </trkpt>
      <trkpt lat="50.89384" lon="2.62287">
        <ele>10</ele>
        <time>2019-05-06T08:43:03Z</time>
      </trkpt>
      <trkpt lat="50.89366" lon="2.62284">
        <ele>10</ele>
        <time>2019-05-06T08:43:13Z</time>
      </trkpt>
      <trkpt lat="50.89346" lon="2.62283">
        <ele>9</ele>
        <time>2019-05-06T08:43:23Z</time>
      </trkpt>
      <trkpt lat="50.89326" lon="2.62281">
        <ele>9</ele>
        <time>2019-05-06T08:43:33Z</time>
      </trkpt>
      <trkpt lat="50.89305" lon="2.6228">
        <ele>9</ele>
        <time>2019-05-06T08:43:43Z</time>
      </trkpt>
      <trkpt lat="50.89283" lon="2.62281">
        <ele>9</ele>
        <time>2019-05-06T08:43:53Z</time>
      </trkpt>
      <trkpt lat="50.89262" lon="2.62279">
        <ele>9</ele>
        <time>2019-05-06T08:44:02Z</time>
      </trkpt>
      <trkpt lat="50.89243" lon="2.62275">
        <ele>9</ele>
        <time>2019-05-06T08:44:10Z</time>
      </trkpt>
      <trkpt lat="50.89224" lon="2.62273">
        <ele>9</ele>
        <time>2019-05-06T08:44:19Z</time>
      </trkpt>
      <trkpt lat="50.89204" lon="2.62273">
        <ele>9</ele>
        <time>2019-05-06T08:44:29Z</time>
      </trkpt>
      <trkpt lat="50.89185" lon="2.62272">
        <ele>9</ele>
        <time>2019-05-06T08:44:38Z</time>
      </trkpt>
      <trkpt lat="50.89166" lon="2.62271">
        <ele>9</ele>
        <time>2019-05-06T08:44:47Z</time>
      </trkpt>
      <trkpt lat="50.89147" lon="2.62271">
        <ele>9</ele>
        <time>2019-05-06T08:44:57Z</time>
      </trkpt>
      <trkpt lat="50.89128" lon="2.62272">
        <ele>9</ele>
        <time>2019-05-06T08:45:07Z</time>
      </trkpt>
      <trkpt lat="50.89109" lon="2.62272">
        <ele>9</ele>
        <time>2019-05-06T08:45:16Z</time>
      </trkpt>
      <trkpt lat="50.89089" lon="2.6227">
        <ele>9</ele>
        <time>2019-05-06T08:45:26Z</time>
      </trkpt>
      <trkpt lat="50.89071" lon="2.62268">
        <ele>10</ele>
        <time>2019-05-06T08:45:36Z</time>
      </trkpt>
      <trkpt lat="50.8905" lon="2.62267">
        <ele>9</ele>
        <time>2019-05-06T08:45:46Z</time>
      </trkpt>
      <trkpt lat="50.89031" lon="2.62267">
        <ele>10</ele>
        <time>2019-05-06T08:45:56Z</time>
      </trkpt>
      <trkpt lat="50.8901" lon="2.62266">
        <ele>10</ele>
        <time>2019-05-06T08:46:06Z</time>
      </trkpt>
      <trkpt lat="50.88989" lon="2.62265">
        <ele>10</ele>
        <time>2019-05-06T08:46:16Z</time>
      </trkpt>
      <trkpt lat="50.88969" lon="2.62265">
        <ele>10</ele>
        <time>2019-05-06T08:46:26Z</time>
      </trkpt>
      <trkpt lat="50.88948" lon="2.62263">
        <ele>10</ele>
        <time>2019-05-06T08:46:37Z</time>
      </trkpt>
      <trkpt lat="50.88926" lon="2.62263">
        <ele>10</ele>
        <time>2019-05-06T08:46:47Z</time>
      </trkpt>
      <trkpt lat="50.88906" lon="2.62262">
        <ele>10</ele>
        <time>2019-05-06T08:46:57Z</time>
      </trkpt>
      <trkpt lat="50.88884" lon="2.62263">
        <ele>10</ele>
        <time>2019-05-06T08:47:08Z</time>
      </trkpt>
      <trkpt lat="50.88865" lon="2.62259">
        <ele>10</ele>
        <time>2019-05-06T08:47:17Z</time>
      </trkpt>
      <trkpt lat="50.88843" lon="2.62259">
        <ele>10</ele>
        <time>2019-05-06T08:47:27Z</time>
      </trkpt>
      <trkpt lat="50.88825" lon="2.62257">
        <ele>10</ele>
        <time>2019-05-06T08:47:37Z</time>
      </trkpt>
      <trkpt lat="50.88804" lon="2.62257">
        <ele>11</ele>
        <time>2019-05-06T08:47:47Z</time>
      </trkpt>
      <trkpt lat="50.88784" lon="2.62256">
        <ele>11</ele>
        <time>2019-05-06T08:47:56Z</time>
      </trkpt>
      <trkpt lat="50.88765" lon="2.62254">
        <ele>11</ele>
        <time>2019-05-06T08:48:06Z</time>
      </trkpt>
      <trkpt lat="50.88747" lon="2.62254">
        <ele>11</ele>
        <time>2019-05-06T08:48:15Z</time>
      </trkpt>
      <trkpt lat="50.88744" lon="2.62254">
        <ele>12</ele>
        <time>2019-05-06T08:48:17Z</time>
      </trkpt>
      <trkpt lat="50.88737" lon="2.62255">
        <ele>11</ele>
        <time>2019-05-06T08:48:21Z</time>
      </trkpt>
      <trkpt lat="50.88735" lon="2.62254">
        <ele>11</ele>
        <time>2019-05-06T08:48:22Z</time>
      </trkpt>
      <trkpt lat="50.88714" lon="2.62253">
        <ele>11</ele>
        <time>2019-05-06T08:48:32Z</time>
      </trkpt>
      <trkpt lat="50.88694" lon="2.62251">
        <ele>12</ele>
        <time>2019-05-06T08:48:42Z</time>
      </trkpt>
      <trkpt lat="50.88673" lon="2.62249">
        <ele>12</ele>
        <time>2019-05-06T08:48:52Z</time>
      </trkpt>
      <trkpt lat="50.88654" lon="2.62247">
        <ele>12</ele>
        <time>2019-05-06T08:49:01Z</time>
      </trkpt>
      <trkpt lat="50.88634" lon="2.62245">
        <ele>12</ele>
        <time>2019-05-06T08:49:10Z</time>
      </trkpt>
      <trkpt lat="50.88615" lon="2.62245">
        <ele>12</ele>
        <time>2019-05-06T08:49:19Z</time>
      </trkpt>
      <trkpt lat="50.88596" lon="2.62244">
        <ele>12</ele>
        <time>2019-05-06T08:49:28Z</time>
      </trkpt>
      <trkpt lat="50.88586" lon="2.62244">
        <ele>12</ele>
        <time>2019-05-06T08:49:33Z</time>
      </trkpt>
      <trkpt lat="50.88585" lon="2.62244">
        <ele>12</ele>
        <time>2019-05-06T08:49:34Z</time>
      </trkpt>
      <trkpt lat="50.88583" lon="2.62244">
        <ele>12</ele>
        <time>2019-05-06T08:49:35Z</time>
      </trkpt>
      <trkpt lat="50.88581" lon="2.62244">
        <ele>12</ele>
        <time>2019-05-06T08:49:36Z</time>
      </trkpt>
      <trkpt lat="50.88578" lon="2.62244">
        <ele>12</ele>
        <time>2019-05-06T08:49:37Z</time>
      </trkpt>
      <trkpt lat="50.88576" lon="2.62245">
        <ele>12</ele>
        <time>2019-05-06T08:49:38Z</time>
      </trkpt>
      <trkpt lat="50.88575" lon="2.62245">
        <ele>12</ele>
        <time>2019-05-06T08:49:39Z</time>
      </trkpt>
      <trkpt lat="50.88573" lon="2.62245">
        <ele>12</ele>
        <time>2019-05-06T08:49:40Z</time>
      </trkpt>
      <trkpt lat="50.88572" lon="2.62245">
        <ele>12</ele>
        <time>2019-05-06T08:49:41Z</time>
      </trkpt>
      <trkpt lat="50.8857" lon="2.62244">
        <ele>12</ele>
        <time>2019-05-06T08:49:42Z</time>
      </trkpt>
      <trkpt lat="50.88568" lon="2.62243">
        <ele>12</ele>
        <time>2019-05-06T08:49:43Z</time>
      </trkpt>
      <trkpt lat="50.88566" lon="2.62243">
        <ele>12</ele>
        <time>2019-05-06T08:49:44Z</time>
      </trkpt>
      <trkpt lat="50.88565" lon="2.62244">
        <ele>12</ele>
        <time>2019-05-06T08:49:45Z</time>
      </trkpt>
      <trkpt lat="50.88564" lon="2.62243">
        <ele>12</ele>
        <time>2019-05-06T08:49:46Z</time>
      </trkpt>
      <trkpt lat="50.88562" lon="2.62243">
        <ele>12</ele>
        <time>2019-05-06T08:49:47Z</time>
      </trkpt>
      <trkpt lat="50.8856" lon="2.62243">
        <ele>12</ele>
        <time>2019-05-06T08:49:48Z</time>
      </trkpt>
      <trkpt lat="50.88558" lon="2.62242">
        <ele>11</ele>
        <time>2019-05-06T08:49:49Z</time>
      </trkpt>
      <trkpt lat="50.88556" lon="2.62242">
        <ele>11</ele>
        <time>2019-05-06T08:49:50Z</time>
      </trkpt>
      <trkpt lat="50.88553" lon="2.62241">
        <ele>12</ele>
        <time>2019-05-06T08:49:51Z</time>
      </trkpt>
      <trkpt lat="50.88532" lon="2.62239">
        <ele>12</ele>
        <time>2019-05-06T08:50:00Z</time>
      </trkpt>
      <trkpt lat="50.88512" lon="2.62236">
        <ele>12</ele>
        <time>2019-05-06T08:50:09Z</time>
      </trkpt>
      <trkpt lat="50.88494" lon="2.62235">
        <ele>12</ele>
        <time>2019-05-06T08:50:18Z</time>
      </trkpt>
      <trkpt lat="50.88474" lon="2.62234">
        <ele>12</ele>
        <time>2019-05-06T08:50:27Z</time>
      </trkpt>
      <trkpt lat="50.88456" lon="2.62234">
        <ele>12</ele>
        <time>2019-05-06T08:50:36Z</time>
      </trkpt>
      <trkpt lat="50.88437" lon="2.62234">
        <ele>12</ele>
        <time>2019-05-06T08:50:46Z</time>
      </trkpt>
      <trkpt lat="50.88416" lon="2.62233">
        <ele>12</ele>
        <time>2019-05-06T08:50:57Z</time>
      </trkpt>
      <trkpt lat="50.88395" lon="2.62232">
        <ele>12</ele>
        <time>2019-05-06T08:51:07Z</time>
      </trkpt>
      <trkpt lat="50.88375" lon="2.62229">
        <ele>12</ele>
        <time>2019-05-06T08:51:17Z</time>
      </trkpt>
      <trkpt lat="50.88357" lon="2.62229">
        <ele>12</ele>
        <time>2019-05-06T08:51:27Z</time>
      </trkpt>
      <trkpt lat="50.88336" lon="2.62227">
        <ele>12</ele>
        <time>2019-05-06T08:51:37Z</time>
      </trkpt>
      <trkpt lat="50.88316" lon="2.62225">
        <ele>12</ele>
        <time>2019-05-06T08:51:46Z</time>
      </trkpt>
      <trkpt lat="50.88297" lon="2.62227">
        <ele>12</ele>
        <time>2019-05-06T08:51:55Z</time>
      </trkpt>
      <trkpt lat="50.88277" lon="2.62224">
        <ele>12</ele>
        <time>2019-05-06T08:52:05Z</time>
      </trkpt>
      <trkpt lat="50.88256" lon="2.62222">
        <ele>12</ele>
        <time>2019-05-06T08:52:15Z</time>
      </trkpt>
      <trkpt lat="50.88242" lon="2.62221">
        <ele>12</ele>
        <time>2019-05-06T08:52:23Z</time>
      </trkpt>
      <trkpt lat="50.8824" lon="2.62221">
        <ele>12</ele>
        <time>2019-05-06T08:52:24Z</time>
      </trkpt>
      <trkpt lat="50.88238" lon="2.6222">
        <ele>12</ele>
        <time>2019-05-06T08:52:25Z</time>
      </trkpt>
      <trkpt lat="50.88236" lon="2.62219">
        <ele>12</ele>
        <time>2019-05-06T08:52:26Z</time>
      </trkpt>
      <trkpt lat="50.88234" lon="2.62219">
        <ele>12</ele>
        <time>2019-05-06T08:52:27Z</time>
      </trkpt>
      <trkpt lat="50.88232" lon="2.6222">
        <ele>12</ele>
        <time>2019-05-06T08:52:28Z</time>
      </trkpt>
      <trkpt lat="50.88212" lon="2.62217">
        <ele>12</ele>
        <time>2019-05-06T08:52:38Z</time>
      </trkpt>
      <trkpt lat="50.88191" lon="2.62217">
        <ele>12</ele>
        <time>2019-05-06T08:52:48Z</time>
      </trkpt>
      <trkpt lat="50.8817" lon="2.62215">
        <ele>12</ele>
        <time>2019-05-06T08:52:58Z</time>
      </trkpt>
      <trkpt lat="50.8815" lon="2.62214">
        <ele>12</ele>
        <time>2019-05-06T08:53:08Z</time>
      </trkpt>
      <trkpt lat="50.88129" lon="2.62214">
        <ele>12</ele>
        <time>2019-05-06T08:53:18Z</time>
      </trkpt>
      <trkpt lat="50.88108" lon="2.62212">
        <ele>12</ele>
        <time>2019-05-06T08:53:28Z</time>
      </trkpt>
      <trkpt lat="50.88087" lon="2.6221">
        <ele>12</ele>
        <time>2019-05-06T08:53:38Z</time>
      </trkpt>
      <trkpt lat="50.88085" lon="2.6221">
        <ele>12</ele>
        <time>2019-05-06T08:53:39Z</time>
      </trkpt>
      <trkpt lat="50.88083" lon="2.62209">
        <ele>11</ele>
        <time>2019-05-06T08:53:40Z</time>
      </trkpt>
      <trkpt lat="50.88081" lon="2.62209">
        <ele>11</ele>
        <time>2019-05-06T08:53:41Z</time>
      </trkpt>
      <trkpt lat="50.88079" lon="2.62208">
        <ele>11</ele>
        <time>2019-05-06T08:53:42Z</time>
      </trkpt>
      <trkpt lat="50.88077" lon="2.62208">
        <ele>11</ele>
        <time>2019-05-06T08:53:43Z</time>
      </trkpt>
      <trkpt lat="50.88075" lon="2.62209">
        <ele>12</ele>
        <time>2019-05-06T08:53:44Z</time>
      </trkpt>
      <trkpt lat="50.88073" lon="2.62209">
        <ele>12</ele>
        <time>2019-05-06T08:53:45Z</time>
      </trkpt>
      <trkpt lat="50.8807" lon="2.62209">
        <ele>12</ele>
        <time>2019-05-06T08:53:46Z</time>
      </trkpt>
      <trkpt lat="50.88067" lon="2.62209">
        <ele>12</ele>
        <time>2019-05-06T08:53:47Z</time>
      </trkpt>
      <trkpt lat="50.88065" lon="2.62209">
        <ele>12</ele>
        <time>2019-05-06T08:53:48Z</time>
      </trkpt>
      <trkpt lat="50.88063" lon="2.62209">
        <ele>12</ele>
        <time>2019-05-06T08:53:49Z</time>
      </trkpt>
      <trkpt lat="50.8806" lon="2.62209">
        <ele>12</ele>
        <time>2019-05-06T08:53:50Z</time>
      </trkpt>
      <trkpt lat="50.88058" lon="2.62209">
        <ele>12</ele>
        <time>2019-05-06T08:53:51Z</time>
      </trkpt>
      <trkpt lat="50.88055" lon="2.62209">
        <ele>11</ele>
        <time>2019-05-06T08:53:52Z</time>
      </trkpt>
      <trkpt lat="50.88053" lon="2.62209">
        <ele>12</ele>
        <time>2019-05-06T08:53:53Z</time>
      </trkpt>
      <trkpt lat="50.88051" lon="2.6221">
        <ele>12</ele>
        <time>2019-05-06T08:53:54Z</time>
      </trkpt>
      <trkpt lat="50.88031" lon="2.62209">
        <ele>12</ele>
        <time>2019-05-06T08:54:03Z</time>
      </trkpt>
      <trkpt lat="50.88013" lon="2.62209">
        <ele>11</ele>
        <time>2019-05-06T08:54:12Z</time>
      </trkpt>
      <trkpt lat="50.87994" lon="2.62209">
        <ele>11</ele>
        <time>2019-05-06T08:54:21Z</time>
      </trkpt>
      <trkpt lat="50.87976" lon="2.62208">
        <ele>11</ele>
        <time>2019-05-06T08:54:31Z</time>
      </trkpt>
      <trkpt lat="50.87954" lon="2.62205">
        <ele>11</ele>
        <time>2019-05-06T08:54:42Z</time>
      </trkpt>
      <trkpt lat="50.87933" lon="2.62205">
        <ele>11</ele>
        <time>2019-05-06T08:54:52Z</time>
      </trkpt>
      <trkpt lat="50.87914" lon="2.62202">
        <ele>11</ele>
        <time>2019-05-06T08:55:02Z</time>
      </trkpt>
      <trkpt lat="50.87894" lon="2.62199">
        <ele>11</ele>
        <time>2019-05-06T08:55:13Z</time>
      </trkpt>
      <trkpt lat="50.87872" lon="2.62198">
        <ele>11</ele>
        <time>2019-05-06T08:55:25Z</time>
      </trkpt>
      <trkpt lat="50.87851" lon="2.62196">
        <ele>11</ele>
        <time>2019-05-06T08:55:35Z</time>
      </trkpt>
      <trkpt lat="50.8783" lon="2.62193">
        <ele>10</ele>
        <time>2019-05-06T08:55:45Z</time>
      </trkpt>
      <trkpt lat="50.87809" lon="2.62193">
        <ele>10</ele>
        <time>2019-05-06T08:55:56Z</time>
      </trkpt>
      <trkpt lat="50.87786" lon="2.62192">
        <ele>11</ele>
        <time>2019-05-06T08:56:06Z</time>
      </trkpt>
      <trkpt lat="50.87764" lon="2.62192">
        <ele>10</ele>
        <time>2019-05-06T08:56:17Z</time>
      </trkpt>
      <trkpt lat="50.87741" lon="2.62189">
        <ele>11</ele>
        <time>2019-05-06T08:56:28Z</time>
      </trkpt>
      <trkpt lat="50.87733" lon="2.62191">
        <ele>10</ele>
        <time>2019-05-06T08:56:32Z</time>
      </trkpt>
      <trkpt lat="50.8771" lon="2.62195">
        <ele>10</ele>
        <time>2019-05-06T08:56:42Z</time>
      </trkpt>
      <trkpt lat="50.87688" lon="2.62192">
        <ele>11</ele>
        <time>2019-05-06T08:56:53Z</time>
      </trkpt>
      <trkpt lat="50.87686" lon="2.62192">
        <ele>11</ele>
        <time>2019-05-06T08:56:54Z</time>
      </trkpt>
      <trkpt lat="50.87684" lon="2.62192">
        <ele>10</ele>
        <time>2019-05-06T08:56:55Z</time>
      </trkpt>
      <trkpt lat="50.87682" lon="2.62193">
        <ele>10</ele>
        <time>2019-05-06T08:56:56Z</time>
      </trkpt>
      <trkpt lat="50.87681" lon="2.62192">
        <ele>10</ele>
        <time>2019-05-06T08:56:57Z</time>
      </trkpt>
      <trkpt lat="50.87679" lon="2.62192">
        <ele>10</ele>
        <time>2019-05-06T08:56:58Z</time>
      </trkpt>
      <trkpt lat="50.87677" lon="2.62192">
        <ele>10</ele>
        <time>2019-05-06T08:56:59Z</time>
      </trkpt>
      <trkpt lat="50.87675" lon="2.62191">
        <ele>10</ele>
        <time>2019-05-06T08:57:00Z</time>
      </trkpt>
      <trkpt lat="50.87673" lon="2.62191">
        <ele>11</ele>
        <time>2019-05-06T08:57:01Z</time>
      </trkpt>
      <trkpt lat="50.87671" lon="2.62192">
        <ele>11</ele>
        <time>2019-05-06T08:57:02Z</time>
      </trkpt>
      <trkpt lat="50.87649" lon="2.62191">
        <ele>11</ele>
        <time>2019-05-06T08:57:13Z</time>
      </trkpt>
      <trkpt lat="50.87626" lon="2.62188">
        <ele>10</ele>
        <time>2019-05-06T08:57:24Z</time>
      </trkpt>
      <trkpt lat="50.87602" lon="2.62186">
        <ele>10</ele>
        <time>2019-05-06T08:57:34Z</time>
      </trkpt>
      <trkpt lat="50.87583" lon="2.62187">
        <ele>10</ele>
        <time>2019-05-06T08:57:44Z</time>
      </trkpt>
      <trkpt lat="50.87561" lon="2.62187">
        <ele>9</ele>
        <time>2019-05-06T08:57:53Z</time>
      </trkpt>
      <trkpt lat="50.8754" lon="2.62182">
        <ele>9</ele>
        <time>2019-05-06T08:58:02Z</time>
      </trkpt>
      <trkpt lat="50.87521" lon="2.62181">
        <ele>10</ele>
        <time>2019-05-06T08:58:12Z</time>
      </trkpt>
      <trkpt lat="50.87502" lon="2.62178">
        <ele>10</ele>
        <time>2019-05-06T08:58:22Z</time>
      </trkpt>
      <trkpt lat="50.87483" lon="2.62173">
        <ele>10</ele>
        <time>2019-05-06T08:58:31Z</time>
      </trkpt>
      <trkpt lat="50.87464" lon="2.62165">
        <ele>9</ele>
        <time>2019-05-06T08:58:41Z</time>
      </trkpt>
      <trkpt lat="50.87444" lon="2.62166">
        <ele>10</ele>
        <time>2019-05-06T08:58:50Z</time>
      </trkpt>
      <trkpt lat="50.87423" lon="2.62165">
        <ele>9</ele>
        <time>2019-05-06T08:59:00Z</time>
      </trkpt>
      <trkpt lat="50.87403" lon="2.62166">
        <ele>10</ele>
        <time>2019-05-06T08:59:10Z</time>
      </trkpt>
      <trkpt lat="50.87383" lon="2.62167">
        <ele>10</ele>
        <time>2019-05-06T08:59:20Z</time>
      </trkpt>
      <trkpt lat="50.87363" lon="2.62169">
        <ele>10</ele>
        <time>2019-05-06T08:59:29Z</time>
      </trkpt>
      <trkpt lat="50.87345" lon="2.62167">
        <ele>11</ele>
        <time>2019-05-06T08:59:38Z</time>
      </trkpt>
      <trkpt lat="50.87324" lon="2.62167">
        <ele>10</ele>
        <time>2019-05-06T08:59:48Z</time>
      </trkpt>
      <trkpt lat="50.87306" lon="2.62163">
        <ele>10</ele>
        <time>2019-05-06T08:59:57Z</time>
      </trkpt>
      <trkpt lat="50.87287" lon="2.62161">
        <ele>11</ele>
        <time>2019-05-06T09:00:07Z</time>
      </trkpt>
      <trkpt lat="50.87266" lon="2.62159">
        <ele>10</ele>
        <time>2019-05-06T09:00:17Z</time>
      </trkpt>
      <trkpt lat="50.87247" lon="2.62158">
        <ele>10</ele>
        <time>2019-05-06T09:00:26Z</time>
      </trkpt>
      <trkpt lat="50.87226" lon="2.62156">
        <ele>10</ele>
        <time>2019-05-06T09:00:35Z</time>
      </trkpt>
      <trkpt lat="50.87207" lon="2.62156">
        <ele>11</ele>
        <time>2019-05-06T09:00:45Z</time>
      </trkpt>
      <trkpt lat="50.87187" lon="2.62153">
        <ele>10</ele>
        <time>2019-05-06T09:00:55Z</time>
      </trkpt>
      <trkpt lat="50.87167" lon="2.62157">
        <ele>10</ele>
        <time>2019-05-06T09:01:06Z</time>
      </trkpt>
      <trkpt lat="50.87147" lon="2.62156">
        <ele>10</ele>
        <time>2019-05-06T09:01:16Z</time>
      </trkpt>
      <trkpt lat="50.87127" lon="2.62155">
        <ele>10</ele>
        <time>2019-05-06T09:01:25Z</time>
      </trkpt>
      <trkpt lat="50.87103" lon="2.62154">
        <ele>11</ele>
        <time>2019-05-06T09:01:35Z</time>
      </trkpt>
      <trkpt lat="50.87085" lon="2.6215">
        <ele>11</ele>
        <time>2019-05-06T09:01:44Z</time>
      </trkpt>
      <trkpt lat="50.87065" lon="2.62149">
        <ele>11</ele>
        <time>2019-05-06T09:01:54Z</time>
      </trkpt>
      <trkpt lat="50.87045" lon="2.62145">
        <ele>11</ele>
        <time>2019-05-06T09:02:04Z</time>
      </trkpt>
      <trkpt lat="50.87026" lon="2.6214">
        <ele>12</ele>
        <time>2019-05-06T09:02:13Z</time>
      </trkpt>
      <trkpt lat="50.87006" lon="2.62141">
        <ele>12</ele>
        <time>2019-05-06T09:02:22Z</time>
      </trkpt>
      <trkpt lat="50.86987" lon="2.62142">
        <ele>12</ele>
        <time>2019-05-06T09:02:32Z</time>
      </trkpt>
      <trkpt lat="50.86966" lon="2.62139">
        <ele>12</ele>
        <time>2019-05-06T09:02:43Z</time>
      </trkpt>
      <trkpt lat="50.86944" lon="2.62137">
        <ele>12</ele>
        <time>2019-05-06T09:02:53Z</time>
      </trkpt>
      <trkpt lat="50.86923" lon="2.62139">
        <ele>13</ele>
        <time>2019-05-06T09:03:03Z</time>
      </trkpt>
      <trkpt lat="50.86904" lon="2.62139">
        <ele>13</ele>
        <time>2019-05-06T09:03:13Z</time>
      </trkpt>
      <trkpt lat="50.86883" lon="2.62135">
        <ele>11</ele>
        <time>2019-05-06T09:03:23Z</time>
      </trkpt>
      <trkpt lat="50.86862" lon="2.62127">
        <ele>13</ele>
        <time>2019-05-06T09:03:34Z</time>
      </trkpt>
      <trkpt lat="50.86843" lon="2.62127">
        <ele>12</ele>
        <time>2019-05-06T09:03:44Z</time>
      </trkpt>
      <trkpt lat="50.86821" lon="2.62123">
        <ele>13</ele>
        <time>2019-05-06T09:03:55Z</time>
      </trkpt>
      <trkpt lat="50.86801" lon="2.62122">
        <ele>13</ele>
        <time>2019-05-06T09:04:05Z</time>
      </trkpt>
      <trkpt lat="50.86799" lon="2.62122">
        <ele>13</ele>
        <time>2019-05-06T09:04:06Z</time>
      </trkpt>
      <trkpt lat="50.86779" lon="2.62122">
        <ele>13</ele>
        <time>2019-05-06T09:04:16Z</time>
      </trkpt>
      <trkpt lat="50.86756" lon="2.6212">
        <ele>13</ele>
        <time>2019-05-06T09:04:27Z</time>
      </trkpt>
      <trkpt lat="50.86734" lon="2.62119">
        <ele>13</ele>
        <time>2019-05-06T09:04:38Z</time>
      </trkpt>
      <trkpt lat="50.86713" lon="2.62118">
        <ele>14</ele>
        <time>2019-05-06T09:04:47Z</time>
      </trkpt>
      <trkpt lat="50.86694" lon="2.62118">
        <ele>14</ele>
        <time>2019-05-06T09:04:56Z</time>
      </trkpt>
      <trkpt lat="50.86674" lon="2.62115">
        <ele>14</ele>
        <time>2019-05-06T09:05:07Z</time>
      </trkpt>
      <trkpt lat="50.86651" lon="2.62112">
        <ele>13</ele>
        <time>2019-05-06T09:05:18Z</time>
      </trkpt>
      <trkpt lat="50.8663" lon="2.62113">
        <ele>14</ele>
        <time>2019-05-06T09:05:29Z</time>
      </trkpt>
      <trkpt lat="50.86609" lon="2.62116">
        <ele>14</ele>
        <time>2019-05-06T09:05:39Z</time>
      </trkpt>
      <trkpt lat="50.86586" lon="2.62115">
        <ele>14</ele>
        <time>2019-05-06T09:05:50Z</time>
      </trkpt>
      <trkpt lat="50.86565" lon="2.62112">
        <ele>14</ele>
        <time>2019-05-06T09:06:01Z</time>
      </trkpt>
      <trkpt lat="50.86544" lon="2.62111">
        <ele>13</ele>
        <time>2019-05-06T09:06:10Z</time>
      </trkpt>
      <trkpt lat="50.86523" lon="2.62115">
        <ele>14</ele>
        <time>2019-05-06T09:06:20Z</time>
      </trkpt>
      <trkpt lat="50.865" lon="2.62109">
        <ele>14</ele>
        <time>2019-05-06T09:06:30Z</time>
      </trkpt>
      <trkpt lat="50.86478" lon="2.62109">
        <ele>14</ele>
        <time>2019-05-06T09:06:40Z</time>
      </trkpt>
      <trkpt lat="50.86454" lon="2.62106">
        <ele>14</ele>
        <time>2019-05-06T09:06:50Z</time>
      </trkpt>
      <trkpt lat="50.86431" lon="2.62105">
        <ele>14</ele>
        <time>2019-05-06T09:07:02Z</time>
      </trkpt>
      <trkpt lat="50.86408" lon="2.62107">
        <ele>13</ele>
        <time>2019-05-06T09:07:13Z</time>
      </trkpt>
      <trkpt lat="50.86386" lon="2.62108">
        <ele>13</ele>
        <time>2019-05-06T09:07:24Z</time>
      </trkpt>
      <trkpt lat="50.86359" lon="2.62107">
        <ele>13</ele>
        <time>2019-05-06T09:07:35Z</time>
      </trkpt>
      <trkpt lat="50.86336" lon="2.621">
        <ele>13</ele>
        <time>2019-05-06T09:07:44Z</time>
      </trkpt>
      <trkpt lat="50.86324" lon="2.62099">
        <ele>14</ele>
        <time>2019-05-06T09:07:50Z</time>
      </trkpt>
      <trkpt lat="50.86322" lon="2.62099">
        <ele>14</ele>
        <time>2019-05-06T09:07:51Z</time>
      </trkpt>
      <trkpt lat="50.8632" lon="2.62099">
        <ele>14</ele>
        <time>2019-05-06T09:07:52Z</time>
      </trkpt>
      <trkpt lat="50.86318" lon="2.62099">
        <ele>14</ele>
        <time>2019-05-06T09:07:53Z</time>
      </trkpt>
      <trkpt lat="50.86315" lon="2.62098">
        <ele>14</ele>
        <time>2019-05-06T09:07:54Z</time>
      </trkpt>
      <trkpt lat="50.86313" lon="2.62098">
        <ele>13</ele>
        <time>2019-05-06T09:07:55Z</time>
      </trkpt>
      <trkpt lat="50.86311" lon="2.62097">
        <ele>13</ele>
        <time>2019-05-06T09:07:56Z</time>
      </trkpt>
      <trkpt lat="50.86308" lon="2.62096">
        <ele>13</ele>
        <time>2019-05-06T09:07:57Z</time>
      </trkpt>
      <trkpt lat="50.86306" lon="2.62096">
        <ele>13</ele>
        <time>2019-05-06T09:07:58Z</time>
      </trkpt>
      <trkpt lat="50.86303" lon="2.62094">
        <ele>13</ele>
        <time>2019-05-06T09:07:59Z</time>
      </trkpt>
      <trkpt lat="50.86301" lon="2.62094">
        <ele>13</ele>
        <time>2019-05-06T09:08:00Z</time>
      </trkpt>
      <trkpt lat="50.86299" lon="2.62094">
        <ele>13</ele>
        <time>2019-05-06T09:08:01Z</time>
      </trkpt>
      <trkpt lat="50.86297" lon="2.62094">
        <ele>13</ele>
        <time>2019-05-06T09:08:02Z</time>
      </trkpt>
      <trkpt lat="50.86274" lon="2.62097">
        <ele>13</ele>
        <time>2019-05-06T09:08:13Z</time>
      </trkpt>
      <trkpt lat="50.86272" lon="2.62097">
        <ele>13</ele>
        <time>2019-05-06T09:08:14Z</time>
      </trkpt>
      <trkpt lat="50.86253" lon="2.62101">
        <ele>14</ele>
        <time>2019-05-06T09:08:23Z</time>
      </trkpt>
      <trkpt lat="50.86252" lon="2.62101">
        <ele>14</ele>
        <time>2019-05-06T09:08:24Z</time>
      </trkpt>
      <trkpt lat="50.8625" lon="2.62101">
        <ele>14</ele>
        <time>2019-05-06T09:08:25Z</time>
      </trkpt>
      <trkpt lat="50.86248" lon="2.621">
        <ele>13</ele>
        <time>2019-05-06T09:08:26Z</time>
      </trkpt>
      <trkpt lat="50.86246" lon="2.621">
        <ele>13</ele>
        <time>2019-05-06T09:08:27Z</time>
      </trkpt>
      <trkpt lat="50.86244" lon="2.621">
        <ele>13</ele>
        <time>2019-05-06T09:08:28Z</time>
      </trkpt>
      <trkpt lat="50.86242" lon="2.621">
        <ele>13</ele>
        <time>2019-05-06T09:08:29Z</time>
      </trkpt>
      <trkpt lat="50.86241" lon="2.62102">
        <ele>13</ele>
        <time>2019-05-06T09:08:30Z</time>
      </trkpt>
      <trkpt lat="50.86239" lon="2.621">
        <ele>13</ele>
        <time>2019-05-06T09:08:31Z</time>
      </trkpt>
      <trkpt lat="50.86237" lon="2.621">
        <ele>13</ele>
        <time>2019-05-06T09:08:32Z</time>
      </trkpt>
      <trkpt lat="50.86235" lon="2.621">
        <ele>13</ele>
        <time>2019-05-06T09:08:33Z</time>
      </trkpt>
      <trkpt lat="50.86232" lon="2.62098">
        <ele>13</ele>
        <time>2019-05-06T09:08:34Z</time>
      </trkpt>
      <trkpt lat="50.8623" lon="2.62098">
        <ele>13</ele>
        <time>2019-05-06T09:08:35Z</time>
      </trkpt>
      <trkpt lat="50.86228" lon="2.62097">
        <ele>13</ele>
        <time>2019-05-06T09:08:36Z</time>
      </trkpt>
      <trkpt lat="50.86226" lon="2.62095">
        <ele>13</ele>
        <time>2019-05-06T09:08:37Z</time>
      </trkpt>
      <trkpt lat="50.86204" lon="2.62093">
        <ele>13</ele>
        <time>2019-05-06T09:08:47Z</time>
      </trkpt>
      <trkpt lat="50.86202" lon="2.62092">
        <ele>13</ele>
        <time>2019-05-06T09:08:48Z</time>
      </trkpt>
      <trkpt lat="50.86201" lon="2.62091">
        <ele>13</ele>
        <time>2019-05-06T09:08:49Z</time>
      </trkpt>
      <trkpt lat="50.86199" lon="2.62087">
        <ele>13</ele>
        <time>2019-05-06T09:08:50Z</time>
      </trkpt>
      <trkpt lat="50.86197" lon="2.62086">
        <ele>13</ele>
        <time>2019-05-06T09:08:51Z</time>
      </trkpt>
      <trkpt lat="50.86194" lon="2.62085">
        <ele>13</ele>
        <time>2019-05-06T09:08:52Z</time>
      </trkpt>
      <trkpt lat="50.86192" lon="2.62084">
        <ele>13</ele>
        <time>2019-05-06T09:08:53Z</time>
      </trkpt>
      <trkpt lat="50.86191" lon="2.62084">
        <ele>13</ele>
        <time>2019-05-06T09:08:54Z</time>
      </trkpt>
      <trkpt lat="50.8619" lon="2.62083">
        <ele>13</ele>
        <time>2019-05-06T09:08:55Z</time>
      </trkpt>
      <trkpt lat="50.86188" lon="2.62083">
        <ele>13</ele>
        <time>2019-05-06T09:08:56Z</time>
      </trkpt>
      <trkpt lat="50.86186" lon="2.62082">
        <ele>13</ele>
        <time>2019-05-06T09:08:57Z</time>
      </trkpt>
      <trkpt lat="50.86183" lon="2.6208">
        <ele>13</ele>
        <time>2019-05-06T09:08:58Z</time>
      </trkpt>
      <trkpt lat="50.86181" lon="2.6208">
        <ele>12</ele>
        <time>2019-05-06T09:08:59Z</time>
      </trkpt>
      <trkpt lat="50.86178" lon="2.62079">
        <ele>13</ele>
        <time>2019-05-06T09:09:00Z</time>
      </trkpt>
      <trkpt lat="50.86175" lon="2.62078">
        <ele>13</ele>
        <time>2019-05-06T09:09:01Z</time>
      </trkpt>
      <trkpt lat="50.86172" lon="2.62076">
        <ele>12</ele>
        <time>2019-05-06T09:09:02Z</time>
      </trkpt>
      <trkpt lat="50.86171" lon="2.62077">
        <ele>12</ele>
        <time>2019-05-06T09:09:03Z</time>
      </trkpt>
      <trkpt lat="50.8617" lon="2.62078">
        <ele>12</ele>
        <time>2019-05-06T09:09:04Z</time>
      </trkpt>
      <trkpt lat="50.8617" lon="2.6208">
        <ele>12</ele>
        <time>2019-05-06T09:09:05Z</time>
      </trkpt>
      <trkpt lat="50.86173" lon="2.62084">
        <ele>12</ele>
        <time>2019-05-06T09:09:06Z</time>
      </trkpt>
      <trkpt lat="50.86158" lon="2.6208">
        <ele>12</ele>
        <time>2019-05-06T09:09:19Z</time>
      </trkpt>
      <trkpt lat="50.86139" lon="2.62077">
        <ele>12</ele>
        <time>2019-05-06T09:09:30Z</time>
      </trkpt>
      <trkpt lat="50.8612" lon="2.62061">
        <ele>11</ele>
        <time>2019-05-06T09:09:38Z</time>
      </trkpt>
      <trkpt lat="50.86117" lon="2.62052">
        <ele>12</ele>
        <time>2019-05-06T09:09:41Z</time>
      </trkpt>
      <trkpt lat="50.86115" lon="2.62049">
        <ele>12</ele>
        <time>2019-05-06T09:09:42Z</time>
      </trkpt>
      <trkpt lat="50.86114" lon="2.62045">
        <ele>12</ele>
        <time>2019-05-06T09:09:43Z</time>
      </trkpt>
      <trkpt lat="50.86114" lon="2.6204">
        <ele>12</ele>
        <time>2019-05-06T09:09:44Z</time>
      </trkpt>
      <trkpt lat="50.86113" lon="2.62035">
        <ele>11</ele>
        <time>2019-05-06T09:09:45Z</time>
      </trkpt>
      <trkpt lat="50.86112" lon="2.62033">
        <ele>12</ele>
        <time>2019-05-06T09:09:46Z</time>
      </trkpt>
      <trkpt lat="50.86101" lon="2.62003">
        <ele>12</ele>
        <time>2019-05-06T09:09:54Z</time>
      </trkpt>
      <trkpt lat="50.86097" lon="2.61992">
        <ele>12</ele>
        <time>2019-05-06T09:09:57Z</time>
      </trkpt>
      <trkpt lat="50.86096" lon="2.61989">
        <ele>12</ele>
        <time>2019-05-06T09:09:58Z</time>
      </trkpt>
      <trkpt lat="50.86095" lon="2.61986">
        <ele>12</ele>
        <time>2019-05-06T09:09:59Z</time>
      </trkpt>
      <trkpt lat="50.86094" lon="2.61983">
        <ele>12</ele>
        <time>2019-05-06T09:10:00Z</time>
      </trkpt>
      <trkpt lat="50.86093" lon="2.61981">
        <ele>12</ele>
        <time>2019-05-06T09:10:01Z</time>
      </trkpt>
      <trkpt lat="50.86086" lon="2.61952">
        <ele>12</ele>
        <time>2019-05-06T09:10:10Z</time>
      </trkpt>
      <trkpt lat="50.86086" lon="2.61944">
        <ele>12</ele>
        <time>2019-05-06T09:10:12Z</time>
      </trkpt>
      <trkpt lat="50.86087" lon="2.61939">
        <ele>12</ele>
        <time>2019-05-06T09:10:13Z</time>
      </trkpt>
      <trkpt lat="50.86086" lon="2.61935">
        <ele>12</ele>
        <time>2019-05-06T09:10:14Z</time>
      </trkpt>
      <trkpt lat="50.86084" lon="2.61931">
        <ele>12</ele>
        <time>2019-05-06T09:10:15Z</time>
      </trkpt>
      <trkpt lat="50.86083" lon="2.61928">
        <ele>12</ele>
        <time>2019-05-06T09:10:16Z</time>
      </trkpt>
      <trkpt lat="50.86082" lon="2.61925">
        <ele>12</ele>
        <time>2019-05-06T09:10:17Z</time>
      </trkpt>
      <trkpt lat="50.8608" lon="2.61923">
        <ele>12</ele>
        <time>2019-05-06T09:10:18Z</time>
      </trkpt>
      <trkpt lat="50.86077" lon="2.61921">
        <ele>12</ele>
        <time>2019-05-06T09:10:19Z</time>
      </trkpt>
      <trkpt lat="50.86076" lon="2.61918">
        <ele>12</ele>
        <time>2019-05-06T09:10:20Z</time>
      </trkpt>
      <trkpt lat="50.86074" lon="2.61916">
        <ele>12</ele>
        <time>2019-05-06T09:10:21Z</time>
      </trkpt>
      <trkpt lat="50.86073" lon="2.61912">
        <ele>12</ele>
        <time>2019-05-06T09:10:22Z</time>
      </trkpt>
      <trkpt lat="50.86073" lon="2.61907">
        <ele>11</ele>
        <time>2019-05-06T09:10:23Z</time>
      </trkpt>
      <trkpt lat="50.86073" lon="2.61904">
        <ele>11</ele>
        <time>2019-05-06T09:10:24Z</time>
      </trkpt>
      <trkpt lat="50.86072" lon="2.61902">
        <ele>11</ele>
        <time>2019-05-06T09:10:25Z</time>
      </trkpt>
      <trkpt lat="50.86071" lon="2.61898">
        <ele>12</ele>
        <time>2019-05-06T09:10:26Z</time>
      </trkpt>
      <trkpt lat="50.86065" lon="2.6187">
        <ele>12</ele>
        <time>2019-05-06T09:10:33Z</time>
      </trkpt>
      <trkpt lat="50.86061" lon="2.61844">
        <ele>12</ele>
        <time>2019-05-06T09:10:43Z</time>
      </trkpt>
      <trkpt lat="50.86055" lon="2.61818">
        <ele>12</ele>
        <time>2019-05-06T09:10:51Z</time>
      </trkpt>
      <trkpt lat="50.86048" lon="2.61789">
        <ele>13</ele>
        <time>2019-05-06T09:10:59Z</time>
      </trkpt>
      <trkpt lat="50.86048" lon="2.61779">
        <ele>12</ele>
        <time>2019-05-06T09:11:02Z</time>
      </trkpt>
      <trkpt lat="50.8605" lon="2.61777">
        <ele>12</ele>
        <time>2019-05-06T09:11:03Z</time>
      </trkpt>
      <trkpt lat="50.8605" lon="2.61774">
        <ele>12</ele>
        <time>2019-05-06T09:11:04Z</time>
      </trkpt>
      <trkpt lat="50.86051" lon="2.6177">
        <ele>12</ele>
        <time>2019-05-06T09:11:05Z</time>
      </trkpt>
      <trkpt lat="50.86053" lon="2.61765">
        <ele>12</ele>
        <time>2019-05-06T09:11:06Z</time>
      </trkpt>
      <trkpt lat="50.86054" lon="2.6173">
        <ele>12</ele>
        <time>2019-05-06T09:11:16Z</time>
      </trkpt>
      <trkpt lat="50.86055" lon="2.61709">
        <ele>12</ele>
        <time>2019-05-06T09:11:23Z</time>
      </trkpt>
      <trkpt lat="50.86055" lon="2.61706">
        <ele>12</ele>
        <time>2019-05-06T09:11:24Z</time>
      </trkpt>
      <trkpt lat="50.86056" lon="2.61703">
        <ele>12</ele>
        <time>2019-05-06T09:11:25Z</time>
      </trkpt>
      <trkpt lat="50.86055" lon="2.61696">
        <ele>12</ele>
        <time>2019-05-06T09:11:27Z</time>
      </trkpt>
      <trkpt lat="50.86056" lon="2.61694">
        <ele>12</ele>
        <time>2019-05-06T09:11:28Z</time>
      </trkpt>
      <trkpt lat="50.86057" lon="2.6169">
        <ele>12</ele>
        <time>2019-05-06T09:11:29Z</time>
      </trkpt>
      <trkpt lat="50.86058" lon="2.61687">
        <ele>12</ele>
        <time>2019-05-06T09:11:30Z</time>
      </trkpt>
      <trkpt lat="50.86059" lon="2.61683">
        <ele>11</ele>
        <time>2019-05-06T09:11:31Z</time>
      </trkpt>
      <trkpt lat="50.8606" lon="2.61681">
        <ele>11</ele>
        <time>2019-05-06T09:11:32Z</time>
      </trkpt>
      <trkpt lat="50.8606" lon="2.61679">
        <ele>12</ele>
        <time>2019-05-06T09:11:33Z</time>
      </trkpt>
      <trkpt lat="50.8606" lon="2.61675">
        <ele>12</ele>
        <time>2019-05-06T09:11:34Z</time>
      </trkpt>
      <trkpt lat="50.8606" lon="2.61671">
        <ele>12</ele>
        <time>2019-05-06T09:11:35Z</time>
      </trkpt>
      <trkpt lat="50.8606" lon="2.61667">
        <ele>12</ele>
        <time>2019-05-06T09:11:36Z</time>
      </trkpt>
      <trkpt lat="50.8606" lon="2.61664">
        <ele>12</ele>
        <time>2019-05-06T09:11:37Z</time>
      </trkpt>
      <trkpt lat="50.8606" lon="2.61662">
        <ele>12</ele>
        <time>2019-05-06T09:11:38Z</time>
      </trkpt>
      <trkpt lat="50.8606" lon="2.61658">
        <ele>12</ele>
        <time>2019-05-06T09:11:39Z</time>
      </trkpt>
      <trkpt lat="50.86059" lon="2.61654">
        <ele>12</ele>
        <time>2019-05-06T09:11:40Z</time>
      </trkpt>
      <trkpt lat="50.86059" lon="2.6165">
        <ele>12</ele>
        <time>2019-05-06T09:11:41Z</time>
      </trkpt>
      <trkpt lat="50.86059" lon="2.61648">
        <ele>12</ele>
        <time>2019-05-06T09:11:42Z</time>
      </trkpt>
      <trkpt lat="50.86059" lon="2.61646">
        <ele>12</ele>
        <time>2019-05-06T09:11:43Z</time>
      </trkpt>
      <trkpt lat="50.86059" lon="2.61643">
        <ele>12</ele>
        <time>2019-05-06T09:11:44Z</time>
      </trkpt>
      <trkpt lat="50.86059" lon="2.61639">
        <ele>12</ele>
        <time>2019-05-06T09:11:45Z</time>
      </trkpt>
      <trkpt lat="50.86061" lon="2.61628">
        <ele>11</ele>
        <time>2019-05-06T09:11:49Z</time>
      </trkpt>
      <trkpt lat="50.86063" lon="2.61597">
        <ele>12</ele>
        <time>2019-05-06T09:11:59Z</time>
      </trkpt>
      <trkpt lat="50.86067" lon="2.61582">
        <ele>12</ele>
        <time>2019-05-06T09:12:04Z</time>
      </trkpt>
      <trkpt lat="50.86069" lon="2.61575">
        <ele>12</ele>
        <time>2019-05-06T09:12:06Z</time>
      </trkpt>
      <trkpt lat="50.86069" lon="2.61572">
        <ele>12</ele>
        <time>2019-05-06T09:12:07Z</time>
      </trkpt>
      <trkpt lat="50.86076" lon="2.61537">
        <ele>11</ele>
        <time>2019-05-06T09:12:18Z</time>
      </trkpt>
      <trkpt lat="50.86075" lon="2.61502">
        <ele>11</ele>
        <time>2019-05-06T09:12:28Z</time>
      </trkpt>
      <trkpt lat="50.86072" lon="2.61473">
        <ele>12</ele>
        <time>2019-05-06T09:12:37Z</time>
      </trkpt>
      <trkpt lat="50.86069" lon="2.61444">
        <ele>11</ele>
        <time>2019-05-06T09:12:45Z</time>
      </trkpt>
      <trkpt lat="50.86084" lon="2.61422">
        <ele>12</ele>
        <time>2019-05-06T09:12:54Z</time>
      </trkpt>
      <trkpt lat="50.86086" lon="2.6139">
        <ele>12</ele>
        <time>2019-05-06T09:13:03Z</time>
      </trkpt>
      <trkpt lat="50.86084" lon="2.61357">
        <ele>11</ele>
        <time>2019-05-06T09:13:13Z</time>
      </trkpt>
      <trkpt lat="50.86082" lon="2.61326">
        <ele>11</ele>
        <time>2019-05-06T09:13:23Z</time>
      </trkpt>
      <trkpt lat="50.86081" lon="2.61292">
        <ele>11</ele>
        <time>2019-05-06T09:13:33Z</time>
      </trkpt>
      <trkpt lat="50.86077" lon="2.6126">
        <ele>10</ele>
        <time>2019-05-06T09:13:43Z</time>
      </trkpt>
      <trkpt lat="50.86077" lon="2.61226">
        <ele>11</ele>
        <time>2019-05-06T09:13:53Z</time>
      </trkpt>
      <trkpt lat="50.86073" lon="2.61194">
        <ele>11</ele>
        <time>2019-05-06T09:14:02Z</time>
      </trkpt>
      <trkpt lat="50.86072" lon="2.61186">
        <ele>10</ele>
        <time>2019-05-06T09:14:05Z</time>
      </trkpt>
      <trkpt lat="50.86072" lon="2.61155">
        <ele>9</ele>
        <time>2019-05-06T09:14:14Z</time>
      </trkpt>
      <trkpt lat="50.86072" lon="2.61121">
        <ele>9</ele>
        <time>2019-05-06T09:14:24Z</time>
      </trkpt>
      <trkpt lat="50.86076" lon="2.61086">
        <ele>9</ele>
        <time>2019-05-06T09:14:34Z</time>
      </trkpt>
      <trkpt lat="50.86081" lon="2.61053">
        <ele>9</ele>
        <time>2019-05-06T09:14:44Z</time>
      </trkpt>
      <trkpt lat="50.86086" lon="2.61022">
        <ele>8</ele>
        <time>2019-05-06T09:14:54Z</time>
      </trkpt>
      <trkpt lat="50.86086" lon="2.61002">
        <ele>8</ele>
        <time>2019-05-06T09:15:00Z</time>
      </trkpt>
      <trkpt lat="50.86086" lon="2.60999">
        <ele>8</ele>
        <time>2019-05-06T09:15:01Z</time>
      </trkpt>
      <trkpt lat="50.86089" lon="2.60966">
        <ele>7</ele>
        <time>2019-05-06T09:15:11Z</time>
      </trkpt>
      <trkpt lat="50.86092" lon="2.60934">
        <ele>7</ele>
        <time>2019-05-06T09:15:21Z</time>
      </trkpt>
      <trkpt lat="50.86098" lon="2.60901">
        <ele>8</ele>
        <time>2019-05-06T09:15:31Z</time>
      </trkpt>
      <trkpt lat="50.86101" lon="2.60872">
        <ele>8</ele>
        <time>2019-05-06T09:15:41Z</time>
      </trkpt>
      <trkpt lat="50.86103" lon="2.6084">
        <ele>8</ele>
        <time>2019-05-06T09:15:51Z</time>
      </trkpt>
      <trkpt lat="50.86109" lon="2.60805">
        <ele>9</ele>
        <time>2019-05-06T09:16:01Z</time>
      </trkpt>
      <trkpt lat="50.86116" lon="2.60774">
        <ele>8</ele>
        <time>2019-05-06T09:16:11Z</time>
      </trkpt>
      <trkpt lat="50.86122" lon="2.60741">
        <ele>9</ele>
        <time>2019-05-06T09:16:21Z</time>
      </trkpt>
      <trkpt lat="50.86122" lon="2.60707">
        <ele>9</ele>
        <time>2019-05-06T09:16:32Z</time>
      </trkpt>
      <trkpt lat="50.86125" lon="2.60675">
        <ele>9</ele>
        <time>2019-05-06T09:16:42Z</time>
      </trkpt>
      <trkpt lat="50.86125" lon="2.60641">
        <ele>10</ele>
        <time>2019-05-06T09:16:53Z</time>
      </trkpt>
      <trkpt lat="50.86127" lon="2.60608">
        <ele>10</ele>
        <time>2019-05-06T09:17:03Z</time>
      </trkpt>
      <trkpt lat="50.86128" lon="2.60601">
        <ele>10</ele>
        <time>2019-05-06T09:17:05Z</time>
      </trkpt>
      <trkpt lat="50.86128" lon="2.60598">
        <ele>10</ele>
        <time>2019-05-06T09:17:06Z</time>
      </trkpt>
      <trkpt lat="50.86126" lon="2.60579">
        <ele>10</ele>
        <time>2019-05-06T09:17:12Z</time>
      </trkpt>
      <trkpt lat="50.86126" lon="2.60575">
        <ele>10</ele>
        <time>2019-05-06T09:17:13Z</time>
      </trkpt>
      <trkpt lat="50.86126" lon="2.60572">
        <ele>10</ele>
        <time>2019-05-06T09:17:14Z</time>
      </trkpt>
      <trkpt lat="50.86125" lon="2.60569">
        <ele>9</ele>
        <time>2019-05-06T09:17:15Z</time>
      </trkpt>
      <trkpt lat="50.86123" lon="2.60566">
        <ele>10</ele>
        <time>2019-05-06T09:17:16Z</time>
      </trkpt>
      <trkpt lat="50.86114" lon="2.60539">
        <ele>10</ele>
        <time>2019-05-06T09:17:26Z</time>
      </trkpt>
      <trkpt lat="50.8611" lon="2.60504">
        <ele>9</ele>
        <time>2019-05-06T09:17:36Z</time>
      </trkpt>
      <trkpt lat="50.86105" lon="2.60475">
        <ele>11</ele>
        <time>2019-05-06T09:17:46Z</time>
      </trkpt>
      <trkpt lat="50.86098" lon="2.60446">
        <ele>11</ele>
        <time>2019-05-06T09:17:55Z</time>
      </trkpt>
      <trkpt lat="50.86099" lon="2.60412">
        <ele>12</ele>
        <time>2019-05-06T09:18:05Z</time>
      </trkpt>
      <trkpt lat="50.86096" lon="2.60379">
        <ele>12</ele>
        <time>2019-05-06T09:18:15Z</time>
      </trkpt>
      <trkpt lat="50.86092" lon="2.60348">
        <ele>12</ele>
        <time>2019-05-06T09:18:25Z</time>
      </trkpt>
      <trkpt lat="50.86089" lon="2.60317">
        <ele>13</ele>
        <time>2019-05-06T09:18:35Z</time>
      </trkpt>
      <trkpt lat="50.86089" lon="2.6031">
        <ele>13</ele>
        <time>2019-05-06T09:18:37Z</time>
      </trkpt>
      <trkpt lat="50.86088" lon="2.60308">
        <ele>13</ele>
        <time>2019-05-06T09:18:38Z</time>
      </trkpt>
      <trkpt lat="50.86087" lon="2.60305">
        <ele>13</ele>
        <time>2019-05-06T09:18:39Z</time>
      </trkpt>
      <trkpt lat="50.86087" lon="2.60302">
        <ele>13</ele>
        <time>2019-05-06T09:18:40Z</time>
      </trkpt>
      <trkpt lat="50.86087" lon="2.60298">
        <ele>13</ele>
        <time>2019-05-06T09:18:41Z</time>
      </trkpt>
      <trkpt lat="50.86088" lon="2.60264">
        <ele>13</ele>
        <time>2019-05-06T09:18:51Z</time>
      </trkpt>
      <trkpt lat="50.86087" lon="2.60229">
        <ele>14</ele>
        <time>2019-05-06T09:19:02Z</time>
      </trkpt>
      <trkpt lat="50.86087" lon="2.60218">
        <ele>14</ele>
        <time>2019-05-06T09:19:05Z</time>
      </trkpt>
      <trkpt lat="50.86088" lon="2.60214">
        <ele>14</ele>
        <time>2019-05-06T09:19:06Z</time>
      </trkpt>
      <trkpt lat="50.86088" lon="2.6021">
        <ele>14</ele>
        <time>2019-05-06T09:19:07Z</time>
      </trkpt>
      <trkpt lat="50.86091" lon="2.60176">
        <ele>15</ele>
        <time>2019-05-06T09:19:17Z</time>
      </trkpt>
      <trkpt lat="50.86092" lon="2.60169">
        <ele>15</ele>
        <time>2019-05-06T09:19:20Z</time>
      </trkpt>
      <trkpt lat="50.86098" lon="2.60136">
        <ele>14</ele>
        <time>2019-05-06T09:19:30Z</time>
      </trkpt>
      <trkpt lat="50.86101" lon="2.60122">
        <ele>15</ele>
        <time>2019-05-06T09:19:34Z</time>
      </trkpt>
      <trkpt lat="50.86101" lon="2.60119">
        <ele>15</ele>
        <time>2019-05-06T09:19:35Z</time>
      </trkpt>
      <trkpt lat="50.86102" lon="2.60115">
        <ele>15</ele>
        <time>2019-05-06T09:19:36Z</time>
      </trkpt>
      <trkpt lat="50.86103" lon="2.60112">
        <ele>15</ele>
        <time>2019-05-06T09:19:37Z</time>
      </trkpt>
      <trkpt lat="50.86103" lon="2.60108">
        <ele>15</ele>
        <time>2019-05-06T09:19:38Z</time>
      </trkpt>
      <trkpt lat="50.86103" lon="2.60105">
        <ele>15</ele>
        <time>2019-05-06T09:19:39Z</time>
      </trkpt>
      <trkpt lat="50.86104" lon="2.60103">
        <ele>15</ele>
        <time>2019-05-06T09:19:40Z</time>
      </trkpt>
      <trkpt lat="50.86104" lon="2.601">
        <ele>15</ele>
        <time>2019-05-06T09:19:41Z</time>
      </trkpt>
      <trkpt lat="50.86104" lon="2.60089">
        <ele>14</ele>
        <time>2019-05-06T09:19:44Z</time>
      </trkpt>
      <trkpt lat="50.86104" lon="2.60086">
        <ele>15</ele>
        <time>2019-05-06T09:19:45Z</time>
      </trkpt>
      <trkpt lat="50.86104" lon="2.60083">
        <ele>15</ele>
        <time>2019-05-06T09:19:46Z</time>
      </trkpt>
      <trkpt lat="50.86106" lon="2.60079">
        <ele>15</ele>
        <time>2019-05-06T09:19:47Z</time>
      </trkpt>
      <trkpt lat="50.86107" lon="2.60075">
        <ele>14</ele>
        <time>2019-05-06T09:19:48Z</time>
      </trkpt>
      <trkpt lat="50.86107" lon="2.60071">
        <ele>14</ele>
        <time>2019-05-06T09:19:49Z</time>
      </trkpt>
      <trkpt lat="50.86107" lon="2.60068">
        <ele>14</ele>
        <time>2019-05-06T09:19:50Z</time>
      </trkpt>
      <trkpt lat="50.86107" lon="2.60065">
        <ele>14</ele>
        <time>2019-05-06T09:19:51Z</time>
      </trkpt>
      <trkpt lat="50.86111" lon="2.60034">
        <ele>14</ele>
        <time>2019-05-06T09:20:01Z</time>
      </trkpt>
      <trkpt lat="50.86115" lon="2.60005">
        <ele>14</ele>
        <time>2019-05-06T09:20:10Z</time>
      </trkpt>
      <trkpt lat="50.86122" lon="2.59973">
        <ele>14</ele>
        <time>2019-05-06T09:20:19Z</time>
      </trkpt>
      <trkpt lat="50.86127" lon="2.59944">
        <ele>13</ele>
        <time>2019-05-06T09:20:28Z</time>
      </trkpt>
      <trkpt lat="50.86129" lon="2.59914">
        <ele>13</ele>
        <time>2019-05-06T09:20:38Z</time>
      </trkpt>
      <trkpt lat="50.8613" lon="2.59907">
        <ele>13</ele>
        <time>2019-05-06T09:20:40Z</time>
      </trkpt>
      <trkpt lat="50.8613" lon="2.59904">
        <ele>13</ele>
        <time>2019-05-06T09:20:41Z</time>
      </trkpt>
      <trkpt lat="50.8613" lon="2.599">
        <ele>13</ele>
        <time>2019-05-06T09:20:42Z</time>
      </trkpt>
      <trkpt lat="50.86133" lon="2.5987">
        <ele>13</ele>
        <time>2019-05-06T09:20:52Z</time>
      </trkpt>
      <trkpt lat="50.86138" lon="2.5984">
        <ele>13</ele>
        <time>2019-05-06T09:21:02Z</time>
      </trkpt>
      <trkpt lat="50.8614" lon="2.59814">
        <ele>13</ele>
        <time>2019-05-06T09:21:10Z</time>
      </trkpt>
      <trkpt lat="50.8614" lon="2.59782">
        <ele>13</ele>
        <time>2019-05-06T09:21:20Z</time>
      </trkpt>
      <trkpt lat="50.86137" lon="2.59753">
        <ele>14</ele>
        <time>2019-05-06T09:21:29Z</time>
      </trkpt>
      <trkpt lat="50.86128" lon="2.59732">
        <ele>14</ele>
        <time>2019-05-06T09:21:37Z</time>
      </trkpt>
      <trkpt lat="50.86119" lon="2.59707">
        <ele>15</ele>
        <time>2019-05-06T09:21:45Z</time>
      </trkpt>
      <trkpt lat="50.8611" lon="2.59681">
        <ele>15</ele>
        <time>2019-05-06T09:21:53Z</time>
      </trkpt>
      <trkpt lat="50.86109" lon="2.59652">
        <ele>15</ele>
        <time>2019-05-06T09:22:01Z</time>
      </trkpt>
      <trkpt lat="50.86103" lon="2.5963">
        <ele>15</ele>
        <time>2019-05-06T09:22:09Z</time>
      </trkpt>
      <trkpt lat="50.86097" lon="2.59608">
        <ele>15</ele>
        <time>2019-05-06T09:22:18Z</time>
      </trkpt>
      <trkpt lat="50.8609" lon="2.59581">
        <ele>15</ele>
        <time>2019-05-06T09:22:27Z</time>
      </trkpt>
      <trkpt lat="50.86078" lon="2.59559">
        <ele>15</ele>
        <time>2019-05-06T09:22:37Z</time>
      </trkpt>
      <trkpt lat="50.86074" lon="2.59539">
        <ele>14</ele>
        <time>2019-05-06T09:22:43Z</time>
      </trkpt>
      <trkpt lat="50.86072" lon="2.59537">
        <ele>14</ele>
        <time>2019-05-06T09:22:44Z</time>
      </trkpt>
      <trkpt lat="50.86071" lon="2.59533">
        <ele>14</ele>
        <time>2019-05-06T09:22:45Z</time>
      </trkpt>
      <trkpt lat="50.86071" lon="2.5953">
        <ele>14</ele>
        <time>2019-05-06T09:22:46Z</time>
      </trkpt>
      <trkpt lat="50.8607" lon="2.59527">
        <ele>14</ele>
        <time>2019-05-06T09:22:47Z</time>
      </trkpt>
      <trkpt lat="50.86062" lon="2.59499">
        <ele>14</ele>
        <time>2019-05-06T09:22:57Z</time>
      </trkpt>
      <trkpt lat="50.86056" lon="2.59474">
        <ele>14</ele>
        <time>2019-05-06T09:23:06Z</time>
      </trkpt>
      <trkpt lat="50.86047" lon="2.59445">
        <ele>14</ele>
        <time>2019-05-06T09:23:16Z</time>
      </trkpt>
      <trkpt lat="50.8604" lon="2.59415">
        <ele>14</ele>
        <time>2019-05-06T09:23:26Z</time>
      </trkpt>
      <trkpt lat="50.8604" lon="2.59411">
        <ele>14</ele>
        <time>2019-05-06T09:23:27Z</time>
      </trkpt>
      <trkpt lat="50.8604" lon="2.59407">
        <ele>14</ele>
        <time>2019-05-06T09:23:28Z</time>
      </trkpt>
      <trkpt lat="50.86039" lon="2.59404">
        <ele>14</ele>
        <time>2019-05-06T09:23:29Z</time>
      </trkpt>
      <trkpt lat="50.86038" lon="2.59402">
        <ele>14</ele>
        <time>2019-05-06T09:23:30Z</time>
      </trkpt>
      <trkpt lat="50.86038" lon="2.59399">
        <ele>14</ele>
        <time>2019-05-06T09:23:31Z</time>
      </trkpt>
      <trkpt lat="50.86037" lon="2.59395">
        <ele>14</ele>
        <time>2019-05-06T09:23:32Z</time>
      </trkpt>
      <trkpt lat="50.86037" lon="2.59391">
        <ele>14</ele>
        <time>2019-05-06T09:23:33Z</time>
      </trkpt>
      <trkpt lat="50.86037" lon="2.59387">
        <ele>14</ele>
        <time>2019-05-06T09:23:34Z</time>
      </trkpt>
      <trkpt lat="50.86037" lon="2.59384">
        <ele>14</ele>
        <time>2019-05-06T09:23:35Z</time>
      </trkpt>
      <trkpt lat="50.86037" lon="2.5938">
        <ele>14</ele>
        <time>2019-05-06T09:23:36Z</time>
      </trkpt>
      <trkpt lat="50.86037" lon="2.59375">
        <ele>14</ele>
        <time>2019-05-06T09:23:37Z</time>
      </trkpt>
      <trkpt lat="50.86038" lon="2.59371">
        <ele>14</ele>
        <time>2019-05-06T09:23:38Z</time>
      </trkpt>
      <trkpt lat="50.86039" lon="2.59368">
        <ele>14</ele>
        <time>2019-05-06T09:23:39Z</time>
      </trkpt>
      <trkpt lat="50.86038" lon="2.59364">
        <ele>14</ele>
        <time>2019-05-06T09:23:40Z</time>
      </trkpt>
      <trkpt lat="50.86039" lon="2.59328">
        <ele>14</ele>
        <time>2019-05-06T09:23:51Z</time>
      </trkpt>
      <trkpt lat="50.86039" lon="2.59296">
        <ele>14</ele>
        <time>2019-05-06T09:24:00Z</time>
      </trkpt>
      <trkpt lat="50.86039" lon="2.59293">
        <ele>14</ele>
        <time>2019-05-06T09:24:01Z</time>
      </trkpt>
      <trkpt lat="50.86039" lon="2.5929">
        <ele>14</ele>
        <time>2019-05-06T09:24:02Z</time>
      </trkpt>
      <trkpt lat="50.86039" lon="2.59287">
        <ele>14</ele>
        <time>2019-05-06T09:24:03Z</time>
      </trkpt>
      <trkpt lat="50.86039" lon="2.59284">
        <ele>14</ele>
        <time>2019-05-06T09:24:04Z</time>
      </trkpt>
      <trkpt lat="50.86037" lon="2.59263">
        <ele>14</ele>
        <time>2019-05-06T09:24:10Z</time>
      </trkpt>
      <trkpt lat="50.86036" lon="2.59261">
        <ele>14</ele>
        <time>2019-05-06T09:24:11Z</time>
      </trkpt>
      <trkpt lat="50.86031" lon="2.59246">
        <ele>14</ele>
        <time>2019-05-06T09:24:16Z</time>
      </trkpt>
      <trkpt lat="50.86023" lon="2.5922">
        <ele>14</ele>
        <time>2019-05-06T09:24:26Z</time>
      </trkpt>
      <trkpt lat="50.86014" lon="2.59191">
        <ele>14</ele>
        <time>2019-05-06T09:24:36Z</time>
      </trkpt>
      <trkpt lat="50.86009" lon="2.59166">
        <ele>14</ele>
        <time>2019-05-06T09:24:44Z</time>
      </trkpt>
      <trkpt lat="50.86" lon="2.59138">
        <ele>15</ele>
        <time>2019-05-06T09:24:54Z</time>
      </trkpt>
      <trkpt lat="50.85989" lon="2.59111">
        <ele>14</ele>
        <time>2019-05-06T09:25:05Z</time>
      </trkpt>
      <trkpt lat="50.85981" lon="2.59079">
        <ele>14</ele>
        <time>2019-05-06T09:25:15Z</time>
      </trkpt>
      <trkpt lat="50.85974" lon="2.59048">
        <ele>14</ele>
        <time>2019-05-06T09:25:26Z</time>
      </trkpt>
      <trkpt lat="50.85964" lon="2.59019">
        <ele>14</ele>
        <time>2019-05-06T09:25:36Z</time>
      </trkpt>
      <trkpt lat="50.85962" lon="2.5901">
        <ele>15</ele>
        <time>2019-05-06T09:25:39Z</time>
      </trkpt>
      <trkpt lat="50.85961" lon="2.59006">
        <ele>14</ele>
        <time>2019-05-06T09:25:40Z</time>
      </trkpt>
      <trkpt lat="50.8596" lon="2.59003">
        <ele>14</ele>
        <time>2019-05-06T09:25:41Z</time>
      </trkpt>
      <trkpt lat="50.85959" lon="2.59">
        <ele>14</ele>
        <time>2019-05-06T09:25:42Z</time>
      </trkpt>
      <trkpt lat="50.85958" lon="2.58997">
        <ele>14</ele>
        <time>2019-05-06T09:25:43Z</time>
      </trkpt>
      <trkpt lat="50.85948" lon="2.58968">
        <ele>14</ele>
        <time>2019-05-06T09:25:53Z</time>
      </trkpt>
      <trkpt lat="50.85942" lon="2.58935">
        <ele>14</ele>
        <time>2019-05-06T09:26:03Z</time>
      </trkpt>
      <trkpt lat="50.85942" lon="2.5893">
        <ele>14</ele>
        <time>2019-05-06T09:26:04Z</time>
      </trkpt>
      <trkpt lat="50.85941" lon="2.58928">
        <ele>14</ele>
        <time>2019-05-06T09:26:05Z</time>
      </trkpt>
      <trkpt lat="50.85939" lon="2.58926">
        <ele>14</ele>
        <time>2019-05-06T09:26:06Z</time>
      </trkpt>
      <trkpt lat="50.85938" lon="2.58924">
        <ele>14</ele>
        <time>2019-05-06T09:26:07Z</time>
      </trkpt>
      <trkpt lat="50.85937" lon="2.58921">
        <ele>14</ele>
        <time>2019-05-06T09:26:08Z</time>
      </trkpt>
      <trkpt lat="50.85937" lon="2.58917">
        <ele>14</ele>
        <time>2019-05-06T09:26:09Z</time>
      </trkpt>
      <trkpt lat="50.85936" lon="2.58914">
        <ele>14</ele>
        <time>2019-05-06T09:26:10Z</time>
      </trkpt>
      <trkpt lat="50.85935" lon="2.58912">
        <ele>14</ele>
        <time>2019-05-06T09:26:11Z</time>
      </trkpt>
      <trkpt lat="50.85933" lon="2.5891">
        <ele>14</ele>
        <time>2019-05-06T09:26:12Z</time>
      </trkpt>
      <trkpt lat="50.85933" lon="2.58906">
        <ele>14</ele>
        <time>2019-05-06T09:26:13Z</time>
      </trkpt>
      <trkpt lat="50.85932" lon="2.58903">
        <ele>14</ele>
        <time>2019-05-06T09:26:14Z</time>
      </trkpt>
      <trkpt lat="50.85923" lon="2.58872">
        <ele>14</ele>
        <time>2019-05-06T09:26:25Z</time>
      </trkpt>
      <trkpt lat="50.85915" lon="2.58842">
        <ele>14</ele>
        <time>2019-05-06T09:26:36Z</time>
      </trkpt>
      <trkpt lat="50.85908" lon="2.58809">
        <ele>14</ele>
        <time>2019-05-06T09:26:46Z</time>
      </trkpt>
      <trkpt lat="50.85898" lon="2.58774">
        <ele>14</ele>
        <time>2019-05-06T09:26:56Z</time>
      </trkpt>
      <trkpt lat="50.85887" lon="2.58748">
        <ele>15</ele>
        <time>2019-05-06T09:27:06Z</time>
      </trkpt>
      <trkpt lat="50.85879" lon="2.58721">
        <ele>15</ele>
        <time>2019-05-06T09:27:16Z</time>
      </trkpt>
      <trkpt lat="50.85871" lon="2.58697">
        <ele>15</ele>
        <time>2019-05-06T09:27:24Z</time>
      </trkpt>
      <trkpt lat="50.85871" lon="2.58693">
        <ele>15</ele>
        <time>2019-05-06T09:27:25Z</time>
      </trkpt>
      <trkpt lat="50.8587" lon="2.5869">
        <ele>15</ele>
        <time>2019-05-06T09:27:26Z</time>
      </trkpt>
      <trkpt lat="50.85869" lon="2.58688">
        <ele>15</ele>
        <time>2019-05-06T09:27:27Z</time>
      </trkpt>
      <trkpt lat="50.85867" lon="2.58685">
        <ele>15</ele>
        <time>2019-05-06T09:27:28Z</time>
      </trkpt>
      <trkpt lat="50.85867" lon="2.58682">
        <ele>15</ele>
        <time>2019-05-06T09:27:29Z</time>
      </trkpt>
      <trkpt lat="50.85866" lon="2.58679">
        <ele>15</ele>
        <time>2019-05-06T09:27:30Z</time>
      </trkpt>
      <trkpt lat="50.85858" lon="2.58648">
        <ele>15</ele>
        <time>2019-05-06T09:27:40Z</time>
      </trkpt>
      <trkpt lat="50.85846" lon="2.5862">
        <ele>15</ele>
        <time>2019-05-06T09:27:50Z</time>
      </trkpt>
      <trkpt lat="50.85839" lon="2.58598">
        <ele>15</ele>
        <time>2019-05-06T09:27:57Z</time>
      </trkpt>
      <trkpt lat="50.85839" lon="2.58595">
        <ele>16</ele>
        <time>2019-05-06T09:27:58Z</time>
      </trkpt>
      <trkpt lat="50.85838" lon="2.58592">
        <ele>16</ele>
        <time>2019-05-06T09:27:59Z</time>
      </trkpt>
      <trkpt lat="50.85837" lon="2.58589">
        <ele>16</ele>
        <time>2019-05-06T09:28:00Z</time>
      </trkpt>
      <trkpt lat="50.85836" lon="2.58587">
        <ele>15</ele>
        <time>2019-05-06T09:28:01Z</time>
      </trkpt>
      <trkpt lat="50.85835" lon="2.58584">
        <ele>15</ele>
        <time>2019-05-06T09:28:02Z</time>
      </trkpt>
      <trkpt lat="50.85827" lon="2.58556">
        <ele>15</ele>
        <time>2019-05-06T09:28:10Z</time>
      </trkpt>
      <trkpt lat="50.8582" lon="2.5853">
        <ele>16</ele>
        <time>2019-05-06T09:28:19Z</time>
      </trkpt>
      <trkpt lat="50.85811" lon="2.58504">
        <ele>15</ele>
        <time>2019-05-06T09:28:29Z</time>
      </trkpt>
      <trkpt lat="50.85801" lon="2.58478">
        <ele>16</ele>
        <time>2019-05-06T09:28:39Z</time>
      </trkpt>
      <trkpt lat="50.85792" lon="2.58449">
        <ele>16</ele>
        <time>2019-05-06T09:28:49Z</time>
      </trkpt>
      <trkpt lat="50.85781" lon="2.58421">
        <ele>16</ele>
        <time>2019-05-06T09:28:59Z</time>
      </trkpt>
      <trkpt lat="50.85767" lon="2.58401">
        <ele>16</ele>
        <time>2019-05-06T09:29:07Z</time>
      </trkpt>
      <trkpt lat="50.85755" lon="2.5838">
        <ele>17</ele>
        <time>2019-05-06T09:29:18Z</time>
      </trkpt>
      <trkpt lat="50.85739" lon="2.58372">
        <ele>16</ele>
        <time>2019-05-06T09:29:30Z</time>
      </trkpt>
      <trkpt lat="50.85721" lon="2.58354">
        <ele>17</ele>
        <time>2019-05-06T09:29:41Z</time>
      </trkpt>
      <trkpt lat="50.85712" lon="2.58338">
        <ele>17</ele>
        <time>2019-05-06T09:29:48Z</time>
      </trkpt>
      <trkpt lat="50.85711" lon="2.58335">
        <ele>17</ele>
        <time>2019-05-06T09:29:49Z</time>
      </trkpt>
      <trkpt lat="50.85699" lon="2.58315">
        <ele>17</ele>
        <time>2019-05-06T09:29:58Z</time>
      </trkpt>
      <trkpt lat="50.85679" lon="2.58293">
        <ele>17</ele>
        <time>2019-05-06T09:30:07Z</time>
      </trkpt>
      <trkpt lat="50.85657" lon="2.58282">
        <ele>17</ele>
        <time>2019-05-06T09:30:18Z</time>
      </trkpt>
      <trkpt lat="50.85637" lon="2.58268">
        <ele>18</ele>
        <time>2019-05-06T09:30:30Z</time>
      </trkpt>
      <trkpt lat="50.85616" lon="2.58254">
        <ele>17</ele>
        <time>2019-05-06T09:30:41Z</time>
      </trkpt>
      <trkpt lat="50.85597" lon="2.58237">
        <ele>17</ele>
        <time>2019-05-06T09:30:54Z</time>
      </trkpt>
      <trkpt lat="50.85575" lon="2.58219">
        <ele>18</ele>
        <time>2019-05-06T09:31:04Z</time>
      </trkpt>
      <trkpt lat="50.85568" lon="2.5821">
        <ele>18</ele>
        <time>2019-05-06T09:31:08Z</time>
      </trkpt>
      <trkpt lat="50.85566" lon="2.58208">
        <ele>18</ele>
        <time>2019-05-06T09:31:09Z</time>
      </trkpt>
      <trkpt lat="50.85564" lon="2.58206">
        <ele>18</ele>
        <time>2019-05-06T09:31:10Z</time>
      </trkpt>
      <trkpt lat="50.85562" lon="2.58202">
        <ele>18</ele>
        <time>2019-05-06T09:31:11Z</time>
      </trkpt>
      <trkpt lat="50.85561" lon="2.582">
        <ele>18</ele>
        <time>2019-05-06T09:31:12Z</time>
      </trkpt>
      <trkpt lat="50.85559" lon="2.58198">
        <ele>17</ele>
        <time>2019-05-06T09:31:13Z</time>
      </trkpt>
      <trkpt lat="50.85557" lon="2.58195">
        <ele>18</ele>
        <time>2019-05-06T09:31:14Z</time>
      </trkpt>
      <trkpt lat="50.85556" lon="2.58192">
        <ele>18</ele>
        <time>2019-05-06T09:31:15Z</time>
      </trkpt>
      <trkpt lat="50.85555" lon="2.58188">
        <ele>18</ele>
        <time>2019-05-06T09:31:16Z</time>
      </trkpt>
      <trkpt lat="50.85553" lon="2.58185">
        <ele>18</ele>
        <time>2019-05-06T09:31:17Z</time>
      </trkpt>
      <trkpt lat="50.85551" lon="2.58179">
        <ele>18</ele>
        <time>2019-05-06T09:31:19Z</time>
      </trkpt>
      <trkpt lat="50.85549" lon="2.58177">
        <ele>18</ele>
        <time>2019-05-06T09:31:20Z</time>
      </trkpt>
      <trkpt lat="50.85547" lon="2.58174">
        <ele>18</ele>
        <time>2019-05-06T09:31:21Z</time>
      </trkpt>
      <trkpt lat="50.85538" lon="2.58158">
        <ele>18</ele>
        <time>2019-05-06T09:31:28Z</time>
      </trkpt>
      <trkpt lat="50.85522" lon="2.58139">
        <ele>18</ele>
        <time>2019-05-06T09:31:37Z</time>
      </trkpt>
      <trkpt lat="50.85512" lon="2.58113">
        <ele>18</ele>
        <time>2019-05-06T09:31:46Z</time>
      </trkpt>
      <trkpt lat="50.855" lon="2.58088">
        <ele>19</ele>
        <time>2019-05-06T09:31:56Z</time>
      </trkpt>
      <trkpt lat="50.85487" lon="2.58064">
        <ele>20</ele>
        <time>2019-05-06T09:32:06Z</time>
      </trkpt>
      <trkpt lat="50.85475" lon="2.58041">
        <ele>20</ele>
        <time>2019-05-06T09:32:16Z</time>
      </trkpt>
      <trkpt lat="50.8546" lon="2.5802">
        <ele>20</ele>
        <time>2019-05-06T09:32:26Z</time>
      </trkpt>
      <trkpt lat="50.85446" lon="2.57997">
        <ele>20</ele>
        <time>2019-05-06T09:32:36Z</time>
      </trkpt>
      <trkpt lat="50.85432" lon="2.57977">
        <ele>20</ele>
        <time>2019-05-06T09:32:45Z</time>
      </trkpt>
      <trkpt lat="50.85417" lon="2.57956">
        <ele>21</ele>
        <time>2019-05-06T09:32:55Z</time>
      </trkpt>
      <trkpt lat="50.854" lon="2.57937">
        <ele>21</ele>
        <time>2019-05-06T09:33:05Z</time>
      </trkpt>
      <trkpt lat="50.85383" lon="2.57921">
        <ele>21</ele>
        <time>2019-05-06T09:33:15Z</time>
      </trkpt>
      <trkpt lat="50.85367" lon="2.57903">
        <ele>22</ele>
        <time>2019-05-06T09:33:25Z</time>
      </trkpt>
      <trkpt lat="50.85351" lon="2.57884">
        <ele>22</ele>
        <time>2019-05-06T09:33:36Z</time>
      </trkpt>
      <trkpt lat="50.85333" lon="2.57871">
        <ele>23</ele>
        <time>2019-05-06T09:33:46Z</time>
      </trkpt>
      <trkpt lat="50.85313" lon="2.57859">
        <ele>23</ele>
        <time>2019-05-06T09:33:57Z</time>
      </trkpt>
      <trkpt lat="50.85295" lon="2.57839">
        <ele>23</ele>
        <time>2019-05-06T09:34:08Z</time>
      </trkpt>
      <trkpt lat="50.85285" lon="2.57823">
        <ele>23</ele>
        <time>2019-05-06T09:34:15Z</time>
      </trkpt>
      <trkpt lat="50.8528" lon="2.57813">
        <ele>23</ele>
        <time>2019-05-06T09:34:19Z</time>
      </trkpt>
      <trkpt lat="50.85278" lon="2.57812">
        <ele>23</ele>
        <time>2019-05-06T09:34:20Z</time>
      </trkpt>
      <trkpt lat="50.85275" lon="2.57811">
        <ele>24</ele>
        <time>2019-05-06T09:34:21Z</time>
      </trkpt>
      <trkpt lat="50.85273" lon="2.5781">
        <ele>23</ele>
        <time>2019-05-06T09:34:22Z</time>
      </trkpt>
      <trkpt lat="50.85271" lon="2.57807">
        <ele>23</ele>
        <time>2019-05-06T09:34:23Z</time>
      </trkpt>
      <trkpt lat="50.85269" lon="2.57805">
        <ele>23</ele>
        <time>2019-05-06T09:34:24Z</time>
      </trkpt>
      <trkpt lat="50.85267" lon="2.57804">
        <ele>23</ele>
        <time>2019-05-06T09:34:25Z</time>
      </trkpt>
      <trkpt lat="50.85263" lon="2.57804">
        <ele>23</ele>
        <time>2019-05-06T09:34:26Z</time>
      </trkpt>
      <trkpt lat="50.85261" lon="2.57802">
        <ele>23</ele>
        <time>2019-05-06T09:34:27Z</time>
      </trkpt>
      <trkpt lat="50.8526" lon="2.578">
        <ele>23</ele>
        <time>2019-05-06T09:34:28Z</time>
      </trkpt>
      <trkpt lat="50.85258" lon="2.57798">
        <ele>23</ele>
        <time>2019-05-06T09:34:29Z</time>
      </trkpt>
      <trkpt lat="50.85258" lon="2.57795">
        <ele>23</ele>
        <time>2019-05-06T09:34:30Z</time>
      </trkpt>
      <trkpt lat="50.85258" lon="2.57792">
        <ele>23</ele>
        <time>2019-05-06T09:34:31Z</time>
      </trkpt>
      <trkpt lat="50.85258" lon="2.57788">
        <ele>22</ele>
        <time>2019-05-06T09:34:32Z</time>
      </trkpt>
      <trkpt lat="50.85258" lon="2.57784">
        <ele>22</ele>
        <time>2019-05-06T09:34:33Z</time>
      </trkpt>
      <trkpt lat="50.85258" lon="2.5778">
        <ele>22</ele>
        <time>2019-05-06T09:34:34Z</time>
      </trkpt>
      <trkpt lat="50.85256" lon="2.57745">
        <ele>22</ele>
        <time>2019-05-06T09:34:44Z</time>
      </trkpt>
      <trkpt lat="50.85251" lon="2.57714">
        <ele>22</ele>
        <time>2019-05-06T09:34:54Z</time>
      </trkpt>
      <trkpt lat="50.85243" lon="2.57686">
        <ele>24</ele>
        <time>2019-05-06T09:35:04Z</time>
      </trkpt>
      <trkpt lat="50.85242" lon="2.57683">
        <ele>24</ele>
        <time>2019-05-06T09:35:05Z</time>
      </trkpt>
      <trkpt lat="50.85226" lon="2.57662">
        <ele>24</ele>
        <time>2019-05-06T09:35:16Z</time>
      </trkpt>
      <trkpt lat="50.85212" lon="2.57642">
        <ele>24</ele>
        <time>2019-05-06T09:35:26Z</time>
      </trkpt>
      <trkpt lat="50.85209" lon="2.5764">
        <ele>24</ele>
        <time>2019-05-06T09:35:27Z</time>
      </trkpt>
      <trkpt lat="50.85208" lon="2.57638">
        <ele>24</ele>
        <time>2019-05-06T09:35:28Z</time>
      </trkpt>
      <trkpt lat="50.85206" lon="2.57636">
        <ele>24</ele>
        <time>2019-05-06T09:35:29Z</time>
      </trkpt>
      <trkpt lat="50.85204" lon="2.57633">
        <ele>24</ele>
        <time>2019-05-06T09:35:30Z</time>
      </trkpt>
      <trkpt lat="50.85203" lon="2.57631">
        <ele>24</ele>
        <time>2019-05-06T09:35:31Z</time>
      </trkpt>
      <trkpt lat="50.85201" lon="2.57629">
        <ele>24</ele>
        <time>2019-05-06T09:35:32Z</time>
      </trkpt>
      <trkpt lat="50.85199" lon="2.57627">
        <ele>24</ele>
        <time>2019-05-06T09:35:33Z</time>
      </trkpt>
      <trkpt lat="50.85191" lon="2.57607">
        <ele>24</ele>
        <time>2019-05-06T09:35:40Z</time>
      </trkpt>
      <trkpt lat="50.8518" lon="2.57579">
        <ele>24</ele>
        <time>2019-05-06T09:35:49Z</time>
      </trkpt>
      <trkpt lat="50.85168" lon="2.57552">
        <ele>24</ele>
        <time>2019-05-06T09:35:59Z</time>
      </trkpt>
      <trkpt lat="50.85157" lon="2.57525">
        <ele>23</ele>
        <time>2019-05-06T09:36:08Z</time>
      </trkpt>
      <trkpt lat="50.85145" lon="2.57502">
        <ele>24</ele>
        <time>2019-05-06T09:36:17Z</time>
      </trkpt>
      <trkpt lat="50.85141" lon="2.57494">
        <ele>24</ele>
        <time>2019-05-06T09:36:20Z</time>
      </trkpt>
      <trkpt lat="50.85128" lon="2.57471">
        <ele>24</ele>
        <time>2019-05-06T09:36:30Z</time>
      </trkpt>
      <trkpt lat="50.85114" lon="2.57449">
        <ele>24</ele>
        <time>2019-05-06T09:36:39Z</time>
      </trkpt>
      <trkpt lat="50.85105" lon="2.57422">
        <ele>24</ele>
        <time>2019-05-06T09:36:48Z</time>
      </trkpt>
      <trkpt lat="50.85093" lon="2.57397">
        <ele>24</ele>
        <time>2019-05-06T09:36:57Z</time>
      </trkpt>
      <trkpt lat="50.85081" lon="2.57372">
        <ele>24</ele>
        <time>2019-05-06T09:37:07Z</time>
      </trkpt>
      <trkpt lat="50.85067" lon="2.5735">
        <ele>24</ele>
        <time>2019-05-06T09:37:17Z</time>
      </trkpt>
      <trkpt lat="50.85066" lon="2.57347">
        <ele>24</ele>
        <time>2019-05-06T09:37:18Z</time>
      </trkpt>
      <trkpt lat="50.85065" lon="2.57343">
        <ele>24</ele>
        <time>2019-05-06T09:37:19Z</time>
      </trkpt>
      <trkpt lat="50.85054" lon="2.57317">
        <ele>24</ele>
        <time>2019-05-06T09:37:29Z</time>
      </trkpt>
      <trkpt lat="50.85042" lon="2.57291">
        <ele>24</ele>
        <time>2019-05-06T09:37:39Z</time>
      </trkpt>
      <trkpt lat="50.85029" lon="2.57265">
        <ele>24</ele>
        <time>2019-05-06T09:37:49Z</time>
      </trkpt>
      <trkpt lat="50.85027" lon="2.57256">
        <ele>24</ele>
        <time>2019-05-06T09:37:52Z</time>
      </trkpt>
      <trkpt lat="50.85026" lon="2.57254">
        <ele>24</ele>
        <time>2019-05-06T09:37:53Z</time>
      </trkpt>
      <trkpt lat="50.85025" lon="2.57252">
        <ele>24</ele>
        <time>2019-05-06T09:37:54Z</time>
      </trkpt>
      <trkpt lat="50.85016" lon="2.57228">
        <ele>24</ele>
        <time>2019-05-06T09:38:02Z</time>
      </trkpt>
      <trkpt lat="50.85015" lon="2.57226">
        <ele>24</ele>
        <time>2019-05-06T09:38:03Z</time>
      </trkpt>
      <trkpt lat="50.85004" lon="2.57198">
        <ele>24</ele>
        <time>2019-05-06T09:38:13Z</time>
      </trkpt>
      <trkpt lat="50.84999" lon="2.57186">
        <ele>24</ele>
        <time>2019-05-06T09:38:17Z</time>
      </trkpt>
      <trkpt lat="50.84996" lon="2.57181">
        <ele>24</ele>
        <time>2019-05-06T09:38:19Z</time>
      </trkpt>
      <trkpt lat="50.84995" lon="2.57178">
        <ele>24</ele>
        <time>2019-05-06T09:38:20Z</time>
      </trkpt>
      <trkpt lat="50.84994" lon="2.57175">
        <ele>24</ele>
        <time>2019-05-06T09:38:21Z</time>
      </trkpt>
      <trkpt lat="50.84985" lon="2.57144">
        <ele>24</ele>
        <time>2019-05-06T09:38:31Z</time>
      </trkpt>
      <trkpt lat="50.84969" lon="2.57128">
        <ele>24</ele>
        <time>2019-05-06T09:38:41Z</time>
      </trkpt>
      <trkpt lat="50.84954" lon="2.57115">
        <ele>24</ele>
        <time>2019-05-06T09:38:51Z</time>
      </trkpt>
      <trkpt lat="50.84952" lon="2.57112">
        <ele>24</ele>
        <time>2019-05-06T09:38:52Z</time>
      </trkpt>
      <trkpt lat="50.84951" lon="2.57109">
        <ele>24</ele>
        <time>2019-05-06T09:38:53Z</time>
      </trkpt>
      <trkpt lat="50.84937" lon="2.57087">
        <ele>25</ele>
        <time>2019-05-06T09:39:02Z</time>
      </trkpt>
      <trkpt lat="50.84925" lon="2.5706">
        <ele>25</ele>
        <time>2019-05-06T09:39:11Z</time>
      </trkpt>
      <trkpt lat="50.84917" lon="2.57031">
        <ele>25</ele>
        <time>2019-05-06T09:39:21Z</time>
      </trkpt>
      <trkpt lat="50.84912" lon="2.57002">
        <ele>25</ele>
        <time>2019-05-06T09:39:31Z</time>
      </trkpt>
      <trkpt lat="50.84905" lon="2.56979">
        <ele>25</ele>
        <time>2019-05-06T09:39:39Z</time>
      </trkpt>
      <trkpt lat="50.84904" lon="2.56976">
        <ele>25</ele>
        <time>2019-05-06T09:39:40Z</time>
      </trkpt>
      <trkpt lat="50.84904" lon="2.56973">
        <ele>25</ele>
        <time>2019-05-06T09:39:41Z</time>
      </trkpt>
      <trkpt lat="50.84904" lon="2.5697">
        <ele>25</ele>
        <time>2019-05-06T09:39:42Z</time>
      </trkpt>
      <trkpt lat="50.84903" lon="2.56968">
        <ele>25</ele>
        <time>2019-05-06T09:39:43Z</time>
      </trkpt>
      <trkpt lat="50.84901" lon="2.56965">
        <ele>25</ele>
        <time>2019-05-06T09:39:44Z</time>
      </trkpt>
      <trkpt lat="50.84893" lon="2.56936">
        <ele>25</ele>
        <time>2019-05-06T09:39:54Z</time>
      </trkpt>
      <trkpt lat="50.84891" lon="2.56915">
        <ele>25</ele>
        <time>2019-05-06T09:40:00Z</time>
      </trkpt>
      <trkpt lat="50.8489" lon="2.56908">
        <ele>25</ele>
        <time>2019-05-06T09:40:02Z</time>
      </trkpt>
      <trkpt lat="50.84881" lon="2.56881">
        <ele>24</ele>
        <time>2019-05-06T09:40:10Z</time>
      </trkpt>
      <trkpt lat="50.84874" lon="2.56858">
        <ele>24</ele>
        <time>2019-05-06T09:40:18Z</time>
      </trkpt>
      <trkpt lat="50.84875" lon="2.56854">
        <ele>24</ele>
        <time>2019-05-06T09:40:19Z</time>
      </trkpt>
      <trkpt lat="50.84874" lon="2.56852">
        <ele>24</ele>
        <time>2019-05-06T09:40:20Z</time>
      </trkpt>
      <trkpt lat="50.84874" lon="2.56849">
        <ele>24</ele>
        <time>2019-05-06T09:40:21Z</time>
      </trkpt>
      <trkpt lat="50.84874" lon="2.56846">
        <ele>24</ele>
        <time>2019-05-06T09:40:22Z</time>
      </trkpt>
      <trkpt lat="50.84875" lon="2.56842">
        <ele>24</ele>
        <time>2019-05-06T09:40:23Z</time>
      </trkpt>
      <trkpt lat="50.84875" lon="2.56838">
        <ele>24</ele>
        <time>2019-05-06T09:40:24Z</time>
      </trkpt>
      <trkpt lat="50.84874" lon="2.56835">
        <ele>24</ele>
        <time>2019-05-06T09:40:25Z</time>
      </trkpt>
      <trkpt lat="50.84873" lon="2.56832">
        <ele>24</ele>
        <time>2019-05-06T09:40:26Z</time>
      </trkpt>
      <trkpt lat="50.84873" lon="2.56828">
        <ele>24</ele>
        <time>2019-05-06T09:40:27Z</time>
      </trkpt>
      <trkpt lat="50.84873" lon="2.56825">
        <ele>24</ele>
        <time>2019-05-06T09:40:28Z</time>
      </trkpt>
      <trkpt lat="50.84873" lon="2.56821">
        <ele>24</ele>
        <time>2019-05-06T09:40:29Z</time>
      </trkpt>
      <trkpt lat="50.84873" lon="2.56818">
        <ele>24</ele>
        <time>2019-05-06T09:40:30Z</time>
      </trkpt>
      <trkpt lat="50.84872" lon="2.56815">
        <ele>24</ele>
        <time>2019-05-06T09:40:31Z</time>
      </trkpt>
      <trkpt lat="50.84866" lon="2.56793">
        <ele>24</ele>
        <time>2019-05-06T09:40:38Z</time>
      </trkpt>
      <trkpt lat="50.84865" lon="2.56791">
        <ele>24</ele>
        <time>2019-05-06T09:40:39Z</time>
      </trkpt>
      <trkpt lat="50.84858" lon="2.56762">
        <ele>24</ele>
        <time>2019-05-06T09:40:48Z</time>
      </trkpt>
      <trkpt lat="50.84852" lon="2.56732">
        <ele>23</ele>
        <time>2019-05-06T09:40:58Z</time>
      </trkpt>
      <trkpt lat="50.84848" lon="2.567">
        <ele>24</ele>
        <time>2019-05-06T09:41:08Z</time>
      </trkpt>
      <trkpt lat="50.84842" lon="2.56669">
        <ele>24</ele>
        <time>2019-05-06T09:41:18Z</time>
      </trkpt>
      <trkpt lat="50.84837" lon="2.56638">
        <ele>24</ele>
        <time>2019-05-06T09:41:28Z</time>
      </trkpt>
      <trkpt lat="50.84832" lon="2.56606">
        <ele>25</ele>
        <time>2019-05-06T09:41:38Z</time>
      </trkpt>
      <trkpt lat="50.84832" lon="2.56602">
        <ele>25</ele>
        <time>2019-05-06T09:41:39Z</time>
      </trkpt>
      <trkpt lat="50.84832" lon="2.56598">
        <ele>25</ele>
        <time>2019-05-06T09:41:40Z</time>
      </trkpt>
      <trkpt lat="50.84832" lon="2.56594">
        <ele>25</ele>
        <time>2019-05-06T09:41:41Z</time>
      </trkpt>
      <trkpt lat="50.8483" lon="2.56582">
        <ele>25</ele>
        <time>2019-05-06T09:41:45Z</time>
      </trkpt>
      <trkpt lat="50.84831" lon="2.56578">
        <ele>25</ele>
        <time>2019-05-06T09:41:46Z</time>
      </trkpt>
      <trkpt lat="50.84832" lon="2.56575">
        <ele>25</ele>
        <time>2019-05-06T09:41:47Z</time>
      </trkpt>
      <trkpt lat="50.84833" lon="2.56573">
        <ele>25</ele>
        <time>2019-05-06T09:41:48Z</time>
      </trkpt>
      <trkpt lat="50.84832" lon="2.56571">
        <ele>25</ele>
        <time>2019-05-06T09:41:49Z</time>
      </trkpt>
      <trkpt lat="50.84829" lon="2.56539">
        <ele>25</ele>
        <time>2019-05-06T09:41:59Z</time>
      </trkpt>
      <trkpt lat="50.84824" lon="2.56507">
        <ele>25</ele>
        <time>2019-05-06T09:42:09Z</time>
      </trkpt>
      <trkpt lat="50.84816" lon="2.56479">
        <ele>25</ele>
        <time>2019-05-06T09:42:19Z</time>
      </trkpt>
      <trkpt lat="50.84815" lon="2.56476">
        <ele>26</ele>
        <time>2019-05-06T09:42:20Z</time>
      </trkpt>
      <trkpt lat="50.84814" lon="2.56474">
        <ele>25</ele>
        <time>2019-05-06T09:42:21Z</time>
      </trkpt>
      <trkpt lat="50.84813" lon="2.56471">
        <ele>26</ele>
        <time>2019-05-06T09:42:22Z</time>
      </trkpt>
      <trkpt lat="50.84812" lon="2.56468">
        <ele>26</ele>
        <time>2019-05-06T09:42:23Z</time>
      </trkpt>
      <trkpt lat="50.84811" lon="2.56464">
        <ele>26</ele>
        <time>2019-05-06T09:42:24Z</time>
      </trkpt>
      <trkpt lat="50.84801" lon="2.56439">
        <ele>26</ele>
        <time>2019-05-06T09:42:33Z</time>
      </trkpt>
      <trkpt lat="50.84792" lon="2.56421">
        <ele>26</ele>
        <time>2019-05-06T09:42:41Z</time>
      </trkpt>
      <trkpt lat="50.84791" lon="2.56418">
        <ele>27</ele>
        <time>2019-05-06T09:42:42Z</time>
      </trkpt>
      <trkpt lat="50.8479" lon="2.56415">
        <ele>27</ele>
        <time>2019-05-06T09:42:43Z</time>
      </trkpt>
      <trkpt lat="50.84777" lon="2.56395">
        <ele>27</ele>
        <time>2019-05-06T09:42:52Z</time>
      </trkpt>
      <trkpt lat="50.84763" lon="2.56374">
        <ele>26</ele>
        <time>2019-05-06T09:43:01Z</time>
      </trkpt>
      <trkpt lat="50.84753" lon="2.56347">
        <ele>27</ele>
        <time>2019-05-06T09:43:10Z</time>
      </trkpt>
      <trkpt lat="50.84743" lon="2.56321">
        <ele>27</ele>
        <time>2019-05-06T09:43:18Z</time>
      </trkpt>
      <trkpt lat="50.84733" lon="2.56301">
        <ele>27</ele>
        <time>2019-05-06T09:43:26Z</time>
      </trkpt>
      <trkpt lat="50.84722" lon="2.56284">
        <ele>27</ele>
        <time>2019-05-06T09:43:34Z</time>
      </trkpt>
      <trkpt lat="50.84721" lon="2.56281">
        <ele>27</ele>
        <time>2019-05-06T09:43:35Z</time>
      </trkpt>
      <trkpt lat="50.8472" lon="2.56279">
        <ele>27</ele>
        <time>2019-05-06T09:43:36Z</time>
      </trkpt>
      <trkpt lat="50.8472" lon="2.56276">
        <ele>27</ele>
        <time>2019-05-06T09:43:37Z</time>
      </trkpt>
      <trkpt lat="50.84718" lon="2.56273">
        <ele>27</ele>
        <time>2019-05-06T09:43:38Z</time>
      </trkpt>
      <trkpt lat="50.84717" lon="2.5627">
        <ele>27</ele>
        <time>2019-05-06T09:43:39Z</time>
      </trkpt>
      <trkpt lat="50.84708" lon="2.56245">
        <ele>27</ele>
        <time>2019-05-06T09:43:48Z</time>
      </trkpt>
      <trkpt lat="50.84696" lon="2.56221">
        <ele>27</ele>
        <time>2019-05-06T09:43:57Z</time>
      </trkpt>
      <trkpt lat="50.84684" lon="2.56199">
        <ele>27</ele>
        <time>2019-05-06T09:44:06Z</time>
      </trkpt>
      <trkpt lat="50.8467" lon="2.56178">
        <ele>27</ele>
        <time>2019-05-06T09:44:15Z</time>
      </trkpt>
      <trkpt lat="50.84661" lon="2.56151">
        <ele>27</ele>
        <time>2019-05-06T09:44:24Z</time>
      </trkpt>
      <trkpt lat="50.84654" lon="2.56135">
        <ele>28</ele>
        <time>2019-05-06T09:44:30Z</time>
      </trkpt>
      <trkpt lat="50.84653" lon="2.56132">
        <ele>28</ele>
        <time>2019-05-06T09:44:31Z</time>
      </trkpt>
      <trkpt lat="50.84652" lon="2.5613">
        <ele>27</ele>
        <time>2019-05-06T09:44:32Z</time>
      </trkpt>
      <trkpt lat="50.84638" lon="2.56105">
        <ele>28</ele>
        <time>2019-05-06T09:44:42Z</time>
      </trkpt>
      <trkpt lat="50.84626" lon="2.56079">
        <ele>27</ele>
        <time>2019-05-06T09:44:53Z</time>
      </trkpt>
      <trkpt lat="50.8462" lon="2.56056">
        <ele>26</ele>
        <time>2019-05-06T09:45:00Z</time>
      </trkpt>
      <trkpt lat="50.84619" lon="2.56053">
        <ele>26</ele>
        <time>2019-05-06T09:45:01Z</time>
      </trkpt>
      <trkpt lat="50.84619" lon="2.56049">
        <ele>27</ele>
        <time>2019-05-06T09:45:02Z</time>
      </trkpt>
      <trkpt lat="50.84618" lon="2.56046">
        <ele>27</ele>
        <time>2019-05-06T09:45:03Z</time>
      </trkpt>
      <trkpt lat="50.84616" lon="2.56044">
        <ele>26</ele>
        <time>2019-05-06T09:45:04Z</time>
      </trkpt>
      <trkpt lat="50.84607" lon="2.56022">
        <ele>26</ele>
        <time>2019-05-06T09:45:11Z</time>
      </trkpt>
      <trkpt lat="50.84606" lon="2.5602">
        <ele>26</ele>
        <time>2019-05-06T09:45:12Z</time>
      </trkpt>
      <trkpt lat="50.84604" lon="2.56018">
        <ele>26</ele>
        <time>2019-05-06T09:45:13Z</time>
      </trkpt>
      <trkpt lat="50.84603" lon="2.56015">
        <ele>26</ele>
        <time>2019-05-06T09:45:14Z</time>
      </trkpt>
      <trkpt lat="50.84602" lon="2.56012">
        <ele>26</ele>
        <time>2019-05-06T09:45:15Z</time>
      </trkpt>
      <trkpt lat="50.84602" lon="2.56009">
        <ele>26</ele>
        <time>2019-05-06T09:45:16Z</time>
      </trkpt>
      <trkpt lat="50.84589" lon="2.55982">
        <ele>25</ele>
        <time>2019-05-06T09:45:26Z</time>
      </trkpt>
      <trkpt lat="50.84578" lon="2.55956">
        <ele>23</ele>
        <time>2019-05-06T09:45:35Z</time>
      </trkpt>
      <trkpt lat="50.84566" lon="2.5593">
        <ele>23</ele>
        <time>2019-05-06T09:45:44Z</time>
      </trkpt>
      <trkpt lat="50.84557" lon="2.55902">
        <ele>21</ele>
        <time>2019-05-06T09:45:53Z</time>
      </trkpt>
      <trkpt lat="50.84547" lon="2.55876">
        <ele>20</ele>
        <time>2019-05-06T09:46:02Z</time>
      </trkpt>
      <trkpt lat="50.84539" lon="2.55847">
        <ele>20</ele>
        <time>2019-05-06T09:46:11Z</time>
      </trkpt>
      <trkpt lat="50.8453" lon="2.55819">
        <ele>19</ele>
        <time>2019-05-06T09:46:20Z</time>
      </trkpt>
      <trkpt lat="50.84526" lon="2.55811">
        <ele>19</ele>
        <time>2019-05-06T09:46:23Z</time>
      </trkpt>
      <trkpt lat="50.84525" lon="2.55809">
        <ele>19</ele>
        <time>2019-05-06T09:46:24Z</time>
      </trkpt>
      <trkpt lat="50.84523" lon="2.55807">
        <ele>18</ele>
        <time>2019-05-06T09:46:25Z</time>
      </trkpt>
      <trkpt lat="50.84523" lon="2.55804">
        <ele>18</ele>
        <time>2019-05-06T09:46:26Z</time>
      </trkpt>
      <trkpt lat="50.84521" lon="2.55802">
        <ele>18</ele>
        <time>2019-05-06T09:46:27Z</time>
      </trkpt>
      <trkpt lat="50.84521" lon="2.55799">
        <ele>18</ele>
        <time>2019-05-06T09:46:28Z</time>
      </trkpt>
      <trkpt lat="50.84519" lon="2.55796">
        <ele>18</ele>
        <time>2019-05-06T09:46:29Z</time>
      </trkpt>
      <trkpt lat="50.84517" lon="2.55795">
        <ele>18</ele>
        <time>2019-05-06T09:46:30Z</time>
      </trkpt>
      <trkpt lat="50.84516" lon="2.55792">
        <ele>18</ele>
        <time>2019-05-06T09:46:31Z</time>
      </trkpt>
      <trkpt lat="50.84502" lon="2.55773">
        <ele>18</ele>
        <time>2019-05-06T09:46:40Z</time>
      </trkpt>
      <trkpt lat="50.84489" lon="2.55753">
        <ele>18</ele>
        <time>2019-05-06T09:46:49Z</time>
      </trkpt>
      <trkpt lat="50.84477" lon="2.55728">
        <ele>18</ele>
        <time>2019-05-06T09:46:58Z</time>
      </trkpt>
      <trkpt lat="50.8447" lon="2.55721">
        <ele>18</ele>
        <time>2019-05-06T09:47:02Z</time>
      </trkpt>
      <trkpt lat="50.84468" lon="2.5572">
        <ele>18</ele>
        <time>2019-05-06T09:47:03Z</time>
      </trkpt>
      <trkpt lat="50.84466" lon="2.55718">
        <ele>18</ele>
        <time>2019-05-06T09:47:04Z</time>
      </trkpt>
      <trkpt lat="50.84464" lon="2.55715">
        <ele>18</ele>
        <time>2019-05-06T09:47:05Z</time>
      </trkpt>
      <trkpt lat="50.84463" lon="2.55713">
        <ele>18</ele>
        <time>2019-05-06T09:47:06Z</time>
      </trkpt>
      <trkpt lat="50.84461" lon="2.55712">
        <ele>18</ele>
        <time>2019-05-06T09:47:07Z</time>
      </trkpt>
      <trkpt lat="50.84459" lon="2.55711">
        <ele>18</ele>
        <time>2019-05-06T09:47:08Z</time>
      </trkpt>
      <trkpt lat="50.84458" lon="2.55708">
        <ele>18</ele>
        <time>2019-05-06T09:47:09Z</time>
      </trkpt>
      <trkpt lat="50.8445" lon="2.55692">
        <ele>19</ele>
        <time>2019-05-06T09:47:16Z</time>
      </trkpt>
      <trkpt lat="50.84449" lon="2.55691">
        <ele>19</ele>
        <time>2019-05-06T09:47:17Z</time>
      </trkpt>
      <trkpt lat="50.84447" lon="2.55688">
        <ele>19</ele>
        <time>2019-05-06T09:47:18Z</time>
      </trkpt>
      <trkpt lat="50.84446" lon="2.55686">
        <ele>19</ele>
        <time>2019-05-06T09:47:19Z</time>
      </trkpt>
      <trkpt lat="50.84444" lon="2.55685">
        <ele>19</ele>
        <time>2019-05-06T09:47:20Z</time>
      </trkpt>
      <trkpt lat="50.84442" lon="2.55683">
        <ele>19</ele>
        <time>2019-05-06T09:47:21Z</time>
      </trkpt>
      <trkpt lat="50.8444" lon="2.55682">
        <ele>19</ele>
        <time>2019-05-06T09:47:22Z</time>
      </trkpt>
      <trkpt lat="50.84438" lon="2.55681">
        <ele>19</ele>
        <time>2019-05-06T09:47:23Z</time>
      </trkpt>
      <trkpt lat="50.84436" lon="2.5568">
        <ele>19</ele>
        <time>2019-05-06T09:47:24Z</time>
      </trkpt>
      <trkpt lat="50.84435" lon="2.55677">
        <ele>19</ele>
        <time>2019-05-06T09:47:25Z</time>
      </trkpt>
      <trkpt lat="50.84433" lon="2.55675">
        <ele>19</ele>
        <time>2019-05-06T09:47:26Z</time>
      </trkpt>
      <trkpt lat="50.84431" lon="2.55673">
        <ele>19</ele>
        <time>2019-05-06T09:47:27Z</time>
      </trkpt>
      <trkpt lat="50.84415" lon="2.55652">
        <ele>19</ele>
        <time>2019-05-06T09:47:36Z</time>
      </trkpt>
      <trkpt lat="50.84401" lon="2.5563">
        <ele>20</ele>
        <time>2019-05-06T09:47:45Z</time>
      </trkpt>
      <trkpt lat="50.84387" lon="2.5561">
        <ele>20</ele>
        <time>2019-05-06T09:47:55Z</time>
      </trkpt>
      <trkpt lat="50.84374" lon="2.55587">
        <ele>20</ele>
        <time>2019-05-06T09:48:05Z</time>
      </trkpt>
      <trkpt lat="50.84358" lon="2.55572">
        <ele>20</ele>
        <time>2019-05-06T09:48:13Z</time>
      </trkpt>
      <trkpt lat="50.84345" lon="2.55553">
        <ele>21</ele>
        <time>2019-05-06T09:48:22Z</time>
      </trkpt>
      <trkpt lat="50.84338" lon="2.55544">
        <ele>21</ele>
        <time>2019-05-06T09:48:27Z</time>
      </trkpt>
      <trkpt lat="50.84337" lon="2.55544">
        <ele>21</ele>
        <time>2019-05-06T09:48:28Z</time>
      </trkpt>
      <trkpt lat="50.84334" lon="2.55542">
        <ele>21</ele>
        <time>2019-05-06T09:48:29Z</time>
      </trkpt>
      <trkpt lat="50.84333" lon="2.5554">
        <ele>21</ele>
        <time>2019-05-06T09:48:30Z</time>
      </trkpt>
      <trkpt lat="50.84331" lon="2.55538">
        <ele>21</ele>
        <time>2019-05-06T09:48:31Z</time>
      </trkpt>
      <trkpt lat="50.84329" lon="2.55536">
        <ele>21</ele>
        <time>2019-05-06T09:48:32Z</time>
      </trkpt>
      <trkpt lat="50.84313" lon="2.55518">
        <ele>21</ele>
        <time>2019-05-06T09:48:42Z</time>
      </trkpt>
      <trkpt lat="50.84296" lon="2.55502">
        <ele>21</ele>
        <time>2019-05-06T09:48:51Z</time>
      </trkpt>
      <trkpt lat="50.84279" lon="2.55489">
        <ele>21</ele>
        <time>2019-05-06T09:49:00Z</time>
      </trkpt>
      <trkpt lat="50.84261" lon="2.55475">
        <ele>21</ele>
        <time>2019-05-06T09:49:10Z</time>
      </trkpt>
      <trkpt lat="50.84244" lon="2.5546">
        <ele>21</ele>
        <time>2019-05-06T09:49:19Z</time>
      </trkpt>
      <trkpt lat="50.84231" lon="2.5544">
        <ele>22</ele>
        <time>2019-05-06T09:49:28Z</time>
      </trkpt>
      <trkpt lat="50.84216" lon="2.55422">
        <ele>22</ele>
        <time>2019-05-06T09:49:37Z</time>
      </trkpt>
      <trkpt lat="50.842" lon="2.55404">
        <ele>21</ele>
        <time>2019-05-06T09:49:46Z</time>
      </trkpt>
      <trkpt lat="50.84187" lon="2.55384">
        <ele>22</ele>
        <time>2019-05-06T09:49:55Z</time>
      </trkpt>
      <trkpt lat="50.84185" lon="2.55384">
        <ele>21</ele>
        <time>2019-05-06T09:49:56Z</time>
      </trkpt>
      <trkpt lat="50.84184" lon="2.55382">
        <ele>21</ele>
        <time>2019-05-06T09:49:57Z</time>
      </trkpt>
      <trkpt lat="50.84183" lon="2.55379">
        <ele>22</ele>
        <time>2019-05-06T09:49:58Z</time>
      </trkpt>
      <trkpt lat="50.84182" lon="2.55377">
        <ele>22</ele>
        <time>2019-05-06T09:49:59Z</time>
      </trkpt>
      <trkpt lat="50.8418" lon="2.55376">
        <ele>22</ele>
        <time>2019-05-06T09:50:00Z</time>
      </trkpt>
      <trkpt lat="50.84178" lon="2.55375">
        <ele>21</ele>
        <time>2019-05-06T09:50:01Z</time>
      </trkpt>
      <trkpt lat="50.84176" lon="2.55373">
        <ele>22</ele>
        <time>2019-05-06T09:50:02Z</time>
      </trkpt>
      <trkpt lat="50.84175" lon="2.55372">
        <ele>22</ele>
        <time>2019-05-06T09:50:03Z</time>
      </trkpt>
      <trkpt lat="50.84162" lon="2.55355">
        <ele>21</ele>
        <time>2019-05-06T09:50:10Z</time>
      </trkpt>
      <trkpt lat="50.84157" lon="2.55344">
        <ele>22</ele>
        <time>2019-05-06T09:50:14Z</time>
      </trkpt>
      <trkpt lat="50.84156" lon="2.55341">
        <ele>21</ele>
        <time>2019-05-06T09:50:15Z</time>
      </trkpt>
      <trkpt lat="50.84146" lon="2.5532">
        <ele>21</ele>
        <time>2019-05-06T09:50:24Z</time>
      </trkpt>
      <trkpt lat="50.84145" lon="2.55317">
        <ele>21</ele>
        <time>2019-05-06T09:50:25Z</time>
      </trkpt>
      <trkpt lat="50.84144" lon="2.55316">
        <ele>21</ele>
        <time>2019-05-06T09:50:26Z</time>
      </trkpt>
      <trkpt lat="50.84142" lon="2.55313">
        <ele>21</ele>
        <time>2019-05-06T09:50:27Z</time>
      </trkpt>
      <trkpt lat="50.8414" lon="2.5531">
        <ele>21</ele>
        <time>2019-05-06T09:50:28Z</time>
      </trkpt>
      <trkpt lat="50.8414" lon="2.55306">
        <ele>21</ele>
        <time>2019-05-06T09:50:29Z</time>
      </trkpt>
      <trkpt lat="50.84139" lon="2.55303">
        <ele>21</ele>
        <time>2019-05-06T09:50:30Z</time>
      </trkpt>
      <trkpt lat="50.84137" lon="2.553">
        <ele>21</ele>
        <time>2019-05-06T09:50:31Z</time>
      </trkpt>
      <trkpt lat="50.84137" lon="2.55298">
        <ele>21</ele>
        <time>2019-05-06T09:50:32Z</time>
      </trkpt>
      <trkpt lat="50.84136" lon="2.55295">
        <ele>21</ele>
        <time>2019-05-06T09:50:33Z</time>
      </trkpt>
      <trkpt lat="50.84127" lon="2.55262">
        <ele>20</ele>
        <time>2019-05-06T09:50:43Z</time>
      </trkpt>
      <trkpt lat="50.84117" lon="2.5523">
        <ele>20</ele>
        <time>2019-05-06T09:50:53Z</time>
      </trkpt>
      <trkpt lat="50.84106" lon="2.55204">
        <ele>20</ele>
        <time>2019-05-06T09:51:02Z</time>
      </trkpt>
      <trkpt lat="50.84098" lon="2.55172">
        <ele>19</ele>
        <time>2019-05-06T09:51:13Z</time>
      </trkpt>
      <trkpt lat="50.84096" lon="2.55167">
        <ele>19</ele>
        <time>2019-05-06T09:51:15Z</time>
      </trkpt>
      <trkpt lat="50.84084" lon="2.55141">
        <ele>19</ele>
        <time>2019-05-06T09:51:26Z</time>
      </trkpt>
      <trkpt lat="50.84068" lon="2.55117">
        <ele>19</ele>
        <time>2019-05-06T09:51:37Z</time>
      </trkpt>
      <trkpt lat="50.84059" lon="2.55104">
        <ele>19</ele>
        <time>2019-05-06T09:51:42Z</time>
      </trkpt>
      <trkpt lat="50.84046" lon="2.55078">
        <ele>19</ele>
        <time>2019-05-06T09:51:51Z</time>
      </trkpt>
      <trkpt lat="50.84032" lon="2.55058">
        <ele>20</ele>
        <time>2019-05-06T09:52:01Z</time>
      </trkpt>
      <trkpt lat="50.84014" lon="2.55041">
        <ele>20</ele>
        <time>2019-05-06T09:52:11Z</time>
      </trkpt>
      <trkpt lat="50.83995" lon="2.55023">
        <ele>19</ele>
        <time>2019-05-06T09:52:22Z</time>
      </trkpt>
      <trkpt lat="50.83983" lon="2.55012">
        <ele>20</ele>
        <time>2019-05-06T09:52:30Z</time>
      </trkpt>
      <trkpt lat="50.83982" lon="2.5501">
        <ele>20</ele>
        <time>2019-05-06T09:52:31Z</time>
      </trkpt>
      <trkpt lat="50.8398" lon="2.55009">
        <ele>20</ele>
        <time>2019-05-06T09:52:32Z</time>
      </trkpt>
      <trkpt lat="50.83979" lon="2.55008">
        <ele>20</ele>
        <time>2019-05-06T09:52:33Z</time>
      </trkpt>
      <trkpt lat="50.83978" lon="2.55006">
        <ele>20</ele>
        <time>2019-05-06T09:52:34Z</time>
      </trkpt>
      <trkpt lat="50.83977" lon="2.55004">
        <ele>20</ele>
        <time>2019-05-06T09:52:35Z</time>
      </trkpt>
      <trkpt lat="50.83975" lon="2.55002">
        <ele>20</ele>
        <time>2019-05-06T09:52:36Z</time>
      </trkpt>
      <trkpt lat="50.83973" lon="2.55001">
        <ele>20</ele>
        <time>2019-05-06T09:52:37Z</time>
      </trkpt>
      <trkpt lat="50.83972" lon="2.55">
        <ele>21</ele>
        <time>2019-05-06T09:52:38Z</time>
      </trkpt>
      <trkpt lat="50.8397" lon="2.54999">
        <ele>21</ele>
        <time>2019-05-06T09:52:39Z</time>
      </trkpt>
      <trkpt lat="50.83968" lon="2.54999">
        <ele>20</ele>
        <time>2019-05-06T09:52:40Z</time>
      </trkpt>
      <trkpt lat="50.83966" lon="2.54998">
        <ele>21</ele>
        <time>2019-05-06T09:52:41Z</time>
      </trkpt>
      <trkpt lat="50.83963" lon="2.54998">
        <ele>21</ele>
        <time>2019-05-06T09:52:42Z</time>
      </trkpt>
      <trkpt lat="50.83941" lon="2.5499">
        <ele>21</ele>
        <time>2019-05-06T09:52:53Z</time>
      </trkpt>
      <trkpt lat="50.83928" lon="2.54982">
        <ele>21</ele>
        <time>2019-05-06T09:53:01Z</time>
      </trkpt>
      <trkpt lat="50.83927" lon="2.54981">
        <ele>21</ele>
        <time>2019-05-06T09:53:02Z</time>
      </trkpt>
      <trkpt lat="50.83906" lon="2.54966">
        <ele>22</ele>
        <time>2019-05-06T09:53:13Z</time>
      </trkpt>
      <trkpt lat="50.83883" lon="2.54953">
        <ele>22</ele>
        <time>2019-05-06T09:53:24Z</time>
      </trkpt>
      <trkpt lat="50.83861" lon="2.54935">
        <ele>23</ele>
        <time>2019-05-06T09:53:36Z</time>
      </trkpt>
      <trkpt lat="50.83848" lon="2.54927">
        <ele>23</ele>
        <time>2019-05-06T09:53:43Z</time>
      </trkpt>
      <trkpt lat="50.83846" lon="2.54925">
        <ele>23</ele>
        <time>2019-05-06T09:53:44Z</time>
      </trkpt>
      <trkpt lat="50.83843" lon="2.54923">
        <ele>23</ele>
        <time>2019-05-06T09:53:45Z</time>
      </trkpt>
      <trkpt lat="50.83822" lon="2.54907">
        <ele>23</ele>
        <time>2019-05-06T09:53:54Z</time>
      </trkpt>
      <trkpt lat="50.83807" lon="2.54885">
        <ele>23</ele>
        <time>2019-05-06T09:54:04Z</time>
      </trkpt>
      <trkpt lat="50.83791" lon="2.54864">
        <ele>23</ele>
        <time>2019-05-06T09:54:15Z</time>
      </trkpt>
      <trkpt lat="50.83777" lon="2.54849">
        <ele>24</ele>
        <time>2019-05-06T09:54:25Z</time>
      </trkpt>
      <trkpt lat="50.83756" lon="2.54832">
        <ele>24</ele>
        <time>2019-05-06T09:54:34Z</time>
      </trkpt>
      <trkpt lat="50.83754" lon="2.5483">
        <ele>24</ele>
        <time>2019-05-06T09:54:35Z</time>
      </trkpt>
      <trkpt lat="50.83752" lon="2.54828">
        <ele>24</ele>
        <time>2019-05-06T09:54:36Z</time>
      </trkpt>
      <trkpt lat="50.8375" lon="2.54826">
        <ele>23</ele>
        <time>2019-05-06T09:54:37Z</time>
      </trkpt>
      <trkpt lat="50.83748" lon="2.54824">
        <ele>24</ele>
        <time>2019-05-06T09:54:38Z</time>
      </trkpt>
      <trkpt lat="50.83733" lon="2.54799">
        <ele>24</ele>
        <time>2019-05-06T09:54:48Z</time>
      </trkpt>
      <trkpt lat="50.83719" lon="2.54775">
        <ele>24</ele>
        <time>2019-05-06T09:54:59Z</time>
      </trkpt>
      <trkpt lat="50.83714" lon="2.54767">
        <ele>24</ele>
        <time>2019-05-06T09:55:03Z</time>
      </trkpt>
      <trkpt lat="50.83712" lon="2.54765">
        <ele>24</ele>
        <time>2019-05-06T09:55:04Z</time>
      </trkpt>
      <trkpt lat="50.83711" lon="2.54764">
        <ele>24</ele>
        <time>2019-05-06T09:55:05Z</time>
      </trkpt>
      <trkpt lat="50.83709" lon="2.54762">
        <ele>24</ele>
        <time>2019-05-06T09:55:06Z</time>
      </trkpt>
      <trkpt lat="50.83707" lon="2.5476">
        <ele>24</ele>
        <time>2019-05-06T09:55:07Z</time>
      </trkpt>
      <trkpt lat="50.83706" lon="2.54759">
        <ele>24</ele>
        <time>2019-05-06T09:55:08Z</time>
      </trkpt>
      <trkpt lat="50.83704" lon="2.54757">
        <ele>24</ele>
        <time>2019-05-06T09:55:09Z</time>
      </trkpt>
      <trkpt lat="50.83702" lon="2.54755">
        <ele>24</ele>
        <time>2019-05-06T09:55:10Z</time>
      </trkpt>
      <trkpt lat="50.83682" lon="2.54737">
        <ele>25</ele>
        <time>2019-05-06T09:55:19Z</time>
      </trkpt>
      <trkpt lat="50.83675" lon="2.54723">
        <ele>25</ele>
        <time>2019-05-06T09:55:27Z</time>
      </trkpt>
      <trkpt lat="50.83675" lon="2.5472">
        <ele>25</ele>
        <time>2019-05-06T09:55:28Z</time>
      </trkpt>
      <trkpt lat="50.83674" lon="2.54717">
        <ele>25</ele>
        <time>2019-05-06T09:55:29Z</time>
      </trkpt>
      <trkpt lat="50.83672" lon="2.54715">
        <ele>25</ele>
        <time>2019-05-06T09:55:30Z</time>
      </trkpt>
      <trkpt lat="50.8367" lon="2.54714">
        <ele>25</ele>
        <time>2019-05-06T09:55:31Z</time>
      </trkpt>
      <trkpt lat="50.83668" lon="2.54712">
        <ele>25</ele>
        <time>2019-05-06T09:55:32Z</time>
      </trkpt>
      <trkpt lat="50.83667" lon="2.54709">
        <ele>25</ele>
        <time>2019-05-06T09:55:33Z</time>
      </trkpt>
      <trkpt lat="50.83664" lon="2.54706">
        <ele>25</ele>
        <time>2019-05-06T09:55:34Z</time>
      </trkpt>
      <trkpt lat="50.83662" lon="2.54703">
        <ele>25</ele>
        <time>2019-05-06T09:55:35Z</time>
      </trkpt>
      <trkpt lat="50.8366" lon="2.54702">
        <ele>25</ele>
        <time>2019-05-06T09:55:36Z</time>
      </trkpt>
      <trkpt lat="50.83658" lon="2.547">
        <ele>25</ele>
        <time>2019-05-06T09:55:37Z</time>
      </trkpt>
      <trkpt lat="50.83656" lon="2.54697">
        <ele>25</ele>
        <time>2019-05-06T09:55:38Z</time>
      </trkpt>
      <trkpt lat="50.83637" lon="2.54677">
        <ele>25</ele>
        <time>2019-05-06T09:55:47Z</time>
      </trkpt>
      <trkpt lat="50.83621" lon="2.54657">
        <ele>25</ele>
        <time>2019-05-06T09:55:56Z</time>
      </trkpt>
      <trkpt lat="50.83605" lon="2.54637">
        <ele>26</ele>
        <time>2019-05-06T09:56:06Z</time>
      </trkpt>
      <trkpt lat="50.83591" lon="2.54618">
        <ele>25</ele>
        <time>2019-05-06T09:56:15Z</time>
      </trkpt>
      <trkpt lat="50.83581" lon="2.54606">
        <ele>26</ele>
        <time>2019-05-06T09:56:22Z</time>
      </trkpt>
      <trkpt lat="50.8358" lon="2.54603">
        <ele>25</ele>
        <time>2019-05-06T09:56:23Z</time>
      </trkpt>
      <trkpt lat="50.83573" lon="2.54591">
        <ele>26</ele>
        <time>2019-05-06T09:56:28Z</time>
      </trkpt>
      <trkpt lat="50.83555" lon="2.54576">
        <ele>26</ele>
        <time>2019-05-06T09:56:37Z</time>
      </trkpt>
      <trkpt lat="50.83538" lon="2.54558">
        <ele>26</ele>
        <time>2019-05-06T09:56:46Z</time>
      </trkpt>
      <trkpt lat="50.83523" lon="2.54542">
        <ele>26</ele>
        <time>2019-05-06T09:56:55Z</time>
      </trkpt>
      <trkpt lat="50.83509" lon="2.54519">
        <ele>26</ele>
        <time>2019-05-06T09:57:05Z</time>
      </trkpt>
      <trkpt lat="50.83496" lon="2.54498">
        <ele>27</ele>
        <time>2019-05-06T09:57:15Z</time>
      </trkpt>
      <trkpt lat="50.83482" lon="2.54473">
        <ele>26</ele>
        <time>2019-05-06T09:57:26Z</time>
      </trkpt>
      <trkpt lat="50.83462" lon="2.54461">
        <ele>26</ele>
        <time>2019-05-06T09:57:35Z</time>
      </trkpt>
      <trkpt lat="50.8346" lon="2.54459">
        <ele>26</ele>
        <time>2019-05-06T09:57:36Z</time>
      </trkpt>
      <trkpt lat="50.83458" lon="2.54456">
        <ele>26</ele>
        <time>2019-05-06T09:57:37Z</time>
      </trkpt>
      <trkpt lat="50.83456" lon="2.54455">
        <ele>26</ele>
        <time>2019-05-06T09:57:38Z</time>
      </trkpt>
      <trkpt lat="50.83454" lon="2.54454">
        <ele>26</ele>
        <time>2019-05-06T09:57:39Z</time>
      </trkpt>
      <trkpt lat="50.83452" lon="2.54452">
        <ele>26</ele>
        <time>2019-05-06T09:57:40Z</time>
      </trkpt>
      <trkpt lat="50.8345" lon="2.5445">
        <ele>26</ele>
        <time>2019-05-06T09:57:41Z</time>
      </trkpt>
      <trkpt lat="50.83431" lon="2.54437">
        <ele>26</ele>
        <time>2019-05-06T09:57:50Z</time>
      </trkpt>
      <trkpt lat="50.83414" lon="2.54422">
        <ele>26</ele>
        <time>2019-05-06T09:57:59Z</time>
      </trkpt>
      <trkpt lat="50.83398" lon="2.54408">
        <ele>25</ele>
        <time>2019-05-06T09:58:09Z</time>
      </trkpt>
      <trkpt lat="50.8338" lon="2.54393">
        <ele>26</ele>
        <time>2019-05-06T09:58:19Z</time>
      </trkpt>
      <trkpt lat="50.83362" lon="2.5438">
        <ele>25</ele>
        <time>2019-05-06T09:58:28Z</time>
      </trkpt>
      <trkpt lat="50.83351" lon="2.54371">
        <ele>25</ele>
        <time>2019-05-06T09:58:34Z</time>
      </trkpt>
      <trkpt lat="50.83349" lon="2.5437">
        <ele>25</ele>
        <time>2019-05-06T09:58:35Z</time>
      </trkpt>
      <trkpt lat="50.83347" lon="2.54368">
        <ele>25</ele>
        <time>2019-05-06T09:58:36Z</time>
      </trkpt>
      <trkpt lat="50.83345" lon="2.54365">
        <ele>25</ele>
        <time>2019-05-06T09:58:37Z</time>
      </trkpt>
      <trkpt lat="50.83343" lon="2.54364">
        <ele>26</ele>
        <time>2019-05-06T09:58:38Z</time>
      </trkpt>
      <trkpt lat="50.83341" lon="2.54363">
        <ele>26</ele>
        <time>2019-05-06T09:58:39Z</time>
      </trkpt>
      <trkpt lat="50.83324" lon="2.54346">
        <ele>26</ele>
        <time>2019-05-06T09:58:49Z</time>
      </trkpt>
      <trkpt lat="50.83307" lon="2.54328">
        <ele>26</ele>
        <time>2019-05-06T09:59:00Z</time>
      </trkpt>
      <trkpt lat="50.83288" lon="2.54312">
        <ele>24</ele>
        <time>2019-05-06T09:59:09Z</time>
      </trkpt>
      <trkpt lat="50.83271" lon="2.54294">
        <ele>26</ele>
        <time>2019-05-06T09:59:19Z</time>
      </trkpt>
      <trkpt lat="50.83254" lon="2.54274">
        <ele>26</ele>
        <time>2019-05-06T09:59:30Z</time>
      </trkpt>
      <trkpt lat="50.83235" lon="2.54264">
        <ele>26</ele>
        <time>2019-05-06T09:59:40Z</time>
      </trkpt>
      <trkpt lat="50.83215" lon="2.54248">
        <ele>26</ele>
        <time>2019-05-06T09:59:51Z</time>
      </trkpt>
      <trkpt lat="50.83195" lon="2.54229">
        <ele>27</ele>
        <time>2019-05-06T10:00:02Z</time>
      </trkpt>
      <trkpt lat="50.83177" lon="2.54211">
        <ele>27</ele>
        <time>2019-05-06T10:00:11Z</time>
      </trkpt>
      <trkpt lat="50.83158" lon="2.54196">
        <ele>28</ele>
        <time>2019-05-06T10:00:21Z</time>
      </trkpt>
      <trkpt lat="50.83152" lon="2.54188">
        <ele>28</ele>
        <time>2019-05-06T10:00:25Z</time>
      </trkpt>
      <trkpt lat="50.83151" lon="2.54186">
        <ele>28</ele>
        <time>2019-05-06T10:00:26Z</time>
      </trkpt>
      <trkpt lat="50.8315" lon="2.54184">
        <ele>28</ele>
        <time>2019-05-06T10:00:27Z</time>
      </trkpt>
      <trkpt lat="50.83148" lon="2.54182">
        <ele>28</ele>
        <time>2019-05-06T10:00:28Z</time>
      </trkpt>
      <trkpt lat="50.83146" lon="2.5418">
        <ele>28</ele>
        <time>2019-05-06T10:00:29Z</time>
      </trkpt>
      <trkpt lat="50.83144" lon="2.54179">
        <ele>28</ele>
        <time>2019-05-06T10:00:30Z</time>
      </trkpt>
      <trkpt lat="50.83142" lon="2.54177">
        <ele>28</ele>
        <time>2019-05-06T10:00:31Z</time>
      </trkpt>
      <trkpt lat="50.8314" lon="2.54175">
        <ele>28</ele>
        <time>2019-05-06T10:00:32Z</time>
      </trkpt>
      <trkpt lat="50.83138" lon="2.54173">
        <ele>28</ele>
        <time>2019-05-06T10:00:33Z</time>
      </trkpt>
      <trkpt lat="50.8312" lon="2.54155">
        <ele>28</ele>
        <time>2019-05-06T10:00:43Z</time>
      </trkpt>
      <trkpt lat="50.83102" lon="2.54136">
        <ele>29</ele>
        <time>2019-05-06T10:00:54Z</time>
      </trkpt>
      <trkpt lat="50.83081" lon="2.54125">
        <ele>30</ele>
        <time>2019-05-06T10:01:05Z</time>
      </trkpt>
      <trkpt lat="50.83062" lon="2.54116">
        <ele>30</ele>
        <time>2019-05-06T10:01:16Z</time>
      </trkpt>
      <trkpt lat="50.83041" lon="2.54107">
        <ele>31</ele>
        <time>2019-05-06T10:01:27Z</time>
      </trkpt>
      <trkpt lat="50.83039" lon="2.54107">
        <ele>31</ele>
        <time>2019-05-06T10:01:28Z</time>
      </trkpt>
      <trkpt lat="50.83037" lon="2.54107">
        <ele>31</ele>
        <time>2019-05-06T10:01:29Z</time>
      </trkpt>
      <trkpt lat="50.83035" lon="2.54106">
        <ele>31</ele>
        <time>2019-05-06T10:01:30Z</time>
      </trkpt>
      <trkpt lat="50.83019" lon="2.54099">
        <ele>31</ele>
        <time>2019-05-06T10:01:38Z</time>
      </trkpt>
      <trkpt lat="50.83017" lon="2.54099">
        <ele>31</ele>
        <time>2019-05-06T10:01:39Z</time>
      </trkpt>
      <trkpt lat="50.82994" lon="2.54092">
        <ele>33</ele>
        <time>2019-05-06T10:01:51Z</time>
      </trkpt>
      <trkpt lat="50.82973" lon="2.54084">
        <ele>33</ele>
        <time>2019-05-06T10:02:01Z</time>
      </trkpt>
      <trkpt lat="50.82956" lon="2.54076">
        <ele>34</ele>
        <time>2019-05-06T10:02:10Z</time>
      </trkpt>
      <trkpt lat="50.82954" lon="2.54075">
        <ele>34</ele>
        <time>2019-05-06T10:02:11Z</time>
      </trkpt>
      <trkpt lat="50.82952" lon="2.54074">
        <ele>34</ele>
        <time>2019-05-06T10:02:12Z</time>
      </trkpt>
      <trkpt lat="50.8295" lon="2.54073">
        <ele>34</ele>
        <time>2019-05-06T10:02:13Z</time>
      </trkpt>
      <trkpt lat="50.82948" lon="2.54073">
        <ele>34</ele>
        <time>2019-05-06T10:02:14Z</time>
      </trkpt>
      <trkpt lat="50.82946" lon="2.54072">
        <ele>35</ele>
        <time>2019-05-06T10:02:15Z</time>
      </trkpt>
      <trkpt lat="50.82924" lon="2.54063">
        <ele>36</ele>
        <time>2019-05-06T10:02:26Z</time>
      </trkpt>
      <trkpt lat="50.82902" lon="2.54054">
        <ele>37</ele>
        <time>2019-05-06T10:02:37Z</time>
      </trkpt>
      <trkpt lat="50.82882" lon="2.54047">
        <ele>38</ele>
        <time>2019-05-06T10:02:47Z</time>
      </trkpt>
      <trkpt lat="50.82879" lon="2.54047">
        <ele>38</ele>
        <time>2019-05-06T10:02:49Z</time>
      </trkpt>
      <trkpt lat="50.82857" lon="2.54038">
        <ele>39</ele>
        <time>2019-05-06T10:03:00Z</time>
      </trkpt>
      <trkpt lat="50.82853" lon="2.54034">
        <ele>39</ele>
        <time>2019-05-06T10:03:03Z</time>
      </trkpt>
      <trkpt lat="50.82851" lon="2.54031">
        <ele>39</ele>
        <time>2019-05-06T10:03:04Z</time>
      </trkpt>
      <trkpt lat="50.82849" lon="2.5403">
        <ele>39</ele>
        <time>2019-05-06T10:03:05Z</time>
      </trkpt>
      <trkpt lat="50.82847" lon="2.54029">
        <ele>39</ele>
        <time>2019-05-06T10:03:06Z</time>
      </trkpt>
      <trkpt lat="50.82846" lon="2.54027">
        <ele>39</ele>
        <time>2019-05-06T10:03:07Z</time>
      </trkpt>
      <trkpt lat="50.82844" lon="2.54025">
        <ele>39</ele>
        <time>2019-05-06T10:03:08Z</time>
      </trkpt>
      <trkpt lat="50.82842" lon="2.54023">
        <ele>39</ele>
        <time>2019-05-06T10:03:09Z</time>
      </trkpt>
      <trkpt lat="50.8284" lon="2.54023">
        <ele>40</ele>
        <time>2019-05-06T10:03:10Z</time>
      </trkpt>
      <trkpt lat="50.82838" lon="2.54022">
        <ele>40</ele>
        <time>2019-05-06T10:03:11Z</time>
      </trkpt>
      <trkpt lat="50.82836" lon="2.54021">
        <ele>40</ele>
        <time>2019-05-06T10:03:12Z</time>
      </trkpt>
      <trkpt lat="50.82834" lon="2.54019">
        <ele>40</ele>
        <time>2019-05-06T10:03:13Z</time>
      </trkpt>
      <trkpt lat="50.82832" lon="2.54017">
        <ele>40</ele>
        <time>2019-05-06T10:03:14Z</time>
      </trkpt>
      <trkpt lat="50.8283" lon="2.54015">
        <ele>40</ele>
        <time>2019-05-06T10:03:15Z</time>
      </trkpt>
      <trkpt lat="50.82828" lon="2.54013">
        <ele>40</ele>
        <time>2019-05-06T10:03:16Z</time>
      </trkpt>
      <trkpt lat="50.82827" lon="2.54011">
        <ele>40</ele>
        <time>2019-05-06T10:03:17Z</time>
      </trkpt>
      <trkpt lat="50.82825" lon="2.54008">
        <ele>40</ele>
        <time>2019-05-06T10:03:18Z</time>
      </trkpt>
      <trkpt lat="50.82823" lon="2.54005">
        <ele>40</ele>
        <time>2019-05-06T10:03:19Z</time>
      </trkpt>
      <trkpt lat="50.82822" lon="2.54003">
        <ele>40</ele>
        <time>2019-05-06T10:03:20Z</time>
      </trkpt>
      <trkpt lat="50.8282" lon="2.54001">
        <ele>40</ele>
        <time>2019-05-06T10:03:21Z</time>
      </trkpt>
      <trkpt lat="50.82818" lon="2.54">
        <ele>40</ele>
        <time>2019-05-06T10:03:22Z</time>
      </trkpt>
      <trkpt lat="50.82817" lon="2.53998">
        <ele>40</ele>
        <time>2019-05-06T10:03:23Z</time>
      </trkpt>
      <trkpt lat="50.82815" lon="2.53995">
        <ele>40</ele>
        <time>2019-05-06T10:03:24Z</time>
      </trkpt>
      <trkpt lat="50.82801" lon="2.5397">
        <ele>41</ele>
        <time>2019-05-06T10:03:35Z</time>
      </trkpt>
      <trkpt lat="50.82783" lon="2.5395">
        <ele>42</ele>
        <time>2019-05-06T10:03:45Z</time>
      </trkpt>
      <trkpt lat="50.82767" lon="2.53926">
        <ele>42</ele>
        <time>2019-05-06T10:03:56Z</time>
      </trkpt>
      <trkpt lat="50.8275" lon="2.53904">
        <ele>43</ele>
        <time>2019-05-06T10:04:07Z</time>
      </trkpt>
      <trkpt lat="50.82733" lon="2.53884">
        <ele>44</ele>
        <time>2019-05-06T10:04:17Z</time>
      </trkpt>
      <trkpt lat="50.82718" lon="2.5386">
        <ele>44</ele>
        <time>2019-05-06T10:04:28Z</time>
      </trkpt>
      <trkpt lat="50.82699" lon="2.53841">
        <ele>45</ele>
        <time>2019-05-06T10:04:39Z</time>
      </trkpt>
      <trkpt lat="50.8269" lon="2.53835">
        <ele>44</ele>
        <time>2019-05-06T10:04:43Z</time>
      </trkpt>
      <trkpt lat="50.82689" lon="2.53833">
        <ele>44</ele>
        <time>2019-05-06T10:04:44Z</time>
      </trkpt>
      <trkpt lat="50.82687" lon="2.53831">
        <ele>44</ele>
        <time>2019-05-06T10:04:45Z</time>
      </trkpt>
      <trkpt lat="50.82684" lon="2.5383">
        <ele>45</ele>
        <time>2019-05-06T10:04:46Z</time>
      </trkpt>
      <trkpt lat="50.82682" lon="2.53828">
        <ele>45</ele>
        <time>2019-05-06T10:04:47Z</time>
      </trkpt>
      <trkpt lat="50.82679" lon="2.53826">
        <ele>45</ele>
        <time>2019-05-06T10:04:48Z</time>
      </trkpt>
      <trkpt lat="50.82664" lon="2.53804">
        <ele>45</ele>
        <time>2019-05-06T10:04:57Z</time>
      </trkpt>
      <trkpt lat="50.82651" lon="2.5378">
        <ele>45</ele>
        <time>2019-05-06T10:05:06Z</time>
      </trkpt>
      <trkpt lat="50.82647" lon="2.5377">
        <ele>45</ele>
        <time>2019-05-06T10:05:10Z</time>
      </trkpt>
      <trkpt lat="50.82646" lon="2.53766">
        <ele>46</ele>
        <time>2019-05-06T10:05:11Z</time>
      </trkpt>
      <trkpt lat="50.82646" lon="2.53763">
        <ele>46</ele>
        <time>2019-05-06T10:05:12Z</time>
      </trkpt>
      <trkpt lat="50.82645" lon="2.5376">
        <ele>46</ele>
        <time>2019-05-06T10:05:13Z</time>
      </trkpt>
      <trkpt lat="50.82644" lon="2.53757">
        <ele>46</ele>
        <time>2019-05-06T10:05:14Z</time>
      </trkpt>
      <trkpt lat="50.82643" lon="2.53754">
        <ele>46</ele>
        <time>2019-05-06T10:05:15Z</time>
      </trkpt>
      <trkpt lat="50.82642" lon="2.5375">
        <ele>46</ele>
        <time>2019-05-06T10:05:16Z</time>
      </trkpt>
      <trkpt lat="50.82642" lon="2.53747">
        <ele>46</ele>
        <time>2019-05-06T10:05:17Z</time>
      </trkpt>
      <trkpt lat="50.82633" lon="2.53719">
        <ele>46</ele>
        <time>2019-05-06T10:05:26Z</time>
      </trkpt>
      <trkpt lat="50.82626" lon="2.53689">
        <ele>46</ele>
        <time>2019-05-06T10:05:35Z</time>
      </trkpt>
      <trkpt lat="50.82624" lon="2.53666">
        <ele>46</ele>
        <time>2019-05-06T10:05:42Z</time>
      </trkpt>
      <trkpt lat="50.82621" lon="2.53637">
        <ele>47</ele>
        <time>2019-05-06T10:05:51Z</time>
      </trkpt>
      <trkpt lat="50.82616" lon="2.53608">
        <ele>47</ele>
        <time>2019-05-06T10:06:00Z</time>
      </trkpt>
      <trkpt lat="50.82614" lon="2.53598">
        <ele>47</ele>
        <time>2019-05-06T10:06:03Z</time>
      </trkpt>
      <trkpt lat="50.82614" lon="2.53595">
        <ele>47</ele>
        <time>2019-05-06T10:06:04Z</time>
      </trkpt>
      <trkpt lat="50.82613" lon="2.53592">
        <ele>47</ele>
        <time>2019-05-06T10:06:05Z</time>
      </trkpt>
      <trkpt lat="50.82607" lon="2.53567">
        <ele>47</ele>
        <time>2019-05-06T10:06:14Z</time>
      </trkpt>
      <trkpt lat="50.82597" lon="2.53542">
        <ele>48</ele>
        <time>2019-05-06T10:06:23Z</time>
      </trkpt>
      <trkpt lat="50.82591" lon="2.53514">
        <ele>48</ele>
        <time>2019-05-06T10:06:33Z</time>
      </trkpt>
      <trkpt lat="50.82583" lon="2.53486">
        <ele>49</ele>
        <time>2019-05-06T10:06:43Z</time>
      </trkpt>
      <trkpt lat="50.82574" lon="2.53462">
        <ele>49</ele>
        <time>2019-05-06T10:06:52Z</time>
      </trkpt>
      <trkpt lat="50.82572" lon="2.5346">
        <ele>49</ele>
        <time>2019-05-06T10:06:53Z</time>
      </trkpt>
      <trkpt lat="50.82571" lon="2.53458">
        <ele>50</ele>
        <time>2019-05-06T10:06:54Z</time>
      </trkpt>
      <trkpt lat="50.8257" lon="2.53455">
        <ele>50</ele>
        <time>2019-05-06T10:06:55Z</time>
      </trkpt>
      <trkpt lat="50.82569" lon="2.53453">
        <ele>50</ele>
        <time>2019-05-06T10:06:56Z</time>
      </trkpt>
      <trkpt lat="50.82568" lon="2.5345">
        <ele>50</ele>
        <time>2019-05-06T10:06:57Z</time>
      </trkpt>
      <trkpt lat="50.82553" lon="2.53429">
        <ele>51</ele>
        <time>2019-05-06T10:07:07Z</time>
      </trkpt>
      <trkpt lat="50.8254" lon="2.53412">
        <ele>51</ele>
        <time>2019-05-06T10:07:17Z</time>
      </trkpt>
      <trkpt lat="50.82539" lon="2.53411">
        <ele>51</ele>
        <time>2019-05-06T10:07:18Z</time>
      </trkpt>
      <trkpt lat="50.82538" lon="2.53409">
        <ele>51</ele>
        <time>2019-05-06T10:07:19Z</time>
      </trkpt>
      <trkpt lat="50.82536" lon="2.53407">
        <ele>51</ele>
        <time>2019-05-06T10:07:20Z</time>
      </trkpt>
      <trkpt lat="50.82534" lon="2.53406">
        <ele>51</ele>
        <time>2019-05-06T10:07:21Z</time>
      </trkpt>
      <trkpt lat="50.82533" lon="2.53404">
        <ele>51</ele>
        <time>2019-05-06T10:07:22Z</time>
      </trkpt>
      <trkpt lat="50.82531" lon="2.53402">
        <ele>52</ele>
        <time>2019-05-06T10:07:23Z</time>
      </trkpt>
      <trkpt lat="50.82514" lon="2.53377">
        <ele>52</ele>
        <time>2019-05-06T10:07:34Z</time>
      </trkpt>
      <trkpt lat="50.82506" lon="2.53362">
        <ele>53</ele>
        <time>2019-05-06T10:07:40Z</time>
      </trkpt>
      <trkpt lat="50.82505" lon="2.53359">
        <ele>53</ele>
        <time>2019-05-06T10:07:41Z</time>
      </trkpt>
      <trkpt lat="50.82499" lon="2.53349">
        <ele>53</ele>
        <time>2019-05-06T10:07:46Z</time>
      </trkpt>
      <trkpt lat="50.82487" lon="2.53318">
        <ele>53</ele>
        <time>2019-05-06T10:07:57Z</time>
      </trkpt>
      <trkpt lat="50.82481" lon="2.53305">
        <ele>53</ele>
        <time>2019-05-06T10:08:02Z</time>
      </trkpt>
      <trkpt lat="50.82466" lon="2.5328">
        <ele>54</ele>
        <time>2019-05-06T10:08:12Z</time>
      </trkpt>
      <trkpt lat="50.82453" lon="2.53255">
        <ele>54</ele>
        <time>2019-05-06T10:08:21Z</time>
      </trkpt>
      <trkpt lat="50.82445" lon="2.53241">
        <ele>55</ele>
        <time>2019-05-06T10:08:27Z</time>
      </trkpt>
      <trkpt lat="50.82441" lon="2.53229">
        <ele>55</ele>
        <time>2019-05-06T10:08:31Z</time>
      </trkpt>
      <trkpt lat="50.82439" lon="2.53227">
        <ele>55</ele>
        <time>2019-05-06T10:08:32Z</time>
      </trkpt>
      <trkpt lat="50.82438" lon="2.53223">
        <ele>55</ele>
        <time>2019-05-06T10:08:34Z</time>
      </trkpt>
      <trkpt lat="50.82436" lon="2.53221">
        <ele>55</ele>
        <time>2019-05-06T10:08:35Z</time>
      </trkpt>
      <trkpt lat="50.82425" lon="2.53195">
        <ele>56</ele>
        <time>2019-05-06T10:08:44Z</time>
      </trkpt>
      <trkpt lat="50.82415" lon="2.5317">
        <ele>57</ele>
        <time>2019-05-06T10:08:53Z</time>
      </trkpt>
      <trkpt lat="50.82413" lon="2.53165">
        <ele>56</ele>
        <time>2019-05-06T10:08:55Z</time>
      </trkpt>
      <trkpt lat="50.82412" lon="2.53163">
        <ele>56</ele>
        <time>2019-05-06T10:08:56Z</time>
      </trkpt>
      <trkpt lat="50.82412" lon="2.5316">
        <ele>56</ele>
        <time>2019-05-06T10:08:57Z</time>
      </trkpt>
      <trkpt lat="50.82412" lon="2.53157">
        <ele>57</ele>
        <time>2019-05-06T10:08:58Z</time>
      </trkpt>
      <trkpt lat="50.8241" lon="2.53154">
        <ele>56</ele>
        <time>2019-05-06T10:08:59Z</time>
      </trkpt>
      <trkpt lat="50.82409" lon="2.53152">
        <ele>56</ele>
        <time>2019-05-06T10:09:00Z</time>
      </trkpt>
      <trkpt lat="50.82396" lon="2.53126">
        <ele>57</ele>
        <time>2019-05-06T10:09:10Z</time>
      </trkpt>
      <trkpt lat="50.82392" lon="2.5312">
        <ele>58</ele>
        <time>2019-05-06T10:09:13Z</time>
      </trkpt>
      <trkpt lat="50.8239" lon="2.53118">
        <ele>58</ele>
        <time>2019-05-06T10:09:14Z</time>
      </trkpt>
      <trkpt lat="50.82388" lon="2.53115">
        <ele>58</ele>
        <time>2019-05-06T10:09:15Z</time>
      </trkpt>
      <trkpt lat="50.8238" lon="2.53099">
        <ele>58</ele>
        <time>2019-05-06T10:09:21Z</time>
      </trkpt>
      <trkpt lat="50.82378" lon="2.53096">
        <ele>58</ele>
        <time>2019-05-06T10:09:22Z</time>
      </trkpt>
      <trkpt lat="50.82377" lon="2.53093">
        <ele>58</ele>
        <time>2019-05-06T10:09:23Z</time>
      </trkpt>
      <trkpt lat="50.82368" lon="2.53079">
        <ele>58</ele>
        <time>2019-05-06T10:09:29Z</time>
      </trkpt>
      <trkpt lat="50.82367" lon="2.53077">
        <ele>58</ele>
        <time>2019-05-06T10:09:30Z</time>
      </trkpt>
      <trkpt lat="50.82366" lon="2.53074">
        <ele>58</ele>
        <time>2019-05-06T10:09:31Z</time>
      </trkpt>
      <trkpt lat="50.82364" lon="2.53072">
        <ele>58</ele>
        <time>2019-05-06T10:09:32Z</time>
      </trkpt>
      <trkpt lat="50.82363" lon="2.53069">
        <ele>58</ele>
        <time>2019-05-06T10:09:33Z</time>
      </trkpt>
      <trkpt lat="50.82361" lon="2.53066">
        <ele>58</ele>
        <time>2019-05-06T10:09:34Z</time>
      </trkpt>
      <trkpt lat="50.82359" lon="2.53065">
        <ele>58</ele>
        <time>2019-05-06T10:09:35Z</time>
      </trkpt>
      <trkpt lat="50.82358" lon="2.53063">
        <ele>59</ele>
        <time>2019-05-06T10:09:36Z</time>
      </trkpt>
      <trkpt lat="50.82356" lon="2.53061">
        <ele>59</ele>
        <time>2019-05-06T10:09:37Z</time>
      </trkpt>
      <trkpt lat="50.82354" lon="2.53059">
        <ele>59</ele>
        <time>2019-05-06T10:09:38Z</time>
      </trkpt>
      <trkpt lat="50.82347" lon="2.53031">
        <ele>59</ele>
        <time>2019-05-06T10:09:48Z</time>
      </trkpt>
      <trkpt lat="50.82345" lon="2.53029">
        <ele>59</ele>
        <time>2019-05-06T10:09:49Z</time>
      </trkpt>
      <trkpt lat="50.82343" lon="2.53028">
        <ele>59</ele>
        <time>2019-05-06T10:09:50Z</time>
      </trkpt>
      <trkpt lat="50.82342" lon="2.53026">
        <ele>59</ele>
        <time>2019-05-06T10:09:51Z</time>
      </trkpt>
      <trkpt lat="50.8234" lon="2.53023">
        <ele>59</ele>
        <time>2019-05-06T10:09:52Z</time>
      </trkpt>
      <trkpt lat="50.82339" lon="2.5302">
        <ele>59</ele>
        <time>2019-05-06T10:09:53Z</time>
      </trkpt>
      <trkpt lat="50.82337" lon="2.53018">
        <ele>59</ele>
        <time>2019-05-06T10:09:54Z</time>
      </trkpt>
      <trkpt lat="50.82335" lon="2.53016">
        <ele>59</ele>
        <time>2019-05-06T10:09:55Z</time>
      </trkpt>
      <trkpt lat="50.82333" lon="2.53015">
        <ele>60</ele>
        <time>2019-05-06T10:09:56Z</time>
      </trkpt>
      <trkpt lat="50.82332" lon="2.53013">
        <ele>60</ele>
        <time>2019-05-06T10:09:57Z</time>
      </trkpt>
      <trkpt lat="50.82331" lon="2.53011">
        <ele>60</ele>
        <time>2019-05-06T10:09:58Z</time>
      </trkpt>
      <trkpt lat="50.8233" lon="2.53009">
        <ele>60</ele>
        <time>2019-05-06T10:09:59Z</time>
      </trkpt>
      <trkpt lat="50.82328" lon="2.53006">
        <ele>59</ele>
        <time>2019-05-06T10:10:00Z</time>
      </trkpt>
      <trkpt lat="50.82327" lon="2.53004">
        <ele>59</ele>
        <time>2019-05-06T10:10:01Z</time>
      </trkpt>
      <trkpt lat="50.82326" lon="2.53001">
        <ele>59</ele>
        <time>2019-05-06T10:10:02Z</time>
      </trkpt>
      <trkpt lat="50.82314" lon="2.52969">
        <ele>60</ele>
        <time>2019-05-06T10:10:14Z</time>
      </trkpt>
      <trkpt lat="50.82309" lon="2.52959">
        <ele>61</ele>
        <time>2019-05-06T10:10:19Z</time>
      </trkpt>
      <trkpt lat="50.82308" lon="2.52957">
        <ele>61</ele>
        <time>2019-05-06T10:10:20Z</time>
      </trkpt>
      <trkpt lat="50.82306" lon="2.52956">
        <ele>60</ele>
        <time>2019-05-06T10:10:21Z</time>
      </trkpt>
      <trkpt lat="50.82304" lon="2.52954">
        <ele>60</ele>
        <time>2019-05-06T10:10:22Z</time>
      </trkpt>
      <trkpt lat="50.82302" lon="2.52952">
        <ele>60</ele>
        <time>2019-05-06T10:10:23Z</time>
      </trkpt>
      <trkpt lat="50.82301" lon="2.5295">
        <ele>60</ele>
        <time>2019-05-06T10:10:24Z</time>
      </trkpt>
      <trkpt lat="50.823" lon="2.52948">
        <ele>60</ele>
        <time>2019-05-06T10:10:25Z</time>
      </trkpt>
      <trkpt lat="50.82299" lon="2.52946">
        <ele>60</ele>
        <time>2019-05-06T10:10:26Z</time>
      </trkpt>
      <trkpt lat="50.82298" lon="2.52943">
        <ele>60</ele>
        <time>2019-05-06T10:10:27Z</time>
      </trkpt>
      <trkpt lat="50.82287" lon="2.52919">
        <ele>61</ele>
        <time>2019-05-06T10:10:37Z</time>
      </trkpt>
      <trkpt lat="50.82286" lon="2.52917">
        <ele>61</ele>
        <time>2019-05-06T10:10:38Z</time>
      </trkpt>
      <trkpt lat="50.82284" lon="2.52916">
        <ele>61</ele>
        <time>2019-05-06T10:10:39Z</time>
      </trkpt>
      <trkpt lat="50.82263" lon="2.52898">
        <ele>62</ele>
        <time>2019-05-06T10:10:50Z</time>
      </trkpt>
      <trkpt lat="50.82243" lon="2.52879">
        <ele>62</ele>
        <time>2019-05-06T10:11:01Z</time>
      </trkpt>
      <trkpt lat="50.82224" lon="2.52865">
        <ele>63</ele>
        <time>2019-05-06T10:11:11Z</time>
      </trkpt>
      <trkpt lat="50.82209" lon="2.52853">
        <ele>63</ele>
        <time>2019-05-06T10:11:19Z</time>
      </trkpt>
      <trkpt lat="50.82207" lon="2.5285">
        <ele>63</ele>
        <time>2019-05-06T10:11:20Z</time>
      </trkpt>
      <trkpt lat="50.82205" lon="2.52849">
        <ele>63</ele>
        <time>2019-05-06T10:11:21Z</time>
      </trkpt>
      <trkpt lat="50.82203" lon="2.52848">
        <ele>63</ele>
        <time>2019-05-06T10:11:22Z</time>
      </trkpt>
      <trkpt lat="50.82201" lon="2.52846">
        <ele>63</ele>
        <time>2019-05-06T10:11:23Z</time>
      </trkpt>
      <trkpt lat="50.82184" lon="2.52826">
        <ele>64</ele>
        <time>2019-05-06T10:11:35Z</time>
      </trkpt>
      <trkpt lat="50.82162" lon="2.52814">
        <ele>64</ele>
        <time>2019-05-06T10:11:47Z</time>
      </trkpt>
      <trkpt lat="50.82147" lon="2.52804">
        <ele>65</ele>
        <time>2019-05-06T10:11:54Z</time>
      </trkpt>
      <trkpt lat="50.82145" lon="2.52803">
        <ele>65</ele>
        <time>2019-05-06T10:11:55Z</time>
      </trkpt>
      <trkpt lat="50.82142" lon="2.52802">
        <ele>65</ele>
        <time>2019-05-06T10:11:57Z</time>
      </trkpt>
      <trkpt lat="50.8214" lon="2.52801">
        <ele>65</ele>
        <time>2019-05-06T10:11:58Z</time>
      </trkpt>
      <trkpt lat="50.82138" lon="2.52799">
        <ele>65</ele>
        <time>2019-05-06T10:11:59Z</time>
      </trkpt>
      <trkpt lat="50.82135" lon="2.52796">
        <ele>65</ele>
        <time>2019-05-06T10:12:01Z</time>
      </trkpt>
      <trkpt lat="50.82133" lon="2.52795">
        <ele>65</ele>
        <time>2019-05-06T10:12:02Z</time>
      </trkpt>
      <trkpt lat="50.82131" lon="2.52794">
        <ele>65</ele>
        <time>2019-05-06T10:12:03Z</time>
      </trkpt>
      <trkpt lat="50.8213" lon="2.52791">
        <ele>65</ele>
        <time>2019-05-06T10:12:04Z</time>
      </trkpt>
      <trkpt lat="50.82128" lon="2.5279">
        <ele>65</ele>
        <time>2019-05-06T10:12:05Z</time>
      </trkpt>
      <trkpt lat="50.82127" lon="2.52788">
        <ele>65</ele>
        <time>2019-05-06T10:12:06Z</time>
      </trkpt>
      <trkpt lat="50.82126" lon="2.52787">
        <ele>65</ele>
        <time>2019-05-06T10:12:07Z</time>
      </trkpt>
      <trkpt lat="50.82124" lon="2.52786">
        <ele>65</ele>
        <time>2019-05-06T10:12:08Z</time>
      </trkpt>
      <trkpt lat="50.82121" lon="2.52784">
        <ele>65</ele>
        <time>2019-05-06T10:12:09Z</time>
      </trkpt>
      <trkpt lat="50.82101" lon="2.52763">
        <ele>66</ele>
        <time>2019-05-06T10:12:20Z</time>
      </trkpt>
      <trkpt lat="50.82084" lon="2.52738">
        <ele>66</ele>
        <time>2019-05-06T10:12:32Z</time>
      </trkpt>
      <trkpt lat="50.82066" lon="2.52715">
        <ele>67</ele>
        <time>2019-05-06T10:12:43Z</time>
      </trkpt>
      <trkpt lat="50.82048" lon="2.52696">
        <ele>67</ele>
        <time>2019-05-06T10:12:52Z</time>
      </trkpt>
      <trkpt lat="50.82032" lon="2.52678">
        <ele>67</ele>
        <time>2019-05-06T10:13:01Z</time>
      </trkpt>
      <trkpt lat="50.82014" lon="2.52659">
        <ele>67</ele>
        <time>2019-05-06T10:13:12Z</time>
      </trkpt>
      <trkpt lat="50.81997" lon="2.52639">
        <ele>68</ele>
        <time>2019-05-06T10:13:22Z</time>
      </trkpt>
      <trkpt lat="50.81978" lon="2.52624">
        <ele>68</ele>
        <time>2019-05-06T10:13:32Z</time>
      </trkpt>
      <trkpt lat="50.81959" lon="2.52614">
        <ele>67</ele>
        <time>2019-05-06T10:13:42Z</time>
      </trkpt>
      <trkpt lat="50.81942" lon="2.52596">
        <ele>66</ele>
        <time>2019-05-06T10:13:53Z</time>
      </trkpt>
      <trkpt lat="50.8193" lon="2.52583">
        <ele>66</ele>
        <time>2019-05-06T10:14:00Z</time>
      </trkpt>
      <trkpt lat="50.81926" lon="2.52581">
        <ele>66</ele>
        <time>2019-05-06T10:14:02Z</time>
      </trkpt>
      <trkpt lat="50.81925" lon="2.52579">
        <ele>66</ele>
        <time>2019-05-06T10:14:03Z</time>
      </trkpt>
      <trkpt lat="50.81923" lon="2.52578">
        <ele>66</ele>
        <time>2019-05-06T10:14:04Z</time>
      </trkpt>
      <trkpt lat="50.81922" lon="2.52577">
        <ele>66</ele>
        <time>2019-05-06T10:14:05Z</time>
      </trkpt>
      <trkpt lat="50.81921" lon="2.52575">
        <ele>66</ele>
        <time>2019-05-06T10:14:06Z</time>
      </trkpt>
      <trkpt lat="50.81919" lon="2.52573">
        <ele>66</ele>
        <time>2019-05-06T10:14:07Z</time>
      </trkpt>
      <trkpt lat="50.81918" lon="2.52571">
        <ele>66</ele>
        <time>2019-05-06T10:14:08Z</time>
      </trkpt>
      <trkpt lat="50.81916" lon="2.52571">
        <ele>65</ele>
        <time>2019-05-06T10:14:09Z</time>
      </trkpt>
      <trkpt lat="50.81915" lon="2.52569">
        <ele>66</ele>
        <time>2019-05-06T10:14:10Z</time>
      </trkpt>
      <trkpt lat="50.81913" lon="2.52567">
        <ele>66</ele>
        <time>2019-05-06T10:14:11Z</time>
      </trkpt>
      <trkpt lat="50.8191" lon="2.52564">
        <ele>66</ele>
        <time>2019-05-06T10:14:12Z</time>
      </trkpt>
      <trkpt lat="50.81908" lon="2.52562">
        <ele>66</ele>
        <time>2019-05-06T10:14:13Z</time>
      </trkpt>
      <trkpt lat="50.81906" lon="2.5256">
        <ele>66</ele>
        <time>2019-05-06T10:14:14Z</time>
      </trkpt>
      <trkpt lat="50.81904" lon="2.52559">
        <ele>66</ele>
        <time>2019-05-06T10:14:15Z</time>
      </trkpt>
      <trkpt lat="50.81902" lon="2.52558">
        <ele>66</ele>
        <time>2019-05-06T10:14:16Z</time>
      </trkpt>
      <trkpt lat="50.81901" lon="2.52557">
        <ele>66</ele>
        <time>2019-05-06T10:14:17Z</time>
      </trkpt>
      <trkpt lat="50.81899" lon="2.52556">
        <ele>66</ele>
        <time>2019-05-06T10:14:18Z</time>
      </trkpt>
      <trkpt lat="50.81897" lon="2.52555">
        <ele>65</ele>
        <time>2019-05-06T10:14:19Z</time>
      </trkpt>
      <trkpt lat="50.81894" lon="2.52553">
        <ele>65</ele>
        <time>2019-05-06T10:14:20Z</time>
      </trkpt>
      <trkpt lat="50.81892" lon="2.52551">
        <ele>65</ele>
        <time>2019-05-06T10:14:21Z</time>
      </trkpt>
      <trkpt lat="50.8189" lon="2.5255">
        <ele>65</ele>
        <time>2019-05-06T10:14:22Z</time>
      </trkpt>
      <trkpt lat="50.8187" lon="2.52534">
        <ele>65</ele>
        <time>2019-05-06T10:14:32Z</time>
      </trkpt>
      <trkpt lat="50.81868" lon="2.52532">
        <ele>65</ele>
        <time>2019-05-06T10:14:33Z</time>
      </trkpt>
      <trkpt lat="50.81866" lon="2.5253">
        <ele>65</ele>
        <time>2019-05-06T10:14:34Z</time>
      </trkpt>
      <trkpt lat="50.81864" lon="2.52529">
        <ele>65</ele>
        <time>2019-05-06T10:14:35Z</time>
      </trkpt>
      <trkpt lat="50.81862" lon="2.52527">
        <ele>65</ele>
        <time>2019-05-06T10:14:36Z</time>
      </trkpt>
      <trkpt lat="50.81861" lon="2.52525">
        <ele>65</ele>
        <time>2019-05-06T10:14:37Z</time>
      </trkpt>
      <trkpt lat="50.81859" lon="2.52524">
        <ele>66</ele>
        <time>2019-05-06T10:14:38Z</time>
      </trkpt>
      <trkpt lat="50.81857" lon="2.52522">
        <ele>66</ele>
        <time>2019-05-06T10:14:39Z</time>
      </trkpt>
      <trkpt lat="50.81835" lon="2.52512">
        <ele>66</ele>
        <time>2019-05-06T10:14:50Z</time>
      </trkpt>
      <trkpt lat="50.8182" lon="2.5251">
        <ele>66</ele>
        <time>2019-05-06T10:14:58Z</time>
      </trkpt>
      <trkpt lat="50.81819" lon="2.52511">
        <ele>66</ele>
        <time>2019-05-06T10:14:59Z</time>
      </trkpt>
      <trkpt lat="50.81817" lon="2.52511">
        <ele>66</ele>
        <time>2019-05-06T10:15:00Z</time>
      </trkpt>
      <trkpt lat="50.81815" lon="2.52511">
        <ele>66</ele>
        <time>2019-05-06T10:15:01Z</time>
      </trkpt>
      <trkpt lat="50.81813" lon="2.5251">
        <ele>66</ele>
        <time>2019-05-06T10:15:02Z</time>
      </trkpt>
      <trkpt lat="50.81811" lon="2.52511">
        <ele>67</ele>
        <time>2019-05-06T10:15:03Z</time>
      </trkpt>
      <trkpt lat="50.81809" lon="2.52511">
        <ele>67</ele>
        <time>2019-05-06T10:15:04Z</time>
      </trkpt>
      <trkpt lat="50.81785" lon="2.52511">
        <ele>67</ele>
        <time>2019-05-06T10:15:15Z</time>
      </trkpt>
      <trkpt lat="50.8178" lon="2.52511">
        <ele>66</ele>
        <time>2019-05-06T10:15:17Z</time>
      </trkpt>
      <trkpt lat="50.81779" lon="2.52511">
        <ele>66</ele>
        <time>2019-05-06T10:15:18Z</time>
      </trkpt>
      <trkpt lat="50.81755" lon="2.52514">
        <ele>67</ele>
        <time>2019-05-06T10:15:30Z</time>
      </trkpt>
      <trkpt lat="50.81741" lon="2.5251">
        <ele>67</ele>
        <time>2019-05-06T10:15:38Z</time>
      </trkpt>
      <trkpt lat="50.81739" lon="2.5251">
        <ele>67</ele>
        <time>2019-05-06T10:15:39Z</time>
      </trkpt>
      <trkpt lat="50.81737" lon="2.52509">
        <ele>68</ele>
        <time>2019-05-06T10:15:40Z</time>
      </trkpt>
      <trkpt lat="50.81735" lon="2.52508">
        <ele>67</ele>
        <time>2019-05-06T10:15:41Z</time>
      </trkpt>
      <trkpt lat="50.81733" lon="2.52508">
        <ele>68</ele>
        <time>2019-05-06T10:15:42Z</time>
      </trkpt>
      <trkpt lat="50.81731" lon="2.52509">
        <ele>67</ele>
        <time>2019-05-06T10:15:43Z</time>
      </trkpt>
      <trkpt lat="50.81706" lon="2.52507">
        <ele>68</ele>
        <time>2019-05-06T10:15:53Z</time>
      </trkpt>
      <trkpt lat="50.81683" lon="2.52505">
        <ele>67</ele>
        <time>2019-05-06T10:16:03Z</time>
      </trkpt>
      <trkpt lat="50.81659" lon="2.52505">
        <ele>67</ele>
        <time>2019-05-06T10:16:14Z</time>
      </trkpt>
      <trkpt lat="50.81637" lon="2.52505">
        <ele>66</ele>
        <time>2019-05-06T10:16:24Z</time>
      </trkpt>
      <trkpt lat="50.81615" lon="2.5251">
        <ele>66</ele>
        <time>2019-05-06T10:16:33Z</time>
      </trkpt>
      <trkpt lat="50.81594" lon="2.52517">
        <ele>66</ele>
        <time>2019-05-06T10:16:42Z</time>
      </trkpt>
      <trkpt lat="50.81574" lon="2.52526">
        <ele>65</ele>
        <time>2019-05-06T10:16:52Z</time>
      </trkpt>
      <trkpt lat="50.81555" lon="2.52538">
        <ele>65</ele>
        <time>2019-05-06T10:17:02Z</time>
      </trkpt>
      <trkpt lat="50.81552" lon="2.5254">
        <ele>65</ele>
        <time>2019-05-06T10:17:04Z</time>
      </trkpt>
      <trkpt lat="50.8155" lon="2.5254">
        <ele>65</ele>
        <time>2019-05-06T10:17:05Z</time>
      </trkpt>
      <trkpt lat="50.81547" lon="2.5254">
        <ele>65</ele>
        <time>2019-05-06T10:17:06Z</time>
      </trkpt>
      <trkpt lat="50.81545" lon="2.52541">
        <ele>65</ele>
        <time>2019-05-06T10:17:07Z</time>
      </trkpt>
      <trkpt lat="50.81543" lon="2.52541">
        <ele>65</ele>
        <time>2019-05-06T10:17:08Z</time>
      </trkpt>
      <trkpt lat="50.81541" lon="2.52542">
        <ele>65</ele>
        <time>2019-05-06T10:17:09Z</time>
      </trkpt>
      <trkpt lat="50.81519" lon="2.5254">
        <ele>64</ele>
        <time>2019-05-06T10:17:21Z</time>
      </trkpt>
      <trkpt lat="50.81496" lon="2.52526">
        <ele>63</ele>
        <time>2019-05-06T10:17:30Z</time>
      </trkpt>
      <trkpt lat="50.81477" lon="2.5251">
        <ele>62</ele>
        <time>2019-05-06T10:17:40Z</time>
      </trkpt>
      <trkpt lat="50.8146" lon="2.52487">
        <ele>60</ele>
        <time>2019-05-06T10:17:50Z</time>
      </trkpt>
      <trkpt lat="50.81446" lon="2.5246">
        <ele>58</ele>
        <time>2019-05-06T10:18:00Z</time>
      </trkpt>
      <trkpt lat="50.81429" lon="2.52436">
        <ele>56</ele>
        <time>2019-05-06T10:18:11Z</time>
      </trkpt>
      <trkpt lat="50.81417" lon="2.52419">
        <ele>55</ele>
        <time>2019-05-06T10:18:18Z</time>
      </trkpt>
      <trkpt lat="50.81415" lon="2.52417">
        <ele>55</ele>
        <time>2019-05-06T10:18:19Z</time>
      </trkpt>
      <trkpt lat="50.81414" lon="2.52415">
        <ele>55</ele>
        <time>2019-05-06T10:18:20Z</time>
      </trkpt>
      <trkpt lat="50.814" lon="2.5239">
        <ele>54</ele>
        <time>2019-05-06T10:18:30Z</time>
      </trkpt>
      <trkpt lat="50.81399" lon="2.52389">
        <ele>54</ele>
        <time>2019-05-06T10:18:31Z</time>
      </trkpt>
      <trkpt lat="50.81398" lon="2.52386">
        <ele>53</ele>
        <time>2019-05-06T10:18:32Z</time>
      </trkpt>
      <trkpt lat="50.81397" lon="2.52383">
        <ele>53</ele>
        <time>2019-05-06T10:18:33Z</time>
      </trkpt>
      <trkpt lat="50.81396" lon="2.5238">
        <ele>53</ele>
        <time>2019-05-06T10:18:34Z</time>
      </trkpt>
      <trkpt lat="50.81394" lon="2.52379">
        <ele>53</ele>
        <time>2019-05-06T10:18:35Z</time>
      </trkpt>
      <trkpt lat="50.81392" lon="2.52378">
        <ele>53</ele>
        <time>2019-05-06T10:18:36Z</time>
      </trkpt>
      <trkpt lat="50.8139" lon="2.52377">
        <ele>53</ele>
        <time>2019-05-06T10:18:37Z</time>
      </trkpt>
      <trkpt lat="50.81389" lon="2.52376">
        <ele>53</ele>
        <time>2019-05-06T10:18:38Z</time>
      </trkpt>
      <trkpt lat="50.81386" lon="2.52376">
        <ele>53</ele>
        <time>2019-05-06T10:18:39Z</time>
      </trkpt>
      <trkpt lat="50.81384" lon="2.52375">
        <ele>53</ele>
        <time>2019-05-06T10:18:40Z</time>
      </trkpt>
      <trkpt lat="50.81382" lon="2.52375">
        <ele>52</ele>
        <time>2019-05-06T10:18:41Z</time>
      </trkpt>
      <trkpt lat="50.81359" lon="2.52374">
        <ele>51</ele>
        <time>2019-05-06T10:18:51Z</time>
      </trkpt>
      <trkpt lat="50.81339" lon="2.52369">
        <ele>50</ele>
        <time>2019-05-06T10:19:01Z</time>
      </trkpt>
      <trkpt lat="50.81335" lon="2.52368">
        <ele>49</ele>
        <time>2019-05-06T10:19:03Z</time>
      </trkpt>
      <trkpt lat="50.81334" lon="2.52368">
        <ele>49</ele>
        <time>2019-05-06T10:19:04Z</time>
      </trkpt>
      <trkpt lat="50.81332" lon="2.52367">
        <ele>49</ele>
        <time>2019-05-06T10:19:05Z</time>
      </trkpt>
      <trkpt lat="50.8133" lon="2.52367">
        <ele>49</ele>
        <time>2019-05-06T10:19:06Z</time>
      </trkpt>
      <trkpt lat="50.81329" lon="2.52366">
        <ele>49</ele>
        <time>2019-05-06T10:19:07Z</time>
      </trkpt>
      <trkpt lat="50.81327" lon="2.52366">
        <ele>49</ele>
        <time>2019-05-06T10:19:08Z</time>
      </trkpt>
      <trkpt lat="50.81325" lon="2.52366">
        <ele>48</ele>
        <time>2019-05-06T10:19:09Z</time>
      </trkpt>
      <trkpt lat="50.81302" lon="2.52361">
        <ele>47</ele>
        <time>2019-05-06T10:19:19Z</time>
      </trkpt>
      <trkpt lat="50.8128" lon="2.52356">
        <ele>45</ele>
        <time>2019-05-06T10:19:29Z</time>
      </trkpt>
      <trkpt lat="50.81277" lon="2.52357">
        <ele>45</ele>
        <time>2019-05-06T10:19:30Z</time>
      </trkpt>
      <trkpt lat="50.81255" lon="2.52353">
        <ele>45</ele>
        <time>2019-05-06T10:19:40Z</time>
      </trkpt>
      <trkpt lat="50.81239" lon="2.52354">
        <ele>45</ele>
        <time>2019-05-06T10:19:48Z</time>
      </trkpt>
      <trkpt lat="50.81237" lon="2.52354">
        <ele>45</ele>
        <time>2019-05-06T10:19:49Z</time>
      </trkpt>
      <trkpt lat="50.81235" lon="2.52354">
        <ele>45</ele>
        <time>2019-05-06T10:19:50Z</time>
      </trkpt>
      <trkpt lat="50.81233" lon="2.52354">
        <ele>45</ele>
        <time>2019-05-06T10:19:51Z</time>
      </trkpt>
      <trkpt lat="50.81231" lon="2.52354">
        <ele>44</ele>
        <time>2019-05-06T10:19:52Z</time>
      </trkpt>
      <trkpt lat="50.81228" lon="2.52354">
        <ele>44</ele>
        <time>2019-05-06T10:19:53Z</time>
      </trkpt>
      <trkpt lat="50.81226" lon="2.52354">
        <ele>44</ele>
        <time>2019-05-06T10:19:54Z</time>
      </trkpt>
      <trkpt lat="50.81225" lon="2.52355">
        <ele>44</ele>
        <time>2019-05-06T10:19:55Z</time>
      </trkpt>
      <trkpt lat="50.81223" lon="2.52356">
        <ele>44</ele>
        <time>2019-05-06T10:19:56Z</time>
      </trkpt>
      <trkpt lat="50.81221" lon="2.52356">
        <ele>44</ele>
        <time>2019-05-06T10:19:57Z</time>
      </trkpt>
      <trkpt lat="50.81219" lon="2.52355">
        <ele>44</ele>
        <time>2019-05-06T10:19:58Z</time>
      </trkpt>
      <trkpt lat="50.81217" lon="2.52356">
        <ele>44</ele>
        <time>2019-05-06T10:19:59Z</time>
      </trkpt>
      <trkpt lat="50.81216" lon="2.52356">
        <ele>44</ele>
        <time>2019-05-06T10:20:00Z</time>
      </trkpt>
      <trkpt lat="50.81214" lon="2.52355">
        <ele>44</ele>
        <time>2019-05-06T10:20:01Z</time>
      </trkpt>
      <trkpt lat="50.81212" lon="2.52354">
        <ele>44</ele>
        <time>2019-05-06T10:20:02Z</time>
      </trkpt>
      <trkpt lat="50.8121" lon="2.52351">
        <ele>44</ele>
        <time>2019-05-06T10:20:03Z</time>
      </trkpt>
      <trkpt lat="50.81207" lon="2.52351">
        <ele>43</ele>
        <time>2019-05-06T10:20:04Z</time>
      </trkpt>
      <trkpt lat="50.81205" lon="2.5235">
        <ele>43</ele>
        <time>2019-05-06T10:20:05Z</time>
      </trkpt>
      <trkpt lat="50.81202" lon="2.52349">
        <ele>43</ele>
        <time>2019-05-06T10:20:06Z</time>
      </trkpt>
      <trkpt lat="50.812" lon="2.52348">
        <ele>43</ele>
        <time>2019-05-06T10:20:07Z</time>
      </trkpt>
      <trkpt lat="50.8118" lon="2.52333">
        <ele>43</ele>
        <time>2019-05-06T10:20:17Z</time>
      </trkpt>
      <trkpt lat="50.8116" lon="2.52313">
        <ele>43</ele>
        <time>2019-05-06T10:20:28Z</time>
      </trkpt>
      <trkpt lat="50.81146" lon="2.52302">
        <ele>43</ele>
        <time>2019-05-06T10:20:35Z</time>
      </trkpt>
      <trkpt lat="50.81128" lon="2.52284">
        <ele>44</ele>
        <time>2019-05-06T10:20:45Z</time>
      </trkpt>
      <trkpt lat="50.81114" lon="2.52267">
        <ele>44</ele>
        <time>2019-05-06T10:20:54Z</time>
      </trkpt>
      <trkpt lat="50.81113" lon="2.52265">
        <ele>44</ele>
        <time>2019-05-06T10:20:55Z</time>
      </trkpt>
      <trkpt lat="50.81111" lon="2.52263">
        <ele>44</ele>
        <time>2019-05-06T10:20:56Z</time>
      </trkpt>
      <trkpt lat="50.8111" lon="2.52262">
        <ele>44</ele>
        <time>2019-05-06T10:20:57Z</time>
      </trkpt>
      <trkpt lat="50.81108" lon="2.52261">
        <ele>44</ele>
        <time>2019-05-06T10:20:58Z</time>
      </trkpt>
      <trkpt lat="50.81107" lon="2.52259">
        <ele>44</ele>
        <time>2019-05-06T10:20:59Z</time>
      </trkpt>
      <trkpt lat="50.81106" lon="2.52257">
        <ele>44</ele>
        <time>2019-05-06T10:21:00Z</time>
      </trkpt>
      <trkpt lat="50.81105" lon="2.52254">
        <ele>44</ele>
        <time>2019-05-06T10:21:01Z</time>
      </trkpt>
      <trkpt lat="50.81103" lon="2.52252">
        <ele>45</ele>
        <time>2019-05-06T10:21:02Z</time>
      </trkpt>
      <trkpt lat="50.81102" lon="2.5225">
        <ele>45</ele>
        <time>2019-05-06T10:21:03Z</time>
      </trkpt>
      <trkpt lat="50.811" lon="2.52248">
        <ele>45</ele>
        <time>2019-05-06T10:21:04Z</time>
      </trkpt>
      <trkpt lat="50.81099" lon="2.52245">
        <ele>45</ele>
        <time>2019-05-06T10:21:05Z</time>
      </trkpt>
      <trkpt lat="50.81097" lon="2.52243">
        <ele>45</ele>
        <time>2019-05-06T10:21:06Z</time>
      </trkpt>
      <trkpt lat="50.81079" lon="2.5222">
        <ele>45</ele>
        <time>2019-05-06T10:21:18Z</time>
      </trkpt>
      <trkpt lat="50.81062" lon="2.52196">
        <ele>46</ele>
        <time>2019-05-06T10:21:29Z</time>
      </trkpt>
      <trkpt lat="50.81043" lon="2.52179">
        <ele>47</ele>
        <time>2019-05-06T10:21:40Z</time>
      </trkpt>
      <trkpt lat="50.81033" lon="2.52164">
        <ele>48</ele>
        <time>2019-05-06T10:21:47Z</time>
      </trkpt>
      <trkpt lat="50.81013" lon="2.52149">
        <ele>49</ele>
        <time>2019-05-06T10:21:58Z</time>
      </trkpt>
      <trkpt lat="50.80994" lon="2.52135">
        <ele>48</ele>
        <time>2019-05-06T10:22:07Z</time>
      </trkpt>
      <trkpt lat="50.80978" lon="2.52118">
        <ele>50</ele>
        <time>2019-05-06T10:22:17Z</time>
      </trkpt>
      <trkpt lat="50.80959" lon="2.52104">
        <ele>51</ele>
        <time>2019-05-06T10:22:27Z</time>
      </trkpt>
      <trkpt lat="50.80941" lon="2.52085">
        <ele>51</ele>
        <time>2019-05-06T10:22:37Z</time>
      </trkpt>
      <trkpt lat="50.80925" lon="2.52067">
        <ele>52</ele>
        <time>2019-05-06T10:22:48Z</time>
      </trkpt>
      <trkpt lat="50.8091" lon="2.52041">
        <ele>53</ele>
        <time>2019-05-06T10:22:59Z</time>
      </trkpt>
      <trkpt lat="50.80894" lon="2.52017">
        <ele>53</ele>
        <time>2019-05-06T10:23:10Z</time>
      </trkpt>
      <trkpt lat="50.80877" lon="2.51996">
        <ele>53</ele>
        <time>2019-05-06T10:23:20Z</time>
      </trkpt>
      <trkpt lat="50.80864" lon="2.5197">
        <ele>53</ele>
        <time>2019-05-06T10:23:29Z</time>
      </trkpt>
      <trkpt lat="50.8085" lon="2.51947">
        <ele>54</ele>
        <time>2019-05-06T10:23:38Z</time>
      </trkpt>
      <trkpt lat="50.80849" lon="2.51946">
        <ele>54</ele>
        <time>2019-05-06T10:23:39Z</time>
      </trkpt>
      <trkpt lat="50.80848" lon="2.51943">
        <ele>53</ele>
        <time>2019-05-06T10:23:40Z</time>
      </trkpt>
      <trkpt lat="50.80847" lon="2.51939">
        <ele>53</ele>
        <time>2019-05-06T10:23:41Z</time>
      </trkpt>
      <trkpt lat="50.80846" lon="2.51936">
        <ele>53</ele>
        <time>2019-05-06T10:23:42Z</time>
      </trkpt>
      <trkpt lat="50.80844" lon="2.51935">
        <ele>53</ele>
        <time>2019-05-06T10:23:43Z</time>
      </trkpt>
      <trkpt lat="50.80843" lon="2.51933">
        <ele>53</ele>
        <time>2019-05-06T10:23:44Z</time>
      </trkpt>
      <trkpt lat="50.80841" lon="2.5193">
        <ele>53</ele>
        <time>2019-05-06T10:23:45Z</time>
      </trkpt>
      <trkpt lat="50.8084" lon="2.51927">
        <ele>54</ele>
        <time>2019-05-06T10:23:46Z</time>
      </trkpt>
      <trkpt lat="50.80838" lon="2.51925">
        <ele>54</ele>
        <time>2019-05-06T10:23:47Z</time>
      </trkpt>
      <trkpt lat="50.80831" lon="2.51896">
        <ele>54</ele>
        <time>2019-05-06T10:23:56Z</time>
      </trkpt>
      <trkpt lat="50.80825" lon="2.5188">
        <ele>54</ele>
        <time>2019-05-06T10:24:01Z</time>
      </trkpt>
      <trkpt lat="50.8082" lon="2.51848">
        <ele>53</ele>
        <time>2019-05-06T10:24:10Z</time>
      </trkpt>
      <trkpt lat="50.80816" lon="2.51835">
        <ele>53</ele>
        <time>2019-05-06T10:24:14Z</time>
      </trkpt>
      <trkpt lat="50.80816" lon="2.51832">
        <ele>54</ele>
        <time>2019-05-06T10:24:15Z</time>
      </trkpt>
      <trkpt lat="50.80815" lon="2.51828">
        <ele>54</ele>
        <time>2019-05-06T10:24:16Z</time>
      </trkpt>
      <trkpt lat="50.80814" lon="2.51825">
        <ele>54</ele>
        <time>2019-05-06T10:24:17Z</time>
      </trkpt>
      <trkpt lat="50.80813" lon="2.51822">
        <ele>54</ele>
        <time>2019-05-06T10:24:18Z</time>
      </trkpt>
      <trkpt lat="50.80811" lon="2.51819">
        <ele>54</ele>
        <time>2019-05-06T10:24:19Z</time>
      </trkpt>
      <trkpt lat="50.80805" lon="2.51806">
        <ele>53</ele>
        <time>2019-05-06T10:24:25Z</time>
      </trkpt>
      <trkpt lat="50.80803" lon="2.51774">
        <ele>54</ele>
        <time>2019-05-06T10:24:34Z</time>
      </trkpt>
      <trkpt lat="50.8082" lon="2.51749">
        <ele>55</ele>
        <time>2019-05-06T10:24:44Z</time>
      </trkpt>
      <trkpt lat="50.80838" lon="2.51726">
        <ele>56</ele>
        <time>2019-05-06T10:24:54Z</time>
      </trkpt>
      <trkpt lat="50.80854" lon="2.51706">
        <ele>56</ele>
        <time>2019-05-06T10:25:03Z</time>
      </trkpt>
      <trkpt lat="50.80866" lon="2.51683">
        <ele>58</ele>
        <time>2019-05-06T10:25:14Z</time>
      </trkpt>
      <trkpt lat="50.80878" lon="2.5166">
        <ele>59</ele>
        <time>2019-05-06T10:25:24Z</time>
      </trkpt>
      <trkpt lat="50.80894" lon="2.51639">
        <ele>60</ele>
        <time>2019-05-06T10:25:34Z</time>
      </trkpt>
      <trkpt lat="50.80908" lon="2.51619">
        <ele>61</ele>
        <time>2019-05-06T10:25:43Z</time>
      </trkpt>
      <trkpt lat="50.80922" lon="2.516">
        <ele>61</ele>
        <time>2019-05-06T10:25:53Z</time>
      </trkpt>
      <trkpt lat="50.80936" lon="2.5158">
        <ele>61</ele>
        <time>2019-05-06T10:26:03Z</time>
      </trkpt>
      <trkpt lat="50.80948" lon="2.51556">
        <ele>62</ele>
        <time>2019-05-06T10:26:13Z</time>
      </trkpt>
      <trkpt lat="50.80962" lon="2.51535">
        <ele>63</ele>
        <time>2019-05-06T10:26:22Z</time>
      </trkpt>
      <trkpt lat="50.80974" lon="2.51511">
        <ele>63</ele>
        <time>2019-05-06T10:26:32Z</time>
      </trkpt>
      <trkpt lat="50.80987" lon="2.51485">
        <ele>64</ele>
        <time>2019-05-06T10:26:42Z</time>
      </trkpt>
      <trkpt lat="50.81003" lon="2.51467">
        <ele>63</ele>
        <time>2019-05-06T10:26:51Z</time>
      </trkpt>
      <trkpt lat="50.8102" lon="2.51454">
        <ele>63</ele>
        <time>2019-05-06T10:27:00Z</time>
      </trkpt>
      <trkpt lat="50.81038" lon="2.51444">
        <ele>62</ele>
        <time>2019-05-06T10:27:09Z</time>
      </trkpt>
      <trkpt lat="50.81057" lon="2.51432">
        <ele>62</ele>
        <time>2019-05-06T10:27:19Z</time>
      </trkpt>
      <trkpt lat="50.81075" lon="2.51421">
        <ele>62</ele>
        <time>2019-05-06T10:27:29Z</time>
      </trkpt>
      <trkpt lat="50.81092" lon="2.51405">
        <ele>64</ele>
        <time>2019-05-06T10:27:39Z</time>
      </trkpt>
      <trkpt lat="50.81109" lon="2.51387">
        <ele>63</ele>
        <time>2019-05-06T10:27:49Z</time>
      </trkpt>
      <trkpt lat="50.81127" lon="2.51372">
        <ele>63</ele>
        <time>2019-05-06T10:27:59Z</time>
      </trkpt>
      <trkpt lat="50.81139" lon="2.51365">
        <ele>61</ele>
        <time>2019-05-06T10:28:05Z</time>
      </trkpt>
      <trkpt lat="50.81145" lon="2.5136">
        <ele>62</ele>
        <time>2019-05-06T10:28:08Z</time>
      </trkpt>
      <trkpt lat="50.81164" lon="2.51347">
        <ele>62</ele>
        <time>2019-05-06T10:28:17Z</time>
      </trkpt>
      <trkpt lat="50.81184" lon="2.51334">
        <ele>62</ele>
        <time>2019-05-06T10:28:26Z</time>
      </trkpt>
      <trkpt lat="50.81202" lon="2.51322">
        <ele>61</ele>
        <time>2019-05-06T10:28:35Z</time>
      </trkpt>
      <trkpt lat="50.8122" lon="2.51309">
        <ele>61</ele>
        <time>2019-05-06T10:28:44Z</time>
      </trkpt>
      <trkpt lat="50.81238" lon="2.51298">
        <ele>61</ele>
        <time>2019-05-06T10:28:53Z</time>
      </trkpt>
      <trkpt lat="50.81255" lon="2.51287">
        <ele>60</ele>
        <time>2019-05-06T10:29:02Z</time>
      </trkpt>
      <trkpt lat="50.81272" lon="2.51274">
        <ele>59</ele>
        <time>2019-05-06T10:29:11Z</time>
      </trkpt>
      <trkpt lat="50.8129" lon="2.51262">
        <ele>59</ele>
        <time>2019-05-06T10:29:20Z</time>
      </trkpt>
      <trkpt lat="50.81308" lon="2.51254">
        <ele>58</ele>
        <time>2019-05-06T10:29:29Z</time>
      </trkpt>
      <trkpt lat="50.81325" lon="2.51243">
        <ele>59</ele>
        <time>2019-05-06T10:29:38Z</time>
      </trkpt>
      <trkpt lat="50.81343" lon="2.51233">
        <ele>59</ele>
        <time>2019-05-06T10:29:47Z</time>
      </trkpt>
      <trkpt lat="50.81363" lon="2.51227">
        <ele>58</ele>
        <time>2019-05-06T10:29:56Z</time>
      </trkpt>
      <trkpt lat="50.81382" lon="2.51221">
        <ele>60</ele>
        <time>2019-05-06T10:30:05Z</time>
      </trkpt>
      <trkpt lat="50.81398" lon="2.51212">
        <ele>60</ele>
        <time>2019-05-06T10:30:14Z</time>
      </trkpt>
      <trkpt lat="50.81415" lon="2.51203">
        <ele>60</ele>
        <time>2019-05-06T10:30:23Z</time>
      </trkpt>
      <trkpt lat="50.81433" lon="2.51193">
        <ele>59</ele>
        <time>2019-05-06T10:30:33Z</time>
      </trkpt>
      <trkpt lat="50.81453" lon="2.51186">
        <ele>58</ele>
        <time>2019-05-06T10:30:42Z</time>
      </trkpt>
      <trkpt lat="50.8147" lon="2.51176">
        <ele>57</ele>
        <time>2019-05-06T10:30:51Z</time>
      </trkpt>
      <trkpt lat="50.81487" lon="2.51162">
        <ele>56</ele>
        <time>2019-05-06T10:31:01Z</time>
      </trkpt>
      <trkpt lat="50.81505" lon="2.51147">
        <ele>54</ele>
        <time>2019-05-06T10:31:11Z</time>
      </trkpt>
      <trkpt lat="50.81522" lon="2.51131">
        <ele>53</ele>
        <time>2019-05-06T10:31:21Z</time>
      </trkpt>
      <trkpt lat="50.81526" lon="2.51126">
        <ele>53</ele>
        <time>2019-05-06T10:31:24Z</time>
      </trkpt>
      <trkpt lat="50.81528" lon="2.51124">
        <ele>53</ele>
        <time>2019-05-06T10:31:25Z</time>
      </trkpt>
      <trkpt lat="50.81529" lon="2.51122">
        <ele>53</ele>
        <time>2019-05-06T10:31:26Z</time>
      </trkpt>
      <trkpt lat="50.81547" lon="2.51107">
        <ele>52</ele>
        <time>2019-05-06T10:31:35Z</time>
      </trkpt>
      <trkpt lat="50.81568" lon="2.51095">
        <ele>52</ele>
        <time>2019-05-06T10:31:44Z</time>
      </trkpt>
      <trkpt lat="50.81588" lon="2.51094">
        <ele>52</ele>
        <time>2019-05-06T10:31:54Z</time>
      </trkpt>
      <trkpt lat="50.81608" lon="2.511">
        <ele>51</ele>
        <time>2019-05-06T10:32:04Z</time>
      </trkpt>
      <trkpt lat="50.81625" lon="2.51107">
        <ele>51</ele>
        <time>2019-05-06T10:32:13Z</time>
      </trkpt>
      <trkpt lat="50.81646" lon="2.51111">
        <ele>51</ele>
        <time>2019-05-06T10:32:23Z</time>
      </trkpt>
      <trkpt lat="50.81666" lon="2.51115">
        <ele>51</ele>
        <time>2019-05-06T10:32:32Z</time>
      </trkpt>
      <trkpt lat="50.81688" lon="2.51118">
        <ele>50</ele>
        <time>2019-05-06T10:32:42Z</time>
      </trkpt>
      <trkpt lat="50.8171" lon="2.51122">
        <ele>51</ele>
        <time>2019-05-06T10:32:52Z</time>
      </trkpt>
      <trkpt lat="50.8173" lon="2.51128">
        <ele>51</ele>
        <time>2019-05-06T10:33:01Z</time>
      </trkpt>
      <trkpt lat="50.81749" lon="2.51133">
        <ele>50</ele>
        <time>2019-05-06T10:33:09Z</time>
      </trkpt>
      <trkpt lat="50.81765" lon="2.5114">
        <ele>49</ele>
        <time>2019-05-06T10:33:17Z</time>
      </trkpt>
      <trkpt lat="50.81772" lon="2.51141">
        <ele>50</ele>
        <time>2019-05-06T10:33:21Z</time>
      </trkpt>
      <trkpt lat="50.81774" lon="2.51141">
        <ele>50</ele>
        <time>2019-05-06T10:33:22Z</time>
      </trkpt>
      <trkpt lat="50.81776" lon="2.5114">
        <ele>49</ele>
        <time>2019-05-06T10:33:23Z</time>
      </trkpt>
      <trkpt lat="50.81793" lon="2.51127">
        <ele>48</ele>
        <time>2019-05-06T10:33:32Z</time>
      </trkpt>
      <trkpt lat="50.81806" lon="2.5111">
        <ele>48</ele>
        <time>2019-05-06T10:33:41Z</time>
      </trkpt>
      <trkpt lat="50.81821" lon="2.5109">
        <ele>48</ele>
        <time>2019-05-06T10:33:51Z</time>
      </trkpt>
      <trkpt lat="50.81837" lon="2.51071">
        <ele>47</ele>
        <time>2019-05-06T10:34:01Z</time>
      </trkpt>
      <trkpt lat="50.81852" lon="2.51051">
        <ele>46</ele>
        <time>2019-05-06T10:34:11Z</time>
      </trkpt>
      <trkpt lat="50.8187" lon="2.51033">
        <ele>46</ele>
        <time>2019-05-06T10:34:21Z</time>
      </trkpt>
      <trkpt lat="50.81882" lon="2.51021">
        <ele>45</ele>
        <time>2019-05-06T10:34:27Z</time>
      </trkpt>
      <trkpt lat="50.81902" lon="2.51015">
        <ele>45</ele>
        <time>2019-05-06T10:34:36Z</time>
      </trkpt>
      <trkpt lat="50.81923" lon="2.51011">
        <ele>45</ele>
        <time>2019-05-06T10:34:45Z</time>
      </trkpt>
      <trkpt lat="50.81931" lon="2.5101">
        <ele>45</ele>
        <time>2019-05-06T10:34:48Z</time>
      </trkpt>
      <trkpt lat="50.81945" lon="2.51008">
        <ele>45</ele>
        <time>2019-05-06T10:34:54Z</time>
      </trkpt>
      <trkpt lat="50.81966" lon="2.50999">
        <ele>44</ele>
        <time>2019-05-06T10:35:03Z</time>
      </trkpt>
      <trkpt lat="50.81986" lon="2.50993">
        <ele>43</ele>
        <time>2019-05-06T10:35:12Z</time>
      </trkpt>
      <trkpt lat="50.82002" lon="2.50988">
        <ele>43</ele>
        <time>2019-05-06T10:35:20Z</time>
      </trkpt>
      <trkpt lat="50.82019" lon="2.50982">
        <ele>42</ele>
        <time>2019-05-06T10:35:29Z</time>
      </trkpt>
      <trkpt lat="50.82038" lon="2.50975">
        <ele>42</ele>
        <time>2019-05-06T10:35:38Z</time>
      </trkpt>
      <trkpt lat="50.82058" lon="2.50964">
        <ele>41</ele>
        <time>2019-05-06T10:35:47Z</time>
      </trkpt>
      <trkpt lat="50.82076" lon="2.50962">
        <ele>40</ele>
        <time>2019-05-06T10:35:56Z</time>
      </trkpt>
      <trkpt lat="50.82092" lon="2.50989">
        <ele>39</ele>
        <time>2019-05-06T10:36:06Z</time>
      </trkpt>
      <trkpt lat="50.82109" lon="2.51007">
        <ele>41</ele>
        <time>2019-05-06T10:36:16Z</time>
      </trkpt>
      <trkpt lat="50.82123" lon="2.51027">
        <ele>41</ele>
        <time>2019-05-06T10:36:26Z</time>
      </trkpt>
      <trkpt lat="50.82136" lon="2.51049">
        <ele>41</ele>
        <time>2019-05-06T10:36:35Z</time>
      </trkpt>
      <trkpt lat="50.8215" lon="2.5107">
        <ele>41</ele>
        <time>2019-05-06T10:36:45Z</time>
      </trkpt>
      <trkpt lat="50.82163" lon="2.51095">
        <ele>41</ele>
        <time>2019-05-06T10:36:55Z</time>
      </trkpt>
      <trkpt lat="50.82177" lon="2.51118">
        <ele>40</ele>
        <time>2019-05-06T10:37:05Z</time>
      </trkpt>
      <trkpt lat="50.82188" lon="2.51145">
        <ele>41</ele>
        <time>2019-05-06T10:37:14Z</time>
      </trkpt>
      <trkpt lat="50.82199" lon="2.51171">
        <ele>41</ele>
        <time>2019-05-06T10:37:23Z</time>
      </trkpt>
      <trkpt lat="50.82212" lon="2.51194">
        <ele>40</ele>
        <time>2019-05-06T10:37:33Z</time>
      </trkpt>
      <trkpt lat="50.82227" lon="2.51214">
        <ele>41</ele>
        <time>2019-05-06T10:37:42Z</time>
      </trkpt>
      <trkpt lat="50.82242" lon="2.51236">
        <ele>40</ele>
        <time>2019-05-06T10:37:52Z</time>
      </trkpt>
      <trkpt lat="50.82257" lon="2.51255">
        <ele>39</ele>
        <time>2019-05-06T10:38:02Z</time>
      </trkpt>
      <trkpt lat="50.82274" lon="2.51275">
        <ele>39</ele>
        <time>2019-05-06T10:38:12Z</time>
      </trkpt>
      <trkpt lat="50.8229" lon="2.51293">
        <ele>38</ele>
        <time>2019-05-06T10:38:21Z</time>
      </trkpt>
      <trkpt lat="50.82307" lon="2.51308">
        <ele>37</ele>
        <time>2019-05-06T10:38:30Z</time>
      </trkpt>
      <trkpt lat="50.82324" lon="2.51324">
        <ele>36</ele>
        <time>2019-05-06T10:38:40Z</time>
      </trkpt>
      <trkpt lat="50.8234" lon="2.51343">
        <ele>36</ele>
        <time>2019-05-06T10:38:50Z</time>
      </trkpt>
      <trkpt lat="50.82357" lon="2.51361">
        <ele>34</ele>
        <time>2019-05-06T10:39:00Z</time>
      </trkpt>
      <trkpt lat="50.82372" lon="2.51382">
        <ele>34</ele>
        <time>2019-05-06T10:39:09Z</time>
      </trkpt>
      <trkpt lat="50.82386" lon="2.51405">
        <ele>34</ele>
        <time>2019-05-06T10:39:18Z</time>
      </trkpt>
      <trkpt lat="50.82398" lon="2.51433">
        <ele>34</ele>
        <time>2019-05-06T10:39:27Z</time>
      </trkpt>
      <trkpt lat="50.82409" lon="2.51459">
        <ele>34</ele>
        <time>2019-05-06T10:39:36Z</time>
      </trkpt>
      <trkpt lat="50.82417" lon="2.51488">
        <ele>34</ele>
        <time>2019-05-06T10:39:46Z</time>
      </trkpt>
      <trkpt lat="50.82425" lon="2.51519">
        <ele>35</ele>
        <time>2019-05-06T10:39:56Z</time>
      </trkpt>
      <trkpt lat="50.82426" lon="2.51522">
        <ele>35</ele>
        <time>2019-05-06T10:39:57Z</time>
      </trkpt>
      <trkpt lat="50.82427" lon="2.51525">
        <ele>35</ele>
        <time>2019-05-06T10:39:58Z</time>
      </trkpt>
      <trkpt lat="50.82432" lon="2.51557">
        <ele>36</ele>
        <time>2019-05-06T10:40:08Z</time>
      </trkpt>
      <trkpt lat="50.82439" lon="2.51585">
        <ele>37</ele>
        <time>2019-05-06T10:40:17Z</time>
      </trkpt>
      <trkpt lat="50.82447" lon="2.51612">
        <ele>39</ele>
        <time>2019-05-06T10:40:28Z</time>
      </trkpt>
      <trkpt lat="50.82454" lon="2.51642">
        <ele>39</ele>
        <time>2019-05-06T10:40:38Z</time>
      </trkpt>
      <trkpt lat="50.82458" lon="2.5166">
        <ele>40</ele>
        <time>2019-05-06T10:40:44Z</time>
      </trkpt>
      <trkpt lat="50.82458" lon="2.51663">
        <ele>40</ele>
        <time>2019-05-06T10:40:45Z</time>
      </trkpt>
      <trkpt lat="50.82465" lon="2.51696">
        <ele>42</ele>
        <time>2019-05-06T10:40:56Z</time>
      </trkpt>
      <trkpt lat="50.82472" lon="2.51726">
        <ele>42</ele>
        <time>2019-05-06T10:41:06Z</time>
      </trkpt>
      <trkpt lat="50.82481" lon="2.51754">
        <ele>43</ele>
        <time>2019-05-06T10:41:17Z</time>
      </trkpt>
      <trkpt lat="50.82489" lon="2.51784">
        <ele>44</ele>
        <time>2019-05-06T10:41:27Z</time>
      </trkpt>
      <trkpt lat="50.82496" lon="2.51815">
        <ele>45</ele>
        <time>2019-05-06T10:41:37Z</time>
      </trkpt>
      <trkpt lat="50.82499" lon="2.51849">
        <ele>45</ele>
        <time>2019-05-06T10:41:48Z</time>
      </trkpt>
      <trkpt lat="50.82507" lon="2.51877">
        <ele>46</ele>
        <time>2019-05-06T10:41:58Z</time>
      </trkpt>
      <trkpt lat="50.82521" lon="2.51898">
        <ele>45</ele>
        <time>2019-05-06T10:42:08Z</time>
      </trkpt>
      <trkpt lat="50.82537" lon="2.5191">
        <ele>45</ele>
        <time>2019-05-06T10:42:18Z</time>
      </trkpt>
      <trkpt lat="50.82555" lon="2.51918">
        <ele>45</ele>
        <time>2019-05-06T10:42:28Z</time>
      </trkpt>
      <trkpt lat="50.82574" lon="2.51925">
        <ele>45</ele>
        <time>2019-05-06T10:42:38Z</time>
      </trkpt>
      <trkpt lat="50.82593" lon="2.51933">
        <ele>44</ele>
        <time>2019-05-06T10:42:49Z</time>
      </trkpt>
      <trkpt lat="50.82614" lon="2.51943">
        <ele>44</ele>
        <time>2019-05-06T10:43:00Z</time>
      </trkpt>
      <trkpt lat="50.82634" lon="2.51955">
        <ele>44</ele>
        <time>2019-05-06T10:43:10Z</time>
      </trkpt>
      <trkpt lat="50.82653" lon="2.51974">
        <ele>44</ele>
        <time>2019-05-06T10:43:20Z</time>
      </trkpt>
      <trkpt lat="50.82654" lon="2.51977">
        <ele>44</ele>
        <time>2019-05-06T10:43:21Z</time>
      </trkpt>
      <trkpt lat="50.82656" lon="2.5198">
        <ele>44</ele>
        <time>2019-05-06T10:43:22Z</time>
      </trkpt>
      <trkpt lat="50.82657" lon="2.51982">
        <ele>44</ele>
        <time>2019-05-06T10:43:23Z</time>
      </trkpt>
      <trkpt lat="50.82658" lon="2.51985">
        <ele>44</ele>
        <time>2019-05-06T10:43:24Z</time>
      </trkpt>
      <trkpt lat="50.82659" lon="2.51988">
        <ele>44</ele>
        <time>2019-05-06T10:43:25Z</time>
      </trkpt>
      <trkpt lat="50.82661" lon="2.51991">
        <ele>44</ele>
        <time>2019-05-06T10:43:26Z</time>
      </trkpt>
      <trkpt lat="50.82662" lon="2.51994">
        <ele>44</ele>
        <time>2019-05-06T10:43:27Z</time>
      </trkpt>
      <trkpt lat="50.82674" lon="2.52027">
        <ele>44</ele>
        <time>2019-05-06T10:43:37Z</time>
      </trkpt>
      <trkpt lat="50.82691" lon="2.52044">
        <ele>44</ele>
        <time>2019-05-06T10:43:47Z</time>
      </trkpt>
      <trkpt lat="50.82708" lon="2.5206">
        <ele>44</ele>
        <time>2019-05-06T10:43:56Z</time>
      </trkpt>
      <trkpt lat="50.82725" lon="2.52077">
        <ele>43</ele>
        <time>2019-05-06T10:44:06Z</time>
      </trkpt>
      <trkpt lat="50.82742" lon="2.52093">
        <ele>43</ele>
        <time>2019-05-06T10:44:15Z</time>
      </trkpt>
      <trkpt lat="50.82759" lon="2.52108">
        <ele>43</ele>
        <time>2019-05-06T10:44:24Z</time>
      </trkpt>
      <trkpt lat="50.82772" lon="2.52125">
        <ele>43</ele>
        <time>2019-05-06T10:44:32Z</time>
      </trkpt>
      <trkpt lat="50.82779" lon="2.52133">
        <ele>43</ele>
        <time>2019-05-06T10:44:36Z</time>
      </trkpt>
      <trkpt lat="50.8278" lon="2.52135">
        <ele>42</ele>
        <time>2019-05-06T10:44:37Z</time>
      </trkpt>
      <trkpt lat="50.82783" lon="2.52137">
        <ele>42</ele>
        <time>2019-05-06T10:44:38Z</time>
      </trkpt>
      <trkpt lat="50.82784" lon="2.52139">
        <ele>42</ele>
        <time>2019-05-06T10:44:39Z</time>
      </trkpt>
      <trkpt lat="50.82786" lon="2.52141">
        <ele>42</ele>
        <time>2019-05-06T10:44:40Z</time>
      </trkpt>
      <trkpt lat="50.82787" lon="2.52143">
        <ele>42</ele>
        <time>2019-05-06T10:44:41Z</time>
      </trkpt>
      <trkpt lat="50.82789" lon="2.52145">
        <ele>42</ele>
        <time>2019-05-06T10:44:42Z</time>
      </trkpt>
      <trkpt lat="50.82803" lon="2.52167">
        <ele>42</ele>
        <time>2019-05-06T10:44:51Z</time>
      </trkpt>
      <trkpt lat="50.82816" lon="2.52192">
        <ele>42</ele>
        <time>2019-05-06T10:45:01Z</time>
      </trkpt>
      <trkpt lat="50.82833" lon="2.52216">
        <ele>41</ele>
        <time>2019-05-06T10:45:11Z</time>
      </trkpt>
      <trkpt lat="50.8285" lon="2.52235">
        <ele>41</ele>
        <time>2019-05-06T10:45:21Z</time>
      </trkpt>
      <trkpt lat="50.82865" lon="2.52254">
        <ele>41</ele>
        <time>2019-05-06T10:45:31Z</time>
      </trkpt>
      <trkpt lat="50.82879" lon="2.52276">
        <ele>40</ele>
        <time>2019-05-06T10:45:41Z</time>
      </trkpt>
      <trkpt lat="50.82896" lon="2.52301">
        <ele>39</ele>
        <time>2019-05-06T10:45:51Z</time>
      </trkpt>
      <trkpt lat="50.82912" lon="2.52324">
        <ele>39</ele>
        <time>2019-05-06T10:46:00Z</time>
      </trkpt>
      <trkpt lat="50.82927" lon="2.52347">
        <ele>39</ele>
        <time>2019-05-06T10:46:10Z</time>
      </trkpt>
      <trkpt lat="50.82944" lon="2.52368">
        <ele>38</ele>
        <time>2019-05-06T10:46:20Z</time>
      </trkpt>
      <trkpt lat="50.82959" lon="2.52387">
        <ele>38</ele>
        <time>2019-05-06T10:46:30Z</time>
      </trkpt>
      <trkpt lat="50.82973" lon="2.52409">
        <ele>38</ele>
        <time>2019-05-06T10:46:40Z</time>
      </trkpt>
      <trkpt lat="50.82988" lon="2.5243">
        <ele>37</ele>
        <time>2019-05-06T10:46:50Z</time>
      </trkpt>
      <trkpt lat="50.83004" lon="2.5245">
        <ele>37</ele>
        <time>2019-05-06T10:47:00Z</time>
      </trkpt>
      <trkpt lat="50.8302" lon="2.52471">
        <ele>37</ele>
        <time>2019-05-06T10:47:10Z</time>
      </trkpt>
      <trkpt lat="50.83035" lon="2.52493">
        <ele>36</ele>
        <time>2019-05-06T10:47:20Z</time>
      </trkpt>
      <trkpt lat="50.83049" lon="2.52515">
        <ele>36</ele>
        <time>2019-05-06T10:47:30Z</time>
      </trkpt>
      <trkpt lat="50.83064" lon="2.52538">
        <ele>36</ele>
        <time>2019-05-06T10:47:40Z</time>
      </trkpt>
      <trkpt lat="50.83079" lon="2.52562">
        <ele>35</ele>
        <time>2019-05-06T10:47:50Z</time>
      </trkpt>
      <trkpt lat="50.83092" lon="2.52586">
        <ele>35</ele>
        <time>2019-05-06T10:48:00Z</time>
      </trkpt>
      <trkpt lat="50.83104" lon="2.52613">
        <ele>36</ele>
        <time>2019-05-06T10:48:10Z</time>
      </trkpt>
      <trkpt lat="50.83115" lon="2.52637">
        <ele>36</ele>
        <time>2019-05-06T10:48:19Z</time>
      </trkpt>
      <trkpt lat="50.83125" lon="2.52664">
        <ele>36</ele>
        <time>2019-05-06T10:48:28Z</time>
      </trkpt>
      <trkpt lat="50.83133" lon="2.52692">
        <ele>35</ele>
        <time>2019-05-06T10:48:37Z</time>
      </trkpt>
      <trkpt lat="50.8314" lon="2.5272">
        <ele>35</ele>
        <time>2019-05-06T10:48:46Z</time>
      </trkpt>
      <trkpt lat="50.83147" lon="2.52748">
        <ele>34</ele>
        <time>2019-05-06T10:48:55Z</time>
      </trkpt>
      <trkpt lat="50.83153" lon="2.52778">
        <ele>33</ele>
        <time>2019-05-06T10:49:04Z</time>
      </trkpt>
      <trkpt lat="50.8316" lon="2.52807">
        <ele>32</ele>
        <time>2019-05-06T10:49:13Z</time>
      </trkpt>
      <trkpt lat="50.83166" lon="2.52836">
        <ele>33</ele>
        <time>2019-05-06T10:49:22Z</time>
      </trkpt>
      <trkpt lat="50.83175" lon="2.52863">
        <ele>33</ele>
        <time>2019-05-06T10:49:31Z</time>
      </trkpt>
      <trkpt lat="50.83183" lon="2.52891">
        <ele>33</ele>
        <time>2019-05-06T10:49:40Z</time>
      </trkpt>
      <trkpt lat="50.8319" lon="2.52918">
        <ele>32</ele>
        <time>2019-05-06T10:49:48Z</time>
      </trkpt>
      <trkpt lat="50.83197" lon="2.52946">
        <ele>32</ele>
        <time>2019-05-06T10:49:56Z</time>
      </trkpt>
      <trkpt lat="50.83207" lon="2.52969">
        <ele>32</ele>
        <time>2019-05-06T10:50:04Z</time>
      </trkpt>
      <trkpt lat="50.83219" lon="2.52992">
        <ele>31</ele>
        <time>2019-05-06T10:50:13Z</time>
      </trkpt>
      <trkpt lat="50.83232" lon="2.53008">
        <ele>32</ele>
        <time>2019-05-06T10:50:22Z</time>
      </trkpt>
      <trkpt lat="50.83245" lon="2.53027">
        <ele>31</ele>
        <time>2019-05-06T10:50:31Z</time>
      </trkpt>
      <trkpt lat="50.83258" lon="2.53046">
        <ele>30</ele>
        <time>2019-05-06T10:50:40Z</time>
      </trkpt>
      <trkpt lat="50.83271" lon="2.53069">
        <ele>30</ele>
        <time>2019-05-06T10:50:49Z</time>
      </trkpt>
      <trkpt lat="50.83286" lon="2.53089">
        <ele>31</ele>
        <time>2019-05-06T10:50:58Z</time>
      </trkpt>
      <trkpt lat="50.833" lon="2.53107">
        <ele>30</ele>
        <time>2019-05-06T10:51:06Z</time>
      </trkpt>
      <trkpt lat="50.83314" lon="2.53126">
        <ele>30</ele>
        <time>2019-05-06T10:51:15Z</time>
      </trkpt>
      <trkpt lat="50.83327" lon="2.53145">
        <ele>30</ele>
        <time>2019-05-06T10:51:23Z</time>
      </trkpt>
      <trkpt lat="50.83341" lon="2.53163">
        <ele>30</ele>
        <time>2019-05-06T10:51:32Z</time>
      </trkpt>
      <trkpt lat="50.83357" lon="2.53179">
        <ele>30</ele>
        <time>2019-05-06T10:51:41Z</time>
      </trkpt>
      <trkpt lat="50.83371" lon="2.532">
        <ele>29</ele>
        <time>2019-05-06T10:51:50Z</time>
      </trkpt>
      <trkpt lat="50.83385" lon="2.53219">
        <ele>29</ele>
        <time>2019-05-06T10:51:59Z</time>
      </trkpt>
      <trkpt lat="50.834" lon="2.53239">
        <ele>29</ele>
        <time>2019-05-06T10:52:09Z</time>
      </trkpt>
      <trkpt lat="50.83416" lon="2.53259">
        <ele>29</ele>
        <time>2019-05-06T10:52:18Z</time>
      </trkpt>
      <trkpt lat="50.83429" lon="2.53275">
        <ele>29</ele>
        <time>2019-05-06T10:52:26Z</time>
      </trkpt>
      <trkpt lat="50.83442" lon="2.53297">
        <ele>29</ele>
        <time>2019-05-06T10:52:35Z</time>
      </trkpt>
      <trkpt lat="50.83453" lon="2.53324">
        <ele>28</ele>
        <time>2019-05-06T10:52:44Z</time>
      </trkpt>
      <trkpt lat="50.83464" lon="2.53351">
        <ele>28</ele>
        <time>2019-05-06T10:52:54Z</time>
      </trkpt>
      <trkpt lat="50.83474" lon="2.53377">
        <ele>28</ele>
        <time>2019-05-06T10:53:03Z</time>
      </trkpt>
      <trkpt lat="50.83484" lon="2.53403">
        <ele>27</ele>
        <time>2019-05-06T10:53:12Z</time>
      </trkpt>
      <trkpt lat="50.83497" lon="2.53428">
        <ele>27</ele>
        <time>2019-05-06T10:53:21Z</time>
      </trkpt>
      <trkpt lat="50.83509" lon="2.53451">
        <ele>26</ele>
        <time>2019-05-06T10:53:30Z</time>
      </trkpt>
      <trkpt lat="50.83526" lon="2.53467">
        <ele>26</ele>
        <time>2019-05-06T10:53:40Z</time>
      </trkpt>
      <trkpt lat="50.8354" lon="2.53484">
        <ele>26</ele>
        <time>2019-05-06T10:53:49Z</time>
      </trkpt>
      <trkpt lat="50.83556" lon="2.53503">
        <ele>26</ele>
        <time>2019-05-06T10:53:58Z</time>
      </trkpt>
      <trkpt lat="50.83571" lon="2.53521">
        <ele>26</ele>
        <time>2019-05-06T10:54:07Z</time>
      </trkpt>
      <trkpt lat="50.83587" lon="2.53538">
        <ele>26</ele>
        <time>2019-05-06T10:54:17Z</time>
      </trkpt>
      <trkpt lat="50.83602" lon="2.53558">
        <ele>25</ele>
        <time>2019-05-06T10:54:26Z</time>
      </trkpt>
      <trkpt lat="50.83617" lon="2.53578">
        <ele>25</ele>
        <time>2019-05-06T10:54:35Z</time>
      </trkpt>
      <trkpt lat="50.83634" lon="2.53596">
        <ele>25</ele>
        <time>2019-05-06T10:54:44Z</time>
      </trkpt>
      <trkpt lat="50.83648" lon="2.53615">
        <ele>25</ele>
        <time>2019-05-06T10:54:53Z</time>
      </trkpt>
      <trkpt lat="50.83662" lon="2.53635">
        <ele>24</ele>
        <time>2019-05-06T10:55:02Z</time>
      </trkpt>
      <trkpt lat="50.83676" lon="2.53659">
        <ele>25</ele>
        <time>2019-05-06T10:55:12Z</time>
      </trkpt>
      <trkpt lat="50.83684" lon="2.5369">
        <ele>25</ele>
        <time>2019-05-06T10:55:22Z</time>
      </trkpt>
      <trkpt lat="50.83692" lon="2.53721">
        <ele>25</ele>
        <time>2019-05-06T10:55:32Z</time>
      </trkpt>
      <trkpt lat="50.83694" lon="2.53734">
        <ele>25</ele>
        <time>2019-05-06T10:55:36Z</time>
      </trkpt>
      <trkpt lat="50.83704" lon="2.53762">
        <ele>25</ele>
        <time>2019-05-06T10:55:46Z</time>
      </trkpt>
      <trkpt lat="50.83705" lon="2.53765">
        <ele>25</ele>
        <time>2019-05-06T10:55:47Z</time>
      </trkpt>
      <trkpt lat="50.83706" lon="2.53767">
        <ele>25</ele>
        <time>2019-05-06T10:55:48Z</time>
      </trkpt>
      <trkpt lat="50.83708" lon="2.53769">
        <ele>25</ele>
        <time>2019-05-06T10:55:49Z</time>
      </trkpt>
      <trkpt lat="50.83709" lon="2.53772">
        <ele>25</ele>
        <time>2019-05-06T10:55:50Z</time>
      </trkpt>
      <trkpt lat="50.83711" lon="2.53774">
        <ele>25</ele>
        <time>2019-05-06T10:55:51Z</time>
      </trkpt>
      <trkpt lat="50.83712" lon="2.53776">
        <ele>25</ele>
        <time>2019-05-06T10:55:52Z</time>
      </trkpt>
      <trkpt lat="50.83727" lon="2.53796">
        <ele>25</ele>
        <time>2019-05-06T10:56:02Z</time>
      </trkpt>
      <trkpt lat="50.83744" lon="2.53812">
        <ele>26</ele>
        <time>2019-05-06T10:56:12Z</time>
      </trkpt>
      <trkpt lat="50.83762" lon="2.53825">
        <ele>27</ele>
        <time>2019-05-06T10:56:22Z</time>
      </trkpt>
      <trkpt lat="50.83779" lon="2.53837">
        <ele>27</ele>
        <time>2019-05-06T10:56:32Z</time>
      </trkpt>
      <trkpt lat="50.83798" lon="2.53853">
        <ele>27</ele>
        <time>2019-05-06T10:56:42Z</time>
      </trkpt>
      <trkpt lat="50.83816" lon="2.53868">
        <ele>28</ele>
        <time>2019-05-06T10:56:51Z</time>
      </trkpt>
      <trkpt lat="50.83833" lon="2.5388">
        <ele>27</ele>
        <time>2019-05-06T10:57:00Z</time>
      </trkpt>
      <trkpt lat="50.83851" lon="2.53892">
        <ele>28</ele>
        <time>2019-05-06T10:57:09Z</time>
      </trkpt>
      <trkpt lat="50.83861" lon="2.53899">
        <ele>28</ele>
        <time>2019-05-06T10:57:15Z</time>
      </trkpt>
      <trkpt lat="50.83863" lon="2.53901">
        <ele>28</ele>
        <time>2019-05-06T10:57:16Z</time>
      </trkpt>
      <trkpt lat="50.83864" lon="2.53902">
        <ele>28</ele>
        <time>2019-05-06T10:57:17Z</time>
      </trkpt>
      <trkpt lat="50.83866" lon="2.53903">
        <ele>28</ele>
        <time>2019-05-06T10:57:18Z</time>
      </trkpt>
      <trkpt lat="50.83867" lon="2.53904">
        <ele>28</ele>
        <time>2019-05-06T10:57:19Z</time>
      </trkpt>
      <trkpt lat="50.83868" lon="2.53905">
        <ele>28</ele>
        <time>2019-05-06T10:57:20Z</time>
      </trkpt>
      <trkpt lat="50.8387" lon="2.53907">
        <ele>28</ele>
        <time>2019-05-06T10:57:21Z</time>
      </trkpt>
      <trkpt lat="50.83888" lon="2.53919">
        <ele>28</ele>
        <time>2019-05-06T10:57:30Z</time>
      </trkpt>
      <trkpt lat="50.83907" lon="2.53932">
        <ele>29</ele>
        <time>2019-05-06T10:57:39Z</time>
      </trkpt>
      <trkpt lat="50.83926" lon="2.53946">
        <ele>28</ele>
        <time>2019-05-06T10:57:49Z</time>
      </trkpt>
      <trkpt lat="50.83943" lon="2.5396">
        <ele>28</ele>
        <time>2019-05-06T10:57:58Z</time>
      </trkpt>
      <trkpt lat="50.8396" lon="2.53975">
        <ele>28</ele>
        <time>2019-05-06T10:58:07Z</time>
      </trkpt>
      <trkpt lat="50.83977" lon="2.53995">
        <ele>28</ele>
        <time>2019-05-06T10:58:17Z</time>
      </trkpt>
      <trkpt lat="50.83992" lon="2.54014">
        <ele>28</ele>
        <time>2019-05-06T10:58:26Z</time>
      </trkpt>
      <trkpt lat="50.84008" lon="2.5403">
        <ele>28</ele>
        <time>2019-05-06T10:58:35Z</time>
      </trkpt>
      <trkpt lat="50.84023" lon="2.54048">
        <ele>28</ele>
        <time>2019-05-06T10:58:44Z</time>
      </trkpt>
      <trkpt lat="50.8404" lon="2.54064">
        <ele>28</ele>
        <time>2019-05-06T10:58:53Z</time>
      </trkpt>
      <trkpt lat="50.84056" lon="2.54081">
        <ele>27</ele>
        <time>2019-05-06T10:59:02Z</time>
      </trkpt>
      <trkpt lat="50.84072" lon="2.54099">
        <ele>28</ele>
        <time>2019-05-06T10:59:11Z</time>
      </trkpt>
      <trkpt lat="50.84081" lon="2.54108">
        <ele>27</ele>
        <time>2019-05-06T10:59:16Z</time>
      </trkpt>
      <trkpt lat="50.84082" lon="2.5411">
        <ele>27</ele>
        <time>2019-05-06T10:59:17Z</time>
      </trkpt>
      <trkpt lat="50.84097" lon="2.54128">
        <ele>27</ele>
        <time>2019-05-06T10:59:26Z</time>
      </trkpt>
      <trkpt lat="50.84114" lon="2.54142">
        <ele>27</ele>
        <time>2019-05-06T10:59:35Z</time>
      </trkpt>
      <trkpt lat="50.8413" lon="2.54145">
        <ele>27</ele>
        <time>2019-05-06T10:59:42Z</time>
      </trkpt>
      <trkpt lat="50.84132" lon="2.54146">
        <ele>27</ele>
        <time>2019-05-06T10:59:43Z</time>
      </trkpt>
      <trkpt lat="50.84149" lon="2.54153">
        <ele>27</ele>
        <time>2019-05-06T10:59:52Z</time>
      </trkpt>
      <trkpt lat="50.84168" lon="2.54154">
        <ele>26</ele>
        <time>2019-05-06T11:00:01Z</time>
      </trkpt>
      <trkpt lat="50.84188" lon="2.54155">
        <ele>26</ele>
        <time>2019-05-06T11:00:10Z</time>
      </trkpt>
      <trkpt lat="50.84207" lon="2.54149">
        <ele>26</ele>
        <time>2019-05-06T11:00:19Z</time>
      </trkpt>
      <trkpt lat="50.84226" lon="2.54144">
        <ele>26</ele>
        <time>2019-05-06T11:00:28Z</time>
      </trkpt>
      <trkpt lat="50.84244" lon="2.54141">
        <ele>26</ele>
        <time>2019-05-06T11:00:37Z</time>
      </trkpt>
      <trkpt lat="50.84264" lon="2.54139">
        <ele>26</ele>
        <time>2019-05-06T11:00:46Z</time>
      </trkpt>
      <trkpt lat="50.84283" lon="2.54138">
        <ele>25</ele>
        <time>2019-05-06T11:00:55Z</time>
      </trkpt>
      <trkpt lat="50.84301" lon="2.54135">
        <ele>25</ele>
        <time>2019-05-06T11:01:03Z</time>
      </trkpt>
      <trkpt lat="50.84318" lon="2.54133">
        <ele>25</ele>
        <time>2019-05-06T11:01:11Z</time>
      </trkpt>
      <trkpt lat="50.84337" lon="2.5413">
        <ele>25</ele>
        <time>2019-05-06T11:01:19Z</time>
      </trkpt>
      <trkpt lat="50.84354" lon="2.54128">
        <ele>25</ele>
        <time>2019-05-06T11:01:27Z</time>
      </trkpt>
      <trkpt lat="50.8437" lon="2.54128">
        <ele>25</ele>
        <time>2019-05-06T11:01:35Z</time>
      </trkpt>
      <trkpt lat="50.84389" lon="2.54128">
        <ele>25</ele>
        <time>2019-05-06T11:01:44Z</time>
      </trkpt>
      <trkpt lat="50.84407" lon="2.54124">
        <ele>25</ele>
        <time>2019-05-06T11:01:53Z</time>
      </trkpt>
      <trkpt lat="50.84424" lon="2.54114">
        <ele>25</ele>
        <time>2019-05-06T11:02:03Z</time>
      </trkpt>
      <trkpt lat="50.84441" lon="2.54107">
        <ele>25</ele>
        <time>2019-05-06T11:02:12Z</time>
      </trkpt>
      <trkpt lat="50.8446" lon="2.54097">
        <ele>25</ele>
        <time>2019-05-06T11:02:21Z</time>
      </trkpt>
      <trkpt lat="50.84476" lon="2.54087">
        <ele>25</ele>
        <time>2019-05-06T11:02:30Z</time>
      </trkpt>
      <trkpt lat="50.84496" lon="2.54084">
        <ele>26</ele>
        <time>2019-05-06T11:02:39Z</time>
      </trkpt>
      <trkpt lat="50.84516" lon="2.54079">
        <ele>26</ele>
        <time>2019-05-06T11:02:47Z</time>
      </trkpt>
      <trkpt lat="50.84534" lon="2.54073">
        <ele>26</ele>
        <time>2019-05-06T11:02:55Z</time>
      </trkpt>
      <trkpt lat="50.84552" lon="2.54073">
        <ele>25</ele>
        <time>2019-05-06T11:03:04Z</time>
      </trkpt>
      <trkpt lat="50.8457" lon="2.54081">
        <ele>25</ele>
        <time>2019-05-06T11:03:14Z</time>
      </trkpt>
      <trkpt lat="50.84588" lon="2.54093">
        <ele>25</ele>
        <time>2019-05-06T11:03:23Z</time>
      </trkpt>
      <trkpt lat="50.84607" lon="2.54109">
        <ele>25</ele>
        <time>2019-05-06T11:03:33Z</time>
      </trkpt>
      <trkpt lat="50.84626" lon="2.54119">
        <ele>25</ele>
        <time>2019-05-06T11:03:42Z</time>
      </trkpt>
      <trkpt lat="50.84644" lon="2.54133">
        <ele>25</ele>
        <time>2019-05-06T11:03:51Z</time>
      </trkpt>
      <trkpt lat="50.84662" lon="2.5414">
        <ele>25</ele>
        <time>2019-05-06T11:04:00Z</time>
      </trkpt>
      <trkpt lat="50.84663" lon="2.54139">
        <ele>25</ele>
        <time>2019-05-06T11:04:01Z</time>
      </trkpt>
      <trkpt lat="50.84665" lon="2.54137">
        <ele>25</ele>
        <time>2019-05-06T11:04:02Z</time>
      </trkpt>
      <trkpt lat="50.84679" lon="2.54119">
        <ele>25</ele>
        <time>2019-05-06T11:04:12Z</time>
      </trkpt>
      <trkpt lat="50.84692" lon="2.54098">
        <ele>24</ele>
        <time>2019-05-06T11:04:23Z</time>
      </trkpt>
      <trkpt lat="50.84713" lon="2.54081">
        <ele>23</ele>
        <time>2019-05-06T11:04:34Z</time>
      </trkpt>
      <trkpt lat="50.84732" lon="2.54064">
        <ele>23</ele>
        <time>2019-05-06T11:04:43Z</time>
      </trkpt>
      <trkpt lat="50.8475" lon="2.54046">
        <ele>24</ele>
        <time>2019-05-06T11:04:53Z</time>
      </trkpt>
      <trkpt lat="50.84764" lon="2.54025">
        <ele>24</ele>
        <time>2019-05-06T11:05:04Z</time>
      </trkpt>
      <trkpt lat="50.84779" lon="2.54003">
        <ele>24</ele>
        <time>2019-05-06T11:05:15Z</time>
      </trkpt>
      <trkpt lat="50.84782" lon="2.53998">
        <ele>24</ele>
        <time>2019-05-06T11:05:18Z</time>
      </trkpt>
      <trkpt lat="50.84784" lon="2.53995">
        <ele>24</ele>
        <time>2019-05-06T11:05:19Z</time>
      </trkpt>
      <trkpt lat="50.84785" lon="2.53993">
        <ele>24</ele>
        <time>2019-05-06T11:05:20Z</time>
      </trkpt>
      <trkpt lat="50.84786" lon="2.53991">
        <ele>24</ele>
        <time>2019-05-06T11:05:21Z</time>
      </trkpt>
      <trkpt lat="50.84787" lon="2.53989">
        <ele>24</ele>
        <time>2019-05-06T11:05:22Z</time>
      </trkpt>
      <trkpt lat="50.84788" lon="2.53987">
        <ele>24</ele>
        <time>2019-05-06T11:05:23Z</time>
      </trkpt>
      <trkpt lat="50.84789" lon="2.53984">
        <ele>24</ele>
        <time>2019-05-06T11:05:24Z</time>
      </trkpt>
      <trkpt lat="50.84805" lon="2.53957">
        <ele>24</ele>
        <time>2019-05-06T11:05:36Z</time>
      </trkpt>
      <trkpt lat="50.84822" lon="2.53932">
        <ele>23</ele>
        <time>2019-05-06T11:05:48Z</time>
      </trkpt>
      <trkpt lat="50.84845" lon="2.53911">
        <ele>22</ele>
        <time>2019-05-06T11:05:58Z</time>
      </trkpt>
      <trkpt lat="50.84866" lon="2.53894">
        <ele>21</ele>
        <time>2019-05-06T11:06:07Z</time>
      </trkpt>
      <trkpt lat="50.84884" lon="2.53876">
        <ele>20</ele>
        <time>2019-05-06T11:06:16Z</time>
      </trkpt>
      <trkpt lat="50.84902" lon="2.53859">
        <ele>22</ele>
        <time>2019-05-06T11:06:26Z</time>
      </trkpt>
      <trkpt lat="50.84919" lon="2.53842">
        <ele>22</ele>
        <time>2019-05-06T11:06:35Z</time>
      </trkpt>
      <trkpt lat="50.84937" lon="2.53825">
        <ele>23</ele>
        <time>2019-05-06T11:06:44Z</time>
      </trkpt>
      <trkpt lat="50.84956" lon="2.5381">
        <ele>23</ele>
        <time>2019-05-06T11:06:53Z</time>
      </trkpt>
      <trkpt lat="50.84975" lon="2.53796">
        <ele>22</ele>
        <time>2019-05-06T11:07:02Z</time>
      </trkpt>
      <trkpt lat="50.84991" lon="2.53782">
        <ele>22</ele>
        <time>2019-05-06T11:07:10Z</time>
      </trkpt>
      <trkpt lat="50.85002" lon="2.53759">
        <ele>22</ele>
        <time>2019-05-06T11:07:21Z</time>
      </trkpt>
      <trkpt lat="50.85002" lon="2.53756">
        <ele>22</ele>
        <time>2019-05-06T11:07:22Z</time>
      </trkpt>
      <trkpt lat="50.85004" lon="2.53754">
        <ele>22</ele>
        <time>2019-05-06T11:07:23Z</time>
      </trkpt>
      <trkpt lat="50.85015" lon="2.5373">
        <ele>22</ele>
        <time>2019-05-06T11:07:33Z</time>
      </trkpt>
      <trkpt lat="50.85027" lon="2.53704">
        <ele>21</ele>
        <time>2019-05-06T11:07:43Z</time>
      </trkpt>
      <trkpt lat="50.85035" lon="2.53685">
        <ele>21</ele>
        <time>2019-05-06T11:07:50Z</time>
      </trkpt>
      <trkpt lat="50.85047" lon="2.53656">
        <ele>21</ele>
        <time>2019-05-06T11:08:00Z</time>
      </trkpt>
      <trkpt lat="50.85058" lon="2.53628">
        <ele>21</ele>
        <time>2019-05-06T11:08:11Z</time>
      </trkpt>
      <trkpt lat="50.8507" lon="2.53598">
        <ele>21</ele>
        <time>2019-05-06T11:08:22Z</time>
      </trkpt>
      <trkpt lat="50.8508" lon="2.53569">
        <ele>20</ele>
        <time>2019-05-06T11:08:32Z</time>
      </trkpt>
      <trkpt lat="50.8509" lon="2.53539">
        <ele>20</ele>
        <time>2019-05-06T11:08:43Z</time>
      </trkpt>
      <trkpt lat="50.85101" lon="2.5351">
        <ele>20</ele>
        <time>2019-05-06T11:08:54Z</time>
      </trkpt>
      <trkpt lat="50.8512" lon="2.53484">
        <ele>19</ele>
        <time>2019-05-06T11:09:05Z</time>
      </trkpt>
      <trkpt lat="50.85144" lon="2.53469">
        <ele>19</ele>
        <time>2019-05-06T11:09:15Z</time>
      </trkpt>
      <trkpt lat="50.85164" lon="2.53452">
        <ele>20</ele>
        <time>2019-05-06T11:09:24Z</time>
      </trkpt>
      <trkpt lat="50.85184" lon="2.53435">
        <ele>20</ele>
        <time>2019-05-06T11:09:34Z</time>
      </trkpt>
      <trkpt lat="50.85202" lon="2.53416">
        <ele>20</ele>
        <time>2019-05-06T11:09:44Z</time>
      </trkpt>
      <trkpt lat="50.8522" lon="2.53402">
        <ele>21</ele>
        <time>2019-05-06T11:09:55Z</time>
      </trkpt>
      <trkpt lat="50.85236" lon="2.53381">
        <ele>21</ele>
        <time>2019-05-06T11:10:06Z</time>
      </trkpt>
      <trkpt lat="50.85247" lon="2.53366">
        <ele>21</ele>
        <time>2019-05-06T11:10:14Z</time>
      </trkpt>
      <trkpt lat="50.85258" lon="2.5335">
        <ele>21</ele>
        <time>2019-05-06T11:10:21Z</time>
      </trkpt>
      <trkpt lat="50.85266" lon="2.53342">
        <ele>21</ele>
        <time>2019-05-06T11:10:25Z</time>
      </trkpt>
      <trkpt lat="50.85288" lon="2.53332">
        <ele>22</ele>
        <time>2019-05-06T11:10:35Z</time>
      </trkpt>
      <trkpt lat="50.85312" lon="2.53326">
        <ele>22</ele>
        <time>2019-05-06T11:10:44Z</time>
      </trkpt>
      <trkpt lat="50.85333" lon="2.53325">
        <ele>22</ele>
        <time>2019-05-06T11:10:53Z</time>
      </trkpt>
      <trkpt lat="50.85351" lon="2.53322">
        <ele>22</ele>
        <time>2019-05-06T11:11:01Z</time>
      </trkpt>
      <trkpt lat="50.85369" lon="2.53319">
        <ele>22</ele>
        <time>2019-05-06T11:11:09Z</time>
      </trkpt>
      <trkpt lat="50.85388" lon="2.53315">
        <ele>22</ele>
        <time>2019-05-06T11:11:19Z</time>
      </trkpt>
      <trkpt lat="50.85407" lon="2.53308">
        <ele>21</ele>
        <time>2019-05-06T11:11:28Z</time>
      </trkpt>
      <trkpt lat="50.85426" lon="2.53299">
        <ele>21</ele>
        <time>2019-05-06T11:11:37Z</time>
      </trkpt>
      <trkpt lat="50.85444" lon="2.53292">
        <ele>21</ele>
        <time>2019-05-06T11:11:46Z</time>
      </trkpt>
      <trkpt lat="50.85463" lon="2.53286">
        <ele>22</ele>
        <time>2019-05-06T11:11:55Z</time>
      </trkpt>
      <trkpt lat="50.85473" lon="2.53283">
        <ele>22</ele>
        <time>2019-05-06T11:12:00Z</time>
      </trkpt>
      <trkpt lat="50.85492" lon="2.53275">
        <ele>21</ele>
        <time>2019-05-06T11:12:09Z</time>
      </trkpt>
      <trkpt lat="50.85511" lon="2.53268">
        <ele>21</ele>
        <time>2019-05-06T11:12:17Z</time>
      </trkpt>
      <trkpt lat="50.85531" lon="2.53268">
        <ele>21</ele>
        <time>2019-05-06T11:12:26Z</time>
      </trkpt>
      <trkpt lat="50.85551" lon="2.53269">
        <ele>21</ele>
        <time>2019-05-06T11:12:35Z</time>
      </trkpt>
      <trkpt lat="50.8557" lon="2.53272">
        <ele>20</ele>
        <time>2019-05-06T11:12:44Z</time>
      </trkpt>
      <trkpt lat="50.85588" lon="2.53275">
        <ele>20</ele>
        <time>2019-05-06T11:12:52Z</time>
      </trkpt>
      <trkpt lat="50.85605" lon="2.53279">
        <ele>20</ele>
        <time>2019-05-06T11:13:01Z</time>
      </trkpt>
      <trkpt lat="50.85623" lon="2.53284">
        <ele>20</ele>
        <time>2019-05-06T11:13:11Z</time>
      </trkpt>
      <trkpt lat="50.85642" lon="2.53292">
        <ele>18</ele>
        <time>2019-05-06T11:13:20Z</time>
      </trkpt>
      <trkpt lat="50.85662" lon="2.533">
        <ele>18</ele>
        <time>2019-05-06T11:13:30Z</time>
      </trkpt>
      <trkpt lat="50.85678" lon="2.53301">
        <ele>19</ele>
        <time>2019-05-06T11:13:38Z</time>
      </trkpt>
      <trkpt lat="50.8568" lon="2.53301">
        <ele>19</ele>
        <time>2019-05-06T11:13:39Z</time>
      </trkpt>
      <trkpt lat="50.85695" lon="2.53306">
        <ele>19</ele>
        <time>2019-05-06T11:13:47Z</time>
      </trkpt>
      <trkpt lat="50.85697" lon="2.53306">
        <ele>19</ele>
        <time>2019-05-06T11:13:48Z</time>
      </trkpt>
      <trkpt lat="50.85699" lon="2.53306">
        <ele>19</ele>
        <time>2019-05-06T11:13:49Z</time>
      </trkpt>
      <trkpt lat="50.85721" lon="2.53312">
        <ele>19</ele>
        <time>2019-05-06T11:13:59Z</time>
      </trkpt>
      <trkpt lat="50.8574" lon="2.53321">
        <ele>19</ele>
        <time>2019-05-06T11:14:09Z</time>
      </trkpt>
      <trkpt lat="50.8576" lon="2.53322">
        <ele>18</ele>
        <time>2019-05-06T11:14:18Z</time>
      </trkpt>
      <trkpt lat="50.8578" lon="2.53328">
        <ele>18</ele>
        <time>2019-05-06T11:14:27Z</time>
      </trkpt>
      <trkpt lat="50.85801" lon="2.53334">
        <ele>18</ele>
        <time>2019-05-06T11:14:36Z</time>
      </trkpt>
      <trkpt lat="50.85819" lon="2.53338">
        <ele>18</ele>
        <time>2019-05-06T11:14:45Z</time>
      </trkpt>
      <trkpt lat="50.85839" lon="2.5334">
        <ele>18</ele>
        <time>2019-05-06T11:14:54Z</time>
      </trkpt>
      <trkpt lat="50.85859" lon="2.53342">
        <ele>18</ele>
        <time>2019-05-06T11:15:03Z</time>
      </trkpt>
      <trkpt lat="50.85879" lon="2.53343">
        <ele>18</ele>
        <time>2019-05-06T11:15:12Z</time>
      </trkpt>
      <trkpt lat="50.85897" lon="2.53349">
        <ele>18</ele>
        <time>2019-05-06T11:15:21Z</time>
      </trkpt>
      <trkpt lat="50.85916" lon="2.53353">
        <ele>18</ele>
        <time>2019-05-06T11:15:30Z</time>
      </trkpt>
      <trkpt lat="50.85936" lon="2.53354">
        <ele>18</ele>
        <time>2019-05-06T11:15:39Z</time>
      </trkpt>
      <trkpt lat="50.85955" lon="2.53356">
        <ele>18</ele>
        <time>2019-05-06T11:15:48Z</time>
      </trkpt>
      <trkpt lat="50.85974" lon="2.53355">
        <ele>18</ele>
        <time>2019-05-06T11:15:57Z</time>
      </trkpt>
      <trkpt lat="50.85993" lon="2.53355">
        <ele>18</ele>
        <time>2019-05-06T11:16:07Z</time>
      </trkpt>
      <trkpt lat="50.86006" lon="2.53355">
        <ele>17</ele>
        <time>2019-05-06T11:16:14Z</time>
      </trkpt>
      <trkpt lat="50.86008" lon="2.53355">
        <ele>17</ele>
        <time>2019-05-06T11:16:15Z</time>
      </trkpt>
      <trkpt lat="50.8601" lon="2.53356">
        <ele>17</ele>
        <time>2019-05-06T11:16:16Z</time>
      </trkpt>
      <trkpt lat="50.86013" lon="2.53356">
        <ele>18</ele>
        <time>2019-05-06T11:16:17Z</time>
      </trkpt>
      <trkpt lat="50.86015" lon="2.53356">
        <ele>18</ele>
        <time>2019-05-06T11:16:18Z</time>
      </trkpt>
      <trkpt lat="50.86035" lon="2.53357">
        <ele>18</ele>
        <time>2019-05-06T11:16:27Z</time>
      </trkpt>
      <trkpt lat="50.86055" lon="2.53361">
        <ele>17</ele>
        <time>2019-05-06T11:16:36Z</time>
      </trkpt>
      <trkpt lat="50.86075" lon="2.53366">
        <ele>17</ele>
        <time>2019-05-06T11:16:45Z</time>
      </trkpt>
      <trkpt lat="50.86095" lon="2.53371">
        <ele>17</ele>
        <time>2019-05-06T11:16:54Z</time>
      </trkpt>
      <trkpt lat="50.86114" lon="2.53372">
        <ele>17</ele>
        <time>2019-05-06T11:17:03Z</time>
      </trkpt>
      <trkpt lat="50.86131" lon="2.53368">
        <ele>17</ele>
        <time>2019-05-06T11:17:12Z</time>
      </trkpt>
      <trkpt lat="50.86149" lon="2.53361">
        <ele>17</ele>
        <time>2019-05-06T11:17:21Z</time>
      </trkpt>
      <trkpt lat="50.86167" lon="2.53354">
        <ele>17</ele>
        <time>2019-05-06T11:17:30Z</time>
      </trkpt>
      <trkpt lat="50.86183" lon="2.53344">
        <ele>17</ele>
        <time>2019-05-06T11:17:39Z</time>
      </trkpt>
      <trkpt lat="50.862" lon="2.53337">
        <ele>17</ele>
        <time>2019-05-06T11:17:48Z</time>
      </trkpt>
      <trkpt lat="50.86218" lon="2.53327">
        <ele>18</ele>
        <time>2019-05-06T11:17:57Z</time>
      </trkpt>
      <trkpt lat="50.86236" lon="2.53318">
        <ele>17</ele>
        <time>2019-05-06T11:18:06Z</time>
      </trkpt>
      <trkpt lat="50.86255" lon="2.53307">
        <ele>18</ele>
        <time>2019-05-06T11:18:15Z</time>
      </trkpt>
      <trkpt lat="50.86274" lon="2.53303">
        <ele>17</ele>
        <time>2019-05-06T11:18:24Z</time>
      </trkpt>
      <trkpt lat="50.86292" lon="2.53302">
        <ele>18</ele>
        <time>2019-05-06T11:18:33Z</time>
      </trkpt>
      <trkpt lat="50.86313" lon="2.53299">
        <ele>17</ele>
        <time>2019-05-06T11:18:43Z</time>
      </trkpt>
      <trkpt lat="50.86335" lon="2.53301">
        <ele>17</ele>
        <time>2019-05-06T11:18:52Z</time>
      </trkpt>
      <trkpt lat="50.86353" lon="2.53296">
        <ele>17</ele>
        <time>2019-05-06T11:19:00Z</time>
      </trkpt>
      <trkpt lat="50.8637" lon="2.53291">
        <ele>16</ele>
        <time>2019-05-06T11:19:08Z</time>
      </trkpt>
      <trkpt lat="50.86387" lon="2.53282">
        <ele>16</ele>
        <time>2019-05-06T11:19:16Z</time>
      </trkpt>
      <trkpt lat="50.86404" lon="2.5327">
        <ele>17</ele>
        <time>2019-05-06T11:19:25Z</time>
      </trkpt>
      <trkpt lat="50.86421" lon="2.53263">
        <ele>16</ele>
        <time>2019-05-06T11:19:33Z</time>
      </trkpt>
      <trkpt lat="50.86438" lon="2.53253">
        <ele>16</ele>
        <time>2019-05-06T11:19:42Z</time>
      </trkpt>
      <trkpt lat="50.86457" lon="2.53245">
        <ele>17</ele>
        <time>2019-05-06T11:19:52Z</time>
      </trkpt>
      <trkpt lat="50.86458" lon="2.53244">
        <ele>17</ele>
        <time>2019-05-06T11:19:53Z</time>
      </trkpt>
      <trkpt lat="50.86461" lon="2.53244">
        <ele>17</ele>
        <time>2019-05-06T11:19:54Z</time>
      </trkpt>
      <trkpt lat="50.86463" lon="2.53243">
        <ele>17</ele>
        <time>2019-05-06T11:19:55Z</time>
      </trkpt>
      <trkpt lat="50.86465" lon="2.53242">
        <ele>17</ele>
        <time>2019-05-06T11:19:56Z</time>
      </trkpt>
      <trkpt lat="50.86483" lon="2.53234">
        <ele>17</ele>
        <time>2019-05-06T11:20:05Z</time>
      </trkpt>
      <trkpt lat="50.86501" lon="2.53224">
        <ele>17</ele>
        <time>2019-05-06T11:20:13Z</time>
      </trkpt>
      <trkpt lat="50.86519" lon="2.53219">
        <ele>18</ele>
        <time>2019-05-06T11:20:22Z</time>
      </trkpt>
      <trkpt lat="50.86536" lon="2.53215">
        <ele>18</ele>
        <time>2019-05-06T11:20:30Z</time>
      </trkpt>
      <trkpt lat="50.86554" lon="2.53214">
        <ele>18</ele>
        <time>2019-05-06T11:20:38Z</time>
      </trkpt>
      <trkpt lat="50.86573" lon="2.53216">
        <ele>19</ele>
        <time>2019-05-06T11:20:47Z</time>
      </trkpt>
      <trkpt lat="50.86596" lon="2.53218">
        <ele>20</ele>
        <time>2019-05-06T11:20:58Z</time>
      </trkpt>
      <trkpt lat="50.86615" lon="2.53228">
        <ele>21</ele>
        <time>2019-05-06T11:21:08Z</time>
      </trkpt>
      <trkpt lat="50.86634" lon="2.53237">
        <ele>21</ele>
        <time>2019-05-06T11:21:17Z</time>
      </trkpt>
      <trkpt lat="50.8665" lon="2.53247">
        <ele>21</ele>
        <time>2019-05-06T11:21:27Z</time>
      </trkpt>
      <trkpt lat="50.86669" lon="2.53259">
        <ele>21</ele>
        <time>2019-05-06T11:21:36Z</time>
      </trkpt>
      <trkpt lat="50.86687" lon="2.53272">
        <ele>22</ele>
        <time>2019-05-06T11:21:46Z</time>
      </trkpt>
      <trkpt lat="50.86705" lon="2.53285">
        <ele>23</ele>
        <time>2019-05-06T11:21:56Z</time>
      </trkpt>
      <trkpt lat="50.86723" lon="2.53297">
        <ele>24</ele>
        <time>2019-05-06T11:22:04Z</time>
      </trkpt>
      <trkpt lat="50.86739" lon="2.53311">
        <ele>22</ele>
        <time>2019-05-06T11:22:13Z</time>
      </trkpt>
      <trkpt lat="50.86756" lon="2.53327">
        <ele>23</ele>
        <time>2019-05-06T11:22:22Z</time>
      </trkpt>
      <trkpt lat="50.86772" lon="2.53339">
        <ele>22</ele>
        <time>2019-05-06T11:22:30Z</time>
      </trkpt>
      <trkpt lat="50.86787" lon="2.53356">
        <ele>22</ele>
        <time>2019-05-06T11:22:39Z</time>
      </trkpt>
      <trkpt lat="50.86803" lon="2.53369">
        <ele>21</ele>
        <time>2019-05-06T11:22:48Z</time>
      </trkpt>
      <trkpt lat="50.86815" lon="2.53379">
        <ele>20</ele>
        <time>2019-05-06T11:22:55Z</time>
      </trkpt>
      <trkpt lat="50.86817" lon="2.5338">
        <ele>20</ele>
        <time>2019-05-06T11:22:56Z</time>
      </trkpt>
      <trkpt lat="50.86831" lon="2.53398">
        <ele>19</ele>
        <time>2019-05-06T11:23:05Z</time>
      </trkpt>
      <trkpt lat="50.86845" lon="2.53408">
        <ele>19</ele>
        <time>2019-05-06T11:23:12Z</time>
      </trkpt>
      <trkpt lat="50.86847" lon="2.53409">
        <ele>19</ele>
        <time>2019-05-06T11:23:13Z</time>
      </trkpt>
      <trkpt lat="50.86848" lon="2.53409">
        <ele>18</ele>
        <time>2019-05-06T11:23:14Z</time>
      </trkpt>
      <trkpt lat="50.86851" lon="2.53411">
        <ele>19</ele>
        <time>2019-05-06T11:23:15Z</time>
      </trkpt>
      <trkpt lat="50.86853" lon="2.53412">
        <ele>18</ele>
        <time>2019-05-06T11:23:16Z</time>
      </trkpt>
      <trkpt lat="50.86871" lon="2.5342">
        <ele>18</ele>
        <time>2019-05-06T11:23:24Z</time>
      </trkpt>
      <trkpt lat="50.86891" lon="2.53422">
        <ele>18</ele>
        <time>2019-05-06T11:23:33Z</time>
      </trkpt>
      <trkpt lat="50.86909" lon="2.53423">
        <ele>18</ele>
        <time>2019-05-06T11:23:42Z</time>
      </trkpt>
      <trkpt lat="50.86927" lon="2.53423">
        <ele>18</ele>
        <time>2019-05-06T11:23:51Z</time>
      </trkpt>
      <trkpt lat="50.86946" lon="2.5342">
        <ele>18</ele>
        <time>2019-05-06T11:23:59Z</time>
      </trkpt>
      <trkpt lat="50.86965" lon="2.53417">
        <ele>18</ele>
        <time>2019-05-06T11:24:07Z</time>
      </trkpt>
      <trkpt lat="50.86983" lon="2.53416">
        <ele>18</ele>
        <time>2019-05-06T11:24:15Z</time>
      </trkpt>
      <trkpt lat="50.87" lon="2.53415">
        <ele>18</ele>
        <time>2019-05-06T11:24:23Z</time>
      </trkpt>
      <trkpt lat="50.87017" lon="2.53422">
        <ele>18</ele>
        <time>2019-05-06T11:24:32Z</time>
      </trkpt>
      <trkpt lat="50.87035" lon="2.53418">
        <ele>18</ele>
        <time>2019-05-06T11:24:41Z</time>
      </trkpt>
      <trkpt lat="50.87053" lon="2.5341">
        <ele>18</ele>
        <time>2019-05-06T11:24:50Z</time>
      </trkpt>
      <trkpt lat="50.87071" lon="2.53401">
        <ele>18</ele>
        <time>2019-05-06T11:24:59Z</time>
      </trkpt>
      <trkpt lat="50.87088" lon="2.53393">
        <ele>17</ele>
        <time>2019-05-06T11:25:08Z</time>
      </trkpt>
      <trkpt lat="50.87106" lon="2.5339">
        <ele>16</ele>
        <time>2019-05-06T11:25:17Z</time>
      </trkpt>
      <trkpt lat="50.87125" lon="2.53385">
        <ele>18</ele>
        <time>2019-05-06T11:25:27Z</time>
      </trkpt>
      <trkpt lat="50.87142" lon="2.53373">
        <ele>18</ele>
        <time>2019-05-06T11:25:36Z</time>
      </trkpt>
      <trkpt lat="50.87159" lon="2.53364">
        <ele>18</ele>
        <time>2019-05-06T11:25:45Z</time>
      </trkpt>
      <trkpt lat="50.87177" lon="2.53355">
        <ele>18</ele>
        <time>2019-05-06T11:25:54Z</time>
      </trkpt>
      <trkpt lat="50.87196" lon="2.53345">
        <ele>18</ele>
        <time>2019-05-06T11:26:03Z</time>
      </trkpt>
      <trkpt lat="50.87214" lon="2.53338">
        <ele>17</ele>
        <time>2019-05-06T11:26:12Z</time>
      </trkpt>
      <trkpt lat="50.87233" lon="2.53331">
        <ele>17</ele>
        <time>2019-05-06T11:26:22Z</time>
      </trkpt>
      <trkpt lat="50.87252" lon="2.53325">
        <ele>17</ele>
        <time>2019-05-06T11:26:31Z</time>
      </trkpt>
      <trkpt lat="50.87271" lon="2.53321">
        <ele>17</ele>
        <time>2019-05-06T11:26:40Z</time>
      </trkpt>
      <trkpt lat="50.87291" lon="2.53321">
        <ele>17</ele>
        <time>2019-05-06T11:26:49Z</time>
      </trkpt>
      <trkpt lat="50.87311" lon="2.53317">
        <ele>17</ele>
        <time>2019-05-06T11:26:59Z</time>
      </trkpt>
      <trkpt lat="50.87331" lon="2.5331">
        <ele>17</ele>
        <time>2019-05-06T11:27:08Z</time>
      </trkpt>
      <trkpt lat="50.87351" lon="2.53304">
        <ele>17</ele>
        <time>2019-05-06T11:27:17Z</time>
      </trkpt>
      <trkpt lat="50.87368" lon="2.53298">
        <ele>17</ele>
        <time>2019-05-06T11:27:26Z</time>
      </trkpt>
      <trkpt lat="50.87385" lon="2.5329">
        <ele>17</ele>
        <time>2019-05-06T11:27:36Z</time>
      </trkpt>
      <trkpt lat="50.87387" lon="2.53289">
        <ele>17</ele>
        <time>2019-05-06T11:27:37Z</time>
      </trkpt>
      <trkpt lat="50.87389" lon="2.53288">
        <ele>17</ele>
        <time>2019-05-06T11:27:38Z</time>
      </trkpt>
      <trkpt lat="50.87407" lon="2.53278">
        <ele>17</ele>
        <time>2019-05-06T11:27:47Z</time>
      </trkpt>
      <trkpt lat="50.87408" lon="2.53277">
        <ele>17</ele>
        <time>2019-05-06T11:27:48Z</time>
      </trkpt>
      <trkpt lat="50.87409" lon="2.53276">
        <ele>17</ele>
        <time>2019-05-06T11:27:49Z</time>
      </trkpt>
      <trkpt lat="50.87411" lon="2.53275">
        <ele>17</ele>
        <time>2019-05-06T11:27:50Z</time>
      </trkpt>
      <trkpt lat="50.87413" lon="2.53274">
        <ele>17</ele>
        <time>2019-05-06T11:27:51Z</time>
      </trkpt>
      <trkpt lat="50.87416" lon="2.53274">
        <ele>17</ele>
        <time>2019-05-06T11:27:52Z</time>
      </trkpt>
      <trkpt lat="50.87418" lon="2.53274">
        <ele>17</ele>
        <time>2019-05-06T11:27:53Z</time>
      </trkpt>
      <trkpt lat="50.8742" lon="2.53274">
        <ele>17</ele>
        <time>2019-05-06T11:27:54Z</time>
      </trkpt>
      <trkpt lat="50.87423" lon="2.53274">
        <ele>17</ele>
        <time>2019-05-06T11:27:55Z</time>
      </trkpt>
      <trkpt lat="50.87443" lon="2.53277">
        <ele>17</ele>
        <time>2019-05-06T11:28:04Z</time>
      </trkpt>
      <trkpt lat="50.87464" lon="2.53276">
        <ele>17</ele>
        <time>2019-05-06T11:28:13Z</time>
      </trkpt>
      <trkpt lat="50.87485" lon="2.53274">
        <ele>17</ele>
        <time>2019-05-06T11:28:22Z</time>
      </trkpt>
      <trkpt lat="50.87504" lon="2.53271">
        <ele>17</ele>
        <time>2019-05-06T11:28:31Z</time>
      </trkpt>
      <trkpt lat="50.87522" lon="2.53266">
        <ele>16</ele>
        <time>2019-05-06T11:28:40Z</time>
      </trkpt>
      <trkpt lat="50.87542" lon="2.53256">
        <ele>16</ele>
        <time>2019-05-06T11:28:50Z</time>
      </trkpt>
      <trkpt lat="50.87561" lon="2.53253">
        <ele>16</ele>
        <time>2019-05-06T11:28:59Z</time>
      </trkpt>
      <trkpt lat="50.87579" lon="2.53247">
        <ele>16</ele>
        <time>2019-05-06T11:29:08Z</time>
      </trkpt>
      <trkpt lat="50.87599" lon="2.53239">
        <ele>16</ele>
        <time>2019-05-06T11:29:17Z</time>
      </trkpt>
      <trkpt lat="50.87619" lon="2.53242">
        <ele>17</ele>
        <time>2019-05-06T11:29:27Z</time>
      </trkpt>
      <trkpt lat="50.87638" lon="2.53257">
        <ele>17</ele>
        <time>2019-05-06T11:29:37Z</time>
      </trkpt>
      <trkpt lat="50.87657" lon="2.53268">
        <ele>16</ele>
        <time>2019-05-06T11:29:46Z</time>
      </trkpt>
      <trkpt lat="50.87678" lon="2.53277">
        <ele>16</ele>
        <time>2019-05-06T11:29:56Z</time>
      </trkpt>
      <trkpt lat="50.87697" lon="2.53284">
        <ele>16</ele>
        <time>2019-05-06T11:30:05Z</time>
      </trkpt>
      <trkpt lat="50.87716" lon="2.53281">
        <ele>15</ele>
        <time>2019-05-06T11:30:13Z</time>
      </trkpt>
      <trkpt lat="50.8773" lon="2.53261">
        <ele>15</ele>
        <time>2019-05-06T11:30:23Z</time>
      </trkpt>
      <trkpt lat="50.87742" lon="2.53241">
        <ele>15</ele>
        <time>2019-05-06T11:30:32Z</time>
      </trkpt>
      <trkpt lat="50.87756" lon="2.53221">
        <ele>14</ele>
        <time>2019-05-06T11:30:42Z</time>
      </trkpt>
      <trkpt lat="50.8776" lon="2.53215">
        <ele>14</ele>
        <time>2019-05-06T11:30:45Z</time>
      </trkpt>
      <trkpt lat="50.87761" lon="2.53214">
        <ele>14</ele>
        <time>2019-05-06T11:30:46Z</time>
      </trkpt>
      <trkpt lat="50.87763" lon="2.53212">
        <ele>14</ele>
        <time>2019-05-06T11:30:47Z</time>
      </trkpt>
      <trkpt lat="50.87764" lon="2.53209">
        <ele>14</ele>
        <time>2019-05-06T11:30:48Z</time>
      </trkpt>
      <trkpt lat="50.87766" lon="2.53207">
        <ele>15</ele>
        <time>2019-05-06T11:30:49Z</time>
      </trkpt>
      <trkpt lat="50.87767" lon="2.53205">
        <ele>15</ele>
        <time>2019-05-06T11:30:50Z</time>
      </trkpt>
      <trkpt lat="50.87769" lon="2.53202">
        <ele>15</ele>
        <time>2019-05-06T11:30:51Z</time>
      </trkpt>
      <trkpt lat="50.87771" lon="2.532">
        <ele>14</ele>
        <time>2019-05-06T11:30:52Z</time>
      </trkpt>
      <trkpt lat="50.87773" lon="2.53197">
        <ele>14</ele>
        <time>2019-05-06T11:30:53Z</time>
      </trkpt>
      <trkpt lat="50.87774" lon="2.53195">
        <ele>14</ele>
        <time>2019-05-06T11:30:54Z</time>
      </trkpt>
      <trkpt lat="50.87775" lon="2.53193">
        <ele>14</ele>
        <time>2019-05-06T11:30:55Z</time>
      </trkpt>
      <trkpt lat="50.87776" lon="2.53191">
        <ele>14</ele>
        <time>2019-05-06T11:30:56Z</time>
      </trkpt>
      <trkpt lat="50.87777" lon="2.53188">
        <ele>14</ele>
        <time>2019-05-06T11:30:57Z</time>
      </trkpt>
      <trkpt lat="50.87778" lon="2.53186">
        <ele>14</ele>
        <time>2019-05-06T11:30:58Z</time>
      </trkpt>
      <trkpt lat="50.87794" lon="2.53164">
        <ele>14</ele>
        <time>2019-05-06T11:31:08Z</time>
      </trkpt>
      <trkpt lat="50.87817" lon="2.53163">
        <ele>14</ele>
        <time>2019-05-06T11:31:17Z</time>
      </trkpt>
      <trkpt lat="50.87837" lon="2.53179">
        <ele>14</ele>
        <time>2019-05-06T11:31:27Z</time>
      </trkpt>
      <trkpt lat="50.87854" lon="2.53198">
        <ele>13</ele>
        <time>2019-05-06T11:31:36Z</time>
      </trkpt>
      <trkpt lat="50.87872" lon="2.53212">
        <ele>13</ele>
        <time>2019-05-06T11:31:45Z</time>
      </trkpt>
      <trkpt lat="50.87891" lon="2.53209">
        <ele>13</ele>
        <time>2019-05-06T11:31:54Z</time>
      </trkpt>
      <trkpt lat="50.87907" lon="2.53193">
        <ele>13</ele>
        <time>2019-05-06T11:32:03Z</time>
      </trkpt>
      <trkpt lat="50.87923" lon="2.53179">
        <ele>13</ele>
        <time>2019-05-06T11:32:13Z</time>
      </trkpt>
      <trkpt lat="50.87938" lon="2.53163">
        <ele>13</ele>
        <time>2019-05-06T11:32:23Z</time>
      </trkpt>
      <trkpt lat="50.87955" lon="2.53146">
        <ele>14</ele>
        <time>2019-05-06T11:32:33Z</time>
      </trkpt>
      <trkpt lat="50.87973" lon="2.53129">
        <ele>14</ele>
        <time>2019-05-06T11:32:43Z</time>
      </trkpt>
      <trkpt lat="50.87991" lon="2.53113">
        <ele>13</ele>
        <time>2019-05-06T11:32:53Z</time>
      </trkpt>
      <trkpt lat="50.8801" lon="2.53095">
        <ele>14</ele>
        <time>2019-05-06T11:33:03Z</time>
      </trkpt>
      <trkpt lat="50.88028" lon="2.53079">
        <ele>13</ele>
        <time>2019-05-06T11:33:12Z</time>
      </trkpt>
      <trkpt lat="50.88046" lon="2.53066">
        <ele>13</ele>
        <time>2019-05-06T11:33:22Z</time>
      </trkpt>
      <trkpt lat="50.88064" lon="2.53049">
        <ele>13</ele>
        <time>2019-05-06T11:33:31Z</time>
      </trkpt>
      <trkpt lat="50.88079" lon="2.53038">
        <ele>13</ele>
        <time>2019-05-06T11:33:38Z</time>
      </trkpt>
      <trkpt lat="50.88096" lon="2.53024">
        <ele>13</ele>
        <time>2019-05-06T11:33:48Z</time>
      </trkpt>
      <trkpt lat="50.88114" lon="2.53006">
        <ele>13</ele>
        <time>2019-05-06T11:33:58Z</time>
      </trkpt>
      <trkpt lat="50.88132" lon="2.52993">
        <ele>13</ele>
        <time>2019-05-06T11:34:07Z</time>
      </trkpt>
      <trkpt lat="50.88152" lon="2.52988">
        <ele>14</ele>
        <time>2019-05-06T11:34:16Z</time>
      </trkpt>
      <trkpt lat="50.88172" lon="2.52997">
        <ele>14</ele>
        <time>2019-05-06T11:34:25Z</time>
      </trkpt>
      <trkpt lat="50.88179" lon="2.53008">
        <ele>13</ele>
        <time>2019-05-06T11:34:29Z</time>
      </trkpt>
      <trkpt lat="50.88181" lon="2.5301">
        <ele>13</ele>
        <time>2019-05-06T11:34:30Z</time>
      </trkpt>
      <trkpt lat="50.88183" lon="2.53012">
        <ele>13</ele>
        <time>2019-05-06T11:34:31Z</time>
      </trkpt>
      <trkpt lat="50.882" lon="2.53032">
        <ele>13</ele>
        <time>2019-05-06T11:34:40Z</time>
      </trkpt>
      <trkpt lat="50.88214" lon="2.53049">
        <ele>13</ele>
        <time>2019-05-06T11:34:48Z</time>
      </trkpt>
      <trkpt lat="50.88227" lon="2.53066">
        <ele>13</ele>
        <time>2019-05-06T11:34:56Z</time>
      </trkpt>
      <trkpt lat="50.88242" lon="2.53086">
        <ele>13</ele>
        <time>2019-05-06T11:35:05Z</time>
      </trkpt>
      <trkpt lat="50.88255" lon="2.53107">
        <ele>13</ele>
        <time>2019-05-06T11:35:14Z</time>
      </trkpt>
      <trkpt lat="50.88272" lon="2.5312">
        <ele>13</ele>
        <time>2019-05-06T11:35:24Z</time>
      </trkpt>
      <trkpt lat="50.88292" lon="2.53123">
        <ele>13</ele>
        <time>2019-05-06T11:35:34Z</time>
      </trkpt>
      <trkpt lat="50.88311" lon="2.53124">
        <ele>13</ele>
        <time>2019-05-06T11:35:43Z</time>
      </trkpt>
      <trkpt lat="50.88331" lon="2.53127">
        <ele>12</ele>
        <time>2019-05-06T11:35:52Z</time>
      </trkpt>
      <trkpt lat="50.8835" lon="2.53133">
        <ele>12</ele>
        <time>2019-05-06T11:36:01Z</time>
      </trkpt>
      <trkpt lat="50.88368" lon="2.53141">
        <ele>12</ele>
        <time>2019-05-06T11:36:10Z</time>
      </trkpt>
      <trkpt lat="50.8837" lon="2.53141">
        <ele>12</ele>
        <time>2019-05-06T11:36:11Z</time>
      </trkpt>
      <trkpt lat="50.88376" lon="2.53145">
        <ele>11</ele>
        <time>2019-05-06T11:36:14Z</time>
      </trkpt>
      <trkpt lat="50.88378" lon="2.53147">
        <ele>11</ele>
        <time>2019-05-06T11:36:15Z</time>
      </trkpt>
      <trkpt lat="50.88395" lon="2.53165">
        <ele>11</ele>
        <time>2019-05-06T11:36:24Z</time>
      </trkpt>
      <trkpt lat="50.88413" lon="2.53166">
        <ele>11</ele>
        <time>2019-05-06T11:36:34Z</time>
      </trkpt>
      <trkpt lat="50.88421" lon="2.5315">
        <ele>11</ele>
        <time>2019-05-06T11:36:41Z</time>
      </trkpt>
      <trkpt lat="50.88423" lon="2.53148">
        <ele>11</ele>
        <time>2019-05-06T11:36:42Z</time>
      </trkpt>
      <trkpt lat="50.88424" lon="2.53145">
        <ele>11</ele>
        <time>2019-05-06T11:36:43Z</time>
      </trkpt>
      <trkpt lat="50.88426" lon="2.53143">
        <ele>11</ele>
        <time>2019-05-06T11:36:44Z</time>
      </trkpt>
      <trkpt lat="50.88427" lon="2.53143">
        <ele>11</ele>
        <time>2019-05-06T11:36:45Z</time>
      </trkpt>
      <trkpt lat="50.88428" lon="2.53145">
        <ele>11</ele>
        <time>2019-05-06T11:36:46Z</time>
      </trkpt>
      <trkpt lat="50.88428" lon="2.53148">
        <ele>11</ele>
        <time>2019-05-06T11:36:47Z</time>
      </trkpt>
      <trkpt lat="50.88418" lon="2.53168">
        <ele>11</ele>
        <time>2019-05-06T11:36:55Z</time>
      </trkpt>
      <trkpt lat="50.88417" lon="2.53171">
        <ele>11</ele>
        <time>2019-05-06T11:36:56Z</time>
      </trkpt>
      <trkpt lat="50.88415" lon="2.53173">
        <ele>11</ele>
        <time>2019-05-06T11:36:57Z</time>
      </trkpt>
      <trkpt lat="50.88413" lon="2.53175">
        <ele>11</ele>
        <time>2019-05-06T11:36:58Z</time>
      </trkpt>
      <trkpt lat="50.88412" lon="2.53178">
        <ele>11</ele>
        <time>2019-05-06T11:36:59Z</time>
      </trkpt>
      <trkpt lat="50.88411" lon="2.5318">
        <ele>11</ele>
        <time>2019-05-06T11:37:00Z</time>
      </trkpt>
      <trkpt lat="50.88411" lon="2.53182">
        <ele>11</ele>
        <time>2019-05-06T11:37:01Z</time>
      </trkpt>
      <trkpt lat="50.88412" lon="2.53185">
        <ele>11</ele>
        <time>2019-05-06T11:37:02Z</time>
      </trkpt>
      <trkpt lat="50.88413" lon="2.53188">
        <ele>11</ele>
        <time>2019-05-06T11:37:03Z</time>
      </trkpt>
      <trkpt lat="50.88414" lon="2.5319">
        <ele>11</ele>
        <time>2019-05-06T11:37:04Z</time>
      </trkpt>
      <trkpt lat="50.88414" lon="2.53192">
        <ele>11</ele>
        <time>2019-05-06T11:37:05Z</time>
      </trkpt>
      <trkpt lat="50.88416" lon="2.53195">
        <ele>11</ele>
        <time>2019-05-06T11:37:06Z</time>
      </trkpt>
      <trkpt lat="50.88417" lon="2.53198">
        <ele>10</ele>
        <time>2019-05-06T11:37:07Z</time>
      </trkpt>
      <trkpt lat="50.88419" lon="2.532">
        <ele>10</ele>
        <time>2019-05-06T11:37:08Z</time>
      </trkpt>
      <trkpt lat="50.8842" lon="2.53202">
        <ele>10</ele>
        <time>2019-05-06T11:37:09Z</time>
      </trkpt>
      <trkpt lat="50.88422" lon="2.53204">
        <ele>10</ele>
        <time>2019-05-06T11:37:10Z</time>
      </trkpt>
      <trkpt lat="50.88424" lon="2.53206">
        <ele>10</ele>
        <time>2019-05-06T11:37:11Z</time>
      </trkpt>
      <trkpt lat="50.88426" lon="2.53208">
        <ele>9</ele>
        <time>2019-05-06T11:37:12Z</time>
      </trkpt>
      <trkpt lat="50.88428" lon="2.5321">
        <ele>9</ele>
        <time>2019-05-06T11:37:13Z</time>
      </trkpt>
      <trkpt lat="50.8843" lon="2.53213">
        <ele>9</ele>
        <time>2019-05-06T11:37:14Z</time>
      </trkpt>
      <trkpt lat="50.88439" lon="2.53227">
        <ele>10</ele>
        <time>2019-05-06T11:37:20Z</time>
      </trkpt>
      <trkpt lat="50.88439" lon="2.53228">
        <ele>10</ele>
        <time>2019-05-06T11:37:21Z</time>
      </trkpt>
      <trkpt lat="50.8844" lon="2.5323">
        <ele>10</ele>
        <time>2019-05-06T11:37:22Z</time>
      </trkpt>
      <trkpt lat="50.88452" lon="2.53261">
        <ele>11</ele>
        <time>2019-05-06T11:37:32Z</time>
      </trkpt>
      <trkpt lat="50.88454" lon="2.53264">
        <ele>11</ele>
        <time>2019-05-06T11:37:33Z</time>
      </trkpt>
      <trkpt lat="50.88456" lon="2.53267">
        <ele>11</ele>
        <time>2019-05-06T11:37:34Z</time>
      </trkpt>
      <trkpt lat="50.88468" lon="2.5329">
        <ele>11</ele>
        <time>2019-05-06T11:37:43Z</time>
      </trkpt>
      <trkpt lat="50.88476" lon="2.53301">
        <ele>11</ele>
        <time>2019-05-06T11:37:48Z</time>
      </trkpt>
      <trkpt lat="50.8849" lon="2.53326">
        <ele>11</ele>
        <time>2019-05-06T11:37:58Z</time>
      </trkpt>
      <trkpt lat="50.88497" lon="2.53334">
        <ele>11</ele>
        <time>2019-05-06T11:38:02Z</time>
      </trkpt>
      <trkpt lat="50.88498" lon="2.53336">
        <ele>11</ele>
        <time>2019-05-06T11:38:03Z</time>
      </trkpt>
      <trkpt lat="50.885" lon="2.53338">
        <ele>11</ele>
        <time>2019-05-06T11:38:04Z</time>
      </trkpt>
      <trkpt lat="50.88501" lon="2.53339">
        <ele>11</ele>
        <time>2019-05-06T11:38:05Z</time>
      </trkpt>
      <trkpt lat="50.88503" lon="2.53342">
        <ele>11</ele>
        <time>2019-05-06T11:38:06Z</time>
      </trkpt>
      <trkpt lat="50.88504" lon="2.53343">
        <ele>11</ele>
        <time>2019-05-06T11:38:07Z</time>
      </trkpt>
      <trkpt lat="50.88506" lon="2.53344">
        <ele>11</ele>
        <time>2019-05-06T11:38:08Z</time>
      </trkpt>
      <trkpt lat="50.88507" lon="2.53345">
        <ele>11</ele>
        <time>2019-05-06T11:38:09Z</time>
      </trkpt>
      <trkpt lat="50.88509" lon="2.53347">
        <ele>11</ele>
        <time>2019-05-06T11:38:10Z</time>
      </trkpt>
      <trkpt lat="50.88511" lon="2.53349">
        <ele>11</ele>
        <time>2019-05-06T11:38:11Z</time>
      </trkpt>
      <trkpt lat="50.88512" lon="2.53351">
        <ele>11</ele>
        <time>2019-05-06T11:38:12Z</time>
      </trkpt>
      <trkpt lat="50.88513" lon="2.53351">
        <ele>11</ele>
        <time>2019-05-06T11:38:13Z</time>
      </trkpt>
      <trkpt lat="50.88516" lon="2.53353">
        <ele>10</ele>
        <time>2019-05-06T11:38:14Z</time>
      </trkpt>
      <trkpt lat="50.88535" lon="2.53365">
        <ele>10</ele>
        <time>2019-05-06T11:38:24Z</time>
      </trkpt>
      <trkpt lat="50.88556" lon="2.53375">
        <ele>10</ele>
        <time>2019-05-06T11:38:34Z</time>
      </trkpt>
      <trkpt lat="50.88558" lon="2.53376">
        <ele>10</ele>
        <time>2019-05-06T11:38:35Z</time>
      </trkpt>
      <trkpt lat="50.8856" lon="2.53377">
        <ele>10</ele>
        <time>2019-05-06T11:38:36Z</time>
      </trkpt>
      <trkpt lat="50.88562" lon="2.53379">
        <ele>10</ele>
        <time>2019-05-06T11:38:37Z</time>
      </trkpt>
      <trkpt lat="50.88564" lon="2.53381">
        <ele>10</ele>
        <time>2019-05-06T11:38:38Z</time>
      </trkpt>
      <trkpt lat="50.88566" lon="2.53382">
        <ele>10</ele>
        <time>2019-05-06T11:38:39Z</time>
      </trkpt>
      <trkpt lat="50.88568" lon="2.53384">
        <ele>10</ele>
        <time>2019-05-06T11:38:40Z</time>
      </trkpt>
      <trkpt lat="50.88587" lon="2.53401">
        <ele>10</ele>
        <time>2019-05-06T11:38:50Z</time>
      </trkpt>
      <trkpt lat="50.88606" lon="2.53419">
        <ele>10</ele>
        <time>2019-05-06T11:39:00Z</time>
      </trkpt>
      <trkpt lat="50.88622" lon="2.53436">
        <ele>11</ele>
        <time>2019-05-06T11:39:09Z</time>
      </trkpt>
      <trkpt lat="50.88626" lon="2.53441">
        <ele>11</ele>
        <time>2019-05-06T11:39:11Z</time>
      </trkpt>
      <trkpt lat="50.88628" lon="2.53442">
        <ele>11</ele>
        <time>2019-05-06T11:39:12Z</time>
      </trkpt>
      <trkpt lat="50.88629" lon="2.53444">
        <ele>11</ele>
        <time>2019-05-06T11:39:13Z</time>
      </trkpt>
      <trkpt lat="50.88631" lon="2.53445">
        <ele>11</ele>
        <time>2019-05-06T11:39:14Z</time>
      </trkpt>
      <trkpt lat="50.88633" lon="2.53446">
        <ele>11</ele>
        <time>2019-05-06T11:39:15Z</time>
      </trkpt>
      <trkpt lat="50.88635" lon="2.53447">
        <ele>11</ele>
        <time>2019-05-06T11:39:16Z</time>
      </trkpt>
      <trkpt lat="50.88637" lon="2.53448">
        <ele>11</ele>
        <time>2019-05-06T11:39:17Z</time>
      </trkpt>
      <trkpt lat="50.88639" lon="2.53449">
        <ele>11</ele>
        <time>2019-05-06T11:39:18Z</time>
      </trkpt>
      <trkpt lat="50.8864" lon="2.53451">
        <ele>11</ele>
        <time>2019-05-06T11:39:19Z</time>
      </trkpt>
      <trkpt lat="50.88641" lon="2.53452">
        <ele>11</ele>
        <time>2019-05-06T11:39:20Z</time>
      </trkpt>
      <trkpt lat="50.88659" lon="2.53471">
        <ele>11</ele>
        <time>2019-05-06T11:39:30Z</time>
      </trkpt>
      <trkpt lat="50.88662" lon="2.53477">
        <ele>11</ele>
        <time>2019-05-06T11:39:33Z</time>
      </trkpt>
      <trkpt lat="50.88664" lon="2.53478">
        <ele>11</ele>
        <time>2019-05-06T11:39:34Z</time>
      </trkpt>
      <trkpt lat="50.88665" lon="2.53479">
        <ele>11</ele>
        <time>2019-05-06T11:39:35Z</time>
      </trkpt>
      <trkpt lat="50.88667" lon="2.53481">
        <ele>11</ele>
        <time>2019-05-06T11:39:36Z</time>
      </trkpt>
      <trkpt lat="50.88669" lon="2.53483">
        <ele>11</ele>
        <time>2019-05-06T11:39:37Z</time>
      </trkpt>
      <trkpt lat="50.88671" lon="2.53485">
        <ele>11</ele>
        <time>2019-05-06T11:39:38Z</time>
      </trkpt>
      <trkpt lat="50.88673" lon="2.53487">
        <ele>11</ele>
        <time>2019-05-06T11:39:39Z</time>
      </trkpt>
      <trkpt lat="50.88675" lon="2.53489">
        <ele>11</ele>
        <time>2019-05-06T11:39:40Z</time>
      </trkpt>
      <trkpt lat="50.88676" lon="2.53491">
        <ele>11</ele>
        <time>2019-05-06T11:39:41Z</time>
      </trkpt>
      <trkpt lat="50.88678" lon="2.53493">
        <ele>11</ele>
        <time>2019-05-06T11:39:42Z</time>
      </trkpt>
      <trkpt lat="50.8868" lon="2.53495">
        <ele>11</ele>
        <time>2019-05-06T11:39:43Z</time>
      </trkpt>
      <trkpt lat="50.88681" lon="2.53497">
        <ele>11</ele>
        <time>2019-05-06T11:39:44Z</time>
      </trkpt>
      <trkpt lat="50.88683" lon="2.535">
        <ele>11</ele>
        <time>2019-05-06T11:39:45Z</time>
      </trkpt>
      <trkpt lat="50.88685" lon="2.53502">
        <ele>12</ele>
        <time>2019-05-06T11:39:46Z</time>
      </trkpt>
      <trkpt lat="50.88686" lon="2.53504">
        <ele>12</ele>
        <time>2019-05-06T11:39:47Z</time>
      </trkpt>
      <trkpt lat="50.88688" lon="2.53506">
        <ele>12</ele>
        <time>2019-05-06T11:39:48Z</time>
      </trkpt>
      <trkpt lat="50.88693" lon="2.53513">
        <ele>12</ele>
        <time>2019-05-06T11:39:51Z</time>
      </trkpt>
      <trkpt lat="50.88694" lon="2.53515">
        <ele>12</ele>
        <time>2019-05-06T11:39:52Z</time>
      </trkpt>
      <trkpt lat="50.88695" lon="2.53517">
        <ele>12</ele>
        <time>2019-05-06T11:39:53Z</time>
      </trkpt>
      <trkpt lat="50.88697" lon="2.53519">
        <ele>12</ele>
        <time>2019-05-06T11:39:54Z</time>
      </trkpt>
      <trkpt lat="50.88698" lon="2.53521">
        <ele>12</ele>
        <time>2019-05-06T11:39:55Z</time>
      </trkpt>
      <trkpt lat="50.887" lon="2.53523">
        <ele>12</ele>
        <time>2019-05-06T11:39:56Z</time>
      </trkpt>
      <trkpt lat="50.88701" lon="2.53526">
        <ele>12</ele>
        <time>2019-05-06T11:39:57Z</time>
      </trkpt>
      <trkpt lat="50.88703" lon="2.53529">
        <ele>12</ele>
        <time>2019-05-06T11:39:58Z</time>
      </trkpt>
      <trkpt lat="50.88716" lon="2.53557">
        <ele>12</ele>
        <time>2019-05-06T11:40:08Z</time>
      </trkpt>
      <trkpt lat="50.88729" lon="2.53583">
        <ele>12</ele>
        <time>2019-05-06T11:40:17Z</time>
      </trkpt>
      <trkpt lat="50.88743" lon="2.53604">
        <ele>12</ele>
        <time>2019-05-06T11:40:26Z</time>
      </trkpt>
      <trkpt lat="50.88754" lon="2.53626">
        <ele>12</ele>
        <time>2019-05-06T11:40:35Z</time>
      </trkpt>
      <trkpt lat="50.88767" lon="2.53653">
        <ele>12</ele>
        <time>2019-05-06T11:40:44Z</time>
      </trkpt>
      <trkpt lat="50.88778" lon="2.5367">
        <ele>11</ele>
        <time>2019-05-06T11:40:52Z</time>
      </trkpt>
      <trkpt lat="50.8878" lon="2.53672">
        <ele>11</ele>
        <time>2019-05-06T11:40:53Z</time>
      </trkpt>
      <trkpt lat="50.88781" lon="2.53674">
        <ele>12</ele>
        <time>2019-05-06T11:40:54Z</time>
      </trkpt>
      <trkpt lat="50.88783" lon="2.53676">
        <ele>12</ele>
        <time>2019-05-06T11:40:55Z</time>
      </trkpt>
      <trkpt lat="50.88784" lon="2.53678">
        <ele>12</ele>
        <time>2019-05-06T11:40:56Z</time>
      </trkpt>
      <trkpt lat="50.88793" lon="2.53696">
        <ele>12</ele>
        <time>2019-05-06T11:41:03Z</time>
      </trkpt>
      <trkpt lat="50.88808" lon="2.53716">
        <ele>11</ele>
        <time>2019-05-06T11:41:12Z</time>
      </trkpt>
      <trkpt lat="50.88823" lon="2.53736">
        <ele>11</ele>
        <time>2019-05-06T11:41:22Z</time>
      </trkpt>
      <trkpt lat="50.88839" lon="2.53755">
        <ele>11</ele>
        <time>2019-05-06T11:41:33Z</time>
      </trkpt>
      <trkpt lat="50.88854" lon="2.5378">
        <ele>12</ele>
        <time>2019-05-06T11:41:43Z</time>
      </trkpt>
      <trkpt lat="50.88867" lon="2.53804">
        <ele>12</ele>
        <time>2019-05-06T11:41:52Z</time>
      </trkpt>
      <trkpt lat="50.88882" lon="2.53826">
        <ele>12</ele>
        <time>2019-05-06T11:42:01Z</time>
      </trkpt>
      <trkpt lat="50.88895" lon="2.53847">
        <ele>12</ele>
        <time>2019-05-06T11:42:10Z</time>
      </trkpt>
      <trkpt lat="50.88906" lon="2.53861">
        <ele>12</ele>
        <time>2019-05-06T11:42:17Z</time>
      </trkpt>
      <trkpt lat="50.88908" lon="2.53862">
        <ele>12</ele>
        <time>2019-05-06T11:42:18Z</time>
      </trkpt>
      <trkpt lat="50.88909" lon="2.53864">
        <ele>12</ele>
        <time>2019-05-06T11:42:19Z</time>
      </trkpt>
      <trkpt lat="50.88923" lon="2.53885">
        <ele>13</ele>
        <time>2019-05-06T11:42:29Z</time>
      </trkpt>
      <trkpt lat="50.88938" lon="2.53911">
        <ele>13</ele>
        <time>2019-05-06T11:42:39Z</time>
      </trkpt>
      <trkpt lat="50.88952" lon="2.53934">
        <ele>13</ele>
        <time>2019-05-06T11:42:49Z</time>
      </trkpt>
      <trkpt lat="50.88965" lon="2.53957">
        <ele>13</ele>
        <time>2019-05-06T11:42:58Z</time>
      </trkpt>
      <trkpt lat="50.88978" lon="2.5398">
        <ele>13</ele>
        <time>2019-05-06T11:43:07Z</time>
      </trkpt>
      <trkpt lat="50.88992" lon="2.54002">
        <ele>14</ele>
        <time>2019-05-06T11:43:16Z</time>
      </trkpt>
      <trkpt lat="50.89006" lon="2.54025">
        <ele>13</ele>
        <time>2019-05-06T11:43:26Z</time>
      </trkpt>
      <trkpt lat="50.89018" lon="2.54048">
        <ele>13</ele>
        <time>2019-05-06T11:43:36Z</time>
      </trkpt>
      <trkpt lat="50.8902" lon="2.5405">
        <ele>13</ele>
        <time>2019-05-06T11:43:37Z</time>
      </trkpt>
      <trkpt lat="50.89035" lon="2.54072">
        <ele>13</ele>
        <time>2019-05-06T11:43:47Z</time>
      </trkpt>
      <trkpt lat="50.89049" lon="2.54095">
        <ele>12</ele>
        <time>2019-05-06T11:43:57Z</time>
      </trkpt>
      <trkpt lat="50.89062" lon="2.54111">
        <ele>13</ele>
        <time>2019-05-06T11:44:05Z</time>
      </trkpt>
      <trkpt lat="50.89063" lon="2.54113">
        <ele>13</ele>
        <time>2019-05-06T11:44:06Z</time>
      </trkpt>
      <trkpt lat="50.89065" lon="2.54115">
        <ele>13</ele>
        <time>2019-05-06T11:44:07Z</time>
      </trkpt>
      <trkpt lat="50.8908" lon="2.5414">
        <ele>13</ele>
        <time>2019-05-06T11:44:16Z</time>
      </trkpt>
      <trkpt lat="50.89098" lon="2.54162">
        <ele>12</ele>
        <time>2019-05-06T11:44:25Z</time>
      </trkpt>
      <trkpt lat="50.89114" lon="2.54178">
        <ele>12</ele>
        <time>2019-05-06T11:44:34Z</time>
      </trkpt>
      <trkpt lat="50.89133" lon="2.54192">
        <ele>12</ele>
        <time>2019-05-06T11:44:44Z</time>
      </trkpt>
      <trkpt lat="50.89148" lon="2.54212">
        <ele>11</ele>
        <time>2019-05-06T11:44:52Z</time>
      </trkpt>
      <trkpt lat="50.89162" lon="2.5423">
        <ele>11</ele>
        <time>2019-05-06T11:45:02Z</time>
      </trkpt>
      <trkpt lat="50.89177" lon="2.54248">
        <ele>11</ele>
        <time>2019-05-06T11:45:11Z</time>
      </trkpt>
      <trkpt lat="50.89191" lon="2.54268">
        <ele>11</ele>
        <time>2019-05-06T11:45:20Z</time>
      </trkpt>
      <trkpt lat="50.89199" lon="2.54281">
        <ele>10</ele>
        <time>2019-05-06T11:45:26Z</time>
      </trkpt>
      <trkpt lat="50.89204" lon="2.54287">
        <ele>10</ele>
        <time>2019-05-06T11:45:29Z</time>
      </trkpt>
      <trkpt lat="50.89206" lon="2.54288">
        <ele>10</ele>
        <time>2019-05-06T11:45:30Z</time>
      </trkpt>
      <trkpt lat="50.89208" lon="2.54291">
        <ele>10</ele>
        <time>2019-05-06T11:45:31Z</time>
      </trkpt>
      <trkpt lat="50.89209" lon="2.54293">
        <ele>10</ele>
        <time>2019-05-06T11:45:32Z</time>
      </trkpt>
      <trkpt lat="50.89211" lon="2.54295">
        <ele>10</ele>
        <time>2019-05-06T11:45:33Z</time>
      </trkpt>
      <trkpt lat="50.89227" lon="2.54314">
        <ele>10</ele>
        <time>2019-05-06T11:45:43Z</time>
      </trkpt>
      <trkpt lat="50.89242" lon="2.54336">
        <ele>10</ele>
        <time>2019-05-06T11:45:53Z</time>
      </trkpt>
      <trkpt lat="50.89259" lon="2.54353">
        <ele>9</ele>
        <time>2019-05-06T11:46:02Z</time>
      </trkpt>
      <trkpt lat="50.89275" lon="2.54375">
        <ele>9</ele>
        <time>2019-05-06T11:46:12Z</time>
      </trkpt>
      <trkpt lat="50.89291" lon="2.54395">
        <ele>11</ele>
        <time>2019-05-06T11:46:22Z</time>
      </trkpt>
      <trkpt lat="50.89306" lon="2.54417">
        <ele>11</ele>
        <time>2019-05-06T11:46:32Z</time>
      </trkpt>
      <trkpt lat="50.89319" lon="2.54441">
        <ele>11</ele>
        <time>2019-05-06T11:46:42Z</time>
      </trkpt>
      <trkpt lat="50.89334" lon="2.5446">
        <ele>11</ele>
        <time>2019-05-06T11:46:52Z</time>
      </trkpt>
      <trkpt lat="50.8935" lon="2.54484">
        <ele>11</ele>
        <time>2019-05-06T11:47:03Z</time>
      </trkpt>
      <trkpt lat="50.8936" lon="2.54502">
        <ele>11</ele>
        <time>2019-05-06T11:47:11Z</time>
      </trkpt>
      <trkpt lat="50.89362" lon="2.54504">
        <ele>11</ele>
        <time>2019-05-06T11:47:12Z</time>
      </trkpt>
      <trkpt lat="50.89363" lon="2.54506">
        <ele>11</ele>
        <time>2019-05-06T11:47:13Z</time>
      </trkpt>
      <trkpt lat="50.89381" lon="2.54529">
        <ele>11</ele>
        <time>2019-05-06T11:47:24Z</time>
      </trkpt>
      <trkpt lat="50.89401" lon="2.54548">
        <ele>11</ele>
        <time>2019-05-06T11:47:34Z</time>
      </trkpt>
      <trkpt lat="50.89421" lon="2.54564">
        <ele>11</ele>
        <time>2019-05-06T11:47:44Z</time>
      </trkpt>
      <trkpt lat="50.89438" lon="2.54582">
        <ele>10</ele>
        <time>2019-05-06T11:47:53Z</time>
      </trkpt>
      <trkpt lat="50.89454" lon="2.54599">
        <ele>11</ele>
        <time>2019-05-06T11:48:02Z</time>
      </trkpt>
      <trkpt lat="50.89472" lon="2.54616">
        <ele>11</ele>
        <time>2019-05-06T11:48:12Z</time>
      </trkpt>
      <trkpt lat="50.89492" lon="2.54628">
        <ele>11</ele>
        <time>2019-05-06T11:48:22Z</time>
      </trkpt>
      <trkpt lat="50.8951" lon="2.54637">
        <ele>11</ele>
        <time>2019-05-06T11:48:31Z</time>
      </trkpt>
      <trkpt lat="50.89531" lon="2.54648">
        <ele>12</ele>
        <time>2019-05-06T11:48:41Z</time>
      </trkpt>
      <trkpt lat="50.89549" lon="2.54659">
        <ele>11</ele>
        <time>2019-05-06T11:48:50Z</time>
      </trkpt>
      <trkpt lat="50.89566" lon="2.5467">
        <ele>11</ele>
        <time>2019-05-06T11:49:00Z</time>
      </trkpt>
      <trkpt lat="50.89584" lon="2.54684">
        <ele>10</ele>
        <time>2019-05-06T11:49:10Z</time>
      </trkpt>
      <trkpt lat="50.89603" lon="2.54695">
        <ele>10</ele>
        <time>2019-05-06T11:49:20Z</time>
      </trkpt>
      <trkpt lat="50.89621" lon="2.54707">
        <ele>10</ele>
        <time>2019-05-06T11:49:29Z</time>
      </trkpt>
      <trkpt lat="50.89639" lon="2.54717">
        <ele>9</ele>
        <time>2019-05-06T11:49:38Z</time>
      </trkpt>
      <trkpt lat="50.89658" lon="2.54731">
        <ele>9</ele>
        <time>2019-05-06T11:49:48Z</time>
      </trkpt>
      <trkpt lat="50.89668" lon="2.54738">
        <ele>9</ele>
        <time>2019-05-06T11:49:53Z</time>
      </trkpt>
      <trkpt lat="50.8967" lon="2.54738">
        <ele>8</ele>
        <time>2019-05-06T11:49:54Z</time>
      </trkpt>
      <trkpt lat="50.89671" lon="2.54738">
        <ele>8</ele>
        <time>2019-05-06T11:49:55Z</time>
      </trkpt>
      <trkpt lat="50.89674" lon="2.5474">
        <ele>8</ele>
        <time>2019-05-06T11:49:56Z</time>
      </trkpt>
      <trkpt lat="50.89676" lon="2.5474">
        <ele>8</ele>
        <time>2019-05-06T11:49:57Z</time>
      </trkpt>
      <trkpt lat="50.89677" lon="2.54741">
        <ele>8</ele>
        <time>2019-05-06T11:49:58Z</time>
      </trkpt>
      <trkpt lat="50.89695" lon="2.54752">
        <ele>8</ele>
        <time>2019-05-06T11:50:07Z</time>
      </trkpt>
      <trkpt lat="50.89713" lon="2.54763">
        <ele>8</ele>
        <time>2019-05-06T11:50:16Z</time>
      </trkpt>
      <trkpt lat="50.89732" lon="2.54775">
        <ele>7</ele>
        <time>2019-05-06T11:50:25Z</time>
      </trkpt>
      <trkpt lat="50.89734" lon="2.54777">
        <ele>7</ele>
        <time>2019-05-06T11:50:26Z</time>
      </trkpt>
      <trkpt lat="50.89736" lon="2.54778">
        <ele>7</ele>
        <time>2019-05-06T11:50:27Z</time>
      </trkpt>
      <trkpt lat="50.89737" lon="2.54779">
        <ele>7</ele>
        <time>2019-05-06T11:50:28Z</time>
      </trkpt>
      <trkpt lat="50.89739" lon="2.5478">
        <ele>7</ele>
        <time>2019-05-06T11:50:29Z</time>
      </trkpt>
      <trkpt lat="50.89741" lon="2.54781">
        <ele>7</ele>
        <time>2019-05-06T11:50:30Z</time>
      </trkpt>
      <trkpt lat="50.89759" lon="2.54793">
        <ele>8</ele>
        <time>2019-05-06T11:50:40Z</time>
      </trkpt>
      <trkpt lat="50.89776" lon="2.54806">
        <ele>8</ele>
        <time>2019-05-06T11:50:49Z</time>
      </trkpt>
      <trkpt lat="50.89795" lon="2.54818">
        <ele>8</ele>
        <time>2019-05-06T11:50:59Z</time>
      </trkpt>
      <trkpt lat="50.89815" lon="2.54831">
        <ele>8</ele>
        <time>2019-05-06T11:51:09Z</time>
      </trkpt>
      <trkpt lat="50.89834" lon="2.54845">
        <ele>6</ele>
        <time>2019-05-06T11:51:18Z</time>
      </trkpt>
      <trkpt lat="50.89852" lon="2.54858">
        <ele>5</ele>
        <time>2019-05-06T11:51:28Z</time>
      </trkpt>
      <trkpt lat="50.89871" lon="2.54871">
        <ele>5</ele>
        <time>2019-05-06T11:51:39Z</time>
      </trkpt>
      <trkpt lat="50.8989" lon="2.54882">
        <ele>5</ele>
        <time>2019-05-06T11:51:49Z</time>
      </trkpt>
      <trkpt lat="50.89906" lon="2.54888">
        <ele>7</ele>
        <time>2019-05-06T11:51:57Z</time>
      </trkpt>
      <trkpt lat="50.89908" lon="2.54889">
        <ele>6</ele>
        <time>2019-05-06T11:51:58Z</time>
      </trkpt>
      <trkpt lat="50.89909" lon="2.5489">
        <ele>7</ele>
        <time>2019-05-06T11:51:59Z</time>
      </trkpt>
      <trkpt lat="50.89911" lon="2.5489">
        <ele>7</ele>
        <time>2019-05-06T11:52:00Z</time>
      </trkpt>
      <trkpt lat="50.89913" lon="2.54891">
        <ele>7</ele>
        <time>2019-05-06T11:52:01Z</time>
      </trkpt>
      <trkpt lat="50.89915" lon="2.54891">
        <ele>7</ele>
        <time>2019-05-06T11:52:02Z</time>
      </trkpt>
      <trkpt lat="50.89917" lon="2.54891">
        <ele>7</ele>
        <time>2019-05-06T11:52:03Z</time>
      </trkpt>
      <trkpt lat="50.8993" lon="2.54895">
        <ele>7</ele>
        <time>2019-05-06T11:52:10Z</time>
      </trkpt>
      <trkpt lat="50.89933" lon="2.54896">
        <ele>7</ele>
        <time>2019-05-06T11:52:11Z</time>
      </trkpt>
      <trkpt lat="50.89956" lon="2.54906">
        <ele>7</ele>
        <time>2019-05-06T11:52:21Z</time>
      </trkpt>
      <trkpt lat="50.89977" lon="2.54913">
        <ele>8</ele>
        <time>2019-05-06T11:52:32Z</time>
      </trkpt>
      <trkpt lat="50.89999" lon="2.54919">
        <ele>8</ele>
        <time>2019-05-06T11:52:42Z</time>
      </trkpt>
      <trkpt lat="50.90019" lon="2.54927">
        <ele>9</ele>
        <time>2019-05-06T11:52:51Z</time>
      </trkpt>
      <trkpt lat="50.90041" lon="2.54936">
        <ele>9</ele>
        <time>2019-05-06T11:53:01Z</time>
      </trkpt>
      <trkpt lat="50.90062" lon="2.54945">
        <ele>9</ele>
        <time>2019-05-06T11:53:11Z</time>
      </trkpt>
      <trkpt lat="50.90065" lon="2.54947">
        <ele>9</ele>
        <time>2019-05-06T11:53:12Z</time>
      </trkpt>
      <trkpt lat="50.90067" lon="2.54948">
        <ele>9</ele>
        <time>2019-05-06T11:53:13Z</time>
      </trkpt>
      <trkpt lat="50.90073" lon="2.5495">
        <ele>10</ele>
        <time>2019-05-06T11:53:16Z</time>
      </trkpt>
      <trkpt lat="50.90075" lon="2.54952">
        <ele>9</ele>
        <time>2019-05-06T11:53:17Z</time>
      </trkpt>
      <trkpt lat="50.90077" lon="2.54952">
        <ele>9</ele>
        <time>2019-05-06T11:53:18Z</time>
      </trkpt>
      <trkpt lat="50.90079" lon="2.54953">
        <ele>9</ele>
        <time>2019-05-06T11:53:19Z</time>
      </trkpt>
      <trkpt lat="50.9008" lon="2.54953">
        <ele>9</ele>
        <time>2019-05-06T11:53:20Z</time>
      </trkpt>
      <trkpt lat="50.90081" lon="2.54955">
        <ele>9</ele>
        <time>2019-05-06T11:53:21Z</time>
      </trkpt>
      <trkpt lat="50.90085" lon="2.54956">
        <ele>9</ele>
        <time>2019-05-06T11:53:23Z</time>
      </trkpt>
      <trkpt lat="50.90087" lon="2.54956">
        <ele>9</ele>
        <time>2019-05-06T11:53:24Z</time>
      </trkpt>
      <trkpt lat="50.90089" lon="2.54957">
        <ele>9</ele>
        <time>2019-05-06T11:53:25Z</time>
      </trkpt>
      <trkpt lat="50.90091" lon="2.54959">
        <ele>9</ele>
        <time>2019-05-06T11:53:26Z</time>
      </trkpt>
      <trkpt lat="50.90092" lon="2.5496">
        <ele>9</ele>
        <time>2019-05-06T11:53:27Z</time>
      </trkpt>
      <trkpt lat="50.90093" lon="2.5496">
        <ele>9</ele>
        <time>2019-05-06T11:53:28Z</time>
      </trkpt>
      <trkpt lat="50.90095" lon="2.5496">
        <ele>9</ele>
        <time>2019-05-06T11:53:29Z</time>
      </trkpt>
      <trkpt lat="50.90097" lon="2.54961">
        <ele>9</ele>
        <time>2019-05-06T11:53:30Z</time>
      </trkpt>
      <trkpt lat="50.90099" lon="2.54962">
        <ele>9</ele>
        <time>2019-05-06T11:53:31Z</time>
      </trkpt>
      <trkpt lat="50.90117" lon="2.54966">
        <ele>9</ele>
        <time>2019-05-06T11:53:40Z</time>
      </trkpt>
      <trkpt lat="50.90118" lon="2.54966">
        <ele>9</ele>
        <time>2019-05-06T11:53:41Z</time>
      </trkpt>
      <trkpt lat="50.90132" lon="2.54959">
        <ele>9</ele>
        <time>2019-05-06T11:53:49Z</time>
      </trkpt>
      <trkpt lat="50.90132" lon="2.54957">
        <ele>9</ele>
        <time>2019-05-06T11:53:50Z</time>
      </trkpt>
      <trkpt lat="50.90132" lon="2.54954">
        <ele>9</ele>
        <time>2019-05-06T11:53:51Z</time>
      </trkpt>
      <trkpt lat="50.90132" lon="2.5495">
        <ele>9</ele>
        <time>2019-05-06T11:53:52Z</time>
      </trkpt>
      <trkpt lat="50.90132" lon="2.54946">
        <ele>8</ele>
        <time>2019-05-06T11:53:53Z</time>
      </trkpt>
      <trkpt lat="50.90132" lon="2.54944">
        <ele>8</ele>
        <time>2019-05-06T11:53:54Z</time>
      </trkpt>
      <trkpt lat="50.90132" lon="2.54914">
        <ele>9</ele>
        <time>2019-05-06T11:54:03Z</time>
      </trkpt>
      <trkpt lat="50.90131" lon="2.54884">
        <ele>9</ele>
        <time>2019-05-06T11:54:12Z</time>
      </trkpt>
      <trkpt lat="50.90132" lon="2.54853">
        <ele>9</ele>
        <time>2019-05-06T11:54:21Z</time>
      </trkpt>
      <trkpt lat="50.90137" lon="2.5483">
        <ele>8</ele>
        <time>2019-05-06T11:54:30Z</time>
      </trkpt>
      <trkpt lat="50.90137" lon="2.54827">
        <ele>8</ele>
        <time>2019-05-06T11:54:31Z</time>
      </trkpt>
      <trkpt lat="50.90137" lon="2.54824">
        <ele>8</ele>
        <time>2019-05-06T11:54:32Z</time>
      </trkpt>
      <trkpt lat="50.90137" lon="2.5482">
        <ele>8</ele>
        <time>2019-05-06T11:54:33Z</time>
      </trkpt>
      <trkpt lat="50.90137" lon="2.54817">
        <ele>8</ele>
        <time>2019-05-06T11:54:34Z</time>
      </trkpt>
      <trkpt lat="50.90141" lon="2.54798">
        <ele>9</ele>
        <time>2019-05-06T11:54:40Z</time>
      </trkpt>
      <trkpt lat="50.90143" lon="2.54795">
        <ele>9</ele>
        <time>2019-05-06T11:54:41Z</time>
      </trkpt>
      <trkpt lat="50.90144" lon="2.54793">
        <ele>9</ele>
        <time>2019-05-06T11:54:42Z</time>
      </trkpt>
      <trkpt lat="50.9015" lon="2.54759">
        <ele>9</ele>
        <time>2019-05-06T11:54:51Z</time>
      </trkpt>
      <trkpt lat="50.90157" lon="2.54729">
        <ele>9</ele>
        <time>2019-05-06T11:55:00Z</time>
      </trkpt>
      <trkpt lat="50.90164" lon="2.54721">
        <ele>9</ele>
        <time>2019-05-06T11:55:04Z</time>
      </trkpt>
      <trkpt lat="50.90164" lon="2.54719">
        <ele>9</ele>
        <time>2019-05-06T11:55:05Z</time>
      </trkpt>
      <trkpt lat="50.90164" lon="2.54716">
        <ele>8</ele>
        <time>2019-05-06T11:55:06Z</time>
      </trkpt>
      <trkpt lat="50.90165" lon="2.54712">
        <ele>8</ele>
        <time>2019-05-06T11:55:07Z</time>
      </trkpt>
      <trkpt lat="50.90165" lon="2.54708">
        <ele>8</ele>
        <time>2019-05-06T11:55:08Z</time>
      </trkpt>
      <trkpt lat="50.90164" lon="2.54674">
        <ele>8</ele>
        <time>2019-05-06T11:55:18Z</time>
      </trkpt>
      <trkpt lat="50.90164" lon="2.5464">
        <ele>9</ele>
        <time>2019-05-06T11:55:28Z</time>
      </trkpt>
      <trkpt lat="50.90162" lon="2.54623">
        <ele>9</ele>
        <time>2019-05-06T11:55:33Z</time>
      </trkpt>
      <trkpt lat="50.90159" lon="2.54589">
        <ele>8</ele>
        <time>2019-05-06T11:55:43Z</time>
      </trkpt>
      <trkpt lat="50.90158" lon="2.54586">
        <ele>8</ele>
        <time>2019-05-06T11:55:44Z</time>
      </trkpt>
      <trkpt lat="50.90158" lon="2.54581">
        <ele>8</ele>
        <time>2019-05-06T11:55:45Z</time>
      </trkpt>
      <trkpt lat="50.90159" lon="2.54577">
        <ele>8</ele>
        <time>2019-05-06T11:55:46Z</time>
      </trkpt>
      <trkpt lat="50.90158" lon="2.54574">
        <ele>8</ele>
        <time>2019-05-06T11:55:47Z</time>
      </trkpt>
      <trkpt lat="50.90159" lon="2.54572">
        <ele>8</ele>
        <time>2019-05-06T11:55:48Z</time>
      </trkpt>
      <trkpt lat="50.9016" lon="2.5457">
        <ele>8</ele>
        <time>2019-05-06T11:55:49Z</time>
      </trkpt>
      <trkpt lat="50.90172" lon="2.54543">
        <ele>8</ele>
        <time>2019-05-06T11:55:58Z</time>
      </trkpt>
      <trkpt lat="50.90189" lon="2.54523">
        <ele>8</ele>
        <time>2019-05-06T11:56:07Z</time>
      </trkpt>
      <trkpt lat="50.90207" lon="2.54511">
        <ele>9</ele>
        <time>2019-05-06T11:56:16Z</time>
      </trkpt>
      <trkpt lat="50.90226" lon="2.54499">
        <ele>8</ele>
        <time>2019-05-06T11:56:25Z</time>
      </trkpt>
      <trkpt lat="50.90248" lon="2.54493">
        <ele>8</ele>
        <time>2019-05-06T11:56:34Z</time>
      </trkpt>
      <trkpt lat="50.90268" lon="2.54489">
        <ele>8</ele>
        <time>2019-05-06T11:56:44Z</time>
      </trkpt>
      <trkpt lat="50.90279" lon="2.54486">
        <ele>8</ele>
        <time>2019-05-06T11:56:49Z</time>
      </trkpt>
      <trkpt lat="50.90281" lon="2.54486">
        <ele>8</ele>
        <time>2019-05-06T11:56:50Z</time>
      </trkpt>
      <trkpt lat="50.90283" lon="2.54487">
        <ele>8</ele>
        <time>2019-05-06T11:56:51Z</time>
      </trkpt>
      <trkpt lat="50.903" lon="2.54482">
        <ele>8</ele>
        <time>2019-05-06T11:57:00Z</time>
      </trkpt>
      <trkpt lat="50.90312" lon="2.54479">
        <ele>7</ele>
        <time>2019-05-06T11:57:05Z</time>
      </trkpt>
      <trkpt lat="50.90315" lon="2.54477">
        <ele>7</ele>
        <time>2019-05-06T11:57:07Z</time>
      </trkpt>
      <trkpt lat="50.90318" lon="2.54475">
        <ele>7</ele>
        <time>2019-05-06T11:57:08Z</time>
      </trkpt>
      <trkpt lat="50.90319" lon="2.54473">
        <ele>7</ele>
        <time>2019-05-06T11:57:09Z</time>
      </trkpt>
      <trkpt lat="50.90321" lon="2.54472">
        <ele>7</ele>
        <time>2019-05-06T11:57:10Z</time>
      </trkpt>
      <trkpt lat="50.90323" lon="2.54469">
        <ele>8</ele>
        <time>2019-05-06T11:57:11Z</time>
      </trkpt>
      <trkpt lat="50.90325" lon="2.54468">
        <ele>8</ele>
        <time>2019-05-06T11:57:12Z</time>
      </trkpt>
      <trkpt lat="50.90328" lon="2.54467">
        <ele>8</ele>
        <time>2019-05-06T11:57:13Z</time>
      </trkpt>
      <trkpt lat="50.90348" lon="2.54458">
        <ele>8</ele>
        <time>2019-05-06T11:57:22Z</time>
      </trkpt>
      <trkpt lat="50.90368" lon="2.54447">
        <ele>8</ele>
        <time>2019-05-06T11:57:32Z</time>
      </trkpt>
      <trkpt lat="50.90384" lon="2.5443">
        <ele>7</ele>
        <time>2019-05-06T11:57:42Z</time>
      </trkpt>
      <trkpt lat="50.90404" lon="2.54419">
        <ele>8</ele>
        <time>2019-05-06T11:57:52Z</time>
      </trkpt>
      <trkpt lat="50.90418" lon="2.54401">
        <ele>8</ele>
        <time>2019-05-06T11:58:01Z</time>
      </trkpt>
      <trkpt lat="50.90437" lon="2.54389">
        <ele>8</ele>
        <time>2019-05-06T11:58:11Z</time>
      </trkpt>
      <trkpt lat="50.90451" lon="2.5437">
        <ele>9</ele>
        <time>2019-05-06T11:58:20Z</time>
      </trkpt>
      <trkpt lat="50.90459" lon="2.54346">
        <ele>9</ele>
        <time>2019-05-06T11:58:29Z</time>
      </trkpt>
      <trkpt lat="50.90473" lon="2.54325">
        <ele>9</ele>
        <time>2019-05-06T11:58:38Z</time>
      </trkpt>
      <trkpt lat="50.90487" lon="2.54304">
        <ele>9</ele>
        <time>2019-05-06T11:58:47Z</time>
      </trkpt>
      <trkpt lat="50.90505" lon="2.54288">
        <ele>9</ele>
        <time>2019-05-06T11:58:56Z</time>
      </trkpt>
      <trkpt lat="50.90518" lon="2.54269">
        <ele>10</ele>
        <time>2019-05-06T11:59:05Z</time>
      </trkpt>
      <trkpt lat="50.90521" lon="2.54256">
        <ele>10</ele>
        <time>2019-05-06T11:59:09Z</time>
      </trkpt>
      <trkpt lat="50.90522" lon="2.54254">
        <ele>10</ele>
        <time>2019-05-06T11:59:10Z</time>
      </trkpt>
      <trkpt lat="50.90523" lon="2.54252">
        <ele>10</ele>
        <time>2019-05-06T11:59:11Z</time>
      </trkpt>
      <trkpt lat="50.90537" lon="2.54226">
        <ele>10</ele>
        <time>2019-05-06T11:59:21Z</time>
      </trkpt>
      <trkpt lat="50.90548" lon="2.542">
        <ele>10</ele>
        <time>2019-05-06T11:59:31Z</time>
      </trkpt>
      <trkpt lat="50.9056" lon="2.5418">
        <ele>11</ele>
        <time>2019-05-06T11:59:40Z</time>
      </trkpt>
      <trkpt lat="50.90575" lon="2.54159">
        <ele>11</ele>
        <time>2019-05-06T11:59:49Z</time>
      </trkpt>
      <trkpt lat="50.9059" lon="2.54145">
        <ele>12</ele>
        <time>2019-05-06T11:59:58Z</time>
      </trkpt>
      <trkpt lat="50.90607" lon="2.54127">
        <ele>12</ele>
        <time>2019-05-06T12:00:08Z</time>
      </trkpt>
      <trkpt lat="50.90624" lon="2.5411">
        <ele>13</ele>
        <time>2019-05-06T12:00:17Z</time>
      </trkpt>
      <trkpt lat="50.90641" lon="2.54093">
        <ele>13</ele>
        <time>2019-05-06T12:00:26Z</time>
      </trkpt>
      <trkpt lat="50.90657" lon="2.54077">
        <ele>13</ele>
        <time>2019-05-06T12:00:35Z</time>
      </trkpt>
      <trkpt lat="50.90674" lon="2.54064">
        <ele>13</ele>
        <time>2019-05-06T12:00:44Z</time>
      </trkpt>
      <trkpt lat="50.90685" lon="2.54043">
        <ele>15</ele>
        <time>2019-05-06T12:00:53Z</time>
      </trkpt>
      <trkpt lat="50.907" lon="2.54029">
        <ele>15</ele>
        <time>2019-05-06T12:01:02Z</time>
      </trkpt>
      <trkpt lat="50.90714" lon="2.54015">
        <ele>15</ele>
        <time>2019-05-06T12:01:11Z</time>
      </trkpt>
      <trkpt lat="50.90729" lon="2.53997">
        <ele>16</ele>
        <time>2019-05-06T12:01:21Z</time>
      </trkpt>
      <trkpt lat="50.90745" lon="2.53976">
        <ele>17</ele>
        <time>2019-05-06T12:01:32Z</time>
      </trkpt>
      <trkpt lat="50.90759" lon="2.53954">
        <ele>17</ele>
        <time>2019-05-06T12:01:42Z</time>
      </trkpt>
      <trkpt lat="50.90774" lon="2.53932">
        <ele>18</ele>
        <time>2019-05-06T12:01:54Z</time>
      </trkpt>
      <trkpt lat="50.90788" lon="2.53911">
        <ele>19</ele>
        <time>2019-05-06T12:02:05Z</time>
      </trkpt>
      <trkpt lat="50.90795" lon="2.53882">
        <ele>20</ele>
        <time>2019-05-06T12:02:16Z</time>
      </trkpt>
      <trkpt lat="50.90796" lon="2.53877">
        <ele>20</ele>
        <time>2019-05-06T12:02:18Z</time>
      </trkpt>
      <trkpt lat="50.90797" lon="2.53874">
        <ele>20</ele>
        <time>2019-05-06T12:02:19Z</time>
      </trkpt>
      <trkpt lat="50.90797" lon="2.53871">
        <ele>20</ele>
        <time>2019-05-06T12:02:20Z</time>
      </trkpt>
      <trkpt lat="50.90798" lon="2.53868">
        <ele>20</ele>
        <time>2019-05-06T12:02:21Z</time>
      </trkpt>
      <trkpt lat="50.90799" lon="2.53866">
        <ele>20</ele>
        <time>2019-05-06T12:02:22Z</time>
      </trkpt>
      <trkpt lat="50.908" lon="2.53863">
        <ele>20</ele>
        <time>2019-05-06T12:02:23Z</time>
      </trkpt>
      <trkpt lat="50.90814" lon="2.53832">
        <ele>21</ele>
        <time>2019-05-06T12:02:34Z</time>
      </trkpt>
      <trkpt lat="50.90828" lon="2.53805">
        <ele>21</ele>
        <time>2019-05-06T12:02:45Z</time>
      </trkpt>
      <trkpt lat="50.9085" lon="2.53779">
        <ele>22</ele>
        <time>2019-05-06T12:02:57Z</time>
      </trkpt>
      <trkpt lat="50.90867" lon="2.53757">
        <ele>23</ele>
        <time>2019-05-06T12:03:07Z</time>
      </trkpt>
      <trkpt lat="50.90886" lon="2.53742">
        <ele>24</ele>
        <time>2019-05-06T12:03:16Z</time>
      </trkpt>
      <trkpt lat="50.90898" lon="2.53722">
        <ele>24</ele>
        <time>2019-05-06T12:03:25Z</time>
      </trkpt>
      <trkpt lat="50.90901" lon="2.53694">
        <ele>25</ele>
        <time>2019-05-06T12:03:34Z</time>
      </trkpt>
      <trkpt lat="50.90917" lon="2.53678">
        <ele>22</ele>
        <time>2019-05-06T12:03:44Z</time>
      </trkpt>
      <trkpt lat="50.90929" lon="2.53657">
        <ele>24</ele>
        <time>2019-05-06T12:03:54Z</time>
      </trkpt>
      <trkpt lat="50.90941" lon="2.53629">
        <ele>25</ele>
        <time>2019-05-06T12:04:03Z</time>
      </trkpt>
      <trkpt lat="50.90955" lon="2.53604">
        <ele>24</ele>
        <time>2019-05-06T12:04:12Z</time>
      </trkpt>
      <trkpt lat="50.90967" lon="2.53578">
        <ele>23</ele>
        <time>2019-05-06T12:04:21Z</time>
      </trkpt>
      <trkpt lat="50.90982" lon="2.53556">
        <ele>22</ele>
        <time>2019-05-06T12:04:30Z</time>
      </trkpt>
      <trkpt lat="50.91003" lon="2.53541">
        <ele>21</ele>
        <time>2019-05-06T12:04:39Z</time>
      </trkpt>
      <trkpt lat="50.91021" lon="2.53524">
        <ele>21</ele>
        <time>2019-05-06T12:04:47Z</time>
      </trkpt>
      <trkpt lat="50.91035" lon="2.53505">
        <ele>21</ele>
        <time>2019-05-06T12:04:56Z</time>
      </trkpt>
      <trkpt lat="50.91048" lon="2.53483">
        <ele>20</ele>
        <time>2019-05-06T12:05:05Z</time>
      </trkpt>
      <trkpt lat="50.91062" lon="2.53462">
        <ele>20</ele>
        <time>2019-05-06T12:05:14Z</time>
      </trkpt>
      <trkpt lat="50.91074" lon="2.53442">
        <ele>20</ele>
        <time>2019-05-06T12:05:23Z</time>
      </trkpt>
      <trkpt lat="50.91089" lon="2.53421">
        <ele>20</ele>
        <time>2019-05-06T12:05:32Z</time>
      </trkpt>
      <trkpt lat="50.91106" lon="2.53404">
        <ele>19</ele>
        <time>2019-05-06T12:05:40Z</time>
      </trkpt>
      <trkpt lat="50.91119" lon="2.53387">
        <ele>19</ele>
        <time>2019-05-06T12:05:49Z</time>
      </trkpt>
      <trkpt lat="50.91127" lon="2.53386">
        <ele>19</ele>
        <time>2019-05-06T12:05:53Z</time>
      </trkpt>
      <trkpt lat="50.91129" lon="2.53388">
        <ele>20</ele>
        <time>2019-05-06T12:05:54Z</time>
      </trkpt>
      <trkpt lat="50.91131" lon="2.53391">
        <ele>20</ele>
        <time>2019-05-06T12:05:55Z</time>
      </trkpt>
      <trkpt lat="50.91133" lon="2.53395">
        <ele>20</ele>
        <time>2019-05-06T12:05:56Z</time>
      </trkpt>
      <trkpt lat="50.91134" lon="2.53398">
        <ele>20</ele>
        <time>2019-05-06T12:05:57Z</time>
      </trkpt>
      <trkpt lat="50.91137" lon="2.53403">
        <ele>20</ele>
        <time>2019-05-06T12:05:59Z</time>
      </trkpt>
      <trkpt lat="50.91138" lon="2.53407">
        <ele>20</ele>
        <time>2019-05-06T12:06:00Z</time>
      </trkpt>
      <trkpt lat="50.91139" lon="2.5341">
        <ele>20</ele>
        <time>2019-05-06T12:06:01Z</time>
      </trkpt>
      <trkpt lat="50.9114" lon="2.53413">
        <ele>20</ele>
        <time>2019-05-06T12:06:02Z</time>
      </trkpt>
      <trkpt lat="50.91142" lon="2.53416">
        <ele>20</ele>
        <time>2019-05-06T12:06:03Z</time>
      </trkpt>
      <trkpt lat="50.91143" lon="2.53419">
        <ele>20</ele>
        <time>2019-05-06T12:06:04Z</time>
      </trkpt>
      <trkpt lat="50.91145" lon="2.53422">
        <ele>19</ele>
        <time>2019-05-06T12:06:05Z</time>
      </trkpt>
      <trkpt lat="50.91146" lon="2.53424">
        <ele>19</ele>
        <time>2019-05-06T12:06:06Z</time>
      </trkpt>
      <trkpt lat="50.91148" lon="2.53426">
        <ele>19</ele>
        <time>2019-05-06T12:06:07Z</time>
      </trkpt>
      <trkpt lat="50.9115" lon="2.53429">
        <ele>19</ele>
        <time>2019-05-06T12:06:08Z</time>
      </trkpt>
      <trkpt lat="50.91151" lon="2.53431">
        <ele>19</ele>
        <time>2019-05-06T12:06:09Z</time>
      </trkpt>
      <trkpt lat="50.91153" lon="2.53433">
        <ele>20</ele>
        <time>2019-05-06T12:06:10Z</time>
      </trkpt>
      <trkpt lat="50.91153" lon="2.53435">
        <ele>20</ele>
        <time>2019-05-06T12:06:11Z</time>
      </trkpt>
      <trkpt lat="50.91168" lon="2.53459">
        <ele>20</ele>
        <time>2019-05-06T12:06:21Z</time>
      </trkpt>
      <trkpt lat="50.91183" lon="2.53483">
        <ele>20</ele>
        <time>2019-05-06T12:06:30Z</time>
      </trkpt>
      <trkpt lat="50.91202" lon="2.53494">
        <ele>20</ele>
        <time>2019-05-06T12:06:40Z</time>
      </trkpt>
      <trkpt lat="50.91219" lon="2.53499">
        <ele>20</ele>
        <time>2019-05-06T12:06:49Z</time>
      </trkpt>
      <trkpt lat="50.9124" lon="2.53504">
        <ele>21</ele>
        <time>2019-05-06T12:06:58Z</time>
      </trkpt>
      <trkpt lat="50.91256" lon="2.53509">
        <ele>20</ele>
        <time>2019-05-06T12:07:07Z</time>
      </trkpt>
      <trkpt lat="50.91278" lon="2.53512">
        <ele>21</ele>
        <time>2019-05-06T12:07:16Z</time>
      </trkpt>
      <trkpt lat="50.91297" lon="2.53517">
        <ele>21</ele>
        <time>2019-05-06T12:07:25Z</time>
      </trkpt>
      <trkpt lat="50.91314" lon="2.53525">
        <ele>22</ele>
        <time>2019-05-06T12:07:35Z</time>
      </trkpt>
      <trkpt lat="50.91335" lon="2.53536">
        <ele>22</ele>
        <time>2019-05-06T12:07:45Z</time>
      </trkpt>
      <trkpt lat="50.91353" lon="2.53542">
        <ele>22</ele>
        <time>2019-05-06T12:07:55Z</time>
      </trkpt>
      <trkpt lat="50.91355" lon="2.53542">
        <ele>22</ele>
        <time>2019-05-06T12:07:56Z</time>
      </trkpt>
      <trkpt lat="50.91358" lon="2.53543">
        <ele>22</ele>
        <time>2019-05-06T12:07:57Z</time>
      </trkpt>
      <trkpt lat="50.91377" lon="2.53552">
        <ele>22</ele>
        <time>2019-05-06T12:08:07Z</time>
      </trkpt>
      <trkpt lat="50.91395" lon="2.53555">
        <ele>22</ele>
        <time>2019-05-06T12:08:16Z</time>
      </trkpt>
      <trkpt lat="50.91411" lon="2.53554">
        <ele>22</ele>
        <time>2019-05-06T12:08:25Z</time>
      </trkpt>
      <trkpt lat="50.91433" lon="2.53557">
        <ele>22</ele>
        <time>2019-05-06T12:08:33Z</time>
      </trkpt>
      <trkpt lat="50.91455" lon="2.53558">
        <ele>21</ele>
        <time>2019-05-06T12:08:41Z</time>
      </trkpt>
      <trkpt lat="50.91467" lon="2.53557">
        <ele>21</ele>
        <time>2019-05-06T12:08:50Z</time>
      </trkpt>
      <trkpt lat="50.91481" lon="2.53554">
        <ele>21</ele>
        <time>2019-05-06T12:08:59Z</time>
      </trkpt>
      <trkpt lat="50.91497" lon="2.53552">
        <ele>21</ele>
        <time>2019-05-06T12:09:07Z</time>
      </trkpt>
      <trkpt lat="50.91498" lon="2.53551">
        <ele>21</ele>
        <time>2019-05-06T12:09:08Z</time>
      </trkpt>
      <trkpt lat="50.91518" lon="2.53548">
        <ele>21</ele>
        <time>2019-05-06T12:09:18Z</time>
      </trkpt>
      <trkpt lat="50.91539" lon="2.53546">
        <ele>21</ele>
        <time>2019-05-06T12:09:27Z</time>
      </trkpt>
      <trkpt lat="50.91562" lon="2.5355">
        <ele>20</ele>
        <time>2019-05-06T12:09:36Z</time>
      </trkpt>
      <trkpt lat="50.91582" lon="2.53556">
        <ele>21</ele>
        <time>2019-05-06T12:09:44Z</time>
      </trkpt>
      <trkpt lat="50.916" lon="2.53563">
        <ele>21</ele>
        <time>2019-05-06T12:09:53Z</time>
      </trkpt>
      <trkpt lat="50.91617" lon="2.53557">
        <ele>20</ele>
        <time>2019-05-06T12:10:02Z</time>
      </trkpt>
      <trkpt lat="50.91627" lon="2.53547">
        <ele>20</ele>
        <time>2019-05-06T12:10:10Z</time>
      </trkpt>
      <trkpt lat="50.91641" lon="2.53533">
        <ele>20</ele>
        <time>2019-05-06T12:10:19Z</time>
      </trkpt>
      <trkpt lat="50.91658" lon="2.53523">
        <ele>20</ele>
        <time>2019-05-06T12:10:28Z</time>
      </trkpt>
      <trkpt lat="50.9167" lon="2.5352">
        <ele>18</ele>
        <time>2019-05-06T12:10:33Z</time>
      </trkpt>
      <trkpt lat="50.91687" lon="2.53514">
        <ele>17</ele>
        <time>2019-05-06T12:10:42Z</time>
      </trkpt>
      <trkpt lat="50.91704" lon="2.53503">
        <ele>19</ele>
        <time>2019-05-06T12:10:51Z</time>
      </trkpt>
      <trkpt lat="50.91706" lon="2.53502">
        <ele>19</ele>
        <time>2019-05-06T12:10:52Z</time>
      </trkpt>
      <trkpt lat="50.91722" lon="2.53485">
        <ele>19</ele>
        <time>2019-05-06T12:11:01Z</time>
      </trkpt>
      <trkpt lat="50.9174" lon="2.53473">
        <ele>19</ele>
        <time>2019-05-06T12:11:09Z</time>
      </trkpt>
      <trkpt lat="50.91756" lon="2.53459">
        <ele>18</ele>
        <time>2019-05-06T12:11:18Z</time>
      </trkpt>
      <trkpt lat="50.91773" lon="2.53448">
        <ele>18</ele>
        <time>2019-05-06T12:11:27Z</time>
      </trkpt>
      <trkpt lat="50.91773" lon="2.53446">
        <ele>18</ele>
        <time>2019-05-06T12:11:28Z</time>
      </trkpt>
      <trkpt lat="50.91773" lon="2.53446">
        <ele>18</ele>
        <time>2019-05-06T12:11:29Z</time>
      </trkpt>
      <trkpt lat="50.91758" lon="2.53427">
        <ele>18</ele>
        <time>2019-05-06T12:11:38Z</time>
      </trkpt>
      <trkpt lat="50.91743" lon="2.53408">
        <ele>19</ele>
        <time>2019-05-06T12:11:47Z</time>
      </trkpt>
      <trkpt lat="50.91737" lon="2.53394">
        <ele>18</ele>
        <time>2019-05-06T12:11:54Z</time>
      </trkpt>
      <trkpt lat="50.91736" lon="2.53392">
        <ele>18</ele>
        <time>2019-05-06T12:11:55Z</time>
      </trkpt>
      <trkpt lat="50.91727" lon="2.53368">
        <ele>18</ele>
        <time>2019-05-06T12:12:04Z</time>
      </trkpt>
      <trkpt lat="50.9172" lon="2.53336">
        <ele>18</ele>
        <time>2019-05-06T12:12:14Z</time>
      </trkpt>
      <trkpt lat="50.91718" lon="2.53328">
        <ele>18</ele>
        <time>2019-05-06T12:12:17Z</time>
      </trkpt>
      <trkpt lat="50.9172" lon="2.53292">
        <ele>18</ele>
        <time>2019-05-06T12:12:27Z</time>
      </trkpt>
      <trkpt lat="50.9172" lon="2.53289">
        <ele>18</ele>
        <time>2019-05-06T12:12:28Z</time>
      </trkpt>
      <trkpt lat="50.9172" lon="2.53285">
        <ele>18</ele>
        <time>2019-05-06T12:12:29Z</time>
      </trkpt>
      <trkpt lat="50.9172" lon="2.53281">
        <ele>18</ele>
        <time>2019-05-06T12:12:30Z</time>
      </trkpt>
      <trkpt lat="50.9172" lon="2.53277">
        <ele>18</ele>
        <time>2019-05-06T12:12:31Z</time>
      </trkpt>
      <trkpt lat="50.91719" lon="2.53274">
        <ele>18</ele>
        <time>2019-05-06T12:12:32Z</time>
      </trkpt>
      <trkpt lat="50.91718" lon="2.53271">
        <ele>18</ele>
        <time>2019-05-06T12:12:33Z</time>
      </trkpt>
      <trkpt lat="50.91712" lon="2.53242">
        <ele>18</ele>
        <time>2019-05-06T12:12:42Z</time>
      </trkpt>
      <trkpt lat="50.91705" lon="2.53214">
        <ele>18</ele>
        <time>2019-05-06T12:12:51Z</time>
      </trkpt>
      <trkpt lat="50.91698" lon="2.5319">
        <ele>18</ele>
        <time>2019-05-06T12:12:58Z</time>
      </trkpt>
      <trkpt lat="50.91692" lon="2.53165">
        <ele>18</ele>
        <time>2019-05-06T12:13:06Z</time>
      </trkpt>
      <trkpt lat="50.91685" lon="2.53139">
        <ele>19</ele>
        <time>2019-05-06T12:13:15Z</time>
      </trkpt>
      <trkpt lat="50.91675" lon="2.53116">
        <ele>19</ele>
        <time>2019-05-06T12:13:24Z</time>
      </trkpt>
      <trkpt lat="50.91672" lon="2.53094">
        <ele>18</ele>
        <time>2019-05-06T12:13:31Z</time>
      </trkpt>
      <trkpt lat="50.9167" lon="2.5309">
        <ele>19</ele>
        <time>2019-05-06T12:13:33Z</time>
      </trkpt>
      <trkpt lat="50.91666" lon="2.53059">
        <ele>20</ele>
        <time>2019-05-06T12:13:42Z</time>
      </trkpt>
      <trkpt lat="50.91659" lon="2.5303">
        <ele>19</ele>
        <time>2019-05-06T12:13:52Z</time>
      </trkpt>
      <trkpt lat="50.91651" lon="2.53004">
        <ele>19</ele>
        <time>2019-05-06T12:14:01Z</time>
      </trkpt>
      <trkpt lat="50.9164" lon="2.52982">
        <ele>20</ele>
        <time>2019-05-06T12:14:11Z</time>
      </trkpt>
      <trkpt lat="50.91627" lon="2.52957">
        <ele>19</ele>
        <time>2019-05-06T12:14:20Z</time>
      </trkpt>
      <trkpt lat="50.91619" lon="2.52943">
        <ele>20</ele>
        <time>2019-05-06T12:14:26Z</time>
      </trkpt>
      <trkpt lat="50.91607" lon="2.52915">
        <ele>19</ele>
        <time>2019-05-06T12:14:35Z</time>
      </trkpt>
      <trkpt lat="50.91594" lon="2.52895">
        <ele>19</ele>
        <time>2019-05-06T12:14:44Z</time>
      </trkpt>
      <trkpt lat="50.91585" lon="2.52881">
        <ele>19</ele>
        <time>2019-05-06T12:14:50Z</time>
      </trkpt>
      <trkpt lat="50.91584" lon="2.52879">
        <ele>19</ele>
        <time>2019-05-06T12:14:51Z</time>
      </trkpt>
      <trkpt lat="50.91582" lon="2.52878">
        <ele>19</ele>
        <time>2019-05-06T12:14:52Z</time>
      </trkpt>
      <trkpt lat="50.91581" lon="2.52875">
        <ele>19</ele>
        <time>2019-05-06T12:14:53Z</time>
      </trkpt>
      <trkpt lat="50.9158" lon="2.52872">
        <ele>19</ele>
        <time>2019-05-06T12:14:54Z</time>
      </trkpt>
      <trkpt lat="50.91578" lon="2.52869">
        <ele>19</ele>
        <time>2019-05-06T12:14:55Z</time>
      </trkpt>
      <trkpt lat="50.91577" lon="2.52866">
        <ele>19</ele>
        <time>2019-05-06T12:14:56Z</time>
      </trkpt>
      <trkpt lat="50.91575" lon="2.52863">
        <ele>19</ele>
        <time>2019-05-06T12:14:57Z</time>
      </trkpt>
      <trkpt lat="50.91564" lon="2.52838">
        <ele>19</ele>
        <time>2019-05-06T12:15:06Z</time>
      </trkpt>
      <trkpt lat="50.91552" lon="2.52813">
        <ele>19</ele>
        <time>2019-05-06T12:15:16Z</time>
      </trkpt>
      <trkpt lat="50.91548" lon="2.52794">
        <ele>19</ele>
        <time>2019-05-06T12:15:22Z</time>
      </trkpt>
      <trkpt lat="50.91549" lon="2.5279">
        <ele>19</ele>
        <time>2019-05-06T12:15:23Z</time>
      </trkpt>
      <trkpt lat="50.9155" lon="2.52786">
        <ele>19</ele>
        <time>2019-05-06T12:15:24Z</time>
      </trkpt>
      <trkpt lat="50.91552" lon="2.52783">
        <ele>19</ele>
        <time>2019-05-06T12:15:25Z</time>
      </trkpt>
      <trkpt lat="50.91553" lon="2.5278">
        <ele>19</ele>
        <time>2019-05-06T12:15:26Z</time>
      </trkpt>
      <trkpt lat="50.91555" lon="2.52777">
        <ele>18</ele>
        <time>2019-05-06T12:15:27Z</time>
      </trkpt>
      <trkpt lat="50.9157" lon="2.52754">
        <ele>18</ele>
        <time>2019-05-06T12:15:35Z</time>
      </trkpt>
      <trkpt lat="50.91588" lon="2.52738">
        <ele>18</ele>
        <time>2019-05-06T12:15:44Z</time>
      </trkpt>
      <trkpt lat="50.91601" lon="2.52717">
        <ele>18</ele>
        <time>2019-05-06T12:15:53Z</time>
      </trkpt>
      <trkpt lat="50.91615" lon="2.52698">
        <ele>18</ele>
        <time>2019-05-06T12:16:02Z</time>
      </trkpt>
      <trkpt lat="50.91628" lon="2.5268">
        <ele>18</ele>
        <time>2019-05-06T12:16:10Z</time>
      </trkpt>
      <trkpt lat="50.91642" lon="2.52659">
        <ele>17</ele>
        <time>2019-05-06T12:16:19Z</time>
      </trkpt>
      <trkpt lat="50.91655" lon="2.52645">
        <ele>17</ele>
        <time>2019-05-06T12:16:27Z</time>
      </trkpt>
      <trkpt lat="50.91668" lon="2.52624">
        <ele>17</ele>
        <time>2019-05-06T12:16:36Z</time>
      </trkpt>
      <trkpt lat="50.91681" lon="2.52601">
        <ele>16</ele>
        <time>2019-05-06T12:16:45Z</time>
      </trkpt>
      <trkpt lat="50.91693" lon="2.52579">
        <ele>16</ele>
        <time>2019-05-06T12:16:54Z</time>
      </trkpt>
      <trkpt lat="50.91706" lon="2.52561">
        <ele>15</ele>
        <time>2019-05-06T12:17:02Z</time>
      </trkpt>
      <trkpt lat="50.91721" lon="2.52545">
        <ele>14</ele>
        <time>2019-05-06T12:17:10Z</time>
      </trkpt>
      <trkpt lat="50.91734" lon="2.52527">
        <ele>14</ele>
        <time>2019-05-06T12:17:18Z</time>
      </trkpt>
      <trkpt lat="50.91748" lon="2.52512">
        <ele>14</ele>
        <time>2019-05-06T12:17:27Z</time>
      </trkpt>
      <trkpt lat="50.91762" lon="2.52497">
        <ele>14</ele>
        <time>2019-05-06T12:17:36Z</time>
      </trkpt>
      <trkpt lat="50.91779" lon="2.52485">
        <ele>15</ele>
        <time>2019-05-06T12:17:45Z</time>
      </trkpt>
      <trkpt lat="50.91796" lon="2.52473">
        <ele>15</ele>
        <time>2019-05-06T12:17:54Z</time>
      </trkpt>
      <trkpt lat="50.91813" lon="2.52462">
        <ele>15</ele>
        <time>2019-05-06T12:18:02Z</time>
      </trkpt>
      <trkpt lat="50.91834" lon="2.52449">
        <ele>16</ele>
        <time>2019-05-06T12:18:13Z</time>
      </trkpt>
      <trkpt lat="50.91851" lon="2.52438">
        <ele>16</ele>
        <time>2019-05-06T12:18:22Z</time>
      </trkpt>
      <trkpt lat="50.91868" lon="2.52432">
        <ele>16</ele>
        <time>2019-05-06T12:18:31Z</time>
      </trkpt>
      <trkpt lat="50.91886" lon="2.52424">
        <ele>17</ele>
        <time>2019-05-06T12:18:39Z</time>
      </trkpt>
      <trkpt lat="50.91901" lon="2.52411">
        <ele>17</ele>
        <time>2019-05-06T12:18:48Z</time>
      </trkpt>
      <trkpt lat="50.91915" lon="2.52394">
        <ele>17</ele>
        <time>2019-05-06T12:18:57Z</time>
      </trkpt>
      <trkpt lat="50.91927" lon="2.52374">
        <ele>18</ele>
        <time>2019-05-06T12:19:06Z</time>
      </trkpt>
      <trkpt lat="50.91936" lon="2.5235">
        <ele>18</ele>
        <time>2019-05-06T12:19:17Z</time>
      </trkpt>
      <trkpt lat="50.91947" lon="2.52323">
        <ele>18</ele>
        <time>2019-05-06T12:19:27Z</time>
      </trkpt>
      <trkpt lat="50.91961" lon="2.523">
        <ele>18</ele>
        <time>2019-05-06T12:19:36Z</time>
      </trkpt>
      <trkpt lat="50.91975" lon="2.5228">
        <ele>18</ele>
        <time>2019-05-06T12:19:45Z</time>
      </trkpt>
      <trkpt lat="50.91992" lon="2.52265">
        <ele>18</ele>
        <time>2019-05-06T12:19:54Z</time>
      </trkpt>
      <trkpt lat="50.92008" lon="2.52253">
        <ele>18</ele>
        <time>2019-05-06T12:20:03Z</time>
      </trkpt>
      <trkpt lat="50.92025" lon="2.52242">
        <ele>19</ele>
        <time>2019-05-06T12:20:11Z</time>
      </trkpt>
      <trkpt lat="50.9204" lon="2.52233">
        <ele>19</ele>
        <time>2019-05-06T12:20:20Z</time>
      </trkpt>
      <trkpt lat="50.92057" lon="2.52218">
        <ele>20</ele>
        <time>2019-05-06T12:20:29Z</time>
      </trkpt>
      <trkpt lat="50.92072" lon="2.52203">
        <ele>20</ele>
        <time>2019-05-06T12:20:38Z</time>
      </trkpt>
      <trkpt lat="50.92081" lon="2.52194">
        <ele>20</ele>
        <time>2019-05-06T12:20:44Z</time>
      </trkpt>
      <trkpt lat="50.92089" lon="2.52186">
        <ele>20</ele>
        <time>2019-05-06T12:20:48Z</time>
      </trkpt>
      <trkpt lat="50.92104" lon="2.52169">
        <ele>20</ele>
        <time>2019-05-06T12:20:57Z</time>
      </trkpt>
      <trkpt lat="50.92118" lon="2.52151">
        <ele>20</ele>
        <time>2019-05-06T12:21:06Z</time>
      </trkpt>
      <trkpt lat="50.92131" lon="2.52131">
        <ele>19</ele>
        <time>2019-05-06T12:21:15Z</time>
      </trkpt>
      <trkpt lat="50.92142" lon="2.52108">
        <ele>21</ele>
        <time>2019-05-06T12:21:24Z</time>
      </trkpt>
      <trkpt lat="50.92156" lon="2.52087">
        <ele>22</ele>
        <time>2019-05-06T12:21:33Z</time>
      </trkpt>
      <trkpt lat="50.92168" lon="2.52067">
        <ele>22</ele>
        <time>2019-05-06T12:21:42Z</time>
      </trkpt>
      <trkpt lat="50.92179" lon="2.52045">
        <ele>22</ele>
        <time>2019-05-06T12:21:51Z</time>
      </trkpt>
      <trkpt lat="50.92188" lon="2.52022">
        <ele>23</ele>
        <time>2019-05-06T12:22:01Z</time>
      </trkpt>
      <trkpt lat="50.92171" lon="2.52">
        <ele>23</ele>
        <time>2019-05-06T12:22:10Z</time>
      </trkpt>
      <trkpt lat="50.92155" lon="2.5198">
        <ele>23</ele>
        <time>2019-05-06T12:22:20Z</time>
      </trkpt>
      <trkpt lat="50.92139" lon="2.51956">
        <ele>23</ele>
        <time>2019-05-06T12:22:28Z</time>
      </trkpt>
      <trkpt lat="50.92127" lon="2.51934">
        <ele>23</ele>
        <time>2019-05-06T12:22:36Z</time>
      </trkpt>
      <trkpt lat="50.92119" lon="2.5192">
        <ele>23</ele>
        <time>2019-05-06T12:22:42Z</time>
      </trkpt>
      <trkpt lat="50.92118" lon="2.51916">
        <ele>23</ele>
        <time>2019-05-06T12:22:43Z</time>
      </trkpt>
      <trkpt lat="50.92116" lon="2.51913">
        <ele>23</ele>
        <time>2019-05-06T12:22:44Z</time>
      </trkpt>
      <trkpt lat="50.92115" lon="2.51911">
        <ele>23</ele>
        <time>2019-05-06T12:22:45Z</time>
      </trkpt>
      <trkpt lat="50.92114" lon="2.51908">
        <ele>23</ele>
        <time>2019-05-06T12:22:46Z</time>
      </trkpt>
      <trkpt lat="50.92113" lon="2.51905">
        <ele>23</ele>
        <time>2019-05-06T12:22:47Z</time>
      </trkpt>
      <trkpt lat="50.92102" lon="2.51884">
        <ele>23</ele>
        <time>2019-05-06T12:22:56Z</time>
      </trkpt>
      <trkpt lat="50.92086" lon="2.51859">
        <ele>23</ele>
        <time>2019-05-06T12:23:05Z</time>
      </trkpt>
      <trkpt lat="50.92072" lon="2.51829">
        <ele>22</ele>
        <time>2019-05-06T12:23:14Z</time>
      </trkpt>
      <trkpt lat="50.92057" lon="2.51804">
        <ele>23</ele>
        <time>2019-05-06T12:23:23Z</time>
      </trkpt>
      <trkpt lat="50.92041" lon="2.51787">
        <ele>23</ele>
        <time>2019-05-06T12:23:32Z</time>
      </trkpt>
      <trkpt lat="50.92027" lon="2.5177">
        <ele>22</ele>
        <time>2019-05-06T12:23:40Z</time>
      </trkpt>
      <trkpt lat="50.92011" lon="2.5175">
        <ele>22</ele>
        <time>2019-05-06T12:23:49Z</time>
      </trkpt>
      <trkpt lat="50.91997" lon="2.51731">
        <ele>22</ele>
        <time>2019-05-06T12:23:58Z</time>
      </trkpt>
      <trkpt lat="50.91984" lon="2.51713">
        <ele>22</ele>
        <time>2019-05-06T12:24:07Z</time>
      </trkpt>
      <trkpt lat="50.9197" lon="2.51693">
        <ele>22</ele>
        <time>2019-05-06T12:24:16Z</time>
      </trkpt>
      <trkpt lat="50.91957" lon="2.51674">
        <ele>22</ele>
        <time>2019-05-06T12:24:25Z</time>
      </trkpt>
      <trkpt lat="50.91944" lon="2.51657">
        <ele>21</ele>
        <time>2019-05-06T12:24:34Z</time>
      </trkpt>
      <trkpt lat="50.9194" lon="2.51652">
        <ele>21</ele>
        <time>2019-05-06T12:24:37Z</time>
      </trkpt>
      <trkpt lat="50.91926" lon="2.5163">
        <ele>21</ele>
        <time>2019-05-06T12:24:46Z</time>
      </trkpt>
      <trkpt lat="50.91912" lon="2.5161">
        <ele>21</ele>
        <time>2019-05-06T12:24:55Z</time>
      </trkpt>
      <trkpt lat="50.91899" lon="2.51589">
        <ele>21</ele>
        <time>2019-05-06T12:25:04Z</time>
      </trkpt>
      <trkpt lat="50.91889" lon="2.51567">
        <ele>20</ele>
        <time>2019-05-06T12:25:13Z</time>
      </trkpt>
      <trkpt lat="50.91878" lon="2.51544">
        <ele>20</ele>
        <time>2019-05-06T12:25:22Z</time>
      </trkpt>
      <trkpt lat="50.91873" lon="2.51519">
        <ele>20</ele>
        <time>2019-05-06T12:25:30Z</time>
      </trkpt>
      <trkpt lat="50.91874" lon="2.51517">
        <ele>20</ele>
        <time>2019-05-06T12:25:31Z</time>
      </trkpt>
      <trkpt lat="50.91877" lon="2.51515">
        <ele>20</ele>
        <time>2019-05-06T12:25:32Z</time>
      </trkpt>
      <trkpt lat="50.91879" lon="2.51512">
        <ele>20</ele>
        <time>2019-05-06T12:25:33Z</time>
      </trkpt>
      <trkpt lat="50.91881" lon="2.51511">
        <ele>20</ele>
        <time>2019-05-06T12:25:34Z</time>
      </trkpt>
      <trkpt lat="50.91883" lon="2.51508">
        <ele>19</ele>
        <time>2019-05-06T12:25:35Z</time>
      </trkpt>
      <trkpt lat="50.91885" lon="2.51506">
        <ele>20</ele>
        <time>2019-05-06T12:25:36Z</time>
      </trkpt>
      <trkpt lat="50.91887" lon="2.51505">
        <ele>20</ele>
        <time>2019-05-06T12:25:37Z</time>
      </trkpt>
      <trkpt lat="50.91889" lon="2.51503">
        <ele>20</ele>
        <time>2019-05-06T12:25:38Z</time>
      </trkpt>
      <trkpt lat="50.9189" lon="2.51501">
        <ele>20</ele>
        <time>2019-05-06T12:25:39Z</time>
      </trkpt>
      <trkpt lat="50.91892" lon="2.51499">
        <ele>21</ele>
        <time>2019-05-06T12:25:40Z</time>
      </trkpt>
      <trkpt lat="50.91894" lon="2.51498">
        <ele>21</ele>
        <time>2019-05-06T12:25:41Z</time>
      </trkpt>
      <trkpt lat="50.91915" lon="2.51485">
        <ele>21</ele>
        <time>2019-05-06T12:25:50Z</time>
      </trkpt>
      <trkpt lat="50.91933" lon="2.51471">
        <ele>21</ele>
        <time>2019-05-06T12:25:59Z</time>
      </trkpt>
      <trkpt lat="50.91952" lon="2.51459">
        <ele>21</ele>
        <time>2019-05-06T12:26:09Z</time>
      </trkpt>
      <trkpt lat="50.91969" lon="2.51446">
        <ele>21</ele>
        <time>2019-05-06T12:26:19Z</time>
      </trkpt>
      <trkpt lat="50.91986" lon="2.51431">
        <ele>22</ele>
        <time>2019-05-06T12:26:28Z</time>
      </trkpt>
      <trkpt lat="50.92003" lon="2.51417">
        <ele>22</ele>
        <time>2019-05-06T12:26:38Z</time>
      </trkpt>
      <trkpt lat="50.92018" lon="2.51401">
        <ele>23</ele>
        <time>2019-05-06T12:26:48Z</time>
      </trkpt>
      <trkpt lat="50.92035" lon="2.51386">
        <ele>23</ele>
        <time>2019-05-06T12:26:58Z</time>
      </trkpt>
      <trkpt lat="50.92053" lon="2.5137">
        <ele>23</ele>
        <time>2019-05-06T12:27:08Z</time>
      </trkpt>
      <trkpt lat="50.9207" lon="2.51358">
        <ele>23</ele>
        <time>2019-05-06T12:27:17Z</time>
      </trkpt>
      <trkpt lat="50.92085" lon="2.51341">
        <ele>23</ele>
        <time>2019-05-06T12:27:26Z</time>
      </trkpt>
      <trkpt lat="50.92096" lon="2.51317">
        <ele>23</ele>
        <time>2019-05-06T12:27:35Z</time>
      </trkpt>
      <trkpt lat="50.92109" lon="2.51299">
        <ele>23</ele>
        <time>2019-05-06T12:27:44Z</time>
      </trkpt>
      <trkpt lat="50.92124" lon="2.5128">
        <ele>23</ele>
        <time>2019-05-06T12:27:53Z</time>
      </trkpt>
      <trkpt lat="50.92142" lon="2.51265">
        <ele>23</ele>
        <time>2019-05-06T12:28:03Z</time>
      </trkpt>
      <trkpt lat="50.92159" lon="2.51251">
        <ele>23</ele>
        <time>2019-05-06T12:28:13Z</time>
      </trkpt>
      <trkpt lat="50.92169" lon="2.5124">
        <ele>23</ele>
        <time>2019-05-06T12:28:19Z</time>
      </trkpt>
      <trkpt lat="50.92171" lon="2.5124">
        <ele>23</ele>
        <time>2019-05-06T12:28:20Z</time>
      </trkpt>
      <trkpt lat="50.92172" lon="2.51238">
        <ele>23</ele>
        <time>2019-05-06T12:28:21Z</time>
      </trkpt>
      <trkpt lat="50.92174" lon="2.51236">
        <ele>23</ele>
        <time>2019-05-06T12:28:22Z</time>
      </trkpt>
      <trkpt lat="50.92176" lon="2.51234">
        <ele>23</ele>
        <time>2019-05-06T12:28:23Z</time>
      </trkpt>
      <trkpt lat="50.92196" lon="2.51221">
        <ele>23</ele>
        <time>2019-05-06T12:28:33Z</time>
      </trkpt>
      <trkpt lat="50.92205" lon="2.5122">
        <ele>22</ele>
        <time>2019-05-06T12:28:37Z</time>
      </trkpt>
      <trkpt lat="50.92206" lon="2.51219">
        <ele>23</ele>
        <time>2019-05-06T12:28:38Z</time>
      </trkpt>
      <trkpt lat="50.92208" lon="2.51217">
        <ele>23</ele>
        <time>2019-05-06T12:28:39Z</time>
      </trkpt>
      <trkpt lat="50.92229" lon="2.51208">
        <ele>23</ele>
        <time>2019-05-06T12:28:49Z</time>
      </trkpt>
      <trkpt lat="50.9225" lon="2.512">
        <ele>22</ele>
        <time>2019-05-06T12:28:58Z</time>
      </trkpt>
      <trkpt lat="50.9227" lon="2.51191">
        <ele>22</ele>
        <time>2019-05-06T12:29:07Z</time>
      </trkpt>
      <trkpt lat="50.92281" lon="2.51187">
        <ele>22</ele>
        <time>2019-05-06T12:29:13Z</time>
      </trkpt>
      <trkpt lat="50.92283" lon="2.51185">
        <ele>22</ele>
        <time>2019-05-06T12:29:14Z</time>
      </trkpt>
      <trkpt lat="50.92285" lon="2.51184">
        <ele>21</ele>
        <time>2019-05-06T12:29:15Z</time>
      </trkpt>
      <trkpt lat="50.92287" lon="2.51183">
        <ele>21</ele>
        <time>2019-05-06T12:29:16Z</time>
      </trkpt>
      <trkpt lat="50.92289" lon="2.51183">
        <ele>21</ele>
        <time>2019-05-06T12:29:17Z</time>
      </trkpt>
      <trkpt lat="50.92291" lon="2.51182">
        <ele>21</ele>
        <time>2019-05-06T12:29:18Z</time>
      </trkpt>
      <trkpt lat="50.92293" lon="2.5118">
        <ele>21</ele>
        <time>2019-05-06T12:29:19Z</time>
      </trkpt>
      <trkpt lat="50.92294" lon="2.51178">
        <ele>21</ele>
        <time>2019-05-06T12:29:20Z</time>
      </trkpt>
      <trkpt lat="50.92312" lon="2.51168">
        <ele>21</ele>
        <time>2019-05-06T12:29:29Z</time>
      </trkpt>
      <trkpt lat="50.9233" lon="2.5116">
        <ele>21</ele>
        <time>2019-05-06T12:29:39Z</time>
      </trkpt>
      <trkpt lat="50.92348" lon="2.51147">
        <ele>21</ele>
        <time>2019-05-06T12:29:49Z</time>
      </trkpt>
      <trkpt lat="50.92365" lon="2.51133">
        <ele>20</ele>
        <time>2019-05-06T12:29:57Z</time>
      </trkpt>
      <trkpt lat="50.9238" lon="2.51118">
        <ele>20</ele>
        <time>2019-05-06T12:30:06Z</time>
      </trkpt>
      <trkpt lat="50.92397" lon="2.51106">
        <ele>20</ele>
        <time>2019-05-06T12:30:14Z</time>
      </trkpt>
      <trkpt lat="50.92409" lon="2.51087">
        <ele>20</ele>
        <time>2019-05-06T12:30:24Z</time>
      </trkpt>
      <trkpt lat="50.92427" lon="2.51072">
        <ele>19</ele>
        <time>2019-05-06T12:30:34Z</time>
      </trkpt>
      <trkpt lat="50.92446" lon="2.51064">
        <ele>20</ele>
        <time>2019-05-06T12:30:44Z</time>
      </trkpt>
      <trkpt lat="50.92464" lon="2.51053">
        <ele>20</ele>
        <time>2019-05-06T12:30:54Z</time>
      </trkpt>
      <trkpt lat="50.92479" lon="2.51042">
        <ele>20</ele>
        <time>2019-05-06T12:31:02Z</time>
      </trkpt>
      <trkpt lat="50.9248" lon="2.51041">
        <ele>20</ele>
        <time>2019-05-06T12:31:03Z</time>
      </trkpt>
      <trkpt lat="50.92482" lon="2.51039">
        <ele>20</ele>
        <time>2019-05-06T12:31:04Z</time>
      </trkpt>
      <trkpt lat="50.92484" lon="2.51037">
        <ele>20</ele>
        <time>2019-05-06T12:31:05Z</time>
      </trkpt>
      <trkpt lat="50.92486" lon="2.51037">
        <ele>20</ele>
        <time>2019-05-06T12:31:06Z</time>
      </trkpt>
      <trkpt lat="50.92488" lon="2.51035">
        <ele>20</ele>
        <time>2019-05-06T12:31:07Z</time>
      </trkpt>
      <trkpt lat="50.92489" lon="2.51033">
        <ele>20</ele>
        <time>2019-05-06T12:31:08Z</time>
      </trkpt>
      <trkpt lat="50.92504" lon="2.51017">
        <ele>19</ele>
        <time>2019-05-06T12:31:17Z</time>
      </trkpt>
      <trkpt lat="50.9251" lon="2.5101">
        <ele>19</ele>
        <time>2019-05-06T12:31:21Z</time>
      </trkpt>
      <trkpt lat="50.92526" lon="2.50993">
        <ele>19</ele>
        <time>2019-05-06T12:31:30Z</time>
      </trkpt>
      <trkpt lat="50.92529" lon="2.50993">
        <ele>19</ele>
        <time>2019-05-06T12:31:31Z</time>
      </trkpt>
      <trkpt lat="50.92535" lon="2.50993">
        <ele>20</ele>
        <time>2019-05-06T12:31:34Z</time>
      </trkpt>
      <trkpt lat="50.92539" lon="2.50991">
        <ele>20</ele>
        <time>2019-05-06T12:31:36Z</time>
      </trkpt>
      <trkpt lat="50.92542" lon="2.50992">
        <ele>20</ele>
        <time>2019-05-06T12:31:37Z</time>
      </trkpt>
      <trkpt lat="50.92544" lon="2.50992">
        <ele>20</ele>
        <time>2019-05-06T12:31:38Z</time>
      </trkpt>
      <trkpt lat="50.92567" lon="2.5099">
        <ele>17</ele>
        <time>2019-05-06T12:31:48Z</time>
      </trkpt>
      <trkpt lat="50.92576" lon="2.50985">
        <ele>19</ele>
        <time>2019-05-06T12:31:54Z</time>
      </trkpt>
      <trkpt lat="50.92577" lon="2.50983">
        <ele>19</ele>
        <time>2019-05-06T12:31:55Z</time>
      </trkpt>
      <trkpt lat="50.9258" lon="2.5098">
        <ele>20</ele>
        <time>2019-05-06T12:31:57Z</time>
      </trkpt>
      <trkpt lat="50.92595" lon="2.50962">
        <ele>21</ele>
        <time>2019-05-06T12:32:07Z</time>
      </trkpt>
      <trkpt lat="50.92603" lon="2.50952">
        <ele>21</ele>
        <time>2019-05-06T12:32:12Z</time>
      </trkpt>
      <trkpt lat="50.92621" lon="2.50934">
        <ele>21</ele>
        <time>2019-05-06T12:32:22Z</time>
      </trkpt>
      <trkpt lat="50.92637" lon="2.5092">
        <ele>21</ele>
        <time>2019-05-06T12:32:31Z</time>
      </trkpt>
      <trkpt lat="50.92656" lon="2.50906">
        <ele>22</ele>
        <time>2019-05-06T12:32:40Z</time>
      </trkpt>
      <trkpt lat="50.92673" lon="2.50895">
        <ele>22</ele>
        <time>2019-05-06T12:32:48Z</time>
      </trkpt>
      <trkpt lat="50.92679" lon="2.50877">
        <ele>23</ele>
        <time>2019-05-06T12:32:55Z</time>
      </trkpt>
      <trkpt lat="50.92678" lon="2.50874">
        <ele>23</ele>
        <time>2019-05-06T12:32:56Z</time>
      </trkpt>
      <trkpt lat="50.92677" lon="2.5087">
        <ele>23</ele>
        <time>2019-05-06T12:32:57Z</time>
      </trkpt>
      <trkpt lat="50.92676" lon="2.50867">
        <ele>23</ele>
        <time>2019-05-06T12:32:58Z</time>
      </trkpt>
      <trkpt lat="50.92675" lon="2.50864">
        <ele>23</ele>
        <time>2019-05-06T12:32:59Z</time>
      </trkpt>
      <trkpt lat="50.92669" lon="2.50842">
        <ele>23</ele>
        <time>2019-05-06T12:33:09Z</time>
      </trkpt>
      <trkpt lat="50.92662" lon="2.50817">
        <ele>23</ele>
        <time>2019-05-06T12:33:19Z</time>
      </trkpt>
      <trkpt lat="50.92652" lon="2.50789">
        <ele>23</ele>
        <time>2019-05-06T12:33:30Z</time>
      </trkpt>
      <trkpt lat="50.9265" lon="2.5077">
        <ele>23</ele>
        <time>2019-05-06T12:33:36Z</time>
      </trkpt>
      <trkpt lat="50.92651" lon="2.50768">
        <ele>23</ele>
        <time>2019-05-06T12:33:37Z</time>
      </trkpt>
      <trkpt lat="50.92652" lon="2.50765">
        <ele>23</ele>
        <time>2019-05-06T12:33:38Z</time>
      </trkpt>
      <trkpt lat="50.92653" lon="2.50762">
        <ele>23</ele>
        <time>2019-05-06T12:33:39Z</time>
      </trkpt>
      <trkpt lat="50.92655" lon="2.50759">
        <ele>23</ele>
        <time>2019-05-06T12:33:40Z</time>
      </trkpt>
      <trkpt lat="50.92656" lon="2.50755">
        <ele>23</ele>
        <time>2019-05-06T12:33:41Z</time>
      </trkpt>
      <trkpt lat="50.92674" lon="2.5073">
        <ele>23</ele>
        <time>2019-05-06T12:33:51Z</time>
      </trkpt>
      <trkpt lat="50.92686" lon="2.50716">
        <ele>23</ele>
        <time>2019-05-06T12:33:58Z</time>
      </trkpt>
      <trkpt lat="50.92688" lon="2.50715">
        <ele>23</ele>
        <time>2019-05-06T12:33:59Z</time>
      </trkpt>
      <trkpt lat="50.9269" lon="2.50714">
        <ele>23</ele>
        <time>2019-05-06T12:34:00Z</time>
      </trkpt>
      <trkpt lat="50.92692" lon="2.50713">
        <ele>23</ele>
        <time>2019-05-06T12:34:01Z</time>
      </trkpt>
      <trkpt lat="50.92694" lon="2.50711">
        <ele>23</ele>
        <time>2019-05-06T12:34:02Z</time>
      </trkpt>
      <trkpt lat="50.92696" lon="2.50709">
        <ele>23</ele>
        <time>2019-05-06T12:34:03Z</time>
      </trkpt>
      <trkpt lat="50.92712" lon="2.5069">
        <ele>23</ele>
        <time>2019-05-06T12:34:12Z</time>
      </trkpt>
      <trkpt lat="50.92729" lon="2.5066">
        <ele>23</ele>
        <time>2019-05-06T12:34:25Z</time>
      </trkpt>
      <trkpt lat="50.92744" lon="2.50652">
        <ele>23</ele>
        <time>2019-05-06T12:34:33Z</time>
      </trkpt>
      <trkpt lat="50.9276" lon="2.50637">
        <ele>23</ele>
        <time>2019-05-06T12:34:42Z</time>
      </trkpt>
      <trkpt lat="50.92777" lon="2.50622">
        <ele>24</ele>
        <time>2019-05-06T12:34:51Z</time>
      </trkpt>
      <trkpt lat="50.92791" lon="2.5061">
        <ele>24</ele>
        <time>2019-05-06T12:34:59Z</time>
      </trkpt>
      <trkpt lat="50.92793" lon="2.50607">
        <ele>24</ele>
        <time>2019-05-06T12:35:00Z</time>
      </trkpt>
      <trkpt lat="50.92795" lon="2.50606">
        <ele>24</ele>
        <time>2019-05-06T12:35:01Z</time>
      </trkpt>
      <trkpt lat="50.92797" lon="2.50604">
        <ele>24</ele>
        <time>2019-05-06T12:35:02Z</time>
      </trkpt>
      <trkpt lat="50.92799" lon="2.50602">
        <ele>24</ele>
        <time>2019-05-06T12:35:03Z</time>
      </trkpt>
      <trkpt lat="50.92812" lon="2.50589">
        <ele>24</ele>
        <time>2019-05-06T12:35:11Z</time>
      </trkpt>
      <trkpt lat="50.92814" lon="2.50587">
        <ele>24</ele>
        <time>2019-05-06T12:35:12Z</time>
      </trkpt>
      <trkpt lat="50.92815" lon="2.50585">
        <ele>24</ele>
        <time>2019-05-06T12:35:13Z</time>
      </trkpt>
      <trkpt lat="50.92817" lon="2.50583">
        <ele>24</ele>
        <time>2019-05-06T12:35:14Z</time>
      </trkpt>
      <trkpt lat="50.92819" lon="2.50582">
        <ele>24</ele>
        <time>2019-05-06T12:35:15Z</time>
      </trkpt>
      <trkpt lat="50.92821" lon="2.50581">
        <ele>24</ele>
        <time>2019-05-06T12:35:16Z</time>
      </trkpt>
      <trkpt lat="50.92822" lon="2.50579">
        <ele>24</ele>
        <time>2019-05-06T12:35:17Z</time>
      </trkpt>
      <trkpt lat="50.92824" lon="2.50577">
        <ele>24</ele>
        <time>2019-05-06T12:35:18Z</time>
      </trkpt>
      <trkpt lat="50.92839" lon="2.50561">
        <ele>24</ele>
        <time>2019-05-06T12:35:28Z</time>
      </trkpt>
      <trkpt lat="50.92856" lon="2.50556">
        <ele>23</ele>
        <time>2019-05-06T12:35:35Z</time>
      </trkpt>
      <trkpt lat="50.92858" lon="2.50557">
        <ele>23</ele>
        <time>2019-05-06T12:35:36Z</time>
      </trkpt>
      <trkpt lat="50.9286" lon="2.50559">
        <ele>23</ele>
        <time>2019-05-06T12:35:37Z</time>
      </trkpt>
      <trkpt lat="50.92863" lon="2.50562">
        <ele>23</ele>
        <time>2019-05-06T12:35:38Z</time>
      </trkpt>
      <trkpt lat="50.92865" lon="2.50566">
        <ele>23</ele>
        <time>2019-05-06T12:35:39Z</time>
      </trkpt>
      <trkpt lat="50.92882" lon="2.50596">
        <ele>24</ele>
        <time>2019-05-06T12:35:49Z</time>
      </trkpt>
      <trkpt lat="50.92896" lon="2.5062">
        <ele>24</ele>
        <time>2019-05-06T12:35:59Z</time>
      </trkpt>
      <trkpt lat="50.92909" lon="2.50648">
        <ele>24</ele>
        <time>2019-05-06T12:36:09Z</time>
      </trkpt>
      <trkpt lat="50.9292" lon="2.50673">
        <ele>24</ele>
        <time>2019-05-06T12:36:20Z</time>
      </trkpt>
      <trkpt lat="50.92934" lon="2.50697">
        <ele>25</ele>
        <time>2019-05-06T12:36:30Z</time>
      </trkpt>
      <trkpt lat="50.92944" lon="2.50731">
        <ele>24</ele>
        <time>2019-05-06T12:36:41Z</time>
      </trkpt>
      <trkpt lat="50.9295" lon="2.50754">
        <ele>24</ele>
        <time>2019-05-06T12:36:49Z</time>
      </trkpt>
      <trkpt lat="50.92953" lon="2.50766">
        <ele>24</ele>
        <time>2019-05-06T12:36:53Z</time>
      </trkpt>
      <trkpt lat="50.92954" lon="2.50769">
        <ele>24</ele>
        <time>2019-05-06T12:36:54Z</time>
      </trkpt>
      <trkpt lat="50.92955" lon="2.50772">
        <ele>25</ele>
        <time>2019-05-06T12:36:55Z</time>
      </trkpt>
      <trkpt lat="50.92956" lon="2.50775">
        <ele>25</ele>
        <time>2019-05-06T12:36:56Z</time>
      </trkpt>
      <trkpt lat="50.92957" lon="2.50777">
        <ele>25</ele>
        <time>2019-05-06T12:36:57Z</time>
      </trkpt>
      <trkpt lat="50.92958" lon="2.5078">
        <ele>25</ele>
        <time>2019-05-06T12:36:58Z</time>
      </trkpt>
      <trkpt lat="50.9296" lon="2.50782">
        <ele>25</ele>
        <time>2019-05-06T12:36:59Z</time>
      </trkpt>
      <trkpt lat="50.92961" lon="2.50785">
        <ele>25</ele>
        <time>2019-05-06T12:37:00Z</time>
      </trkpt>
      <trkpt lat="50.92963" lon="2.50788">
        <ele>25</ele>
        <time>2019-05-06T12:37:01Z</time>
      </trkpt>
      <trkpt lat="50.92963" lon="2.50791">
        <ele>25</ele>
        <time>2019-05-06T12:37:02Z</time>
      </trkpt>
      <trkpt lat="50.92964" lon="2.50793">
        <ele>25</ele>
        <time>2019-05-06T12:37:03Z</time>
      </trkpt>
      <trkpt lat="50.92964" lon="2.50797">
        <ele>25</ele>
        <time>2019-05-06T12:37:04Z</time>
      </trkpt>
      <trkpt lat="50.92966" lon="2.508">
        <ele>25</ele>
        <time>2019-05-06T12:37:05Z</time>
      </trkpt>
      <trkpt lat="50.92967" lon="2.50803">
        <ele>25</ele>
        <time>2019-05-06T12:37:06Z</time>
      </trkpt>
      <trkpt lat="50.92968" lon="2.50806">
        <ele>25</ele>
        <time>2019-05-06T12:37:07Z</time>
      </trkpt>
      <trkpt lat="50.92969" lon="2.50808">
        <ele>25</ele>
        <time>2019-05-06T12:37:08Z</time>
      </trkpt>
      <trkpt lat="50.92969" lon="2.50812">
        <ele>25</ele>
        <time>2019-05-06T12:37:09Z</time>
      </trkpt>
      <trkpt lat="50.92969" lon="2.50815">
        <ele>25</ele>
        <time>2019-05-06T12:37:10Z</time>
      </trkpt>
      <trkpt lat="50.9297" lon="2.50818">
        <ele>25</ele>
        <time>2019-05-06T12:37:11Z</time>
      </trkpt>
      <trkpt lat="50.92971" lon="2.50821">
        <ele>25</ele>
        <time>2019-05-06T12:37:12Z</time>
      </trkpt>
      <trkpt lat="50.9298" lon="2.50839">
        <ele>25</ele>
        <time>2019-05-06T12:37:19Z</time>
      </trkpt>
      <trkpt lat="50.92981" lon="2.50843">
        <ele>25</ele>
        <time>2019-05-06T12:37:20Z</time>
      </trkpt>
      <trkpt lat="50.92983" lon="2.50845">
        <ele>25</ele>
        <time>2019-05-06T12:37:21Z</time>
      </trkpt>
      <trkpt lat="50.92984" lon="2.50847">
        <ele>25</ele>
        <time>2019-05-06T12:37:22Z</time>
      </trkpt>
      <trkpt lat="50.92985" lon="2.50848">
        <ele>25</ele>
        <time>2019-05-06T12:37:23Z</time>
      </trkpt>
      <trkpt lat="50.92986" lon="2.50851">
        <ele>25</ele>
        <time>2019-05-06T12:37:24Z</time>
      </trkpt>
      <trkpt lat="50.92987" lon="2.50854">
        <ele>24</ele>
        <time>2019-05-06T12:37:25Z</time>
      </trkpt>
      <trkpt lat="50.92987" lon="2.50857">
        <ele>25</ele>
        <time>2019-05-06T12:37:26Z</time>
      </trkpt>
      <trkpt lat="50.92988" lon="2.50859">
        <ele>25</ele>
        <time>2019-05-06T12:37:27Z</time>
      </trkpt>
      <trkpt lat="50.92989" lon="2.50861">
        <ele>25</ele>
        <time>2019-05-06T12:37:28Z</time>
      </trkpt>
      <trkpt lat="50.9299" lon="2.50864">
        <ele>25</ele>
        <time>2019-05-06T12:37:29Z</time>
      </trkpt>
      <trkpt lat="50.92991" lon="2.50867">
        <ele>25</ele>
        <time>2019-05-06T12:37:30Z</time>
      </trkpt>
      <trkpt lat="50.92991" lon="2.5087">
        <ele>25</ele>
        <time>2019-05-06T12:37:31Z</time>
      </trkpt>
      <trkpt lat="50.92992" lon="2.50872">
        <ele>25</ele>
        <time>2019-05-06T12:37:32Z</time>
      </trkpt>
      <trkpt lat="50.92993" lon="2.50875">
        <ele>25</ele>
        <time>2019-05-06T12:37:33Z</time>
      </trkpt>
      <trkpt lat="50.92994" lon="2.50878">
        <ele>25</ele>
        <time>2019-05-06T12:37:34Z</time>
      </trkpt>
      <trkpt lat="50.93003" lon="2.50912">
        <ele>26</ele>
        <time>2019-05-06T12:37:46Z</time>
      </trkpt>
      <trkpt lat="50.93004" lon="2.50919">
        <ele>26</ele>
        <time>2019-05-06T12:37:48Z</time>
      </trkpt>
      <trkpt lat="50.93007" lon="2.50956">
        <ele>26</ele>
        <time>2019-05-06T12:37:58Z</time>
      </trkpt>
      <trkpt lat="50.9301" lon="2.50992">
        <ele>26</ele>
        <time>2019-05-06T12:38:09Z</time>
      </trkpt>
      <trkpt lat="50.93017" lon="2.51026">
        <ele>26</ele>
        <time>2019-05-06T12:38:20Z</time>
      </trkpt>
      <trkpt lat="50.93022" lon="2.51058">
        <ele>26</ele>
        <time>2019-05-06T12:38:31Z</time>
      </trkpt>
      <trkpt lat="50.93029" lon="2.5109">
        <ele>26</ele>
        <time>2019-05-06T12:38:43Z</time>
      </trkpt>
      <trkpt lat="50.93033" lon="2.51124">
        <ele>27</ele>
        <time>2019-05-06T12:38:56Z</time>
      </trkpt>
      <trkpt lat="50.93033" lon="2.51127">
        <ele>27</ele>
        <time>2019-05-06T12:38:57Z</time>
      </trkpt>
      <trkpt lat="50.93034" lon="2.5113">
        <ele>27</ele>
        <time>2019-05-06T12:38:58Z</time>
      </trkpt>
      <trkpt lat="50.93034" lon="2.51133">
        <ele>27</ele>
        <time>2019-05-06T12:38:59Z</time>
      </trkpt>
      <trkpt lat="50.93034" lon="2.51135">
        <ele>27</ele>
        <time>2019-05-06T12:39:00Z</time>
      </trkpt>
      <trkpt lat="50.93034" lon="2.51139">
        <ele>27</ele>
        <time>2019-05-06T12:39:01Z</time>
      </trkpt>
      <trkpt lat="50.93034" lon="2.51142">
        <ele>27</ele>
        <time>2019-05-06T12:39:02Z</time>
      </trkpt>
      <trkpt lat="50.93034" lon="2.51147">
        <ele>26</ele>
        <time>2019-05-06T12:39:03Z</time>
      </trkpt>
      <trkpt lat="50.93034" lon="2.5115">
        <ele>26</ele>
        <time>2019-05-06T12:39:04Z</time>
      </trkpt>
      <trkpt lat="50.9304" lon="2.51186">
        <ele>27</ele>
        <time>2019-05-06T12:39:16Z</time>
      </trkpt>
      <trkpt lat="50.9304" lon="2.51189">
        <ele>26</ele>
        <time>2019-05-06T12:39:17Z</time>
      </trkpt>
      <trkpt lat="50.9304" lon="2.51193">
        <ele>26</ele>
        <time>2019-05-06T12:39:18Z</time>
      </trkpt>
      <trkpt lat="50.93041" lon="2.51196">
        <ele>26</ele>
        <time>2019-05-06T12:39:19Z</time>
      </trkpt>
      <trkpt lat="50.93049" lon="2.51232">
        <ele>27</ele>
        <time>2019-05-06T12:39:31Z</time>
      </trkpt>
      <trkpt lat="50.93053" lon="2.51259">
        <ele>27</ele>
        <time>2019-05-06T12:39:40Z</time>
      </trkpt>
      <trkpt lat="50.93054" lon="2.51262">
        <ele>27</ele>
        <time>2019-05-06T12:39:41Z</time>
      </trkpt>
      <trkpt lat="50.93058" lon="2.51285">
        <ele>26</ele>
        <time>2019-05-06T12:39:48Z</time>
      </trkpt>
      <trkpt lat="50.93059" lon="2.51287">
        <ele>27</ele>
        <time>2019-05-06T12:39:49Z</time>
      </trkpt>
      <trkpt lat="50.93059" lon="2.5129">
        <ele>27</ele>
        <time>2019-05-06T12:39:50Z</time>
      </trkpt>
      <trkpt lat="50.93059" lon="2.51294">
        <ele>27</ele>
        <time>2019-05-06T12:39:51Z</time>
      </trkpt>
      <trkpt lat="50.9306" lon="2.51297">
        <ele>27</ele>
        <time>2019-05-06T12:39:52Z</time>
      </trkpt>
      <trkpt lat="50.93061" lon="2.51299">
        <ele>28</ele>
        <time>2019-05-06T12:39:53Z</time>
      </trkpt>
      <trkpt lat="50.93061" lon="2.51303">
        <ele>28</ele>
        <time>2019-05-06T12:39:54Z</time>
      </trkpt>
      <trkpt lat="50.9307" lon="2.51336">
        <ele>27</ele>
        <time>2019-05-06T12:40:04Z</time>
      </trkpt>
      <trkpt lat="50.9308" lon="2.5137">
        <ele>27</ele>
        <time>2019-05-06T12:40:15Z</time>
      </trkpt>
      <trkpt lat="50.9309" lon="2.51404">
        <ele>26</ele>
        <time>2019-05-06T12:40:26Z</time>
      </trkpt>
      <trkpt lat="50.93096" lon="2.51434">
        <ele>26</ele>
        <time>2019-05-06T12:40:37Z</time>
      </trkpt>
      <trkpt lat="50.93103" lon="2.51469">
        <ele>26</ele>
        <time>2019-05-06T12:40:49Z</time>
      </trkpt>
      <trkpt lat="50.93109" lon="2.51507">
        <ele>26</ele>
        <time>2019-05-06T12:41:02Z</time>
      </trkpt>
      <trkpt lat="50.93109" lon="2.51511">
        <ele>26</ele>
        <time>2019-05-06T12:41:03Z</time>
      </trkpt>
      <trkpt lat="50.93109" lon="2.51514">
        <ele>26</ele>
        <time>2019-05-06T12:41:04Z</time>
      </trkpt>
      <trkpt lat="50.9311" lon="2.51517">
        <ele>26</ele>
        <time>2019-05-06T12:41:05Z</time>
      </trkpt>
      <trkpt lat="50.9311" lon="2.5152">
        <ele>26</ele>
        <time>2019-05-06T12:41:06Z</time>
      </trkpt>
      <trkpt lat="50.93111" lon="2.51523">
        <ele>26</ele>
        <time>2019-05-06T12:41:07Z</time>
      </trkpt>
      <trkpt lat="50.93111" lon="2.51526">
        <ele>26</ele>
        <time>2019-05-06T12:41:08Z</time>
      </trkpt>
      <trkpt lat="50.93112" lon="2.5153">
        <ele>26</ele>
        <time>2019-05-06T12:41:09Z</time>
      </trkpt>
      <trkpt lat="50.9312" lon="2.51563">
        <ele>25</ele>
        <time>2019-05-06T12:41:20Z</time>
      </trkpt>
      <trkpt lat="50.93124" lon="2.51581">
        <ele>25</ele>
        <time>2019-05-06T12:41:27Z</time>
      </trkpt>
      <trkpt lat="50.93125" lon="2.51584">
        <ele>25</ele>
        <time>2019-05-06T12:41:28Z</time>
      </trkpt>
      <trkpt lat="50.93127" lon="2.51627">
        <ele>23</ele>
        <time>2019-05-06T12:41:39Z</time>
      </trkpt>
      <trkpt lat="50.9313" lon="2.51666">
        <ele>24</ele>
        <time>2019-05-06T12:41:49Z</time>
      </trkpt>
      <trkpt lat="50.93135" lon="2.517">
        <ele>25</ele>
        <time>2019-05-06T12:41:59Z</time>
      </trkpt>
      <trkpt lat="50.93141" lon="2.51732">
        <ele>25</ele>
        <time>2019-05-06T12:42:10Z</time>
      </trkpt>
      <trkpt lat="50.93146" lon="2.51767">
        <ele>25</ele>
        <time>2019-05-06T12:42:21Z</time>
      </trkpt>
      <trkpt lat="50.93152" lon="2.51784">
        <ele>25</ele>
        <time>2019-05-06T12:42:27Z</time>
      </trkpt>
      <trkpt lat="50.93152" lon="2.51787">
        <ele>25</ele>
        <time>2019-05-06T12:42:28Z</time>
      </trkpt>
      <trkpt lat="50.93153" lon="2.5179">
        <ele>25</ele>
        <time>2019-05-06T12:42:29Z</time>
      </trkpt>
      <trkpt lat="50.93153" lon="2.51794">
        <ele>25</ele>
        <time>2019-05-06T12:42:30Z</time>
      </trkpt>
      <trkpt lat="50.93154" lon="2.51796">
        <ele>25</ele>
        <time>2019-05-06T12:42:31Z</time>
      </trkpt>
      <trkpt lat="50.93154" lon="2.51799">
        <ele>25</ele>
        <time>2019-05-06T12:42:32Z</time>
      </trkpt>
      <trkpt lat="50.93155" lon="2.51802">
        <ele>25</ele>
        <time>2019-05-06T12:42:33Z</time>
      </trkpt>
      <trkpt lat="50.93156" lon="2.51806">
        <ele>25</ele>
        <time>2019-05-06T12:42:34Z</time>
      </trkpt>
      <trkpt lat="50.93157" lon="2.51812">
        <ele>25</ele>
        <time>2019-05-06T12:42:36Z</time>
      </trkpt>
      <trkpt lat="50.93157" lon="2.51814">
        <ele>25</ele>
        <time>2019-05-06T12:42:37Z</time>
      </trkpt>
      <trkpt lat="50.93158" lon="2.51817">
        <ele>25</ele>
        <time>2019-05-06T12:42:38Z</time>
      </trkpt>
      <trkpt lat="50.9316" lon="2.51829">
        <ele>25</ele>
        <time>2019-05-06T12:42:42Z</time>
      </trkpt>
      <trkpt lat="50.93163" lon="2.51865">
        <ele>24</ele>
        <time>2019-05-06T12:42:52Z</time>
      </trkpt>
      <trkpt lat="50.93166" lon="2.51881">
        <ele>24</ele>
        <time>2019-05-06T12:42:56Z</time>
      </trkpt>
      <trkpt lat="50.93166" lon="2.51885">
        <ele>24</ele>
        <time>2019-05-06T12:42:57Z</time>
      </trkpt>
      <trkpt lat="50.93168" lon="2.51917">
        <ele>25</ele>
        <time>2019-05-06T12:43:06Z</time>
      </trkpt>
      <trkpt lat="50.93168" lon="2.51946">
        <ele>25</ele>
        <time>2019-05-06T12:43:15Z</time>
      </trkpt>
      <trkpt lat="50.93165" lon="2.51977">
        <ele>25</ele>
        <time>2019-05-06T12:43:24Z</time>
      </trkpt>
      <trkpt lat="50.93156" lon="2.52003">
        <ele>25</ele>
        <time>2019-05-06T12:43:32Z</time>
      </trkpt>
      <trkpt lat="50.93144" lon="2.52017">
        <ele>25</ele>
        <time>2019-05-06T12:43:38Z</time>
      </trkpt>
      <trkpt lat="50.93143" lon="2.52019">
        <ele>25</ele>
        <time>2019-05-06T12:43:39Z</time>
      </trkpt>
      <trkpt lat="50.93141" lon="2.5202">
        <ele>25</ele>
        <time>2019-05-06T12:43:40Z</time>
      </trkpt>
      <trkpt lat="50.93121" lon="2.52032">
        <ele>24</ele>
        <time>2019-05-06T12:43:49Z</time>
      </trkpt>
      <trkpt lat="50.9311" lon="2.52049">
        <ele>24</ele>
        <time>2019-05-06T12:43:56Z</time>
      </trkpt>
      <trkpt lat="50.93109" lon="2.52051">
        <ele>24</ele>
        <time>2019-05-06T12:43:57Z</time>
      </trkpt>
      <trkpt lat="50.93108" lon="2.52054">
        <ele>24</ele>
        <time>2019-05-06T12:43:58Z</time>
      </trkpt>
      <trkpt lat="50.93105" lon="2.52081">
        <ele>24</ele>
        <time>2019-05-06T12:44:07Z</time>
      </trkpt>
      <trkpt lat="50.93104" lon="2.5211">
        <ele>24</ele>
        <time>2019-05-06T12:44:16Z</time>
      </trkpt>
      <trkpt lat="50.93105" lon="2.52137">
        <ele>24</ele>
        <time>2019-05-06T12:44:25Z</time>
      </trkpt>
      <trkpt lat="50.93106" lon="2.52147">
        <ele>24</ele>
        <time>2019-05-06T12:44:29Z</time>
      </trkpt>
      <trkpt lat="50.93107" lon="2.5215">
        <ele>24</ele>
        <time>2019-05-06T12:44:30Z</time>
      </trkpt>
      <trkpt lat="50.93111" lon="2.52171">
        <ele>23</ele>
        <time>2019-05-06T12:44:38Z</time>
      </trkpt>
      <trkpt lat="50.93111" lon="2.52174">
        <ele>23</ele>
        <time>2019-05-06T12:44:39Z</time>
      </trkpt>
      <trkpt lat="50.93112" lon="2.52176">
        <ele>23</ele>
        <time>2019-05-06T12:44:40Z</time>
      </trkpt>
      <trkpt lat="50.93122" lon="2.522">
        <ele>23</ele>
        <time>2019-05-06T12:44:50Z</time>
      </trkpt>
      <trkpt lat="50.93122" lon="2.52205">
        <ele>23</ele>
        <time>2019-05-06T12:44:51Z</time>
      </trkpt>
      <trkpt lat="50.93122" lon="2.52208">
        <ele>23</ele>
        <time>2019-05-06T12:44:52Z</time>
      </trkpt>
      <trkpt lat="50.93126" lon="2.52241">
        <ele>23</ele>
        <time>2019-05-06T12:45:01Z</time>
      </trkpt>
      <trkpt lat="50.93126" lon="2.52271">
        <ele>22</ele>
        <time>2019-05-06T12:45:10Z</time>
      </trkpt>
      <trkpt lat="50.93131" lon="2.52301">
        <ele>22</ele>
        <time>2019-05-06T12:45:20Z</time>
      </trkpt>
      <trkpt lat="50.93138" lon="2.52329">
        <ele>23</ele>
        <time>2019-05-06T12:45:30Z</time>
      </trkpt>
      <trkpt lat="50.93142" lon="2.52348">
        <ele>22</ele>
        <time>2019-05-06T12:45:37Z</time>
      </trkpt>
      <trkpt lat="50.93143" lon="2.52352">
        <ele>22</ele>
        <time>2019-05-06T12:45:38Z</time>
      </trkpt>
      <trkpt lat="50.93143" lon="2.52355">
        <ele>22</ele>
        <time>2019-05-06T12:45:39Z</time>
      </trkpt>
      <trkpt lat="50.93143" lon="2.52358">
        <ele>22</ele>
        <time>2019-05-06T12:45:40Z</time>
      </trkpt>
      <trkpt lat="50.93143" lon="2.52362">
        <ele>22</ele>
        <time>2019-05-06T12:45:41Z</time>
      </trkpt>
      <trkpt lat="50.93146" lon="2.52396">
        <ele>22</ele>
        <time>2019-05-06T12:45:51Z</time>
      </trkpt>
      <trkpt lat="50.93147" lon="2.52431">
        <ele>22</ele>
        <time>2019-05-06T12:46:01Z</time>
      </trkpt>
      <trkpt lat="50.93148" lon="2.52465">
        <ele>22</ele>
        <time>2019-05-06T12:46:11Z</time>
      </trkpt>
      <trkpt lat="50.9315" lon="2.52497">
        <ele>22</ele>
        <time>2019-05-06T12:46:21Z</time>
      </trkpt>
      <trkpt lat="50.93154" lon="2.52529">
        <ele>22</ele>
        <time>2019-05-06T12:46:31Z</time>
      </trkpt>
      <trkpt lat="50.93158" lon="2.52562">
        <ele>21</ele>
        <time>2019-05-06T12:46:41Z</time>
      </trkpt>
      <trkpt lat="50.93165" lon="2.52591">
        <ele>22</ele>
        <time>2019-05-06T12:46:50Z</time>
      </trkpt>
      <trkpt lat="50.93165" lon="2.52597">
        <ele>22</ele>
        <time>2019-05-06T12:46:53Z</time>
      </trkpt>
      <trkpt lat="50.93166" lon="2.52599">
        <ele>22</ele>
        <time>2019-05-06T12:46:54Z</time>
      </trkpt>
      <trkpt lat="50.93168" lon="2.52601">
        <ele>21</ele>
        <time>2019-05-06T12:46:55Z</time>
      </trkpt>
      <trkpt lat="50.93169" lon="2.52602">
        <ele>21</ele>
        <time>2019-05-06T12:46:56Z</time>
      </trkpt>
      <trkpt lat="50.9317" lon="2.52604">
        <ele>21</ele>
        <time>2019-05-06T12:46:57Z</time>
      </trkpt>
      <trkpt lat="50.93172" lon="2.52605">
        <ele>21</ele>
        <time>2019-05-06T12:46:58Z</time>
      </trkpt>
      <trkpt lat="50.93183" lon="2.52609">
        <ele>21</ele>
        <time>2019-05-06T12:47:04Z</time>
      </trkpt>
      <trkpt lat="50.93185" lon="2.52608">
        <ele>21</ele>
        <time>2019-05-06T12:47:05Z</time>
      </trkpt>
      <trkpt lat="50.93201" lon="2.52608">
        <ele>21</ele>
        <time>2019-05-06T12:47:15Z</time>
      </trkpt>
      <trkpt lat="50.93219" lon="2.52604">
        <ele>21</ele>
        <time>2019-05-06T12:47:25Z</time>
      </trkpt>
      <trkpt lat="50.93236" lon="2.52599">
        <ele>21</ele>
        <time>2019-05-06T12:47:35Z</time>
      </trkpt>
      <trkpt lat="50.93251" lon="2.52582">
        <ele>21</ele>
        <time>2019-05-06T12:47:44Z</time>
      </trkpt>
      <trkpt lat="50.93265" lon="2.52565">
        <ele>21</ele>
        <time>2019-05-06T12:47:54Z</time>
      </trkpt>
      <trkpt lat="50.93269" lon="2.52561">
        <ele>21</ele>
        <time>2019-05-06T12:47:57Z</time>
      </trkpt>
      <trkpt lat="50.93289" lon="2.52552">
        <ele>21</ele>
        <time>2019-05-06T12:48:06Z</time>
      </trkpt>
      <trkpt lat="50.93294" lon="2.5255">
        <ele>21</ele>
        <time>2019-05-06T12:48:08Z</time>
      </trkpt>
      <trkpt lat="50.93297" lon="2.5255">
        <ele>21</ele>
        <time>2019-05-06T12:48:09Z</time>
      </trkpt>
      <trkpt lat="50.93317" lon="2.52551">
        <ele>22</ele>
        <time>2019-05-06T12:48:17Z</time>
      </trkpt>
      <trkpt lat="50.93338" lon="2.52556">
        <ele>22</ele>
        <time>2019-05-06T12:48:26Z</time>
      </trkpt>
      <trkpt lat="50.93356" lon="2.52558">
        <ele>22</ele>
        <time>2019-05-06T12:48:34Z</time>
      </trkpt>
      <trkpt lat="50.93374" lon="2.52563">
        <ele>23</ele>
        <time>2019-05-06T12:48:42Z</time>
      </trkpt>
      <trkpt lat="50.9339" lon="2.52569">
        <ele>23</ele>
        <time>2019-05-06T12:48:52Z</time>
      </trkpt>
      <trkpt lat="50.93408" lon="2.52575">
        <ele>23</ele>
        <time>2019-05-06T12:49:01Z</time>
      </trkpt>
      <trkpt lat="50.93418" lon="2.52574">
        <ele>23</ele>
        <time>2019-05-06T12:49:06Z</time>
      </trkpt>
      <trkpt lat="50.93419" lon="2.52574">
        <ele>23</ele>
        <time>2019-05-06T12:49:07Z</time>
      </trkpt>
      <trkpt lat="50.93421" lon="2.52574">
        <ele>23</ele>
        <time>2019-05-06T12:49:08Z</time>
      </trkpt>
      <trkpt lat="50.93423" lon="2.52574">
        <ele>24</ele>
        <time>2019-05-06T12:49:09Z</time>
      </trkpt>
      <trkpt lat="50.93425" lon="2.52574">
        <ele>23</ele>
        <time>2019-05-06T12:49:10Z</time>
      </trkpt>
      <trkpt lat="50.93445" lon="2.52582">
        <ele>24</ele>
        <time>2019-05-06T12:49:19Z</time>
      </trkpt>
      <trkpt lat="50.93463" lon="2.52589">
        <ele>24</ele>
        <time>2019-05-06T12:49:27Z</time>
      </trkpt>
      <trkpt lat="50.9348" lon="2.52602">
        <ele>24</ele>
        <time>2019-05-06T12:49:36Z</time>
      </trkpt>
      <trkpt lat="50.93495" lon="2.52616">
        <ele>23</ele>
        <time>2019-05-06T12:49:45Z</time>
      </trkpt>
      <trkpt lat="50.93509" lon="2.52629">
        <ele>24</ele>
        <time>2019-05-06T12:49:54Z</time>
      </trkpt>
      <trkpt lat="50.93525" lon="2.52641">
        <ele>24</ele>
        <time>2019-05-06T12:50:03Z</time>
      </trkpt>
      <trkpt lat="50.93542" lon="2.52655">
        <ele>24</ele>
        <time>2019-05-06T12:50:12Z</time>
      </trkpt>
      <trkpt lat="50.93558" lon="2.52674">
        <ele>24</ele>
        <time>2019-05-06T12:50:21Z</time>
      </trkpt>
      <trkpt lat="50.93571" lon="2.52697">
        <ele>25</ele>
        <time>2019-05-06T12:50:30Z</time>
      </trkpt>
      <trkpt lat="50.93583" lon="2.52717">
        <ele>24</ele>
        <time>2019-05-06T12:50:39Z</time>
      </trkpt>
      <trkpt lat="50.93595" lon="2.52738">
        <ele>24</ele>
        <time>2019-05-06T12:50:48Z</time>
      </trkpt>
      <trkpt lat="50.93607" lon="2.5276">
        <ele>23</ele>
        <time>2019-05-06T12:50:57Z</time>
      </trkpt>
      <trkpt lat="50.93628" lon="2.52787">
        <ele>23</ele>
        <time>2019-05-06T12:51:09Z</time>
      </trkpt>
      <trkpt lat="50.93646" lon="2.52802">
        <ele>22</ele>
        <time>2019-05-06T12:51:18Z</time>
      </trkpt>
      <trkpt lat="50.93663" lon="2.5281">
        <ele>22</ele>
        <time>2019-05-06T12:51:26Z</time>
      </trkpt>
      <trkpt lat="50.9368" lon="2.52821">
        <ele>22</ele>
        <time>2019-05-06T12:51:34Z</time>
      </trkpt>
      <trkpt lat="50.93696" lon="2.52831">
        <ele>22</ele>
        <time>2019-05-06T12:51:42Z</time>
      </trkpt>
      <trkpt lat="50.93711" lon="2.52841">
        <ele>21</ele>
        <time>2019-05-06T12:51:50Z</time>
      </trkpt>
      <trkpt lat="50.93727" lon="2.5285">
        <ele>22</ele>
        <time>2019-05-06T12:52:00Z</time>
      </trkpt>
      <trkpt lat="50.93744" lon="2.52859">
        <ele>22</ele>
        <time>2019-05-06T12:52:09Z</time>
      </trkpt>
      <trkpt lat="50.9376" lon="2.52873">
        <ele>22</ele>
        <time>2019-05-06T12:52:18Z</time>
      </trkpt>
      <trkpt lat="50.93776" lon="2.52892">
        <ele>22</ele>
        <time>2019-05-06T12:52:27Z</time>
      </trkpt>
      <trkpt lat="50.93789" lon="2.52912">
        <ele>23</ele>
        <time>2019-05-06T12:52:36Z</time>
      </trkpt>
      <trkpt lat="50.93793" lon="2.52926">
        <ele>22</ele>
        <time>2019-05-06T12:52:41Z</time>
      </trkpt>
      <trkpt lat="50.93793" lon="2.52928">
        <ele>23</ele>
        <time>2019-05-06T12:52:42Z</time>
      </trkpt>
      <trkpt lat="50.938" lon="2.52953">
        <ele>22</ele>
        <time>2019-05-06T12:52:51Z</time>
      </trkpt>
      <trkpt lat="50.938" lon="2.52957">
        <ele>22</ele>
        <time>2019-05-06T12:52:52Z</time>
      </trkpt>
      <trkpt lat="50.93803" lon="2.52991">
        <ele>22</ele>
        <time>2019-05-06T12:53:02Z</time>
      </trkpt>
      <trkpt lat="50.93805" lon="2.53027">
        <ele>22</ele>
        <time>2019-05-06T12:53:12Z</time>
      </trkpt>
      <trkpt lat="50.93809" lon="2.53059">
        <ele>22</ele>
        <time>2019-05-06T12:53:21Z</time>
      </trkpt>
      <trkpt lat="50.93811" lon="2.5309">
        <ele>22</ele>
        <time>2019-05-06T12:53:30Z</time>
      </trkpt>
      <trkpt lat="50.93812" lon="2.53093">
        <ele>21</ele>
        <time>2019-05-06T12:53:31Z</time>
      </trkpt>
      <trkpt lat="50.93812" lon="2.53096">
        <ele>21</ele>
        <time>2019-05-06T12:53:32Z</time>
      </trkpt>
      <trkpt lat="50.93812" lon="2.531">
        <ele>21</ele>
        <time>2019-05-06T12:53:33Z</time>
      </trkpt>
      <trkpt lat="50.93812" lon="2.53104">
        <ele>22</ele>
        <time>2019-05-06T12:53:34Z</time>
      </trkpt>
      <trkpt lat="50.93812" lon="2.53107">
        <ele>22</ele>
        <time>2019-05-06T12:53:35Z</time>
      </trkpt>
      <trkpt lat="50.93816" lon="2.53139">
        <ele>22</ele>
        <time>2019-05-06T12:53:44Z</time>
      </trkpt>
      <trkpt lat="50.93816" lon="2.53142">
        <ele>22</ele>
        <time>2019-05-06T12:53:45Z</time>
      </trkpt>
      <trkpt lat="50.93816" lon="2.53174">
        <ele>22</ele>
        <time>2019-05-06T12:53:54Z</time>
      </trkpt>
      <trkpt lat="50.93817" lon="2.53203">
        <ele>22</ele>
        <time>2019-05-06T12:54:02Z</time>
      </trkpt>
      <trkpt lat="50.9382" lon="2.53233">
        <ele>22</ele>
        <time>2019-05-06T12:54:11Z</time>
      </trkpt>
      <trkpt lat="50.93824" lon="2.53261">
        <ele>22</ele>
        <time>2019-05-06T12:54:20Z</time>
      </trkpt>
      <trkpt lat="50.93826" lon="2.53291">
        <ele>22</ele>
        <time>2019-05-06T12:54:29Z</time>
      </trkpt>
      <trkpt lat="50.93828" lon="2.53299">
        <ele>22</ele>
        <time>2019-05-06T12:54:32Z</time>
      </trkpt>
      <trkpt lat="50.93828" lon="2.53332">
        <ele>22</ele>
        <time>2019-05-06T12:54:42Z</time>
      </trkpt>
      <trkpt lat="50.93827" lon="2.53362">
        <ele>21</ele>
        <time>2019-05-06T12:54:51Z</time>
      </trkpt>
      <trkpt lat="50.93827" lon="2.53366">
        <ele>22</ele>
        <time>2019-05-06T12:54:52Z</time>
      </trkpt>
      <trkpt lat="50.93827" lon="2.53369">
        <ele>22</ele>
        <time>2019-05-06T12:54:53Z</time>
      </trkpt>
      <trkpt lat="50.93826" lon="2.53372">
        <ele>22</ele>
        <time>2019-05-06T12:54:54Z</time>
      </trkpt>
      <trkpt lat="50.93826" lon="2.53376">
        <ele>22</ele>
        <time>2019-05-06T12:54:55Z</time>
      </trkpt>
      <trkpt lat="50.93826" lon="2.53379">
        <ele>22</ele>
        <time>2019-05-06T12:54:56Z</time>
      </trkpt>
      <trkpt lat="50.93826" lon="2.53383">
        <ele>22</ele>
        <time>2019-05-06T12:54:57Z</time>
      </trkpt>
      <trkpt lat="50.93821" lon="2.53414">
        <ele>22</ele>
        <time>2019-05-06T12:55:05Z</time>
      </trkpt>
      <trkpt lat="50.93814" lon="2.53443">
        <ele>21</ele>
        <time>2019-05-06T12:55:13Z</time>
      </trkpt>
      <trkpt lat="50.93804" lon="2.53471">
        <ele>21</ele>
        <time>2019-05-06T12:55:21Z</time>
      </trkpt>
      <trkpt lat="50.93796" lon="2.53499">
        <ele>21</ele>
        <time>2019-05-06T12:55:29Z</time>
      </trkpt>
      <trkpt lat="50.93783" lon="2.53521">
        <ele>21</ele>
        <time>2019-05-06T12:55:37Z</time>
      </trkpt>
      <trkpt lat="50.93771" lon="2.53542">
        <ele>21</ele>
        <time>2019-05-06T12:55:45Z</time>
      </trkpt>
      <trkpt lat="50.93762" lon="2.53564">
        <ele>21</ele>
        <time>2019-05-06T12:55:53Z</time>
      </trkpt>
      <trkpt lat="50.93758" lon="2.53591">
        <ele>21</ele>
        <time>2019-05-06T12:56:02Z</time>
      </trkpt>
      <trkpt lat="50.93757" lon="2.53597">
        <ele>21</ele>
        <time>2019-05-06T12:56:04Z</time>
      </trkpt>
      <trkpt lat="50.93757" lon="2.536">
        <ele>21</ele>
        <time>2019-05-06T12:56:05Z</time>
      </trkpt>
      <trkpt lat="50.93758" lon="2.53603">
        <ele>20</ele>
        <time>2019-05-06T12:56:06Z</time>
      </trkpt>
      <trkpt lat="50.93759" lon="2.53605">
        <ele>20</ele>
        <time>2019-05-06T12:56:07Z</time>
      </trkpt>
      <trkpt lat="50.9376" lon="2.53608">
        <ele>20</ele>
        <time>2019-05-06T12:56:08Z</time>
      </trkpt>
      <trkpt lat="50.9376" lon="2.53611">
        <ele>20</ele>
        <time>2019-05-06T12:56:09Z</time>
      </trkpt>
      <trkpt lat="50.93761" lon="2.53614">
        <ele>20</ele>
        <time>2019-05-06T12:56:10Z</time>
      </trkpt>
      <trkpt lat="50.93774" lon="2.53639">
        <ele>20</ele>
        <time>2019-05-06T12:56:19Z</time>
      </trkpt>
      <trkpt lat="50.93782" lon="2.53663">
        <ele>21</ele>
        <time>2019-05-06T12:56:28Z</time>
      </trkpt>
      <trkpt lat="50.93793" lon="2.5368">
        <ele>20</ele>
        <time>2019-05-06T12:56:36Z</time>
      </trkpt>
      <trkpt lat="50.93795" lon="2.5368">
        <ele>20</ele>
        <time>2019-05-06T12:56:37Z</time>
      </trkpt>
      <trkpt lat="50.93796" lon="2.53679">
        <ele>20</ele>
        <time>2019-05-06T12:56:38Z</time>
      </trkpt>
      <trkpt lat="50.93798" lon="2.53677">
        <ele>21</ele>
        <time>2019-05-06T12:56:39Z</time>
      </trkpt>
      <trkpt lat="50.938" lon="2.53675">
        <ele>21</ele>
        <time>2019-05-06T12:56:40Z</time>
      </trkpt>
      <trkpt lat="50.93801" lon="2.53673">
        <ele>21</ele>
        <time>2019-05-06T12:56:41Z</time>
      </trkpt>
      <trkpt lat="50.93814" lon="2.5365">
        <ele>21</ele>
        <time>2019-05-06T12:56:51Z</time>
      </trkpt>
      <trkpt lat="50.93815" lon="2.53648">
        <ele>21</ele>
        <time>2019-05-06T12:56:52Z</time>
      </trkpt>
      <trkpt lat="50.93817" lon="2.53646">
        <ele>21</ele>
        <time>2019-05-06T12:56:53Z</time>
      </trkpt>
      <trkpt lat="50.93818" lon="2.53643">
        <ele>21</ele>
        <time>2019-05-06T12:56:54Z</time>
      </trkpt>
      <trkpt lat="50.93819" lon="2.53641">
        <ele>21</ele>
        <time>2019-05-06T12:56:55Z</time>
      </trkpt>
      <trkpt lat="50.93821" lon="2.53639">
        <ele>20</ele>
        <time>2019-05-06T12:56:56Z</time>
      </trkpt>
      <trkpt lat="50.93822" lon="2.53637">
        <ele>20</ele>
        <time>2019-05-06T12:56:57Z</time>
      </trkpt>
      <trkpt lat="50.93828" lon="2.53627">
        <ele>21</ele>
        <time>2019-05-06T12:57:01Z</time>
      </trkpt>
      <trkpt lat="50.9383" lon="2.53625">
        <ele>21</ele>
        <time>2019-05-06T12:57:02Z</time>
      </trkpt>
      <trkpt lat="50.93831" lon="2.53623">
        <ele>21</ele>
        <time>2019-05-06T12:57:03Z</time>
      </trkpt>
      <trkpt lat="50.93837" lon="2.53618">
        <ele>21</ele>
        <time>2019-05-06T12:57:06Z</time>
      </trkpt>
      <trkpt lat="50.93838" lon="2.53617">
        <ele>21</ele>
        <time>2019-05-06T12:57:07Z</time>
      </trkpt>
      <trkpt lat="50.9384" lon="2.53615">
        <ele>21</ele>
        <time>2019-05-06T12:57:08Z</time>
      </trkpt>
      <trkpt lat="50.93842" lon="2.53613">
        <ele>21</ele>
        <time>2019-05-06T12:57:09Z</time>
      </trkpt>
      <trkpt lat="50.93844" lon="2.53611">
        <ele>21</ele>
        <time>2019-05-06T12:57:10Z</time>
      </trkpt>
      <trkpt lat="50.93845" lon="2.53609">
        <ele>21</ele>
        <time>2019-05-06T12:57:11Z</time>
      </trkpt>
      <trkpt lat="50.93847" lon="2.53607">
        <ele>21</ele>
        <time>2019-05-06T12:57:12Z</time>
      </trkpt>
      <trkpt lat="50.93848" lon="2.53605">
        <ele>21</ele>
        <time>2019-05-06T12:57:13Z</time>
      </trkpt>
      <trkpt lat="50.93849" lon="2.53602">
        <ele>21</ele>
        <time>2019-05-06T12:57:14Z</time>
      </trkpt>
      <trkpt lat="50.93851" lon="2.53601">
        <ele>20</ele>
        <time>2019-05-06T12:57:15Z</time>
      </trkpt>
      <trkpt lat="50.93853" lon="2.536">
        <ele>20</ele>
        <time>2019-05-06T12:57:16Z</time>
      </trkpt>
      <trkpt lat="50.9387" lon="2.53585">
        <ele>21</ele>
        <time>2019-05-06T12:57:25Z</time>
      </trkpt>
      <trkpt lat="50.93887" lon="2.53571">
        <ele>21</ele>
        <time>2019-05-06T12:57:34Z</time>
      </trkpt>
      <trkpt lat="50.93902" lon="2.53553">
        <ele>21</ele>
        <time>2019-05-06T12:57:43Z</time>
      </trkpt>
      <trkpt lat="50.9392" lon="2.53537">
        <ele>21</ele>
        <time>2019-05-06T12:57:52Z</time>
      </trkpt>
      <trkpt lat="50.93938" lon="2.53523">
        <ele>20</ele>
        <time>2019-05-06T12:58:01Z</time>
      </trkpt>
      <trkpt lat="50.93963" lon="2.53532">
        <ele>21</ele>
        <time>2019-05-06T12:58:10Z</time>
      </trkpt>
      <trkpt lat="50.93981" lon="2.53545">
        <ele>22</ele>
        <time>2019-05-06T12:58:18Z</time>
      </trkpt>
      <trkpt lat="50.93998" lon="2.53543">
        <ele>21</ele>
        <time>2019-05-06T12:58:26Z</time>
      </trkpt>
      <trkpt lat="50.94013" lon="2.53524">
        <ele>21</ele>
        <time>2019-05-06T12:58:35Z</time>
      </trkpt>
      <trkpt lat="50.94019" lon="2.53518">
        <ele>21</ele>
        <time>2019-05-06T12:58:42Z</time>
      </trkpt>
      <trkpt lat="50.94033" lon="2.535">
        <ele>22</ele>
        <time>2019-05-06T12:58:52Z</time>
      </trkpt>
      <trkpt lat="50.94035" lon="2.53498">
        <ele>22</ele>
        <time>2019-05-06T12:58:53Z</time>
      </trkpt>
      <trkpt lat="50.94037" lon="2.53496">
        <ele>22</ele>
        <time>2019-05-06T12:58:54Z</time>
      </trkpt>
      <trkpt lat="50.9404" lon="2.53495">
        <ele>22</ele>
        <time>2019-05-06T12:58:55Z</time>
      </trkpt>
      <trkpt lat="50.94042" lon="2.53493">
        <ele>22</ele>
        <time>2019-05-06T12:58:56Z</time>
      </trkpt>
      <trkpt lat="50.94044" lon="2.53492">
        <ele>22</ele>
        <time>2019-05-06T12:58:57Z</time>
      </trkpt>
      <trkpt lat="50.94045" lon="2.53489">
        <ele>22</ele>
        <time>2019-05-06T12:58:58Z</time>
      </trkpt>
      <trkpt lat="50.94047" lon="2.53487">
        <ele>22</ele>
        <time>2019-05-06T12:58:59Z</time>
      </trkpt>
      <trkpt lat="50.94063" lon="2.53469">
        <ele>21</ele>
        <time>2019-05-06T12:59:07Z</time>
      </trkpt>
      <trkpt lat="50.94076" lon="2.53447">
        <ele>22</ele>
        <time>2019-05-06T12:59:16Z</time>
      </trkpt>
      <trkpt lat="50.94078" lon="2.53445">
        <ele>22</ele>
        <time>2019-05-06T12:59:17Z</time>
      </trkpt>
      <trkpt lat="50.9408" lon="2.53442">
        <ele>21</ele>
        <time>2019-05-06T12:59:18Z</time>
      </trkpt>
    </trkseg>
  </trk>
</gpx>